<?xml version="1.0" encoding="UTF-8" standalone="no" ?>
<gpx xmlns="http://www.topografix.com/GPX/1/1" xmlns:xsi="http://www.w3.org/2001/XMLSchema-instance" xsi:schemaLocation="http://www.topografix.com/GPX/1/1 http://www.topografix.com/GPX/1/1/gpx.xsd" version="1.1" creator="VisuGPX - https://www.visugpx.com">
  <metadata>
    <name>21 km Boucle depuis la gare de Thomery</name>
    <desc><![CDATA[Gare de Thomery
Plaine de Sorques
Moret sur Loing
Gare de Thomery]]></desc>
  </metadata>
  <trk>
    <name><![CDATA[11-MAI-24 17:31:46]]></name>
    <trkseg>
      <trkpt lat="48.39453" lon="2.76404">
        <ele>87</ele>
        <time>2024-05-11T09:03:50Z</time>
      </trkpt>
      <trkpt lat="48.39453" lon="2.76404">
        <ele>87</ele>
        <time>2024-05-11T09:03:52Z</time>
      </trkpt>
      <trkpt lat="48.39454" lon="2.76404">
        <ele>87</ele>
        <time>2024-05-11T09:03:55Z</time>
      </trkpt>
      <trkpt lat="48.39457" lon="2.76403">
        <ele>87</ele>
        <time>2024-05-11T09:03:57Z</time>
      </trkpt>
      <trkpt lat="48.39458" lon="2.76402">
        <ele>87</ele>
        <time>2024-05-11T09:03:58Z</time>
      </trkpt>
      <trkpt lat="48.39458" lon="2.76402">
        <ele>87</ele>
        <time>2024-05-11T09:03:59Z</time>
      </trkpt>
      <trkpt lat="48.3946" lon="2.76403">
        <ele>87</ele>
        <time>2024-05-11T09:04:02Z</time>
      </trkpt>
      <trkpt lat="48.3946" lon="2.76404">
        <ele>87</ele>
        <time>2024-05-11T09:04:05Z</time>
      </trkpt>
      <trkpt lat="48.39462" lon="2.76405">
        <ele>87</ele>
        <time>2024-05-11T09:04:09Z</time>
      </trkpt>
      <trkpt lat="48.39462" lon="2.76406">
        <ele>87</ele>
        <time>2024-05-11T09:04:10Z</time>
      </trkpt>
      <trkpt lat="48.39465" lon="2.76407">
        <ele>87</ele>
        <time>2024-05-11T09:04:14Z</time>
      </trkpt>
      <trkpt lat="48.39468" lon="2.76406">
        <ele>87</ele>
        <time>2024-05-11T09:04:20Z</time>
      </trkpt>
      <trkpt lat="48.39471" lon="2.76403">
        <ele>87</ele>
        <time>2024-05-11T09:04:25Z</time>
      </trkpt>
      <trkpt lat="48.39476" lon="2.764">
        <ele>87</ele>
        <time>2024-05-11T09:04:31Z</time>
      </trkpt>
      <trkpt lat="48.39481" lon="2.76398">
        <ele>87</ele>
        <time>2024-05-11T09:04:36Z</time>
      </trkpt>
      <trkpt lat="48.39482" lon="2.76398">
        <ele>87</ele>
        <time>2024-05-11T09:04:38Z</time>
      </trkpt>
      <trkpt lat="48.39484" lon="2.76398">
        <ele>87</ele>
        <time>2024-05-11T09:04:40Z</time>
      </trkpt>
      <trkpt lat="48.39491" lon="2.76398">
        <ele>87</ele>
        <time>2024-05-11T09:04:46Z</time>
      </trkpt>
      <trkpt lat="48.39497" lon="2.76397">
        <ele>87</ele>
        <time>2024-05-11T09:04:53Z</time>
      </trkpt>
      <trkpt lat="48.39504" lon="2.76398">
        <ele>86.9</ele>
        <time>2024-05-11T09:05:00Z</time>
      </trkpt>
      <trkpt lat="48.39511" lon="2.76398">
        <ele>86.6</ele>
        <time>2024-05-11T09:05:07Z</time>
      </trkpt>
      <trkpt lat="48.39517" lon="2.76396">
        <ele>86.4</ele>
        <time>2024-05-11T09:05:14Z</time>
      </trkpt>
      <trkpt lat="48.39522" lon="2.76396">
        <ele>86.2</ele>
        <time>2024-05-11T09:05:20Z</time>
      </trkpt>
      <trkpt lat="48.39528" lon="2.764">
        <ele>86</ele>
        <time>2024-05-11T09:05:26Z</time>
      </trkpt>
      <trkpt lat="48.39534" lon="2.76399">
        <ele>86</ele>
        <time>2024-05-11T09:05:32Z</time>
      </trkpt>
      <trkpt lat="48.39541" lon="2.76398">
        <ele>86</ele>
        <time>2024-05-11T09:05:39Z</time>
      </trkpt>
      <trkpt lat="48.39547" lon="2.764">
        <ele>86</ele>
        <time>2024-05-11T09:05:45Z</time>
      </trkpt>
      <trkpt lat="48.39556" lon="2.764">
        <ele>86</ele>
        <time>2024-05-11T09:05:52Z</time>
      </trkpt>
      <trkpt lat="48.39567" lon="2.76401">
        <ele>86</ele>
        <time>2024-05-11T09:06:00Z</time>
      </trkpt>
      <trkpt lat="48.39575" lon="2.76399">
        <ele>86</ele>
        <time>2024-05-11T09:06:06Z</time>
      </trkpt>
      <trkpt lat="48.3958" lon="2.76399">
        <ele>86</ele>
        <time>2024-05-11T09:06:08Z</time>
      </trkpt>
      <trkpt lat="48.39588" lon="2.76398">
        <ele>86</ele>
        <time>2024-05-11T09:06:16Z</time>
      </trkpt>
      <trkpt lat="48.39593" lon="2.76397">
        <ele>86</ele>
        <time>2024-05-11T09:06:21Z</time>
      </trkpt>
      <trkpt lat="48.39599" lon="2.76395">
        <ele>86</ele>
        <time>2024-05-11T09:06:28Z</time>
      </trkpt>
      <trkpt lat="48.39606" lon="2.76396">
        <ele>86</ele>
        <time>2024-05-11T09:06:33Z</time>
      </trkpt>
      <trkpt lat="48.39616" lon="2.76397">
        <ele>86</ele>
        <time>2024-05-11T09:06:40Z</time>
      </trkpt>
      <trkpt lat="48.39625" lon="2.76398">
        <ele>86.2</ele>
        <time>2024-05-11T09:06:47Z</time>
      </trkpt>
      <trkpt lat="48.3963" lon="2.76398">
        <ele>86.2</ele>
        <time>2024-05-11T09:06:51Z</time>
      </trkpt>
      <trkpt lat="48.39635" lon="2.76398">
        <ele>86.3</ele>
        <time>2024-05-11T09:06:56Z</time>
      </trkpt>
      <trkpt lat="48.3964" lon="2.76398">
        <ele>86.3</ele>
        <time>2024-05-11T09:07:01Z</time>
      </trkpt>
      <trkpt lat="48.39647" lon="2.76395">
        <ele>86.2</ele>
        <time>2024-05-11T09:07:08Z</time>
      </trkpt>
      <trkpt lat="48.39655" lon="2.76396">
        <ele>86.3</ele>
        <time>2024-05-11T09:07:15Z</time>
      </trkpt>
      <trkpt lat="48.39661" lon="2.76396">
        <ele>86.3</ele>
        <time>2024-05-11T09:07:20Z</time>
      </trkpt>
      <trkpt lat="48.39668" lon="2.76396">
        <ele>86.3</ele>
        <time>2024-05-11T09:07:27Z</time>
      </trkpt>
      <trkpt lat="48.39673" lon="2.76396">
        <ele>86.4</ele>
        <time>2024-05-11T09:07:32Z</time>
      </trkpt>
      <trkpt lat="48.39684" lon="2.76398">
        <ele>86.8</ele>
        <time>2024-05-11T09:07:39Z</time>
      </trkpt>
      <trkpt lat="48.39697" lon="2.764">
        <ele>87</ele>
        <time>2024-05-11T09:07:48Z</time>
      </trkpt>
      <trkpt lat="48.39699" lon="2.76401">
        <ele>87.1</ele>
        <time>2024-05-11T09:07:55Z</time>
      </trkpt>
      <trkpt lat="48.39707" lon="2.76398">
        <ele>87.3</ele>
        <time>2024-05-11T09:08:03Z</time>
      </trkpt>
      <trkpt lat="48.39708" lon="2.76398">
        <ele>87.3</ele>
        <time>2024-05-11T09:08:04Z</time>
      </trkpt>
      <trkpt lat="48.39709" lon="2.764">
        <ele>87.3</ele>
        <time>2024-05-11T09:08:10Z</time>
      </trkpt>
      <trkpt lat="48.3971" lon="2.76402">
        <ele>87.3</ele>
        <time>2024-05-11T09:08:16Z</time>
      </trkpt>
      <trkpt lat="48.39712" lon="2.76403">
        <ele>87.3</ele>
        <time>2024-05-11T09:08:29Z</time>
      </trkpt>
      <trkpt lat="48.39712" lon="2.764">
        <ele>87.4</ele>
        <time>2024-05-11T09:08:40Z</time>
      </trkpt>
      <trkpt lat="48.39713" lon="2.76399">
        <ele>87.4</ele>
        <time>2024-05-11T09:08:50Z</time>
      </trkpt>
      <trkpt lat="48.39713" lon="2.76399">
        <ele>87.4</ele>
        <time>2024-05-11T09:08:59Z</time>
      </trkpt>
      <trkpt lat="48.39709" lon="2.76397">
        <ele>87.4</ele>
        <time>2024-05-11T09:09:07Z</time>
      </trkpt>
      <trkpt lat="48.39705" lon="2.76398">
        <ele>87.2</ele>
        <time>2024-05-11T09:09:11Z</time>
      </trkpt>
      <trkpt lat="48.39703" lon="2.76399">
        <ele>87.2</ele>
        <time>2024-05-11T09:09:13Z</time>
      </trkpt>
      <trkpt lat="48.39695" lon="2.76397">
        <ele>87</ele>
        <time>2024-05-11T09:09:20Z</time>
      </trkpt>
      <trkpt lat="48.39692" lon="2.76397">
        <ele>86.9</ele>
        <time>2024-05-11T09:09:26Z</time>
      </trkpt>
      <trkpt lat="48.39686" lon="2.76397">
        <ele>86.8</ele>
        <time>2024-05-11T09:09:33Z</time>
      </trkpt>
      <trkpt lat="48.39682" lon="2.76399">
        <ele>86.7</ele>
        <time>2024-05-11T09:09:37Z</time>
      </trkpt>
      <trkpt lat="48.39676" lon="2.76398">
        <ele>86.6</ele>
        <time>2024-05-11T09:09:44Z</time>
      </trkpt>
      <trkpt lat="48.3967" lon="2.76399">
        <ele>86.5</ele>
        <time>2024-05-11T09:09:51Z</time>
      </trkpt>
      <trkpt lat="48.39666" lon="2.764">
        <ele>86.4</ele>
        <time>2024-05-11T09:09:54Z</time>
      </trkpt>
      <trkpt lat="48.39659" lon="2.76401">
        <ele>86.4</ele>
        <time>2024-05-11T09:10:02Z</time>
      </trkpt>
      <trkpt lat="48.39651" lon="2.76402">
        <ele>86.5</ele>
        <time>2024-05-11T09:10:09Z</time>
      </trkpt>
      <trkpt lat="48.39645" lon="2.76401">
        <ele>86.4</ele>
        <time>2024-05-11T09:10:14Z</time>
      </trkpt>
      <trkpt lat="48.39641" lon="2.76402">
        <ele>86.5</ele>
        <time>2024-05-11T09:10:16Z</time>
      </trkpt>
      <trkpt lat="48.39629" lon="2.76406">
        <ele>86.4</ele>
        <time>2024-05-11T09:10:24Z</time>
      </trkpt>
      <trkpt lat="48.39623" lon="2.76408">
        <ele>86.3</ele>
        <time>2024-05-11T09:10:32Z</time>
      </trkpt>
      <trkpt lat="48.39617" lon="2.76406">
        <ele>86.1</ele>
        <time>2024-05-11T09:10:37Z</time>
      </trkpt>
      <trkpt lat="48.39614" lon="2.76406">
        <ele>86.1</ele>
        <time>2024-05-11T09:10:40Z</time>
      </trkpt>
      <trkpt lat="48.3961" lon="2.76409">
        <ele>86</ele>
        <time>2024-05-11T09:10:43Z</time>
      </trkpt>
      <trkpt lat="48.39601" lon="2.7641">
        <ele>86</ele>
        <time>2024-05-11T09:10:50Z</time>
      </trkpt>
      <trkpt lat="48.39595" lon="2.76408">
        <ele>86</ele>
        <time>2024-05-11T09:10:55Z</time>
      </trkpt>
      <trkpt lat="48.39586" lon="2.7641">
        <ele>86</ele>
        <time>2024-05-11T09:11:04Z</time>
      </trkpt>
      <trkpt lat="48.39582" lon="2.76408">
        <ele>86</ele>
        <time>2024-05-11T09:11:12Z</time>
      </trkpt>
      <trkpt lat="48.3958" lon="2.76408">
        <ele>86</ele>
        <time>2024-05-11T09:11:14Z</time>
      </trkpt>
      <trkpt lat="48.39568" lon="2.7641">
        <ele>86</ele>
        <time>2024-05-11T09:11:23Z</time>
      </trkpt>
      <trkpt lat="48.39559" lon="2.76409">
        <ele>86</ele>
        <time>2024-05-11T09:11:30Z</time>
      </trkpt>
      <trkpt lat="48.39552" lon="2.7641">
        <ele>86</ele>
        <time>2024-05-11T09:11:36Z</time>
      </trkpt>
      <trkpt lat="48.39543" lon="2.76412">
        <ele>86</ele>
        <time>2024-05-11T09:11:44Z</time>
      </trkpt>
      <trkpt lat="48.39534" lon="2.7641">
        <ele>86</ele>
        <time>2024-05-11T09:11:53Z</time>
      </trkpt>
      <trkpt lat="48.3953" lon="2.7641">
        <ele>86</ele>
        <time>2024-05-11T09:12:01Z</time>
      </trkpt>
      <trkpt lat="48.39522" lon="2.76408">
        <ele>86.2</ele>
        <time>2024-05-11T09:12:07Z</time>
      </trkpt>
      <trkpt lat="48.39512" lon="2.76406">
        <ele>86.6</ele>
        <time>2024-05-11T09:12:15Z</time>
      </trkpt>
      <trkpt lat="48.39504" lon="2.76407">
        <ele>86.8</ele>
        <time>2024-05-11T09:12:22Z</time>
      </trkpt>
      <trkpt lat="48.39497" lon="2.76408">
        <ele>87</ele>
        <time>2024-05-11T09:12:27Z</time>
      </trkpt>
      <trkpt lat="48.39492" lon="2.76409">
        <ele>87</ele>
        <time>2024-05-11T09:12:29Z</time>
      </trkpt>
      <trkpt lat="48.39479" lon="2.76409">
        <ele>87</ele>
        <time>2024-05-11T09:12:35Z</time>
      </trkpt>
      <trkpt lat="48.39476" lon="2.76409">
        <ele>87</ele>
        <time>2024-05-11T09:12:37Z</time>
      </trkpt>
      <trkpt lat="48.39468" lon="2.76404">
        <ele>87</ele>
        <time>2024-05-11T09:12:43Z</time>
      </trkpt>
      <trkpt lat="48.39467" lon="2.76402">
        <ele>87</ele>
        <time>2024-05-11T09:12:45Z</time>
      </trkpt>
      <trkpt lat="48.39462" lon="2.76391">
        <ele>87</ele>
        <time>2024-05-11T09:12:53Z</time>
      </trkpt>
      <trkpt lat="48.39457" lon="2.76388">
        <ele>87</ele>
        <time>2024-05-11T09:12:59Z</time>
      </trkpt>
      <trkpt lat="48.39454" lon="2.76386">
        <ele>87</ele>
        <time>2024-05-11T09:13:05Z</time>
      </trkpt>
      <trkpt lat="48.39427" lon="2.76383">
        <ele>87</ele>
        <time>2024-05-11T09:13:29Z</time>
      </trkpt>
      <trkpt lat="48.39423" lon="2.76382">
        <ele>87</ele>
        <time>2024-05-11T09:13:31Z</time>
      </trkpt>
      <trkpt lat="48.39419" lon="2.76388">
        <ele>87</ele>
        <time>2024-05-11T09:13:38Z</time>
      </trkpt>
      <trkpt lat="48.39416" lon="2.76392">
        <ele>87</ele>
        <time>2024-05-11T09:13:44Z</time>
      </trkpt>
      <trkpt lat="48.39411" lon="2.76399">
        <ele>86.9</ele>
        <time>2024-05-11T09:13:54Z</time>
      </trkpt>
      <trkpt lat="48.39408" lon="2.764">
        <ele>86.8</ele>
        <time>2024-05-11T09:14:02Z</time>
      </trkpt>
      <trkpt lat="48.39407" lon="2.764">
        <ele>86.8</ele>
        <time>2024-05-11T09:14:04Z</time>
      </trkpt>
      <trkpt lat="48.39399" lon="2.76402">
        <ele>86.7</ele>
        <time>2024-05-11T09:14:11Z</time>
      </trkpt>
      <trkpt lat="48.39396" lon="2.76404">
        <ele>86.7</ele>
        <time>2024-05-11T09:14:17Z</time>
      </trkpt>
      <trkpt lat="48.39391" lon="2.76405">
        <ele>86.6</ele>
        <time>2024-05-11T09:14:24Z</time>
      </trkpt>
      <trkpt lat="48.39384" lon="2.76405">
        <ele>86.6</ele>
        <time>2024-05-11T09:14:29Z</time>
      </trkpt>
      <trkpt lat="48.39375" lon="2.76405">
        <ele>86.6</ele>
        <time>2024-05-11T09:14:36Z</time>
      </trkpt>
      <trkpt lat="48.39369" lon="2.76406">
        <ele>86.6</ele>
        <time>2024-05-11T09:14:42Z</time>
      </trkpt>
      <trkpt lat="48.39361" lon="2.76406">
        <ele>86.6</ele>
        <time>2024-05-11T09:14:48Z</time>
      </trkpt>
      <trkpt lat="48.39359" lon="2.76406">
        <ele>86.7</ele>
        <time>2024-05-11T09:14:52Z</time>
      </trkpt>
      <trkpt lat="48.39351" lon="2.76405">
        <ele>86.7</ele>
        <time>2024-05-11T09:14:59Z</time>
      </trkpt>
      <trkpt lat="48.39347" lon="2.76406">
        <ele>86.8</ele>
        <time>2024-05-11T09:15:04Z</time>
      </trkpt>
      <trkpt lat="48.39343" lon="2.76407">
        <ele>86.9</ele>
        <time>2024-05-11T09:15:11Z</time>
      </trkpt>
      <trkpt lat="48.39334" lon="2.76408">
        <ele>87</ele>
        <time>2024-05-11T09:15:18Z</time>
      </trkpt>
      <trkpt lat="48.39325" lon="2.76407">
        <ele>87</ele>
        <time>2024-05-11T09:15:26Z</time>
      </trkpt>
      <trkpt lat="48.39317" lon="2.76406">
        <ele>87</ele>
        <time>2024-05-11T09:15:32Z</time>
      </trkpt>
      <trkpt lat="48.3931" lon="2.76405">
        <ele>87</ele>
        <time>2024-05-11T09:15:38Z</time>
      </trkpt>
      <trkpt lat="48.39303" lon="2.76403">
        <ele>87</ele>
        <time>2024-05-11T09:15:43Z</time>
      </trkpt>
      <trkpt lat="48.39296" lon="2.76403">
        <ele>87</ele>
        <time>2024-05-11T09:15:48Z</time>
      </trkpt>
      <trkpt lat="48.39288" lon="2.76406">
        <ele>87</ele>
        <time>2024-05-11T09:15:54Z</time>
      </trkpt>
      <trkpt lat="48.39281" lon="2.76409">
        <ele>87</ele>
        <time>2024-05-11T09:16:01Z</time>
      </trkpt>
      <trkpt lat="48.3927" lon="2.76411">
        <ele>87</ele>
        <time>2024-05-11T09:16:09Z</time>
      </trkpt>
      <trkpt lat="48.39267" lon="2.76407">
        <ele>87</ele>
        <time>2024-05-11T09:16:15Z</time>
      </trkpt>
      <trkpt lat="48.39265" lon="2.76406">
        <ele>87</ele>
        <time>2024-05-11T09:16:22Z</time>
      </trkpt>
      <trkpt lat="48.39254" lon="2.76405">
        <ele>87</ele>
        <time>2024-05-11T09:16:28Z</time>
      </trkpt>
      <trkpt lat="48.3925" lon="2.76403">
        <ele>87</ele>
        <time>2024-05-11T09:16:33Z</time>
      </trkpt>
      <trkpt lat="48.3924" lon="2.76407">
        <ele>87.1</ele>
        <time>2024-05-11T09:16:39Z</time>
      </trkpt>
      <trkpt lat="48.39229" lon="2.7641">
        <ele>87.2</ele>
        <time>2024-05-11T09:16:45Z</time>
      </trkpt>
      <trkpt lat="48.39222" lon="2.76411">
        <ele>87.2</ele>
        <time>2024-05-11T09:16:51Z</time>
      </trkpt>
      <trkpt lat="48.39212" lon="2.76413">
        <ele>87.4</ele>
        <time>2024-05-11T09:17:00Z</time>
      </trkpt>
      <trkpt lat="48.39208" lon="2.76412">
        <ele>87.6</ele>
        <time>2024-05-11T09:17:06Z</time>
      </trkpt>
      <trkpt lat="48.39201" lon="2.76414">
        <ele>87.8</ele>
        <time>2024-05-11T09:17:13Z</time>
      </trkpt>
      <trkpt lat="48.39195" lon="2.76416">
        <ele>88</ele>
        <time>2024-05-11T09:17:17Z</time>
      </trkpt>
      <trkpt lat="48.39186" lon="2.76412">
        <ele>87.7</ele>
        <time>2024-05-11T09:17:21Z</time>
      </trkpt>
      <trkpt lat="48.39181" lon="2.76411">
        <ele>87.6</ele>
        <time>2024-05-11T09:17:23Z</time>
      </trkpt>
      <trkpt lat="48.39168" lon="2.76411">
        <ele>87.3</ele>
        <time>2024-05-11T09:17:31Z</time>
      </trkpt>
      <trkpt lat="48.39162" lon="2.76412">
        <ele>87.3</ele>
        <time>2024-05-11T09:17:38Z</time>
      </trkpt>
      <trkpt lat="48.39159" lon="2.76412">
        <ele>87.4</ele>
        <time>2024-05-11T09:17:42Z</time>
      </trkpt>
      <trkpt lat="48.39154" lon="2.76414">
        <ele>87.5</ele>
        <time>2024-05-11T09:17:47Z</time>
      </trkpt>
      <trkpt lat="48.39145" lon="2.76416">
        <ele>87.8</ele>
        <time>2024-05-11T09:17:56Z</time>
      </trkpt>
      <trkpt lat="48.3914" lon="2.76417">
        <ele>88</ele>
        <time>2024-05-11T09:18:03Z</time>
      </trkpt>
      <trkpt lat="48.39132" lon="2.76417">
        <ele>88</ele>
        <time>2024-05-11T09:18:10Z</time>
      </trkpt>
      <trkpt lat="48.39121" lon="2.76415">
        <ele>88</ele>
        <time>2024-05-11T09:18:18Z</time>
      </trkpt>
      <trkpt lat="48.39113" lon="2.76415">
        <ele>88</ele>
        <time>2024-05-11T09:18:26Z</time>
      </trkpt>
      <trkpt lat="48.3911" lon="2.76414">
        <ele>88</ele>
        <time>2024-05-11T09:18:29Z</time>
      </trkpt>
      <trkpt lat="48.39098" lon="2.76416">
        <ele>87.5</ele>
        <time>2024-05-11T09:18:37Z</time>
      </trkpt>
      <trkpt lat="48.39093" lon="2.76415">
        <ele>87.4</ele>
        <time>2024-05-11T09:18:44Z</time>
      </trkpt>
      <trkpt lat="48.39083" lon="2.76419">
        <ele>87.1</ele>
        <time>2024-05-11T09:18:53Z</time>
      </trkpt>
      <trkpt lat="48.39083" lon="2.76419">
        <ele>87.1</ele>
        <time>2024-05-11T09:18:54Z</time>
      </trkpt>
      <trkpt lat="48.39075" lon="2.7642">
        <ele>87.4</ele>
        <time>2024-05-11T09:19:01Z</time>
      </trkpt>
      <trkpt lat="48.39071" lon="2.7642">
        <ele>87.5</ele>
        <time>2024-05-11T09:19:05Z</time>
      </trkpt>
      <trkpt lat="48.39064" lon="2.76421">
        <ele>87.7</ele>
        <time>2024-05-11T09:19:13Z</time>
      </trkpt>
      <trkpt lat="48.39056" lon="2.76418">
        <ele>88</ele>
        <time>2024-05-11T09:19:21Z</time>
      </trkpt>
      <trkpt lat="48.39048" lon="2.76418">
        <ele>88</ele>
        <time>2024-05-11T09:19:29Z</time>
      </trkpt>
      <trkpt lat="48.39046" lon="2.76418">
        <ele>88</ele>
        <time>2024-05-11T09:19:35Z</time>
      </trkpt>
      <trkpt lat="48.39042" lon="2.76419">
        <ele>88</ele>
        <time>2024-05-11T09:19:38Z</time>
      </trkpt>
      <trkpt lat="48.39032" lon="2.76424">
        <ele>88</ele>
        <time>2024-05-11T09:19:45Z</time>
      </trkpt>
      <trkpt lat="48.39023" lon="2.76429">
        <ele>88</ele>
        <time>2024-05-11T09:19:52Z</time>
      </trkpt>
      <trkpt lat="48.39016" lon="2.7643">
        <ele>88</ele>
        <time>2024-05-11T09:19:59Z</time>
      </trkpt>
      <trkpt lat="48.39012" lon="2.76432">
        <ele>88</ele>
        <time>2024-05-11T09:20:02Z</time>
      </trkpt>
      <trkpt lat="48.39006" lon="2.76435">
        <ele>88</ele>
        <time>2024-05-11T09:20:06Z</time>
      </trkpt>
      <trkpt lat="48.39002" lon="2.76436">
        <ele>88</ele>
        <time>2024-05-11T09:20:08Z</time>
      </trkpt>
      <trkpt lat="48.38993" lon="2.76436">
        <ele>88.2</ele>
        <time>2024-05-11T09:20:15Z</time>
      </trkpt>
      <trkpt lat="48.38988" lon="2.76438">
        <ele>88.4</ele>
        <time>2024-05-11T09:20:19Z</time>
      </trkpt>
      <trkpt lat="48.38978" lon="2.76441">
        <ele>88.8</ele>
        <time>2024-05-11T09:20:26Z</time>
      </trkpt>
      <trkpt lat="48.38973" lon="2.76442">
        <ele>89</ele>
        <time>2024-05-11T09:20:32Z</time>
      </trkpt>
      <trkpt lat="48.38969" lon="2.76443">
        <ele>89</ele>
        <time>2024-05-11T09:20:39Z</time>
      </trkpt>
      <trkpt lat="48.38963" lon="2.76442">
        <ele>89</ele>
        <time>2024-05-11T09:20:45Z</time>
      </trkpt>
      <trkpt lat="48.38958" lon="2.76442">
        <ele>89</ele>
        <time>2024-05-11T09:20:52Z</time>
      </trkpt>
      <trkpt lat="48.38951" lon="2.76444">
        <ele>89</ele>
        <time>2024-05-11T09:21:00Z</time>
      </trkpt>
      <trkpt lat="48.38949" lon="2.76445">
        <ele>89</ele>
        <time>2024-05-11T09:21:01Z</time>
      </trkpt>
      <trkpt lat="48.38937" lon="2.76448">
        <ele>89</ele>
        <time>2024-05-11T09:21:07Z</time>
      </trkpt>
      <trkpt lat="48.38928" lon="2.76451">
        <ele>89</ele>
        <time>2024-05-11T09:21:15Z</time>
      </trkpt>
      <trkpt lat="48.38918" lon="2.76453">
        <ele>89</ele>
        <time>2024-05-11T09:21:23Z</time>
      </trkpt>
      <trkpt lat="48.38912" lon="2.76451">
        <ele>89.2</ele>
        <time>2024-05-11T09:21:30Z</time>
      </trkpt>
      <trkpt lat="48.38908" lon="2.76453">
        <ele>89.3</ele>
        <time>2024-05-11T09:21:35Z</time>
      </trkpt>
      <trkpt lat="48.38902" lon="2.76457">
        <ele>89.5</ele>
        <time>2024-05-11T09:21:41Z</time>
      </trkpt>
      <trkpt lat="48.38897" lon="2.76459">
        <ele>89.7</ele>
        <time>2024-05-11T09:21:47Z</time>
      </trkpt>
      <trkpt lat="48.38895" lon="2.7646">
        <ele>89.8</ele>
        <time>2024-05-11T09:21:48Z</time>
      </trkpt>
      <trkpt lat="48.3889" lon="2.76462">
        <ele>89.9</ele>
        <time>2024-05-11T09:21:51Z</time>
      </trkpt>
      <trkpt lat="48.3888" lon="2.76459">
        <ele>90</ele>
        <time>2024-05-11T09:21:57Z</time>
      </trkpt>
      <trkpt lat="48.38879" lon="2.76459">
        <ele>90</ele>
        <time>2024-05-11T09:21:59Z</time>
      </trkpt>
      <trkpt lat="48.38872" lon="2.7646">
        <ele>90</ele>
        <time>2024-05-11T09:22:05Z</time>
      </trkpt>
      <trkpt lat="48.38867" lon="2.7646">
        <ele>90</ele>
        <time>2024-05-11T09:22:10Z</time>
      </trkpt>
      <trkpt lat="48.38861" lon="2.76463">
        <ele>90</ele>
        <time>2024-05-11T09:22:16Z</time>
      </trkpt>
      <trkpt lat="48.38851" lon="2.76469">
        <ele>90</ele>
        <time>2024-05-11T09:22:25Z</time>
      </trkpt>
      <trkpt lat="48.38844" lon="2.7647">
        <ele>90</ele>
        <time>2024-05-11T09:22:31Z</time>
      </trkpt>
      <trkpt lat="48.38841" lon="2.76472">
        <ele>90</ele>
        <time>2024-05-11T09:22:33Z</time>
      </trkpt>
      <trkpt lat="48.38836" lon="2.76472">
        <ele>90</ele>
        <time>2024-05-11T09:22:36Z</time>
      </trkpt>
      <trkpt lat="48.38828" lon="2.76478">
        <ele>90.3</ele>
        <time>2024-05-11T09:22:43Z</time>
      </trkpt>
      <trkpt lat="48.38824" lon="2.76477">
        <ele>90.5</ele>
        <time>2024-05-11T09:22:49Z</time>
      </trkpt>
      <trkpt lat="48.38822" lon="2.76479">
        <ele>90.5</ele>
        <time>2024-05-11T09:22:52Z</time>
      </trkpt>
      <trkpt lat="48.38813" lon="2.76482">
        <ele>90.8</ele>
        <time>2024-05-11T09:23:00Z</time>
      </trkpt>
      <trkpt lat="48.38807" lon="2.76483">
        <ele>91</ele>
        <time>2024-05-11T09:23:05Z</time>
      </trkpt>
      <trkpt lat="48.38804" lon="2.76484">
        <ele>91</ele>
        <time>2024-05-11T09:23:08Z</time>
      </trkpt>
      <trkpt lat="48.38797" lon="2.76487">
        <ele>91</ele>
        <time>2024-05-11T09:23:13Z</time>
      </trkpt>
      <trkpt lat="48.38786" lon="2.76492">
        <ele>91</ele>
        <time>2024-05-11T09:23:20Z</time>
      </trkpt>
      <trkpt lat="48.38784" lon="2.76493">
        <ele>91</ele>
        <time>2024-05-11T09:23:22Z</time>
      </trkpt>
      <trkpt lat="48.38782" lon="2.76495">
        <ele>91</ele>
        <time>2024-05-11T09:23:25Z</time>
      </trkpt>
      <trkpt lat="48.38771" lon="2.76494">
        <ele>91.2</ele>
        <time>2024-05-11T09:23:33Z</time>
      </trkpt>
      <trkpt lat="48.38769" lon="2.76494">
        <ele>91.3</ele>
        <time>2024-05-11T09:23:38Z</time>
      </trkpt>
      <trkpt lat="48.38766" lon="2.76495">
        <ele>91.4</ele>
        <time>2024-05-11T09:23:42Z</time>
      </trkpt>
      <trkpt lat="48.38763" lon="2.76496">
        <ele>91.5</ele>
        <time>2024-05-11T09:23:44Z</time>
      </trkpt>
      <trkpt lat="48.38755" lon="2.76498">
        <ele>91.8</ele>
        <time>2024-05-11T09:23:51Z</time>
      </trkpt>
      <trkpt lat="48.38754" lon="2.76497">
        <ele>91.9</ele>
        <time>2024-05-11T09:23:53Z</time>
      </trkpt>
      <trkpt lat="48.38746" lon="2.76497">
        <ele>92</ele>
        <time>2024-05-11T09:24:01Z</time>
      </trkpt>
      <trkpt lat="48.38739" lon="2.76499">
        <ele>92</ele>
        <time>2024-05-11T09:24:08Z</time>
      </trkpt>
      <trkpt lat="48.3873" lon="2.76501">
        <ele>92</ele>
        <time>2024-05-11T09:24:15Z</time>
      </trkpt>
      <trkpt lat="48.38728" lon="2.76502">
        <ele>92</ele>
        <time>2024-05-11T09:24:16Z</time>
      </trkpt>
      <trkpt lat="48.38718" lon="2.76504">
        <ele>92</ele>
        <time>2024-05-11T09:24:23Z</time>
      </trkpt>
      <trkpt lat="48.38709" lon="2.76508">
        <ele>92</ele>
        <time>2024-05-11T09:24:31Z</time>
      </trkpt>
      <trkpt lat="48.38708" lon="2.76509">
        <ele>92</ele>
        <time>2024-05-11T09:24:32Z</time>
      </trkpt>
      <trkpt lat="48.38702" lon="2.7651">
        <ele>92</ele>
        <time>2024-05-11T09:24:39Z</time>
      </trkpt>
      <trkpt lat="48.38698" lon="2.76511">
        <ele>92</ele>
        <time>2024-05-11T09:24:43Z</time>
      </trkpt>
      <trkpt lat="48.38695" lon="2.76511">
        <ele>92</ele>
        <time>2024-05-11T09:24:48Z</time>
      </trkpt>
      <trkpt lat="48.38687" lon="2.76512">
        <ele>92.1</ele>
        <time>2024-05-11T09:24:56Z</time>
      </trkpt>
      <trkpt lat="48.38681" lon="2.76516">
        <ele>92.3</ele>
        <time>2024-05-11T09:25:02Z</time>
      </trkpt>
      <trkpt lat="48.38673" lon="2.76517">
        <ele>92.5</ele>
        <time>2024-05-11T09:25:10Z</time>
      </trkpt>
      <trkpt lat="48.38662" lon="2.76521">
        <ele>92.8</ele>
        <time>2024-05-11T09:25:17Z</time>
      </trkpt>
      <trkpt lat="48.38655" lon="2.76525">
        <ele>92.9</ele>
        <time>2024-05-11T09:25:22Z</time>
      </trkpt>
      <trkpt lat="48.38654" lon="2.76526">
        <ele>93</ele>
        <time>2024-05-11T09:25:23Z</time>
      </trkpt>
      <trkpt lat="48.38636" lon="2.7653">
        <ele>93</ele>
        <time>2024-05-11T09:25:33Z</time>
      </trkpt>
      <trkpt lat="48.3863" lon="2.76531">
        <ele>93</ele>
        <time>2024-05-11T09:25:41Z</time>
      </trkpt>
      <trkpt lat="48.38626" lon="2.76529">
        <ele>93</ele>
        <time>2024-05-11T09:25:48Z</time>
      </trkpt>
      <trkpt lat="48.3862" lon="2.76531">
        <ele>93</ele>
        <time>2024-05-11T09:25:53Z</time>
      </trkpt>
      <trkpt lat="48.38613" lon="2.7653">
        <ele>93</ele>
        <time>2024-05-11T09:25:59Z</time>
      </trkpt>
      <trkpt lat="48.38608" lon="2.76532">
        <ele>93</ele>
        <time>2024-05-11T09:26:03Z</time>
      </trkpt>
      <trkpt lat="48.38599" lon="2.76536">
        <ele>93</ele>
        <time>2024-05-11T09:26:11Z</time>
      </trkpt>
      <trkpt lat="48.38598" lon="2.76534">
        <ele>93</ele>
        <time>2024-05-11T09:26:16Z</time>
      </trkpt>
      <trkpt lat="48.38587" lon="2.76537">
        <ele>93</ele>
        <time>2024-05-11T09:26:23Z</time>
      </trkpt>
      <trkpt lat="48.38569" lon="2.76543">
        <ele>93</ele>
        <time>2024-05-11T09:26:29Z</time>
      </trkpt>
      <trkpt lat="48.38558" lon="2.76543">
        <ele>93</ele>
        <time>2024-05-11T09:26:36Z</time>
      </trkpt>
      <trkpt lat="48.38555" lon="2.76541">
        <ele>93</ele>
        <time>2024-05-11T09:26:40Z</time>
      </trkpt>
      <trkpt lat="48.38546" lon="2.76538">
        <ele>93</ele>
        <time>2024-05-11T09:26:48Z</time>
      </trkpt>
      <trkpt lat="48.38544" lon="2.76538">
        <ele>93</ele>
        <time>2024-05-11T09:26:50Z</time>
      </trkpt>
      <trkpt lat="48.38539" lon="2.7654">
        <ele>93</ele>
        <time>2024-05-11T09:26:56Z</time>
      </trkpt>
      <trkpt lat="48.38534" lon="2.76542">
        <ele>93</ele>
        <time>2024-05-11T09:27:04Z</time>
      </trkpt>
      <trkpt lat="48.38528" lon="2.76541">
        <ele>93</ele>
        <time>2024-05-11T09:27:11Z</time>
      </trkpt>
      <trkpt lat="48.38525" lon="2.76539">
        <ele>93</ele>
        <time>2024-05-11T09:27:21Z</time>
      </trkpt>
      <trkpt lat="48.38522" lon="2.76539">
        <ele>93</ele>
        <time>2024-05-11T09:27:27Z</time>
      </trkpt>
      <trkpt lat="48.38522" lon="2.76538">
        <ele>93</ele>
        <time>2024-05-11T09:27:30Z</time>
      </trkpt>
      <trkpt lat="48.38517" lon="2.76536">
        <ele>93</ele>
        <time>2024-05-11T09:27:36Z</time>
      </trkpt>
      <trkpt lat="48.3851" lon="2.76534">
        <ele>93</ele>
        <time>2024-05-11T09:27:43Z</time>
      </trkpt>
      <trkpt lat="48.3851" lon="2.76534">
        <ele>93</ele>
        <time>2024-05-11T09:27:44Z</time>
      </trkpt>
      <trkpt lat="48.38504" lon="2.76531">
        <ele>93</ele>
        <time>2024-05-11T09:27:52Z</time>
      </trkpt>
      <trkpt lat="48.38497" lon="2.76531">
        <ele>93</ele>
        <time>2024-05-11T09:27:58Z</time>
      </trkpt>
      <trkpt lat="48.38488" lon="2.7653">
        <ele>93</ele>
        <time>2024-05-11T09:28:06Z</time>
      </trkpt>
      <trkpt lat="48.38482" lon="2.76531">
        <ele>93</ele>
        <time>2024-05-11T09:28:11Z</time>
      </trkpt>
      <trkpt lat="48.38475" lon="2.76526">
        <ele>93</ele>
        <time>2024-05-11T09:28:19Z</time>
      </trkpt>
      <trkpt lat="48.3847" lon="2.76525">
        <ele>93</ele>
        <time>2024-05-11T09:28:25Z</time>
      </trkpt>
      <trkpt lat="48.38463" lon="2.76521">
        <ele>93</ele>
        <time>2024-05-11T09:28:33Z</time>
      </trkpt>
      <trkpt lat="48.3846" lon="2.7652">
        <ele>93</ele>
        <time>2024-05-11T09:28:38Z</time>
      </trkpt>
      <trkpt lat="48.38451" lon="2.76519">
        <ele>93</ele>
        <time>2024-05-11T09:28:45Z</time>
      </trkpt>
      <trkpt lat="48.38443" lon="2.76516">
        <ele>93</ele>
        <time>2024-05-11T09:28:53Z</time>
      </trkpt>
      <trkpt lat="48.38438" lon="2.76514">
        <ele>93</ele>
        <time>2024-05-11T09:29:00Z</time>
      </trkpt>
      <trkpt lat="48.38432" lon="2.76511">
        <ele>93</ele>
        <time>2024-05-11T09:29:06Z</time>
      </trkpt>
      <trkpt lat="48.38427" lon="2.76511">
        <ele>93</ele>
        <time>2024-05-11T09:29:12Z</time>
      </trkpt>
      <trkpt lat="48.38425" lon="2.7651">
        <ele>93</ele>
        <time>2024-05-11T09:29:14Z</time>
      </trkpt>
      <trkpt lat="48.38416" lon="2.76509">
        <ele>93</ele>
        <time>2024-05-11T09:29:21Z</time>
      </trkpt>
      <trkpt lat="48.38408" lon="2.76506">
        <ele>93.1</ele>
        <time>2024-05-11T09:29:28Z</time>
      </trkpt>
      <trkpt lat="48.38401" lon="2.76504">
        <ele>93.1</ele>
        <time>2024-05-11T09:29:35Z</time>
      </trkpt>
      <trkpt lat="48.38398" lon="2.76503">
        <ele>93.1</ele>
        <time>2024-05-11T09:29:37Z</time>
      </trkpt>
      <trkpt lat="48.38388" lon="2.76499">
        <ele>93</ele>
        <time>2024-05-11T09:29:45Z</time>
      </trkpt>
      <trkpt lat="48.38384" lon="2.76499">
        <ele>93.2</ele>
        <time>2024-05-11T09:29:51Z</time>
      </trkpt>
      <trkpt lat="48.38382" lon="2.76499">
        <ele>93.3</ele>
        <time>2024-05-11T09:29:54Z</time>
      </trkpt>
      <trkpt lat="48.38376" lon="2.76498">
        <ele>93.5</ele>
        <time>2024-05-11T09:30:01Z</time>
      </trkpt>
      <trkpt lat="48.38371" lon="2.76497">
        <ele>93.7</ele>
        <time>2024-05-11T09:30:07Z</time>
      </trkpt>
      <trkpt lat="48.38364" lon="2.76494">
        <ele>93.9</ele>
        <time>2024-05-11T09:30:13Z</time>
      </trkpt>
      <trkpt lat="48.38357" lon="2.76492">
        <ele>94</ele>
        <time>2024-05-11T09:30:20Z</time>
      </trkpt>
      <trkpt lat="48.38349" lon="2.76492">
        <ele>94</ele>
        <time>2024-05-11T09:30:27Z</time>
      </trkpt>
      <trkpt lat="48.38345" lon="2.7649">
        <ele>94</ele>
        <time>2024-05-11T09:30:32Z</time>
      </trkpt>
      <trkpt lat="48.38338" lon="2.76488">
        <ele>94</ele>
        <time>2024-05-11T09:30:38Z</time>
      </trkpt>
      <trkpt lat="48.38335" lon="2.76487">
        <ele>94</ele>
        <time>2024-05-11T09:30:43Z</time>
      </trkpt>
      <trkpt lat="48.38333" lon="2.76486">
        <ele>94</ele>
        <time>2024-05-11T09:30:48Z</time>
      </trkpt>
      <trkpt lat="48.3833" lon="2.76486">
        <ele>94</ele>
        <time>2024-05-11T09:30:55Z</time>
      </trkpt>
      <trkpt lat="48.38328" lon="2.76484">
        <ele>94</ele>
        <time>2024-05-11T09:31:00Z</time>
      </trkpt>
      <trkpt lat="48.38326" lon="2.76482">
        <ele>94</ele>
        <time>2024-05-11T09:31:07Z</time>
      </trkpt>
      <trkpt lat="48.38318" lon="2.76481">
        <ele>94</ele>
        <time>2024-05-11T09:31:13Z</time>
      </trkpt>
      <trkpt lat="48.3831" lon="2.7648">
        <ele>94</ele>
        <time>2024-05-11T09:31:18Z</time>
      </trkpt>
      <trkpt lat="48.38307" lon="2.76479">
        <ele>94</ele>
        <time>2024-05-11T09:31:23Z</time>
      </trkpt>
      <trkpt lat="48.38298" lon="2.76476">
        <ele>94</ele>
        <time>2024-05-11T09:31:29Z</time>
      </trkpt>
      <trkpt lat="48.38291" lon="2.76474">
        <ele>94</ele>
        <time>2024-05-11T09:31:35Z</time>
      </trkpt>
      <trkpt lat="48.38281" lon="2.76472">
        <ele>94</ele>
        <time>2024-05-11T09:31:41Z</time>
      </trkpt>
      <trkpt lat="48.38272" lon="2.76468">
        <ele>94</ele>
        <time>2024-05-11T09:31:48Z</time>
      </trkpt>
      <trkpt lat="48.38266" lon="2.76466">
        <ele>94</ele>
        <time>2024-05-11T09:31:52Z</time>
      </trkpt>
      <trkpt lat="48.3825" lon="2.7646">
        <ele>94</ele>
        <time>2024-05-11T09:32:02Z</time>
      </trkpt>
      <trkpt lat="48.38236" lon="2.76458">
        <ele>94.5</ele>
        <time>2024-05-11T09:32:10Z</time>
      </trkpt>
      <trkpt lat="48.38233" lon="2.76457">
        <ele>94.6</ele>
        <time>2024-05-11T09:32:14Z</time>
      </trkpt>
      <trkpt lat="48.38233" lon="2.76457">
        <ele>94.6</ele>
        <time>2024-05-11T09:32:15Z</time>
      </trkpt>
      <trkpt lat="48.38218" lon="2.76453">
        <ele>95</ele>
        <time>2024-05-11T09:32:23Z</time>
      </trkpt>
      <trkpt lat="48.38213" lon="2.76452">
        <ele>95.1</ele>
        <time>2024-05-11T09:32:30Z</time>
      </trkpt>
      <trkpt lat="48.38205" lon="2.76451">
        <ele>95.1</ele>
        <time>2024-05-11T09:32:38Z</time>
      </trkpt>
      <trkpt lat="48.38197" lon="2.76448">
        <ele>95.1</ele>
        <time>2024-05-11T09:32:44Z</time>
      </trkpt>
      <trkpt lat="48.38193" lon="2.76446">
        <ele>95.1</ele>
        <time>2024-05-11T09:32:50Z</time>
      </trkpt>
      <trkpt lat="48.38192" lon="2.76444">
        <ele>95.1</ele>
        <time>2024-05-11T09:32:52Z</time>
      </trkpt>
      <trkpt lat="48.38179" lon="2.76441">
        <ele>95.5</ele>
        <time>2024-05-11T09:33:02Z</time>
      </trkpt>
      <trkpt lat="48.38154" lon="2.76434">
        <ele>95.8</ele>
        <time>2024-05-11T09:33:10Z</time>
      </trkpt>
      <trkpt lat="48.38151" lon="2.76433">
        <ele>95.8</ele>
        <time>2024-05-11T09:33:17Z</time>
      </trkpt>
      <trkpt lat="48.38151" lon="2.76433">
        <ele>95.8</ele>
        <time>2024-05-11T09:33:18Z</time>
      </trkpt>
      <trkpt lat="48.38146" lon="2.76432">
        <ele>95.9</ele>
        <time>2024-05-11T09:33:24Z</time>
      </trkpt>
      <trkpt lat="48.38141" lon="2.76431">
        <ele>96</ele>
        <time>2024-05-11T09:33:31Z</time>
      </trkpt>
      <trkpt lat="48.38137" lon="2.7643">
        <ele>95.9</ele>
        <time>2024-05-11T09:33:38Z</time>
      </trkpt>
      <trkpt lat="48.38129" lon="2.7643">
        <ele>95.7</ele>
        <time>2024-05-11T09:33:45Z</time>
      </trkpt>
      <trkpt lat="48.38128" lon="2.76429">
        <ele>95.6</ele>
        <time>2024-05-11T09:33:49Z</time>
      </trkpt>
      <trkpt lat="48.38123" lon="2.76429">
        <ele>95.4</ele>
        <time>2024-05-11T09:33:55Z</time>
      </trkpt>
      <trkpt lat="48.38121" lon="2.76428">
        <ele>95.3</ele>
        <time>2024-05-11T09:33:58Z</time>
      </trkpt>
      <trkpt lat="48.38114" lon="2.76425">
        <ele>95.1</ele>
        <time>2024-05-11T09:34:05Z</time>
      </trkpt>
      <trkpt lat="48.38111" lon="2.76423">
        <ele>95</ele>
        <time>2024-05-11T09:34:08Z</time>
      </trkpt>
      <trkpt lat="48.38101" lon="2.76419">
        <ele>95.4</ele>
        <time>2024-05-11T09:34:16Z</time>
      </trkpt>
      <trkpt lat="48.38098" lon="2.76419">
        <ele>95.5</ele>
        <time>2024-05-11T09:34:19Z</time>
      </trkpt>
      <trkpt lat="48.38092" lon="2.76418">
        <ele>95.7</ele>
        <time>2024-05-11T09:34:22Z</time>
      </trkpt>
      <trkpt lat="48.38081" lon="2.76414">
        <ele>95.8</ele>
        <time>2024-05-11T09:34:29Z</time>
      </trkpt>
      <trkpt lat="48.38076" lon="2.76413">
        <ele>95.6</ele>
        <time>2024-05-11T09:34:33Z</time>
      </trkpt>
      <trkpt lat="48.38068" lon="2.76412">
        <ele>95.4</ele>
        <time>2024-05-11T09:34:39Z</time>
      </trkpt>
      <trkpt lat="48.38061" lon="2.76412">
        <ele>95.2</ele>
        <time>2024-05-11T09:34:45Z</time>
      </trkpt>
      <trkpt lat="48.38058" lon="2.76407">
        <ele>95.1</ele>
        <time>2024-05-11T09:34:51Z</time>
      </trkpt>
      <trkpt lat="48.38052" lon="2.76406">
        <ele>95</ele>
        <time>2024-05-11T09:34:58Z</time>
      </trkpt>
      <trkpt lat="48.3805" lon="2.76406">
        <ele>95</ele>
        <time>2024-05-11T09:35:02Z</time>
      </trkpt>
      <trkpt lat="48.38044" lon="2.76406">
        <ele>95</ele>
        <time>2024-05-11T09:35:09Z</time>
      </trkpt>
      <trkpt lat="48.38037" lon="2.76404">
        <ele>95</ele>
        <time>2024-05-11T09:35:17Z</time>
      </trkpt>
      <trkpt lat="48.38031" lon="2.76401">
        <ele>95</ele>
        <time>2024-05-11T09:35:23Z</time>
      </trkpt>
      <trkpt lat="48.38024" lon="2.76399">
        <ele>95</ele>
        <time>2024-05-11T09:35:30Z</time>
      </trkpt>
      <trkpt lat="48.38018" lon="2.76397">
        <ele>95</ele>
        <time>2024-05-11T09:35:35Z</time>
      </trkpt>
      <trkpt lat="48.38016" lon="2.76395">
        <ele>95</ele>
        <time>2024-05-11T09:35:40Z</time>
      </trkpt>
      <trkpt lat="48.38013" lon="2.76395">
        <ele>95</ele>
        <time>2024-05-11T09:35:43Z</time>
      </trkpt>
      <trkpt lat="48.38006" lon="2.76394">
        <ele>95</ele>
        <time>2024-05-11T09:35:47Z</time>
      </trkpt>
      <trkpt lat="48.37997" lon="2.76391">
        <ele>95</ele>
        <time>2024-05-11T09:35:56Z</time>
      </trkpt>
      <trkpt lat="48.37985" lon="2.76387">
        <ele>95</ele>
        <time>2024-05-11T09:36:04Z</time>
      </trkpt>
      <trkpt lat="48.37978" lon="2.76386">
        <ele>94.9</ele>
        <time>2024-05-11T09:36:10Z</time>
      </trkpt>
      <trkpt lat="48.37966" lon="2.76383">
        <ele>94.6</ele>
        <time>2024-05-11T09:36:17Z</time>
      </trkpt>
      <trkpt lat="48.37965" lon="2.76383">
        <ele>94.6</ele>
        <time>2024-05-11T09:36:18Z</time>
      </trkpt>
      <trkpt lat="48.37956" lon="2.76378">
        <ele>94.2</ele>
        <time>2024-05-11T09:36:25Z</time>
      </trkpt>
      <trkpt lat="48.37954" lon="2.76377">
        <ele>94.2</ele>
        <time>2024-05-11T09:36:26Z</time>
      </trkpt>
      <trkpt lat="48.37945" lon="2.76376">
        <ele>94</ele>
        <time>2024-05-11T09:36:32Z</time>
      </trkpt>
      <trkpt lat="48.37939" lon="2.76375">
        <ele>94</ele>
        <time>2024-05-11T09:36:39Z</time>
      </trkpt>
      <trkpt lat="48.37933" lon="2.76371">
        <ele>94</ele>
        <time>2024-05-11T09:36:46Z</time>
      </trkpt>
      <trkpt lat="48.3793" lon="2.76369">
        <ele>94</ele>
        <time>2024-05-11T09:36:48Z</time>
      </trkpt>
      <trkpt lat="48.37925" lon="2.76369">
        <ele>94</ele>
        <time>2024-05-11T09:36:52Z</time>
      </trkpt>
      <trkpt lat="48.37916" lon="2.76365">
        <ele>94</ele>
        <time>2024-05-11T09:36:59Z</time>
      </trkpt>
      <trkpt lat="48.37907" lon="2.76365">
        <ele>94</ele>
        <time>2024-05-11T09:37:06Z</time>
      </trkpt>
      <trkpt lat="48.37899" lon="2.76361">
        <ele>94</ele>
        <time>2024-05-11T09:37:12Z</time>
      </trkpt>
      <trkpt lat="48.3789" lon="2.76361">
        <ele>94</ele>
        <time>2024-05-11T09:37:19Z</time>
      </trkpt>
      <trkpt lat="48.37883" lon="2.76357">
        <ele>93.9</ele>
        <time>2024-05-11T09:37:26Z</time>
      </trkpt>
      <trkpt lat="48.37876" lon="2.76355">
        <ele>93.9</ele>
        <time>2024-05-11T09:37:32Z</time>
      </trkpt>
      <trkpt lat="48.37874" lon="2.76353">
        <ele>93.9</ele>
        <time>2024-05-11T09:37:34Z</time>
      </trkpt>
      <trkpt lat="48.37867" lon="2.76353">
        <ele>93.9</ele>
        <time>2024-05-11T09:37:41Z</time>
      </trkpt>
      <trkpt lat="48.37862" lon="2.76351">
        <ele>94</ele>
        <time>2024-05-11T09:37:49Z</time>
      </trkpt>
      <trkpt lat="48.37859" lon="2.7635">
        <ele>94.3</ele>
        <time>2024-05-11T09:37:55Z</time>
      </trkpt>
      <trkpt lat="48.37855" lon="2.7635">
        <ele>94.8</ele>
        <time>2024-05-11T09:38:00Z</time>
      </trkpt>
      <trkpt lat="48.37851" lon="2.76349">
        <ele>95.3</ele>
        <time>2024-05-11T09:38:03Z</time>
      </trkpt>
      <trkpt lat="48.37839" lon="2.76347">
        <ele>96.7</ele>
        <time>2024-05-11T09:38:09Z</time>
      </trkpt>
      <trkpt lat="48.37837" lon="2.76345">
        <ele>96.9</ele>
        <time>2024-05-11T09:38:13Z</time>
      </trkpt>
      <trkpt lat="48.37834" lon="2.76343">
        <ele>97.2</ele>
        <time>2024-05-11T09:38:15Z</time>
      </trkpt>
      <trkpt lat="48.37828" lon="2.76341">
        <ele>98</ele>
        <time>2024-05-11T09:38:20Z</time>
      </trkpt>
      <trkpt lat="48.37821" lon="2.76338">
        <ele>98.7</ele>
        <time>2024-05-11T09:38:26Z</time>
      </trkpt>
      <trkpt lat="48.37816" lon="2.76337">
        <ele>99.2</ele>
        <time>2024-05-11T09:38:30Z</time>
      </trkpt>
      <trkpt lat="48.37805" lon="2.76336">
        <ele>100.3</ele>
        <time>2024-05-11T09:38:38Z</time>
      </trkpt>
      <trkpt lat="48.37798" lon="2.76332">
        <ele>100.4</ele>
        <time>2024-05-11T09:38:46Z</time>
      </trkpt>
      <trkpt lat="48.37798" lon="2.76332">
        <ele>100.4</ele>
        <time>2024-05-11T09:38:48Z</time>
      </trkpt>
      <trkpt lat="48.37795" lon="2.76333">
        <ele>100.4</ele>
        <time>2024-05-11T09:38:50Z</time>
      </trkpt>
      <trkpt lat="48.37788" lon="2.7633">
        <ele>101</ele>
        <time>2024-05-11T09:38:58Z</time>
      </trkpt>
      <trkpt lat="48.37786" lon="2.7633">
        <ele>101.1</ele>
        <time>2024-05-11T09:39:00Z</time>
      </trkpt>
      <trkpt lat="48.37778" lon="2.76326">
        <ele>101.8</ele>
        <time>2024-05-11T09:39:07Z</time>
      </trkpt>
      <trkpt lat="48.3777" lon="2.76323">
        <ele>101.9</ele>
        <time>2024-05-11T09:39:15Z</time>
      </trkpt>
      <trkpt lat="48.37764" lon="2.76321">
        <ele>101.9</ele>
        <time>2024-05-11T09:39:20Z</time>
      </trkpt>
      <trkpt lat="48.37762" lon="2.7632">
        <ele>101.9</ele>
        <time>2024-05-11T09:39:22Z</time>
      </trkpt>
      <trkpt lat="48.37757" lon="2.76318">
        <ele>101.8</ele>
        <time>2024-05-11T09:39:25Z</time>
      </trkpt>
      <trkpt lat="48.37755" lon="2.76317">
        <ele>101.8</ele>
        <time>2024-05-11T09:39:27Z</time>
      </trkpt>
      <trkpt lat="48.37749" lon="2.76316">
        <ele>101.5</ele>
        <time>2024-05-11T09:39:33Z</time>
      </trkpt>
      <trkpt lat="48.37747" lon="2.76315">
        <ele>101.3</ele>
        <time>2024-05-11T09:39:34Z</time>
      </trkpt>
      <trkpt lat="48.37737" lon="2.76315">
        <ele>100</ele>
        <time>2024-05-11T09:39:41Z</time>
      </trkpt>
      <trkpt lat="48.3773" lon="2.76313">
        <ele>99.1</ele>
        <time>2024-05-11T09:39:48Z</time>
      </trkpt>
      <trkpt lat="48.37725" lon="2.76311">
        <ele>98.3</ele>
        <time>2024-05-11T09:39:53Z</time>
      </trkpt>
      <trkpt lat="48.37718" lon="2.76309">
        <ele>97.7</ele>
        <time>2024-05-11T09:40:00Z</time>
      </trkpt>
      <trkpt lat="48.37712" lon="2.7631">
        <ele>97.3</ele>
        <time>2024-05-11T09:40:05Z</time>
      </trkpt>
      <trkpt lat="48.37706" lon="2.76307">
        <ele>96.8</ele>
        <time>2024-05-11T09:40:11Z</time>
      </trkpt>
      <trkpt lat="48.37701" lon="2.76307">
        <ele>96.5</ele>
        <time>2024-05-11T09:40:14Z</time>
      </trkpt>
      <trkpt lat="48.37694" lon="2.76303">
        <ele>96</ele>
        <time>2024-05-11T09:40:22Z</time>
      </trkpt>
      <trkpt lat="48.37686" lon="2.76301">
        <ele>95.4</ele>
        <time>2024-05-11T09:40:30Z</time>
      </trkpt>
      <trkpt lat="48.37682" lon="2.76302">
        <ele>95.1</ele>
        <time>2024-05-11T09:40:35Z</time>
      </trkpt>
      <trkpt lat="48.37678" lon="2.76302">
        <ele>94.8</ele>
        <time>2024-05-11T09:40:37Z</time>
      </trkpt>
      <trkpt lat="48.37675" lon="2.76301">
        <ele>94.6</ele>
        <time>2024-05-11T09:40:39Z</time>
      </trkpt>
      <trkpt lat="48.37667" lon="2.76296">
        <ele>94</ele>
        <time>2024-05-11T09:40:48Z</time>
      </trkpt>
      <trkpt lat="48.37665" lon="2.76296">
        <ele>94</ele>
        <time>2024-05-11T09:40:49Z</time>
      </trkpt>
      <trkpt lat="48.37665" lon="2.76296">
        <ele>94</ele>
        <time>2024-05-11T09:40:50Z</time>
      </trkpt>
      <trkpt lat="48.37656" lon="2.76294">
        <ele>94</ele>
        <time>2024-05-11T09:40:57Z</time>
      </trkpt>
      <trkpt lat="48.37648" lon="2.76289">
        <ele>94</ele>
        <time>2024-05-11T09:41:05Z</time>
      </trkpt>
      <trkpt lat="48.37646" lon="2.76289">
        <ele>94</ele>
        <time>2024-05-11T09:41:07Z</time>
      </trkpt>
      <trkpt lat="48.37638" lon="2.76286">
        <ele>94</ele>
        <time>2024-05-11T09:41:14Z</time>
      </trkpt>
      <trkpt lat="48.37631" lon="2.76284">
        <ele>93.8</ele>
        <time>2024-05-11T09:41:21Z</time>
      </trkpt>
      <trkpt lat="48.37626" lon="2.76282">
        <ele>93.6</ele>
        <time>2024-05-11T09:41:28Z</time>
      </trkpt>
      <trkpt lat="48.3762" lon="2.76279">
        <ele>93.3</ele>
        <time>2024-05-11T09:41:35Z</time>
      </trkpt>
      <trkpt lat="48.3761" lon="2.76277">
        <ele>93</ele>
        <time>2024-05-11T09:41:42Z</time>
      </trkpt>
      <trkpt lat="48.37605" lon="2.76276">
        <ele>93</ele>
        <time>2024-05-11T09:41:46Z</time>
      </trkpt>
      <trkpt lat="48.37601" lon="2.76275">
        <ele>92.9</ele>
        <time>2024-05-11T09:41:49Z</time>
      </trkpt>
      <trkpt lat="48.37597" lon="2.76274">
        <ele>92.9</ele>
        <time>2024-05-11T09:41:51Z</time>
      </trkpt>
      <trkpt lat="48.37587" lon="2.76274">
        <ele>93</ele>
        <time>2024-05-11T09:41:59Z</time>
      </trkpt>
      <trkpt lat="48.37584" lon="2.76272">
        <ele>93</ele>
        <time>2024-05-11T09:42:05Z</time>
      </trkpt>
      <trkpt lat="48.37582" lon="2.76272">
        <ele>93</ele>
        <time>2024-05-11T09:42:07Z</time>
      </trkpt>
      <trkpt lat="48.3758" lon="2.76271">
        <ele>93.1</ele>
        <time>2024-05-11T09:42:09Z</time>
      </trkpt>
      <trkpt lat="48.37571" lon="2.76267">
        <ele>93.5</ele>
        <time>2024-05-11T09:42:16Z</time>
      </trkpt>
      <trkpt lat="48.3756" lon="2.76262">
        <ele>93.8</ele>
        <time>2024-05-11T09:42:23Z</time>
      </trkpt>
      <trkpt lat="48.37559" lon="2.76262">
        <ele>93.9</ele>
        <time>2024-05-11T09:42:24Z</time>
      </trkpt>
      <trkpt lat="48.37556" lon="2.76262">
        <ele>94</ele>
        <time>2024-05-11T09:42:29Z</time>
      </trkpt>
      <trkpt lat="48.37554" lon="2.76262">
        <ele>94</ele>
        <time>2024-05-11T09:42:31Z</time>
      </trkpt>
      <trkpt lat="48.37544" lon="2.76259">
        <ele>94</ele>
        <time>2024-05-11T09:42:38Z</time>
      </trkpt>
      <trkpt lat="48.37539" lon="2.76258">
        <ele>94</ele>
        <time>2024-05-11T09:42:42Z</time>
      </trkpt>
      <trkpt lat="48.37527" lon="2.76253">
        <ele>94</ele>
        <time>2024-05-11T09:42:50Z</time>
      </trkpt>
      <trkpt lat="48.37526" lon="2.76253">
        <ele>94</ele>
        <time>2024-05-11T09:42:51Z</time>
      </trkpt>
      <trkpt lat="48.37515" lon="2.76253">
        <ele>94</ele>
        <time>2024-05-11T09:42:59Z</time>
      </trkpt>
      <trkpt lat="48.37508" lon="2.76252">
        <ele>94</ele>
        <time>2024-05-11T09:43:05Z</time>
      </trkpt>
      <trkpt lat="48.37506" lon="2.76251">
        <ele>94</ele>
        <time>2024-05-11T09:43:06Z</time>
      </trkpt>
      <trkpt lat="48.37495" lon="2.76246">
        <ele>93.7</ele>
        <time>2024-05-11T09:43:15Z</time>
      </trkpt>
      <trkpt lat="48.37493" lon="2.76245">
        <ele>93.6</ele>
        <time>2024-05-11T09:43:18Z</time>
      </trkpt>
      <trkpt lat="48.37486" lon="2.76244">
        <ele>93.4</ele>
        <time>2024-05-11T09:43:24Z</time>
      </trkpt>
      <trkpt lat="48.3748" lon="2.76242">
        <ele>93.2</ele>
        <time>2024-05-11T09:43:29Z</time>
      </trkpt>
      <trkpt lat="48.37467" lon="2.76241">
        <ele>93</ele>
        <time>2024-05-11T09:43:38Z</time>
      </trkpt>
      <trkpt lat="48.37462" lon="2.76238">
        <ele>93</ele>
        <time>2024-05-11T09:43:43Z</time>
      </trkpt>
      <trkpt lat="48.37459" lon="2.76236">
        <ele>93</ele>
        <time>2024-05-11T09:43:46Z</time>
      </trkpt>
      <trkpt lat="48.3745" lon="2.76235">
        <ele>93</ele>
        <time>2024-05-11T09:43:54Z</time>
      </trkpt>
      <trkpt lat="48.37447" lon="2.76234">
        <ele>93</ele>
        <time>2024-05-11T09:43:56Z</time>
      </trkpt>
      <trkpt lat="48.37444" lon="2.76235">
        <ele>93</ele>
        <time>2024-05-11T09:43:59Z</time>
      </trkpt>
      <trkpt lat="48.37436" lon="2.76232">
        <ele>92.7</ele>
        <time>2024-05-11T09:44:05Z</time>
      </trkpt>
      <trkpt lat="48.3743" lon="2.76229">
        <ele>92.5</ele>
        <time>2024-05-11T09:44:11Z</time>
      </trkpt>
      <trkpt lat="48.37421" lon="2.76227">
        <ele>92.2</ele>
        <time>2024-05-11T09:44:18Z</time>
      </trkpt>
      <trkpt lat="48.37412" lon="2.76225">
        <ele>92</ele>
        <time>2024-05-11T09:44:25Z</time>
      </trkpt>
      <trkpt lat="48.3741" lon="2.76225">
        <ele>92</ele>
        <time>2024-05-11T09:44:27Z</time>
      </trkpt>
      <trkpt lat="48.37402" lon="2.76221">
        <ele>92</ele>
        <time>2024-05-11T09:44:34Z</time>
      </trkpt>
      <trkpt lat="48.37398" lon="2.76218">
        <ele>92</ele>
        <time>2024-05-11T09:44:40Z</time>
      </trkpt>
      <trkpt lat="48.37392" lon="2.76216">
        <ele>92</ele>
        <time>2024-05-11T09:44:46Z</time>
      </trkpt>
      <trkpt lat="48.37382" lon="2.76213">
        <ele>92</ele>
        <time>2024-05-11T09:44:54Z</time>
      </trkpt>
      <trkpt lat="48.37375" lon="2.76212">
        <ele>92</ele>
        <time>2024-05-11T09:45:00Z</time>
      </trkpt>
      <trkpt lat="48.37366" lon="2.76209">
        <ele>92</ele>
        <time>2024-05-11T09:45:07Z</time>
      </trkpt>
      <trkpt lat="48.37361" lon="2.76208">
        <ele>92</ele>
        <time>2024-05-11T09:45:12Z</time>
      </trkpt>
      <trkpt lat="48.37353" lon="2.76206">
        <ele>92</ele>
        <time>2024-05-11T09:45:18Z</time>
      </trkpt>
      <trkpt lat="48.37345" lon="2.76202">
        <ele>92</ele>
        <time>2024-05-11T09:45:25Z</time>
      </trkpt>
      <trkpt lat="48.37336" lon="2.762">
        <ele>92</ele>
        <time>2024-05-11T09:45:33Z</time>
      </trkpt>
      <trkpt lat="48.37335" lon="2.76199">
        <ele>92</ele>
        <time>2024-05-11T09:45:35Z</time>
      </trkpt>
      <trkpt lat="48.37326" lon="2.76196">
        <ele>92</ele>
        <time>2024-05-11T09:45:43Z</time>
      </trkpt>
      <trkpt lat="48.37318" lon="2.76193">
        <ele>92</ele>
        <time>2024-05-11T09:45:50Z</time>
      </trkpt>
      <trkpt lat="48.37317" lon="2.76192">
        <ele>92</ele>
        <time>2024-05-11T09:45:51Z</time>
      </trkpt>
      <trkpt lat="48.37309" lon="2.7619">
        <ele>92</ele>
        <time>2024-05-11T09:45:58Z</time>
      </trkpt>
      <trkpt lat="48.37305" lon="2.76188">
        <ele>92</ele>
        <time>2024-05-11T09:46:03Z</time>
      </trkpt>
      <trkpt lat="48.37299" lon="2.76188">
        <ele>92</ele>
        <time>2024-05-11T09:46:07Z</time>
      </trkpt>
      <trkpt lat="48.3729" lon="2.76187">
        <ele>92</ele>
        <time>2024-05-11T09:46:14Z</time>
      </trkpt>
      <trkpt lat="48.37287" lon="2.76186">
        <ele>92</ele>
        <time>2024-05-11T09:46:18Z</time>
      </trkpt>
      <trkpt lat="48.37283" lon="2.76186">
        <ele>92</ele>
        <time>2024-05-11T09:46:20Z</time>
      </trkpt>
      <trkpt lat="48.37282" lon="2.76185">
        <ele>92</ele>
        <time>2024-05-11T09:46:22Z</time>
      </trkpt>
      <trkpt lat="48.37273" lon="2.76183">
        <ele>92</ele>
        <time>2024-05-11T09:46:31Z</time>
      </trkpt>
      <trkpt lat="48.37269" lon="2.76182">
        <ele>92</ele>
        <time>2024-05-11T09:46:37Z</time>
      </trkpt>
      <trkpt lat="48.37261" lon="2.76181">
        <ele>92</ele>
        <time>2024-05-11T09:46:45Z</time>
      </trkpt>
      <trkpt lat="48.37249" lon="2.76175">
        <ele>92</ele>
        <time>2024-05-11T09:46:53Z</time>
      </trkpt>
      <trkpt lat="48.37239" lon="2.76172">
        <ele>92</ele>
        <time>2024-05-11T09:46:59Z</time>
      </trkpt>
      <trkpt lat="48.37233" lon="2.76171">
        <ele>92</ele>
        <time>2024-05-11T09:47:04Z</time>
      </trkpt>
      <trkpt lat="48.37227" lon="2.76169">
        <ele>92</ele>
        <time>2024-05-11T09:47:09Z</time>
      </trkpt>
      <trkpt lat="48.37226" lon="2.76168">
        <ele>92</ele>
        <time>2024-05-11T09:47:10Z</time>
      </trkpt>
      <trkpt lat="48.37222" lon="2.76168">
        <ele>92</ele>
        <time>2024-05-11T09:47:13Z</time>
      </trkpt>
      <trkpt lat="48.37212" lon="2.76167">
        <ele>92.4</ele>
        <time>2024-05-11T09:47:21Z</time>
      </trkpt>
      <trkpt lat="48.37209" lon="2.76166">
        <ele>92.5</ele>
        <time>2024-05-11T09:47:23Z</time>
      </trkpt>
      <trkpt lat="48.37202" lon="2.76161">
        <ele>92.7</ele>
        <time>2024-05-11T09:47:31Z</time>
      </trkpt>
      <trkpt lat="48.372" lon="2.76161">
        <ele>92.8</ele>
        <time>2024-05-11T09:47:32Z</time>
      </trkpt>
      <trkpt lat="48.37196" lon="2.7616">
        <ele>92.9</ele>
        <time>2024-05-11T09:47:35Z</time>
      </trkpt>
      <trkpt lat="48.37182" lon="2.76159">
        <ele>93</ele>
        <time>2024-05-11T09:47:43Z</time>
      </trkpt>
      <trkpt lat="48.37176" lon="2.76152">
        <ele>93</ele>
        <time>2024-05-11T09:47:50Z</time>
      </trkpt>
      <trkpt lat="48.37168" lon="2.76149">
        <ele>93</ele>
        <time>2024-05-11T09:47:57Z</time>
      </trkpt>
      <trkpt lat="48.37167" lon="2.76147">
        <ele>93</ele>
        <time>2024-05-11T09:48:01Z</time>
      </trkpt>
      <trkpt lat="48.37163" lon="2.76144">
        <ele>93</ele>
        <time>2024-05-11T09:48:05Z</time>
      </trkpt>
      <trkpt lat="48.37159" lon="2.76141">
        <ele>93</ele>
        <time>2024-05-11T09:48:08Z</time>
      </trkpt>
      <trkpt lat="48.37152" lon="2.76137">
        <ele>93</ele>
        <time>2024-05-11T09:48:16Z</time>
      </trkpt>
      <trkpt lat="48.37149" lon="2.76137">
        <ele>93</ele>
        <time>2024-05-11T09:48:18Z</time>
      </trkpt>
      <trkpt lat="48.3714" lon="2.76128">
        <ele>93</ele>
        <time>2024-05-11T09:48:27Z</time>
      </trkpt>
      <trkpt lat="48.37139" lon="2.76127">
        <ele>93</ele>
        <time>2024-05-11T09:48:28Z</time>
      </trkpt>
      <trkpt lat="48.3713" lon="2.76123">
        <ele>93</ele>
        <time>2024-05-11T09:48:34Z</time>
      </trkpt>
      <trkpt lat="48.37126" lon="2.76121">
        <ele>93</ele>
        <time>2024-05-11T09:48:40Z</time>
      </trkpt>
      <trkpt lat="48.37124" lon="2.7612">
        <ele>93</ele>
        <time>2024-05-11T09:48:41Z</time>
      </trkpt>
      <trkpt lat="48.37118" lon="2.76115">
        <ele>93</ele>
        <time>2024-05-11T09:48:49Z</time>
      </trkpt>
      <trkpt lat="48.37116" lon="2.76114">
        <ele>93</ele>
        <time>2024-05-11T09:48:52Z</time>
      </trkpt>
      <trkpt lat="48.37113" lon="2.76112">
        <ele>93</ele>
        <time>2024-05-11T09:48:55Z</time>
      </trkpt>
      <trkpt lat="48.37107" lon="2.76108">
        <ele>93</ele>
        <time>2024-05-11T09:49:00Z</time>
      </trkpt>
      <trkpt lat="48.37099" lon="2.76102">
        <ele>93</ele>
        <time>2024-05-11T09:49:06Z</time>
      </trkpt>
      <trkpt lat="48.37094" lon="2.761">
        <ele>93</ele>
        <time>2024-05-11T09:49:12Z</time>
      </trkpt>
      <trkpt lat="48.37092" lon="2.76098">
        <ele>93</ele>
        <time>2024-05-11T09:49:14Z</time>
      </trkpt>
      <trkpt lat="48.37087" lon="2.76095">
        <ele>93</ele>
        <time>2024-05-11T09:49:17Z</time>
      </trkpt>
      <trkpt lat="48.37082" lon="2.76092">
        <ele>93</ele>
        <time>2024-05-11T09:49:20Z</time>
      </trkpt>
      <trkpt lat="48.37075" lon="2.76088">
        <ele>93</ele>
        <time>2024-05-11T09:49:26Z</time>
      </trkpt>
      <trkpt lat="48.37074" lon="2.76087">
        <ele>93</ele>
        <time>2024-05-11T09:49:27Z</time>
      </trkpt>
      <trkpt lat="48.37068" lon="2.76083">
        <ele>93</ele>
        <time>2024-05-11T09:49:32Z</time>
      </trkpt>
      <trkpt lat="48.37061" lon="2.76078">
        <ele>93.2</ele>
        <time>2024-05-11T09:49:38Z</time>
      </trkpt>
      <trkpt lat="48.37054" lon="2.76076">
        <ele>93.4</ele>
        <time>2024-05-11T09:49:44Z</time>
      </trkpt>
      <trkpt lat="48.37051" lon="2.76073">
        <ele>93.6</ele>
        <time>2024-05-11T09:49:46Z</time>
      </trkpt>
      <trkpt lat="48.37043" lon="2.7607">
        <ele>94.1</ele>
        <time>2024-05-11T09:49:53Z</time>
      </trkpt>
      <trkpt lat="48.37037" lon="2.76067">
        <ele>94.5</ele>
        <time>2024-05-11T09:50:00Z</time>
      </trkpt>
      <trkpt lat="48.37036" lon="2.76067">
        <ele>94.6</ele>
        <time>2024-05-11T09:50:08Z</time>
      </trkpt>
      <trkpt lat="48.37033" lon="2.76065">
        <ele>94.8</ele>
        <time>2024-05-11T09:50:14Z</time>
      </trkpt>
      <trkpt lat="48.37027" lon="2.76059">
        <ele>95.1</ele>
        <time>2024-05-11T09:50:22Z</time>
      </trkpt>
      <trkpt lat="48.37022" lon="2.76054">
        <ele>95.6</ele>
        <time>2024-05-11T09:50:28Z</time>
      </trkpt>
      <trkpt lat="48.37019" lon="2.76052">
        <ele>96</ele>
        <time>2024-05-11T09:50:35Z</time>
      </trkpt>
      <trkpt lat="48.37012" lon="2.76047">
        <ele>96.7</ele>
        <time>2024-05-11T09:50:40Z</time>
      </trkpt>
      <trkpt lat="48.37008" lon="2.76044">
        <ele>97.1</ele>
        <time>2024-05-11T09:50:45Z</time>
      </trkpt>
      <trkpt lat="48.37004" lon="2.76042">
        <ele>97.5</ele>
        <time>2024-05-11T09:50:51Z</time>
      </trkpt>
      <trkpt lat="48.37004" lon="2.76042">
        <ele>97.6</ele>
        <time>2024-05-11T09:50:52Z</time>
      </trkpt>
      <trkpt lat="48.37002" lon="2.76041">
        <ele>97.8</ele>
        <time>2024-05-11T09:50:53Z</time>
      </trkpt>
      <trkpt lat="48.36992" lon="2.76033">
        <ele>98.9</ele>
        <time>2024-05-11T09:51:01Z</time>
      </trkpt>
      <trkpt lat="48.36987" lon="2.76031">
        <ele>99.4</ele>
        <time>2024-05-11T09:51:07Z</time>
      </trkpt>
      <trkpt lat="48.36979" lon="2.76026">
        <ele>100.2</ele>
        <time>2024-05-11T09:51:13Z</time>
      </trkpt>
      <trkpt lat="48.36976" lon="2.76025">
        <ele>100.5</ele>
        <time>2024-05-11T09:51:19Z</time>
      </trkpt>
      <trkpt lat="48.36971" lon="2.76023">
        <ele>100.9</ele>
        <time>2024-05-11T09:51:23Z</time>
      </trkpt>
      <trkpt lat="48.36963" lon="2.76025">
        <ele>101.6</ele>
        <time>2024-05-11T09:51:31Z</time>
      </trkpt>
      <trkpt lat="48.36957" lon="2.76026">
        <ele>102</ele>
        <time>2024-05-11T09:51:37Z</time>
      </trkpt>
      <trkpt lat="48.36956" lon="2.76026">
        <ele>102.1</ele>
        <time>2024-05-11T09:51:38Z</time>
      </trkpt>
      <trkpt lat="48.36945" lon="2.76027">
        <ele>102.9</ele>
        <time>2024-05-11T09:51:45Z</time>
      </trkpt>
      <trkpt lat="48.36938" lon="2.76029">
        <ele>102.5</ele>
        <time>2024-05-11T09:51:51Z</time>
      </trkpt>
      <trkpt lat="48.36931" lon="2.76031">
        <ele>102.1</ele>
        <time>2024-05-11T09:51:57Z</time>
      </trkpt>
      <trkpt lat="48.36925" lon="2.76032">
        <ele>101.6</ele>
        <time>2024-05-11T09:52:03Z</time>
      </trkpt>
      <trkpt lat="48.3692" lon="2.76034">
        <ele>101.3</ele>
        <time>2024-05-11T09:52:10Z</time>
      </trkpt>
      <trkpt lat="48.36918" lon="2.76036">
        <ele>101.1</ele>
        <time>2024-05-11T09:52:16Z</time>
      </trkpt>
      <trkpt lat="48.36917" lon="2.76036">
        <ele>101.1</ele>
        <time>2024-05-11T09:52:18Z</time>
      </trkpt>
      <trkpt lat="48.36914" lon="2.76039">
        <ele>100.9</ele>
        <time>2024-05-11T09:52:25Z</time>
      </trkpt>
      <trkpt lat="48.3691" lon="2.7604">
        <ele>100.6</ele>
        <time>2024-05-11T09:52:31Z</time>
      </trkpt>
      <trkpt lat="48.36903" lon="2.76047">
        <ele>100.2</ele>
        <time>2024-05-11T09:52:38Z</time>
      </trkpt>
      <trkpt lat="48.36894" lon="2.76055">
        <ele>99.4</ele>
        <time>2024-05-11T09:52:47Z</time>
      </trkpt>
      <trkpt lat="48.36892" lon="2.76059">
        <ele>99.3</ele>
        <time>2024-05-11T09:52:51Z</time>
      </trkpt>
      <trkpt lat="48.36889" lon="2.76066">
        <ele>99</ele>
        <time>2024-05-11T09:52:57Z</time>
      </trkpt>
      <trkpt lat="48.36885" lon="2.76074">
        <ele>98.9</ele>
        <time>2024-05-11T09:53:04Z</time>
      </trkpt>
      <trkpt lat="48.36882" lon="2.76081">
        <ele>98.8</ele>
        <time>2024-05-11T09:53:09Z</time>
      </trkpt>
      <trkpt lat="48.36879" lon="2.76083">
        <ele>98.7</ele>
        <time>2024-05-11T09:53:11Z</time>
      </trkpt>
      <trkpt lat="48.36876" lon="2.76094">
        <ele>98.8</ele>
        <time>2024-05-11T09:53:19Z</time>
      </trkpt>
      <trkpt lat="48.36873" lon="2.76102">
        <ele>98.7</ele>
        <time>2024-05-11T09:53:26Z</time>
      </trkpt>
      <trkpt lat="48.36871" lon="2.76104">
        <ele>98.6</ele>
        <time>2024-05-11T09:53:32Z</time>
      </trkpt>
      <trkpt lat="48.36868" lon="2.76106">
        <ele>98.5</ele>
        <time>2024-05-11T09:53:47Z</time>
      </trkpt>
      <trkpt lat="48.36868" lon="2.76105">
        <ele>98.4</ele>
        <time>2024-05-11T09:53:56Z</time>
      </trkpt>
      <trkpt lat="48.36869" lon="2.76102">
        <ele>98.5</ele>
        <time>2024-05-11T09:54:04Z</time>
      </trkpt>
      <trkpt lat="48.36867" lon="2.76103">
        <ele>98.3</ele>
        <time>2024-05-11T09:54:08Z</time>
      </trkpt>
      <trkpt lat="48.36862" lon="2.7611">
        <ele>98</ele>
        <time>2024-05-11T09:54:14Z</time>
      </trkpt>
      <trkpt lat="48.36858" lon="2.76118">
        <ele>97.5</ele>
        <time>2024-05-11T09:54:20Z</time>
      </trkpt>
      <trkpt lat="48.36846" lon="2.76125">
        <ele>96.5</ele>
        <time>2024-05-11T09:54:29Z</time>
      </trkpt>
      <trkpt lat="48.36845" lon="2.76127">
        <ele>96.2</ele>
        <time>2024-05-11T09:54:31Z</time>
      </trkpt>
      <trkpt lat="48.36838" lon="2.76134">
        <ele>95.5</ele>
        <time>2024-05-11T09:54:38Z</time>
      </trkpt>
      <trkpt lat="48.36836" lon="2.7614">
        <ele>95.2</ele>
        <time>2024-05-11T09:54:44Z</time>
      </trkpt>
      <trkpt lat="48.36835" lon="2.76148">
        <ele>95.1</ele>
        <time>2024-05-11T09:54:51Z</time>
      </trkpt>
      <trkpt lat="48.36829" lon="2.76153">
        <ele>94.8</ele>
        <time>2024-05-11T09:54:58Z</time>
      </trkpt>
      <trkpt lat="48.36827" lon="2.76159">
        <ele>94.8</ele>
        <time>2024-05-11T09:55:04Z</time>
      </trkpt>
      <trkpt lat="48.36827" lon="2.7616">
        <ele>94.8</ele>
        <time>2024-05-11T09:55:05Z</time>
      </trkpt>
      <trkpt lat="48.36826" lon="2.76166">
        <ele>94.7</ele>
        <time>2024-05-11T09:55:12Z</time>
      </trkpt>
      <trkpt lat="48.36824" lon="2.76175">
        <ele>94.5</ele>
        <time>2024-05-11T09:55:19Z</time>
      </trkpt>
      <trkpt lat="48.36822" lon="2.7619">
        <ele>94.1</ele>
        <time>2024-05-11T09:55:28Z</time>
      </trkpt>
      <trkpt lat="48.36822" lon="2.76195">
        <ele>94</ele>
        <time>2024-05-11T09:55:31Z</time>
      </trkpt>
      <trkpt lat="48.36821" lon="2.76204">
        <ele>94.2</ele>
        <time>2024-05-11T09:55:35Z</time>
      </trkpt>
      <trkpt lat="48.36819" lon="2.76216">
        <ele>94.4</ele>
        <time>2024-05-11T09:55:43Z</time>
      </trkpt>
      <trkpt lat="48.36819" lon="2.76219">
        <ele>94.4</ele>
        <time>2024-05-11T09:55:45Z</time>
      </trkpt>
      <trkpt lat="48.36819" lon="2.76223">
        <ele>94.5</ele>
        <time>2024-05-11T09:55:47Z</time>
      </trkpt>
      <trkpt lat="48.36818" lon="2.76228">
        <ele>94.4</ele>
        <time>2024-05-11T09:55:50Z</time>
      </trkpt>
      <trkpt lat="48.36818" lon="2.76245">
        <ele>94.4</ele>
        <time>2024-05-11T09:56:00Z</time>
      </trkpt>
      <trkpt lat="48.36818" lon="2.76248">
        <ele>94.4</ele>
        <time>2024-05-11T09:56:02Z</time>
      </trkpt>
      <trkpt lat="48.36817" lon="2.76253">
        <ele>94.4</ele>
        <time>2024-05-11T09:56:05Z</time>
      </trkpt>
      <trkpt lat="48.36817" lon="2.76269">
        <ele>94.4</ele>
        <time>2024-05-11T09:56:12Z</time>
      </trkpt>
      <trkpt lat="48.36816" lon="2.76278">
        <ele>94.4</ele>
        <time>2024-05-11T09:56:18Z</time>
      </trkpt>
      <trkpt lat="48.36815" lon="2.76292">
        <ele>93.8</ele>
        <time>2024-05-11T09:56:26Z</time>
      </trkpt>
      <trkpt lat="48.36814" lon="2.76305">
        <ele>93.3</ele>
        <time>2024-05-11T09:56:34Z</time>
      </trkpt>
      <trkpt lat="48.36813" lon="2.76315">
        <ele>93.2</ele>
        <time>2024-05-11T09:56:40Z</time>
      </trkpt>
      <trkpt lat="48.36812" lon="2.7632">
        <ele>93.1</ele>
        <time>2024-05-11T09:56:42Z</time>
      </trkpt>
      <trkpt lat="48.36813" lon="2.76335">
        <ele>92.9</ele>
        <time>2024-05-11T09:56:50Z</time>
      </trkpt>
      <trkpt lat="48.36812" lon="2.76345">
        <ele>92.5</ele>
        <time>2024-05-11T09:56:57Z</time>
      </trkpt>
      <trkpt lat="48.36811" lon="2.76348">
        <ele>92.4</ele>
        <time>2024-05-11T09:56:59Z</time>
      </trkpt>
      <trkpt lat="48.36811" lon="2.76355">
        <ele>92.1</ele>
        <time>2024-05-11T09:57:03Z</time>
      </trkpt>
      <trkpt lat="48.36809" lon="2.7636">
        <ele>91.9</ele>
        <time>2024-05-11T09:57:06Z</time>
      </trkpt>
      <trkpt lat="48.36811" lon="2.76374">
        <ele>91</ele>
        <time>2024-05-11T09:57:13Z</time>
      </trkpt>
      <trkpt lat="48.36808" lon="2.76386">
        <ele>90.2</ele>
        <time>2024-05-11T09:57:19Z</time>
      </trkpt>
      <trkpt lat="48.36808" lon="2.76389">
        <ele>90</ele>
        <time>2024-05-11T09:57:21Z</time>
      </trkpt>
      <trkpt lat="48.36808" lon="2.76406">
        <ele>89.4</ele>
        <time>2024-05-11T09:57:29Z</time>
      </trkpt>
      <trkpt lat="48.36809" lon="2.76414">
        <ele>89.2</ele>
        <time>2024-05-11T09:57:33Z</time>
      </trkpt>
      <trkpt lat="48.36808" lon="2.76419">
        <ele>89.1</ele>
        <time>2024-05-11T09:57:36Z</time>
      </trkpt>
      <trkpt lat="48.36808" lon="2.76434">
        <ele>89.1</ele>
        <time>2024-05-11T09:57:42Z</time>
      </trkpt>
      <trkpt lat="48.36808" lon="2.76436">
        <ele>89.1</ele>
        <time>2024-05-11T09:57:43Z</time>
      </trkpt>
      <trkpt lat="48.36809" lon="2.7644">
        <ele>89.1</ele>
        <time>2024-05-11T09:57:45Z</time>
      </trkpt>
      <trkpt lat="48.3681" lon="2.76456">
        <ele>89.2</ele>
        <time>2024-05-11T09:57:53Z</time>
      </trkpt>
      <trkpt lat="48.3681" lon="2.76461">
        <ele>89.2</ele>
        <time>2024-05-11T09:57:57Z</time>
      </trkpt>
      <trkpt lat="48.36808" lon="2.76467">
        <ele>89.1</ele>
        <time>2024-05-11T09:58:01Z</time>
      </trkpt>
      <trkpt lat="48.36808" lon="2.76477">
        <ele>89.1</ele>
        <time>2024-05-11T09:58:08Z</time>
      </trkpt>
      <trkpt lat="48.36807" lon="2.7648">
        <ele>89.1</ele>
        <time>2024-05-11T09:58:12Z</time>
      </trkpt>
      <trkpt lat="48.36805" lon="2.76494">
        <ele>89</ele>
        <time>2024-05-11T09:58:19Z</time>
      </trkpt>
      <trkpt lat="48.36804" lon="2.76504">
        <ele>89</ele>
        <time>2024-05-11T09:58:25Z</time>
      </trkpt>
      <trkpt lat="48.36802" lon="2.76512">
        <ele>88.9</ele>
        <time>2024-05-11T09:58:29Z</time>
      </trkpt>
      <trkpt lat="48.36802" lon="2.76523">
        <ele>88.9</ele>
        <time>2024-05-11T09:58:35Z</time>
      </trkpt>
      <trkpt lat="48.36803" lon="2.76533">
        <ele>88.9</ele>
        <time>2024-05-11T09:58:39Z</time>
      </trkpt>
      <trkpt lat="48.36801" lon="2.7655">
        <ele>88.8</ele>
        <time>2024-05-11T09:58:48Z</time>
      </trkpt>
      <trkpt lat="48.36801" lon="2.76552">
        <ele>88.8</ele>
        <time>2024-05-11T09:58:49Z</time>
      </trkpt>
      <trkpt lat="48.36801" lon="2.76568">
        <ele>88.8</ele>
        <time>2024-05-11T09:58:56Z</time>
      </trkpt>
      <trkpt lat="48.36801" lon="2.7657">
        <ele>88.8</ele>
        <time>2024-05-11T09:58:57Z</time>
      </trkpt>
      <trkpt lat="48.368" lon="2.76582">
        <ele>88.8</ele>
        <time>2024-05-11T09:59:04Z</time>
      </trkpt>
      <trkpt lat="48.36799" lon="2.76586">
        <ele>88.8</ele>
        <time>2024-05-11T09:59:06Z</time>
      </trkpt>
      <trkpt lat="48.36797" lon="2.76601">
        <ele>88.7</ele>
        <time>2024-05-11T09:59:14Z</time>
      </trkpt>
      <trkpt lat="48.36796" lon="2.7661">
        <ele>88.7</ele>
        <time>2024-05-11T09:59:20Z</time>
      </trkpt>
      <trkpt lat="48.36796" lon="2.76611">
        <ele>88.6</ele>
        <time>2024-05-11T09:59:21Z</time>
      </trkpt>
      <trkpt lat="48.36795" lon="2.76615">
        <ele>88.6</ele>
        <time>2024-05-11T09:59:23Z</time>
      </trkpt>
      <trkpt lat="48.36795" lon="2.7662">
        <ele>88.6</ele>
        <time>2024-05-11T09:59:27Z</time>
      </trkpt>
      <trkpt lat="48.36795" lon="2.76625">
        <ele>88.6</ele>
        <time>2024-05-11T09:59:29Z</time>
      </trkpt>
      <trkpt lat="48.36795" lon="2.76641">
        <ele>88.6</ele>
        <time>2024-05-11T09:59:36Z</time>
      </trkpt>
      <trkpt lat="48.36796" lon="2.76658">
        <ele>88.7</ele>
        <time>2024-05-11T09:59:43Z</time>
      </trkpt>
      <trkpt lat="48.36795" lon="2.76669">
        <ele>88.6</ele>
        <time>2024-05-11T09:59:50Z</time>
      </trkpt>
      <trkpt lat="48.36794" lon="2.7668">
        <ele>88.6</ele>
        <time>2024-05-11T09:59:57Z</time>
      </trkpt>
      <trkpt lat="48.36795" lon="2.76685">
        <ele>88.6</ele>
        <time>2024-05-11T10:00:04Z</time>
      </trkpt>
      <trkpt lat="48.36796" lon="2.76687">
        <ele>88.7</ele>
        <time>2024-05-11T10:00:13Z</time>
      </trkpt>
      <trkpt lat="48.36796" lon="2.76689">
        <ele>88.7</ele>
        <time>2024-05-11T10:00:19Z</time>
      </trkpt>
      <trkpt lat="48.36797" lon="2.76691">
        <ele>88.7</ele>
        <time>2024-05-11T10:00:30Z</time>
      </trkpt>
      <trkpt lat="48.36794" lon="2.76691">
        <ele>88.6</ele>
        <time>2024-05-11T10:00:37Z</time>
      </trkpt>
      <trkpt lat="48.36792" lon="2.76692">
        <ele>88.5</ele>
        <time>2024-05-11T10:00:43Z</time>
      </trkpt>
      <trkpt lat="48.36786" lon="2.76693">
        <ele>88.3</ele>
        <time>2024-05-11T10:00:50Z</time>
      </trkpt>
      <trkpt lat="48.36782" lon="2.76698">
        <ele>88.2</ele>
        <time>2024-05-11T10:00:54Z</time>
      </trkpt>
      <trkpt lat="48.36777" lon="2.76699">
        <ele>88</ele>
        <time>2024-05-11T10:00:59Z</time>
      </trkpt>
      <trkpt lat="48.3677" lon="2.76697">
        <ele>88</ele>
        <time>2024-05-11T10:01:06Z</time>
      </trkpt>
      <trkpt lat="48.36763" lon="2.76699">
        <ele>88</ele>
        <time>2024-05-11T10:01:13Z</time>
      </trkpt>
      <trkpt lat="48.36755" lon="2.76699">
        <ele>88</ele>
        <time>2024-05-11T10:01:20Z</time>
      </trkpt>
      <trkpt lat="48.36749" lon="2.76699">
        <ele>88</ele>
        <time>2024-05-11T10:01:25Z</time>
      </trkpt>
      <trkpt lat="48.36743" lon="2.76698">
        <ele>88</ele>
        <time>2024-05-11T10:01:33Z</time>
      </trkpt>
      <trkpt lat="48.36739" lon="2.76698">
        <ele>88</ele>
        <time>2024-05-11T10:01:36Z</time>
      </trkpt>
      <trkpt lat="48.36733" lon="2.76697">
        <ele>88</ele>
        <time>2024-05-11T10:01:42Z</time>
      </trkpt>
      <trkpt lat="48.36721" lon="2.76695">
        <ele>88</ele>
        <time>2024-05-11T10:01:50Z</time>
      </trkpt>
      <trkpt lat="48.36713" lon="2.76691">
        <ele>88</ele>
        <time>2024-05-11T10:01:58Z</time>
      </trkpt>
      <trkpt lat="48.36707" lon="2.7669">
        <ele>88</ele>
        <time>2024-05-11T10:02:04Z</time>
      </trkpt>
      <trkpt lat="48.36695" lon="2.76689">
        <ele>88</ele>
        <time>2024-05-11T10:02:12Z</time>
      </trkpt>
      <trkpt lat="48.36692" lon="2.76689">
        <ele>87.9</ele>
        <time>2024-05-11T10:02:14Z</time>
      </trkpt>
      <trkpt lat="48.3669" lon="2.76689">
        <ele>87.8</ele>
        <time>2024-05-11T10:02:16Z</time>
      </trkpt>
      <trkpt lat="48.36687" lon="2.76689">
        <ele>87.7</ele>
        <time>2024-05-11T10:02:18Z</time>
      </trkpt>
      <trkpt lat="48.36678" lon="2.76688">
        <ele>87.4</ele>
        <time>2024-05-11T10:02:26Z</time>
      </trkpt>
      <trkpt lat="48.36675" lon="2.76688">
        <ele>87.3</ele>
        <time>2024-05-11T10:02:29Z</time>
      </trkpt>
      <trkpt lat="48.36661" lon="2.76685">
        <ele>87</ele>
        <time>2024-05-11T10:02:38Z</time>
      </trkpt>
      <trkpt lat="48.36654" lon="2.76685">
        <ele>87</ele>
        <time>2024-05-11T10:02:44Z</time>
      </trkpt>
      <trkpt lat="48.36642" lon="2.76686">
        <ele>87</ele>
        <time>2024-05-11T10:02:53Z</time>
      </trkpt>
      <trkpt lat="48.36634" lon="2.76685">
        <ele>86.8</ele>
        <time>2024-05-11T10:03:00Z</time>
      </trkpt>
      <trkpt lat="48.36633" lon="2.76685">
        <ele>86.8</ele>
        <time>2024-05-11T10:03:01Z</time>
      </trkpt>
      <trkpt lat="48.36625" lon="2.76683">
        <ele>86.5</ele>
        <time>2024-05-11T10:03:09Z</time>
      </trkpt>
      <trkpt lat="48.36614" lon="2.76682">
        <ele>86.1</ele>
        <time>2024-05-11T10:03:17Z</time>
      </trkpt>
      <trkpt lat="48.36609" lon="2.76682">
        <ele>86</ele>
        <time>2024-05-11T10:03:22Z</time>
      </trkpt>
      <trkpt lat="48.36605" lon="2.76682">
        <ele>86</ele>
        <time>2024-05-11T10:03:25Z</time>
      </trkpt>
      <trkpt lat="48.36594" lon="2.76681">
        <ele>86</ele>
        <time>2024-05-11T10:03:33Z</time>
      </trkpt>
      <trkpt lat="48.36586" lon="2.76679">
        <ele>86</ele>
        <time>2024-05-11T10:03:40Z</time>
      </trkpt>
      <trkpt lat="48.36574" lon="2.7668">
        <ele>86</ele>
        <time>2024-05-11T10:03:48Z</time>
      </trkpt>
      <trkpt lat="48.36573" lon="2.7668">
        <ele>86</ele>
        <time>2024-05-11T10:03:49Z</time>
      </trkpt>
      <trkpt lat="48.36562" lon="2.76679">
        <ele>86</ele>
        <time>2024-05-11T10:03:59Z</time>
      </trkpt>
      <trkpt lat="48.36556" lon="2.76678">
        <ele>86</ele>
        <time>2024-05-11T10:04:05Z</time>
      </trkpt>
      <trkpt lat="48.36547" lon="2.76678">
        <ele>85.8</ele>
        <time>2024-05-11T10:04:11Z</time>
      </trkpt>
      <trkpt lat="48.36545" lon="2.76677">
        <ele>85.8</ele>
        <time>2024-05-11T10:04:13Z</time>
      </trkpt>
      <trkpt lat="48.36538" lon="2.76676">
        <ele>85.6</ele>
        <time>2024-05-11T10:04:18Z</time>
      </trkpt>
      <trkpt lat="48.36529" lon="2.76674">
        <ele>85.3</ele>
        <time>2024-05-11T10:04:26Z</time>
      </trkpt>
      <trkpt lat="48.36522" lon="2.76673">
        <ele>85.2</ele>
        <time>2024-05-11T10:04:32Z</time>
      </trkpt>
      <trkpt lat="48.36518" lon="2.76673">
        <ele>85.2</ele>
        <time>2024-05-11T10:04:35Z</time>
      </trkpt>
      <trkpt lat="48.36515" lon="2.76673">
        <ele>85.1</ele>
        <time>2024-05-11T10:04:38Z</time>
      </trkpt>
      <trkpt lat="48.36509" lon="2.76672">
        <ele>85.1</ele>
        <time>2024-05-11T10:04:44Z</time>
      </trkpt>
      <trkpt lat="48.36496" lon="2.76671">
        <ele>85</ele>
        <time>2024-05-11T10:04:54Z</time>
      </trkpt>
      <trkpt lat="48.36486" lon="2.76669">
        <ele>85</ele>
        <time>2024-05-11T10:05:02Z</time>
      </trkpt>
      <trkpt lat="48.36478" lon="2.76666">
        <ele>85</ele>
        <time>2024-05-11T10:05:09Z</time>
      </trkpt>
      <trkpt lat="48.36472" lon="2.76664">
        <ele>85</ele>
        <time>2024-05-11T10:05:16Z</time>
      </trkpt>
      <trkpt lat="48.36462" lon="2.76663">
        <ele>85</ele>
        <time>2024-05-11T10:05:23Z</time>
      </trkpt>
      <trkpt lat="48.36452" lon="2.76664">
        <ele>85</ele>
        <time>2024-05-11T10:05:32Z</time>
      </trkpt>
      <trkpt lat="48.36449" lon="2.76664">
        <ele>85</ele>
        <time>2024-05-11T10:05:35Z</time>
      </trkpt>
      <trkpt lat="48.36439" lon="2.76663">
        <ele>85</ele>
        <time>2024-05-11T10:05:43Z</time>
      </trkpt>
      <trkpt lat="48.36433" lon="2.76664">
        <ele>85</ele>
        <time>2024-05-11T10:05:49Z</time>
      </trkpt>
      <trkpt lat="48.36427" lon="2.76662">
        <ele>85</ele>
        <time>2024-05-11T10:05:55Z</time>
      </trkpt>
      <trkpt lat="48.36418" lon="2.7666">
        <ele>85</ele>
        <time>2024-05-11T10:06:01Z</time>
      </trkpt>
      <trkpt lat="48.36409" lon="2.76659">
        <ele>85</ele>
        <time>2024-05-11T10:06:08Z</time>
      </trkpt>
      <trkpt lat="48.36402" lon="2.76658">
        <ele>85</ele>
        <time>2024-05-11T10:06:15Z</time>
      </trkpt>
      <trkpt lat="48.36394" lon="2.76658">
        <ele>85</ele>
        <time>2024-05-11T10:06:22Z</time>
      </trkpt>
      <trkpt lat="48.36381" lon="2.76656">
        <ele>85</ele>
        <time>2024-05-11T10:06:31Z</time>
      </trkpt>
      <trkpt lat="48.36372" lon="2.76655">
        <ele>85</ele>
        <time>2024-05-11T10:06:38Z</time>
      </trkpt>
      <trkpt lat="48.36367" lon="2.76655">
        <ele>85</ele>
        <time>2024-05-11T10:06:43Z</time>
      </trkpt>
      <trkpt lat="48.36359" lon="2.76656">
        <ele>85</ele>
        <time>2024-05-11T10:06:49Z</time>
      </trkpt>
      <trkpt lat="48.36352" lon="2.76655">
        <ele>85</ele>
        <time>2024-05-11T10:06:53Z</time>
      </trkpt>
      <trkpt lat="48.36344" lon="2.76653">
        <ele>85</ele>
        <time>2024-05-11T10:06:59Z</time>
      </trkpt>
      <trkpt lat="48.36335" lon="2.76652">
        <ele>85</ele>
        <time>2024-05-11T10:07:07Z</time>
      </trkpt>
      <trkpt lat="48.36329" lon="2.7665">
        <ele>85</ele>
        <time>2024-05-11T10:07:13Z</time>
      </trkpt>
      <trkpt lat="48.36324" lon="2.76652">
        <ele>85</ele>
        <time>2024-05-11T10:07:18Z</time>
      </trkpt>
      <trkpt lat="48.36322" lon="2.76652">
        <ele>85</ele>
        <time>2024-05-11T10:07:20Z</time>
      </trkpt>
      <trkpt lat="48.36318" lon="2.76653">
        <ele>85</ele>
        <time>2024-05-11T10:07:23Z</time>
      </trkpt>
      <trkpt lat="48.36308" lon="2.7665">
        <ele>85</ele>
        <time>2024-05-11T10:07:31Z</time>
      </trkpt>
      <trkpt lat="48.36305" lon="2.7665">
        <ele>85</ele>
        <time>2024-05-11T10:07:33Z</time>
      </trkpt>
      <trkpt lat="48.36292" lon="2.76647">
        <ele>84.5</ele>
        <time>2024-05-11T10:07:42Z</time>
      </trkpt>
      <trkpt lat="48.36285" lon="2.76648">
        <ele>84.3</ele>
        <time>2024-05-11T10:07:49Z</time>
      </trkpt>
      <trkpt lat="48.36277" lon="2.76646">
        <ele>84</ele>
        <time>2024-05-11T10:07:56Z</time>
      </trkpt>
      <trkpt lat="48.36269" lon="2.76644">
        <ele>83.7</ele>
        <time>2024-05-11T10:08:02Z</time>
      </trkpt>
      <trkpt lat="48.36259" lon="2.76643">
        <ele>83.3</ele>
        <time>2024-05-11T10:08:11Z</time>
      </trkpt>
      <trkpt lat="48.36252" lon="2.76643">
        <ele>83.1</ele>
        <time>2024-05-11T10:08:17Z</time>
      </trkpt>
      <trkpt lat="48.36243" lon="2.76641">
        <ele>83</ele>
        <time>2024-05-11T10:08:24Z</time>
      </trkpt>
      <trkpt lat="48.36235" lon="2.7664">
        <ele>83</ele>
        <time>2024-05-11T10:08:31Z</time>
      </trkpt>
      <trkpt lat="48.36226" lon="2.7664">
        <ele>83</ele>
        <time>2024-05-11T10:08:38Z</time>
      </trkpt>
      <trkpt lat="48.36224" lon="2.76639">
        <ele>83</ele>
        <time>2024-05-11T10:08:39Z</time>
      </trkpt>
      <trkpt lat="48.36214" lon="2.7664">
        <ele>83</ele>
        <time>2024-05-11T10:08:46Z</time>
      </trkpt>
      <trkpt lat="48.36204" lon="2.76639">
        <ele>83</ele>
        <time>2024-05-11T10:08:54Z</time>
      </trkpt>
      <trkpt lat="48.36196" lon="2.76638">
        <ele>83</ele>
        <time>2024-05-11T10:09:00Z</time>
      </trkpt>
      <trkpt lat="48.36186" lon="2.76639">
        <ele>82.7</ele>
        <time>2024-05-11T10:09:07Z</time>
      </trkpt>
      <trkpt lat="48.36175" lon="2.76639">
        <ele>82.3</ele>
        <time>2024-05-11T10:09:14Z</time>
      </trkpt>
      <trkpt lat="48.36165" lon="2.76639">
        <ele>82</ele>
        <time>2024-05-11T10:09:21Z</time>
      </trkpt>
      <trkpt lat="48.36155" lon="2.76637">
        <ele>82</ele>
        <time>2024-05-11T10:09:28Z</time>
      </trkpt>
      <trkpt lat="48.36145" lon="2.76634">
        <ele>82</ele>
        <time>2024-05-11T10:09:36Z</time>
      </trkpt>
      <trkpt lat="48.36139" lon="2.76631">
        <ele>82</ele>
        <time>2024-05-11T10:09:41Z</time>
      </trkpt>
      <trkpt lat="48.3613" lon="2.7663">
        <ele>82</ele>
        <time>2024-05-11T10:09:47Z</time>
      </trkpt>
      <trkpt lat="48.3612" lon="2.7663">
        <ele>82</ele>
        <time>2024-05-11T10:09:54Z</time>
      </trkpt>
      <trkpt lat="48.36119" lon="2.7663">
        <ele>82</ele>
        <time>2024-05-11T10:09:55Z</time>
      </trkpt>
      <trkpt lat="48.36115" lon="2.7663">
        <ele>82</ele>
        <time>2024-05-11T10:09:58Z</time>
      </trkpt>
      <trkpt lat="48.36106" lon="2.76629">
        <ele>82</ele>
        <time>2024-05-11T10:10:07Z</time>
      </trkpt>
      <trkpt lat="48.36096" lon="2.76626">
        <ele>82</ele>
        <time>2024-05-11T10:10:15Z</time>
      </trkpt>
      <trkpt lat="48.36087" lon="2.76626">
        <ele>82</ele>
        <time>2024-05-11T10:10:21Z</time>
      </trkpt>
      <trkpt lat="48.36083" lon="2.76625">
        <ele>82</ele>
        <time>2024-05-11T10:10:24Z</time>
      </trkpt>
      <trkpt lat="48.36071" lon="2.76624">
        <ele>82</ele>
        <time>2024-05-11T10:10:33Z</time>
      </trkpt>
      <trkpt lat="48.36061" lon="2.76621">
        <ele>82</ele>
        <time>2024-05-11T10:10:40Z</time>
      </trkpt>
      <trkpt lat="48.36051" lon="2.76623">
        <ele>82</ele>
        <time>2024-05-11T10:10:49Z</time>
      </trkpt>
      <trkpt lat="48.36049" lon="2.76622">
        <ele>82</ele>
        <time>2024-05-11T10:10:51Z</time>
      </trkpt>
      <trkpt lat="48.36031" lon="2.76621">
        <ele>82</ele>
        <time>2024-05-11T10:11:04Z</time>
      </trkpt>
      <trkpt lat="48.36024" lon="2.76621">
        <ele>82</ele>
        <time>2024-05-11T10:11:09Z</time>
      </trkpt>
      <trkpt lat="48.36014" lon="2.76619">
        <ele>82</ele>
        <time>2024-05-11T10:11:15Z</time>
      </trkpt>
      <trkpt lat="48.36013" lon="2.76619">
        <ele>82</ele>
        <time>2024-05-11T10:11:17Z</time>
      </trkpt>
      <trkpt lat="48.36006" lon="2.76618">
        <ele>82</ele>
        <time>2024-05-11T10:11:22Z</time>
      </trkpt>
      <trkpt lat="48.36002" lon="2.76618">
        <ele>82</ele>
        <time>2024-05-11T10:11:25Z</time>
      </trkpt>
      <trkpt lat="48.35997" lon="2.76618">
        <ele>82</ele>
        <time>2024-05-11T10:11:29Z</time>
      </trkpt>
      <trkpt lat="48.35985" lon="2.76616">
        <ele>82</ele>
        <time>2024-05-11T10:11:38Z</time>
      </trkpt>
      <trkpt lat="48.35974" lon="2.76614">
        <ele>82</ele>
        <time>2024-05-11T10:11:46Z</time>
      </trkpt>
      <trkpt lat="48.35964" lon="2.76615">
        <ele>82</ele>
        <time>2024-05-11T10:11:54Z</time>
      </trkpt>
      <trkpt lat="48.35956" lon="2.76613">
        <ele>82</ele>
        <time>2024-05-11T10:12:00Z</time>
      </trkpt>
      <trkpt lat="48.35946" lon="2.76612">
        <ele>82</ele>
        <time>2024-05-11T10:12:08Z</time>
      </trkpt>
      <trkpt lat="48.35933" lon="2.76613">
        <ele>82</ele>
        <time>2024-05-11T10:12:19Z</time>
      </trkpt>
      <trkpt lat="48.35927" lon="2.76612">
        <ele>82</ele>
        <time>2024-05-11T10:12:24Z</time>
      </trkpt>
      <trkpt lat="48.35922" lon="2.76611">
        <ele>82</ele>
        <time>2024-05-11T10:12:28Z</time>
      </trkpt>
      <trkpt lat="48.35917" lon="2.7661">
        <ele>82</ele>
        <time>2024-05-11T10:12:32Z</time>
      </trkpt>
      <trkpt lat="48.35907" lon="2.76607">
        <ele>81.6</ele>
        <time>2024-05-11T10:12:40Z</time>
      </trkpt>
      <trkpt lat="48.35906" lon="2.76608">
        <ele>81.5</ele>
        <time>2024-05-11T10:12:41Z</time>
      </trkpt>
      <trkpt lat="48.35897" lon="2.76609">
        <ele>81.3</ele>
        <time>2024-05-11T10:12:48Z</time>
      </trkpt>
      <trkpt lat="48.3589" lon="2.76606">
        <ele>81</ele>
        <time>2024-05-11T10:12:54Z</time>
      </trkpt>
      <trkpt lat="48.35885" lon="2.76607">
        <ele>81</ele>
        <time>2024-05-11T10:12:58Z</time>
      </trkpt>
      <trkpt lat="48.3588" lon="2.76604">
        <ele>81.1</ele>
        <time>2024-05-11T10:13:04Z</time>
      </trkpt>
      <trkpt lat="48.35876" lon="2.76605">
        <ele>81.1</ele>
        <time>2024-05-11T10:13:07Z</time>
      </trkpt>
      <trkpt lat="48.35865" lon="2.76606">
        <ele>81.1</ele>
        <time>2024-05-11T10:13:16Z</time>
      </trkpt>
      <trkpt lat="48.35861" lon="2.76607">
        <ele>81.1</ele>
        <time>2024-05-11T10:13:21Z</time>
      </trkpt>
      <trkpt lat="48.35855" lon="2.7661">
        <ele>81.1</ele>
        <time>2024-05-11T10:13:28Z</time>
      </trkpt>
      <trkpt lat="48.35855" lon="2.76608">
        <ele>81.1</ele>
        <time>2024-05-11T10:13:41Z</time>
      </trkpt>
      <trkpt lat="48.35854" lon="2.76608">
        <ele>81.1</ele>
        <time>2024-05-11T10:13:44Z</time>
      </trkpt>
      <trkpt lat="48.35852" lon="2.76604">
        <ele>81.2</ele>
        <time>2024-05-11T10:13:51Z</time>
      </trkpt>
      <trkpt lat="48.35847" lon="2.76603">
        <ele>81.3</ele>
        <time>2024-05-11T10:13:59Z</time>
      </trkpt>
      <trkpt lat="48.35847" lon="2.76603">
        <ele>81.3</ele>
        <time>2024-05-11T10:14:07Z</time>
      </trkpt>
      <trkpt lat="48.35845" lon="2.76602">
        <ele>81.3</ele>
        <time>2024-05-11T10:14:21Z</time>
      </trkpt>
      <trkpt lat="48.35845" lon="2.76602">
        <ele>81.3</ele>
        <time>2024-05-11T10:14:29Z</time>
      </trkpt>
      <trkpt lat="48.35844" lon="2.76601">
        <ele>81.4</ele>
        <time>2024-05-11T10:14:40Z</time>
      </trkpt>
      <trkpt lat="48.35844" lon="2.76601">
        <ele>81.4</ele>
        <time>2024-05-11T10:14:52Z</time>
      </trkpt>
      <trkpt lat="48.35844" lon="2.76601">
        <ele>81.4</ele>
        <time>2024-05-11T10:15:08Z</time>
      </trkpt>
      <trkpt lat="48.35843" lon="2.76601">
        <ele>81.4</ele>
        <time>2024-05-11T10:15:17Z</time>
      </trkpt>
      <trkpt lat="48.35843" lon="2.76601">
        <ele>81.4</ele>
        <time>2024-05-11T10:15:31Z</time>
      </trkpt>
      <trkpt lat="48.35843" lon="2.76601">
        <ele>81.4</ele>
        <time>2024-05-11T10:15:45Z</time>
      </trkpt>
      <trkpt lat="48.35842" lon="2.76601">
        <ele>81.4</ele>
        <time>2024-05-11T10:16:00Z</time>
      </trkpt>
      <trkpt lat="48.35842" lon="2.76602">
        <ele>81.3</ele>
        <time>2024-05-11T10:16:13Z</time>
      </trkpt>
      <trkpt lat="48.35842" lon="2.76602">
        <ele>81.3</ele>
        <time>2024-05-11T10:16:29Z</time>
      </trkpt>
      <trkpt lat="48.35842" lon="2.76602">
        <ele>81.3</ele>
        <time>2024-05-11T10:16:38Z</time>
      </trkpt>
      <trkpt lat="48.35842" lon="2.76602">
        <ele>81.3</ele>
        <time>2024-05-11T10:16:49Z</time>
      </trkpt>
      <trkpt lat="48.35843" lon="2.76606">
        <ele>81.2</ele>
        <time>2024-05-11T10:16:56Z</time>
      </trkpt>
      <trkpt lat="48.35841" lon="2.7661">
        <ele>81</ele>
        <time>2024-05-11T10:17:02Z</time>
      </trkpt>
      <trkpt lat="48.35839" lon="2.76613">
        <ele>81</ele>
        <time>2024-05-11T10:17:05Z</time>
      </trkpt>
      <trkpt lat="48.35834" lon="2.76623">
        <ele>81</ele>
        <time>2024-05-11T10:17:14Z</time>
      </trkpt>
      <trkpt lat="48.35828" lon="2.76632">
        <ele>81.2</ele>
        <time>2024-05-11T10:17:22Z</time>
      </trkpt>
      <trkpt lat="48.35822" lon="2.76639">
        <ele>81.4</ele>
        <time>2024-05-11T10:17:28Z</time>
      </trkpt>
      <trkpt lat="48.35817" lon="2.76646">
        <ele>81.6</ele>
        <time>2024-05-11T10:17:35Z</time>
      </trkpt>
      <trkpt lat="48.35807" lon="2.76658">
        <ele>81.9</ele>
        <time>2024-05-11T10:17:45Z</time>
      </trkpt>
      <trkpt lat="48.358" lon="2.76664">
        <ele>82</ele>
        <time>2024-05-11T10:17:51Z</time>
      </trkpt>
      <trkpt lat="48.35793" lon="2.76674">
        <ele>81.7</ele>
        <time>2024-05-11T10:17:59Z</time>
      </trkpt>
      <trkpt lat="48.35793" lon="2.76675">
        <ele>81.7</ele>
        <time>2024-05-11T10:18:00Z</time>
      </trkpt>
      <trkpt lat="48.35785" lon="2.76686">
        <ele>81.3</ele>
        <time>2024-05-11T10:18:08Z</time>
      </trkpt>
      <trkpt lat="48.35783" lon="2.76689">
        <ele>81.2</ele>
        <time>2024-05-11T10:18:11Z</time>
      </trkpt>
      <trkpt lat="48.35774" lon="2.76703">
        <ele>81</ele>
        <time>2024-05-11T10:18:21Z</time>
      </trkpt>
      <trkpt lat="48.35769" lon="2.76713">
        <ele>81.2</ele>
        <time>2024-05-11T10:18:28Z</time>
      </trkpt>
      <trkpt lat="48.35761" lon="2.76722">
        <ele>81.6</ele>
        <time>2024-05-11T10:18:36Z</time>
      </trkpt>
      <trkpt lat="48.35755" lon="2.76729">
        <ele>81.6</ele>
        <time>2024-05-11T10:18:43Z</time>
      </trkpt>
      <trkpt lat="48.35753" lon="2.76732">
        <ele>81.6</ele>
        <time>2024-05-11T10:18:45Z</time>
      </trkpt>
      <trkpt lat="48.3575" lon="2.76733">
        <ele>81.6</ele>
        <time>2024-05-11T10:18:47Z</time>
      </trkpt>
      <trkpt lat="48.35743" lon="2.76739">
        <ele>81.4</ele>
        <time>2024-05-11T10:18:52Z</time>
      </trkpt>
      <trkpt lat="48.35734" lon="2.76748">
        <ele>81.1</ele>
        <time>2024-05-11T10:19:01Z</time>
      </trkpt>
      <trkpt lat="48.35728" lon="2.76758">
        <ele>81</ele>
        <time>2024-05-11T10:19:09Z</time>
      </trkpt>
      <trkpt lat="48.35726" lon="2.7676">
        <ele>81</ele>
        <time>2024-05-11T10:19:11Z</time>
      </trkpt>
      <trkpt lat="48.35719" lon="2.76767">
        <ele>81</ele>
        <time>2024-05-11T10:19:17Z</time>
      </trkpt>
      <trkpt lat="48.35709" lon="2.76779">
        <ele>81</ele>
        <time>2024-05-11T10:19:26Z</time>
      </trkpt>
      <trkpt lat="48.35705" lon="2.76786">
        <ele>81</ele>
        <time>2024-05-11T10:19:31Z</time>
      </trkpt>
      <trkpt lat="48.35704" lon="2.76789">
        <ele>81</ele>
        <time>2024-05-11T10:19:33Z</time>
      </trkpt>
      <trkpt lat="48.35696" lon="2.76799">
        <ele>81</ele>
        <time>2024-05-11T10:19:40Z</time>
      </trkpt>
      <trkpt lat="48.35688" lon="2.7681">
        <ele>81</ele>
        <time>2024-05-11T10:19:49Z</time>
      </trkpt>
      <trkpt lat="48.35679" lon="2.76817">
        <ele>81</ele>
        <time>2024-05-11T10:19:57Z</time>
      </trkpt>
      <trkpt lat="48.35671" lon="2.76826">
        <ele>81</ele>
        <time>2024-05-11T10:20:04Z</time>
      </trkpt>
      <trkpt lat="48.35668" lon="2.76829">
        <ele>81</ele>
        <time>2024-05-11T10:20:07Z</time>
      </trkpt>
      <trkpt lat="48.35665" lon="2.76832">
        <ele>81</ele>
        <time>2024-05-11T10:20:10Z</time>
      </trkpt>
      <trkpt lat="48.35655" lon="2.76842">
        <ele>81</ele>
        <time>2024-05-11T10:20:19Z</time>
      </trkpt>
      <trkpt lat="48.35647" lon="2.76852">
        <ele>81</ele>
        <time>2024-05-11T10:20:27Z</time>
      </trkpt>
      <trkpt lat="48.35646" lon="2.76854">
        <ele>81</ele>
        <time>2024-05-11T10:20:29Z</time>
      </trkpt>
      <trkpt lat="48.35638" lon="2.76865">
        <ele>81</ele>
        <time>2024-05-11T10:20:37Z</time>
      </trkpt>
      <trkpt lat="48.35631" lon="2.76875">
        <ele>81</ele>
        <time>2024-05-11T10:20:45Z</time>
      </trkpt>
      <trkpt lat="48.3563" lon="2.76876">
        <ele>81</ele>
        <time>2024-05-11T10:20:46Z</time>
      </trkpt>
      <trkpt lat="48.35621" lon="2.76884">
        <ele>81</ele>
        <time>2024-05-11T10:20:54Z</time>
      </trkpt>
      <trkpt lat="48.35619" lon="2.76885">
        <ele>81</ele>
        <time>2024-05-11T10:20:56Z</time>
      </trkpt>
      <trkpt lat="48.35617" lon="2.76892">
        <ele>81</ele>
        <time>2024-05-11T10:21:00Z</time>
      </trkpt>
      <trkpt lat="48.35611" lon="2.76901">
        <ele>81</ele>
        <time>2024-05-11T10:21:07Z</time>
      </trkpt>
      <trkpt lat="48.3561" lon="2.76903">
        <ele>81</ele>
        <time>2024-05-11T10:21:08Z</time>
      </trkpt>
      <trkpt lat="48.35601" lon="2.76914">
        <ele>81</ele>
        <time>2024-05-11T10:21:17Z</time>
      </trkpt>
      <trkpt lat="48.35595" lon="2.76924">
        <ele>81</ele>
        <time>2024-05-11T10:21:25Z</time>
      </trkpt>
      <trkpt lat="48.35591" lon="2.76933">
        <ele>81</ele>
        <time>2024-05-11T10:21:31Z</time>
      </trkpt>
      <trkpt lat="48.35581" lon="2.76945">
        <ele>81</ele>
        <time>2024-05-11T10:21:40Z</time>
      </trkpt>
      <trkpt lat="48.35573" lon="2.76952">
        <ele>81</ele>
        <time>2024-05-11T10:21:48Z</time>
      </trkpt>
      <trkpt lat="48.35563" lon="2.76962">
        <ele>81</ele>
        <time>2024-05-11T10:21:56Z</time>
      </trkpt>
      <trkpt lat="48.35558" lon="2.76972">
        <ele>81</ele>
        <time>2024-05-11T10:22:04Z</time>
      </trkpt>
      <trkpt lat="48.35551" lon="2.76981">
        <ele>81.2</ele>
        <time>2024-05-11T10:22:11Z</time>
      </trkpt>
      <trkpt lat="48.35545" lon="2.76994">
        <ele>81.4</ele>
        <time>2024-05-11T10:22:20Z</time>
      </trkpt>
      <trkpt lat="48.3554" lon="2.77">
        <ele>81.5</ele>
        <time>2024-05-11T10:22:26Z</time>
      </trkpt>
      <trkpt lat="48.35534" lon="2.77008">
        <ele>81.5</ele>
        <time>2024-05-11T10:22:33Z</time>
      </trkpt>
      <trkpt lat="48.35531" lon="2.77011">
        <ele>81.5</ele>
        <time>2024-05-11T10:22:36Z</time>
      </trkpt>
      <trkpt lat="48.35522" lon="2.77017">
        <ele>81.5</ele>
        <time>2024-05-11T10:22:43Z</time>
      </trkpt>
      <trkpt lat="48.35518" lon="2.77021">
        <ele>81.5</ele>
        <time>2024-05-11T10:22:46Z</time>
      </trkpt>
      <trkpt lat="48.35508" lon="2.7703">
        <ele>81.7</ele>
        <time>2024-05-11T10:22:53Z</time>
      </trkpt>
      <trkpt lat="48.355" lon="2.77041">
        <ele>82</ele>
        <time>2024-05-11T10:23:01Z</time>
      </trkpt>
      <trkpt lat="48.35495" lon="2.7705">
        <ele>82</ele>
        <time>2024-05-11T10:23:08Z</time>
      </trkpt>
      <trkpt lat="48.35491" lon="2.77059">
        <ele>81.9</ele>
        <time>2024-05-11T10:23:15Z</time>
      </trkpt>
      <trkpt lat="48.35488" lon="2.77062">
        <ele>81.9</ele>
        <time>2024-05-11T10:23:18Z</time>
      </trkpt>
      <trkpt lat="48.35482" lon="2.77072">
        <ele>81.8</ele>
        <time>2024-05-11T10:23:25Z</time>
      </trkpt>
      <trkpt lat="48.35481" lon="2.77073">
        <ele>81.8</ele>
        <time>2024-05-11T10:23:27Z</time>
      </trkpt>
      <trkpt lat="48.35474" lon="2.77083">
        <ele>81.9</ele>
        <time>2024-05-11T10:23:33Z</time>
      </trkpt>
      <trkpt lat="48.35466" lon="2.77091">
        <ele>82.3</ele>
        <time>2024-05-11T10:23:41Z</time>
      </trkpt>
      <trkpt lat="48.35461" lon="2.77098">
        <ele>82.6</ele>
        <time>2024-05-11T10:23:47Z</time>
      </trkpt>
      <trkpt lat="48.35457" lon="2.77109">
        <ele>83.1</ele>
        <time>2024-05-11T10:23:53Z</time>
      </trkpt>
      <trkpt lat="48.35455" lon="2.77115">
        <ele>83.2</ele>
        <time>2024-05-11T10:23:57Z</time>
      </trkpt>
      <trkpt lat="48.35448" lon="2.77133">
        <ele>83</ele>
        <time>2024-05-11T10:24:08Z</time>
      </trkpt>
      <trkpt lat="48.35444" lon="2.77142">
        <ele>82.9</ele>
        <time>2024-05-11T10:24:14Z</time>
      </trkpt>
      <trkpt lat="48.35439" lon="2.77151">
        <ele>83.1</ele>
        <time>2024-05-11T10:24:21Z</time>
      </trkpt>
      <trkpt lat="48.35436" lon="2.77156">
        <ele>83.2</ele>
        <time>2024-05-11T10:24:27Z</time>
      </trkpt>
      <trkpt lat="48.35434" lon="2.77163">
        <ele>83.2</ele>
        <time>2024-05-11T10:24:32Z</time>
      </trkpt>
      <trkpt lat="48.35431" lon="2.77171">
        <ele>83.4</ele>
        <time>2024-05-11T10:24:37Z</time>
      </trkpt>
      <trkpt lat="48.3543" lon="2.77181">
        <ele>83.3</ele>
        <time>2024-05-11T10:24:43Z</time>
      </trkpt>
      <trkpt lat="48.35427" lon="2.77191">
        <ele>83.3</ele>
        <time>2024-05-11T10:24:47Z</time>
      </trkpt>
      <trkpt lat="48.35424" lon="2.77197">
        <ele>83.5</ele>
        <time>2024-05-11T10:24:51Z</time>
      </trkpt>
      <trkpt lat="48.35418" lon="2.772">
        <ele>84.1</ele>
        <time>2024-05-11T10:24:56Z</time>
      </trkpt>
      <trkpt lat="48.35415" lon="2.77211">
        <ele>84.9</ele>
        <time>2024-05-11T10:25:01Z</time>
      </trkpt>
      <trkpt lat="48.35413" lon="2.7722">
        <ele>85.7</ele>
        <time>2024-05-11T10:25:10Z</time>
      </trkpt>
      <trkpt lat="48.3541" lon="2.77228">
        <ele>86.2</ele>
        <time>2024-05-11T10:25:16Z</time>
      </trkpt>
      <trkpt lat="48.35408" lon="2.7723">
        <ele>86.6</ele>
        <time>2024-05-11T10:25:18Z</time>
      </trkpt>
      <trkpt lat="48.35398" lon="2.77239">
        <ele>87.9</ele>
        <time>2024-05-11T10:25:27Z</time>
      </trkpt>
      <trkpt lat="48.35394" lon="2.77244">
        <ele>88.5</ele>
        <time>2024-05-11T10:25:35Z</time>
      </trkpt>
      <trkpt lat="48.35388" lon="2.77247">
        <ele>89.3</ele>
        <time>2024-05-11T10:25:41Z</time>
      </trkpt>
      <trkpt lat="48.35386" lon="2.77248">
        <ele>89.9</ele>
        <time>2024-05-11T10:25:43Z</time>
      </trkpt>
      <trkpt lat="48.35379" lon="2.77252">
        <ele>91.3</ele>
        <time>2024-05-11T10:25:48Z</time>
      </trkpt>
      <trkpt lat="48.35373" lon="2.77254">
        <ele>92.9</ele>
        <time>2024-05-11T10:25:56Z</time>
      </trkpt>
      <trkpt lat="48.35369" lon="2.77253">
        <ele>93.9</ele>
        <time>2024-05-11T10:26:03Z</time>
      </trkpt>
      <trkpt lat="48.35365" lon="2.77248">
        <ele>95.2</ele>
        <time>2024-05-11T10:26:11Z</time>
      </trkpt>
      <trkpt lat="48.35362" lon="2.77247">
        <ele>96.1</ele>
        <time>2024-05-11T10:26:17Z</time>
      </trkpt>
      <trkpt lat="48.35353" lon="2.77246">
        <ele>97.1</ele>
        <time>2024-05-11T10:26:25Z</time>
      </trkpt>
      <trkpt lat="48.35343" lon="2.77252">
        <ele>97.9</ele>
        <time>2024-05-11T10:26:33Z</time>
      </trkpt>
      <trkpt lat="48.35338" lon="2.77256">
        <ele>98.3</ele>
        <time>2024-05-11T10:26:40Z</time>
      </trkpt>
      <trkpt lat="48.3533" lon="2.77257">
        <ele>98</ele>
        <time>2024-05-11T10:26:47Z</time>
      </trkpt>
      <trkpt lat="48.35326" lon="2.77258">
        <ele>96.9</ele>
        <time>2024-05-11T10:26:52Z</time>
      </trkpt>
      <trkpt lat="48.35318" lon="2.77259">
        <ele>95.3</ele>
        <time>2024-05-11T10:27:01Z</time>
      </trkpt>
      <trkpt lat="48.35315" lon="2.77259">
        <ele>94.5</ele>
        <time>2024-05-11T10:27:07Z</time>
      </trkpt>
      <trkpt lat="48.3531" lon="2.77261">
        <ele>93.3</ele>
        <time>2024-05-11T10:27:13Z</time>
      </trkpt>
      <trkpt lat="48.35304" lon="2.77261">
        <ele>92.2</ele>
        <time>2024-05-11T10:27:18Z</time>
      </trkpt>
      <trkpt lat="48.353" lon="2.77259">
        <ele>91.4</ele>
        <time>2024-05-11T10:27:25Z</time>
      </trkpt>
      <trkpt lat="48.35301" lon="2.77259">
        <ele>91.5</ele>
        <time>2024-05-11T10:27:37Z</time>
      </trkpt>
      <trkpt lat="48.35301" lon="2.77261">
        <ele>91.6</ele>
        <time>2024-05-11T10:27:44Z</time>
      </trkpt>
      <trkpt lat="48.35299" lon="2.77263">
        <ele>91.4</ele>
        <time>2024-05-11T10:27:49Z</time>
      </trkpt>
      <trkpt lat="48.35295" lon="2.77262">
        <ele>90.8</ele>
        <time>2024-05-11T10:27:58Z</time>
      </trkpt>
      <trkpt lat="48.35293" lon="2.77263">
        <ele>90.4</ele>
        <time>2024-05-11T10:28:12Z</time>
      </trkpt>
      <trkpt lat="48.35288" lon="2.77262">
        <ele>89.6</ele>
        <time>2024-05-11T10:28:26Z</time>
      </trkpt>
      <trkpt lat="48.35287" lon="2.77263">
        <ele>89.5</ele>
        <time>2024-05-11T10:28:37Z</time>
      </trkpt>
      <trkpt lat="48.35287" lon="2.77262">
        <ele>89.4</ele>
        <time>2024-05-11T10:28:48Z</time>
      </trkpt>
      <trkpt lat="48.35286" lon="2.77261">
        <ele>89.2</ele>
        <time>2024-05-11T10:29:00Z</time>
      </trkpt>
      <trkpt lat="48.35284" lon="2.77262">
        <ele>88.9</ele>
        <time>2024-05-11T10:29:12Z</time>
      </trkpt>
      <trkpt lat="48.35283" lon="2.77262">
        <ele>88.7</ele>
        <time>2024-05-11T10:29:23Z</time>
      </trkpt>
      <trkpt lat="48.35282" lon="2.77262">
        <ele>88.6</ele>
        <time>2024-05-11T10:29:30Z</time>
      </trkpt>
      <trkpt lat="48.35281" lon="2.77266">
        <ele>88.6</ele>
        <time>2024-05-11T10:29:34Z</time>
      </trkpt>
      <trkpt lat="48.35276" lon="2.77271">
        <ele>88.4</ele>
        <time>2024-05-11T10:29:41Z</time>
      </trkpt>
      <trkpt lat="48.3527" lon="2.77275">
        <ele>88.3</ele>
        <time>2024-05-11T10:29:48Z</time>
      </trkpt>
      <trkpt lat="48.35264" lon="2.77284">
        <ele>87.9</ele>
        <time>2024-05-11T10:29:56Z</time>
      </trkpt>
      <trkpt lat="48.35256" lon="2.77291">
        <ele>87.3</ele>
        <time>2024-05-11T10:30:03Z</time>
      </trkpt>
      <trkpt lat="48.35251" lon="2.77294">
        <ele>87.1</ele>
        <time>2024-05-11T10:30:08Z</time>
      </trkpt>
      <trkpt lat="48.35246" lon="2.77299">
        <ele>86.9</ele>
        <time>2024-05-11T10:30:13Z</time>
      </trkpt>
      <trkpt lat="48.35239" lon="2.77305">
        <ele>86.6</ele>
        <time>2024-05-11T10:30:18Z</time>
      </trkpt>
      <trkpt lat="48.35233" lon="2.77313">
        <ele>86.4</ele>
        <time>2024-05-11T10:30:24Z</time>
      </trkpt>
      <trkpt lat="48.35223" lon="2.77321">
        <ele>86</ele>
        <time>2024-05-11T10:30:33Z</time>
      </trkpt>
      <trkpt lat="48.35221" lon="2.77325">
        <ele>86</ele>
        <time>2024-05-11T10:30:37Z</time>
      </trkpt>
      <trkpt lat="48.35207" lon="2.77332">
        <ele>86</ele>
        <time>2024-05-11T10:30:46Z</time>
      </trkpt>
      <trkpt lat="48.35202" lon="2.77336">
        <ele>86.1</ele>
        <time>2024-05-11T10:30:51Z</time>
      </trkpt>
      <trkpt lat="48.35199" lon="2.77341">
        <ele>86.3</ele>
        <time>2024-05-11T10:30:59Z</time>
      </trkpt>
      <trkpt lat="48.35196" lon="2.77345">
        <ele>86.4</ele>
        <time>2024-05-11T10:31:05Z</time>
      </trkpt>
      <trkpt lat="48.35192" lon="2.7735">
        <ele>86.7</ele>
        <time>2024-05-11T10:31:11Z</time>
      </trkpt>
      <trkpt lat="48.35187" lon="2.77362">
        <ele>87</ele>
        <time>2024-05-11T10:31:17Z</time>
      </trkpt>
      <trkpt lat="48.35176" lon="2.7737">
        <ele>87</ele>
        <time>2024-05-11T10:31:24Z</time>
      </trkpt>
      <trkpt lat="48.35169" lon="2.77378">
        <ele>87</ele>
        <time>2024-05-11T10:31:32Z</time>
      </trkpt>
      <trkpt lat="48.35165" lon="2.77385">
        <ele>87</ele>
        <time>2024-05-11T10:31:39Z</time>
      </trkpt>
      <trkpt lat="48.35155" lon="2.77392">
        <ele>86.5</ele>
        <time>2024-05-11T10:31:47Z</time>
      </trkpt>
      <trkpt lat="48.35145" lon="2.77397">
        <ele>86.2</ele>
        <time>2024-05-11T10:31:55Z</time>
      </trkpt>
      <trkpt lat="48.35143" lon="2.77398">
        <ele>86.1</ele>
        <time>2024-05-11T10:31:56Z</time>
      </trkpt>
      <trkpt lat="48.35128" lon="2.774">
        <ele>86</ele>
        <time>2024-05-11T10:32:05Z</time>
      </trkpt>
      <trkpt lat="48.35109" lon="2.77408">
        <ele>86</ele>
        <time>2024-05-11T10:32:14Z</time>
      </trkpt>
      <trkpt lat="48.351" lon="2.7741">
        <ele>85.7</ele>
        <time>2024-05-11T10:32:20Z</time>
      </trkpt>
      <trkpt lat="48.35092" lon="2.77409">
        <ele>85.5</ele>
        <time>2024-05-11T10:32:27Z</time>
      </trkpt>
      <trkpt lat="48.35089" lon="2.77409">
        <ele>85.4</ele>
        <time>2024-05-11T10:32:30Z</time>
      </trkpt>
      <trkpt lat="48.35087" lon="2.7741">
        <ele>85.3</ele>
        <time>2024-05-11T10:32:32Z</time>
      </trkpt>
      <trkpt lat="48.35078" lon="2.77412">
        <ele>84.9</ele>
        <time>2024-05-11T10:32:39Z</time>
      </trkpt>
      <trkpt lat="48.35069" lon="2.7741">
        <ele>84.7</ele>
        <time>2024-05-11T10:32:46Z</time>
      </trkpt>
      <trkpt lat="48.35067" lon="2.7741">
        <ele>84.6</ele>
        <time>2024-05-11T10:32:48Z</time>
      </trkpt>
      <trkpt lat="48.3506" lon="2.7741">
        <ele>84.4</ele>
        <time>2024-05-11T10:32:53Z</time>
      </trkpt>
      <trkpt lat="48.35051" lon="2.77409">
        <ele>84.2</ele>
        <time>2024-05-11T10:33:01Z</time>
      </trkpt>
      <trkpt lat="48.35047" lon="2.77409">
        <ele>84.2</ele>
        <time>2024-05-11T10:33:07Z</time>
      </trkpt>
      <trkpt lat="48.35042" lon="2.7741">
        <ele>84.1</ele>
        <time>2024-05-11T10:33:14Z</time>
      </trkpt>
      <trkpt lat="48.35032" lon="2.77412">
        <ele>84</ele>
        <time>2024-05-11T10:33:21Z</time>
      </trkpt>
      <trkpt lat="48.35019" lon="2.77415">
        <ele>83.7</ele>
        <time>2024-05-11T10:33:28Z</time>
      </trkpt>
      <trkpt lat="48.35011" lon="2.77418">
        <ele>83.4</ele>
        <time>2024-05-11T10:33:33Z</time>
      </trkpt>
      <trkpt lat="48.35" lon="2.77418">
        <ele>83</ele>
        <time>2024-05-11T10:33:40Z</time>
      </trkpt>
      <trkpt lat="48.34992" lon="2.7742">
        <ele>82.7</ele>
        <time>2024-05-11T10:33:46Z</time>
      </trkpt>
      <trkpt lat="48.34988" lon="2.77421">
        <ele>82.6</ele>
        <time>2024-05-11T10:33:50Z</time>
      </trkpt>
      <trkpt lat="48.34977" lon="2.7742">
        <ele>82.3</ele>
        <time>2024-05-11T10:33:57Z</time>
      </trkpt>
      <trkpt lat="48.34969" lon="2.77422">
        <ele>82.1</ele>
        <time>2024-05-11T10:34:03Z</time>
      </trkpt>
      <trkpt lat="48.34962" lon="2.77423">
        <ele>81.9</ele>
        <time>2024-05-11T10:34:10Z</time>
      </trkpt>
      <trkpt lat="48.3496" lon="2.77422">
        <ele>81.8</ele>
        <time>2024-05-11T10:34:13Z</time>
      </trkpt>
      <trkpt lat="48.34948" lon="2.77423">
        <ele>81.3</ele>
        <time>2024-05-11T10:34:20Z</time>
      </trkpt>
      <trkpt lat="48.3494" lon="2.77424">
        <ele>81.1</ele>
        <time>2024-05-11T10:34:25Z</time>
      </trkpt>
      <trkpt lat="48.34932" lon="2.77425">
        <ele>80.8</ele>
        <time>2024-05-11T10:34:31Z</time>
      </trkpt>
      <trkpt lat="48.34925" lon="2.77426">
        <ele>80.6</ele>
        <time>2024-05-11T10:34:37Z</time>
      </trkpt>
      <trkpt lat="48.34919" lon="2.77425">
        <ele>80.4</ele>
        <time>2024-05-11T10:34:43Z</time>
      </trkpt>
      <trkpt lat="48.34914" lon="2.77426">
        <ele>80.2</ele>
        <time>2024-05-11T10:34:48Z</time>
      </trkpt>
      <trkpt lat="48.34907" lon="2.77427">
        <ele>80</ele>
        <time>2024-05-11T10:34:54Z</time>
      </trkpt>
      <trkpt lat="48.34902" lon="2.7743">
        <ele>79.9</ele>
        <time>2024-05-11T10:35:00Z</time>
      </trkpt>
      <trkpt lat="48.34897" lon="2.7743">
        <ele>79.8</ele>
        <time>2024-05-11T10:35:06Z</time>
      </trkpt>
      <trkpt lat="48.34888" lon="2.77431">
        <ele>79.5</ele>
        <time>2024-05-11T10:35:14Z</time>
      </trkpt>
      <trkpt lat="48.34878" lon="2.77432">
        <ele>79.2</ele>
        <time>2024-05-11T10:35:20Z</time>
      </trkpt>
      <trkpt lat="48.34873" lon="2.77433">
        <ele>79</ele>
        <time>2024-05-11T10:35:25Z</time>
      </trkpt>
      <trkpt lat="48.34866" lon="2.77433">
        <ele>78.8</ele>
        <time>2024-05-11T10:35:31Z</time>
      </trkpt>
      <trkpt lat="48.34863" lon="2.77433">
        <ele>78.7</ele>
        <time>2024-05-11T10:35:32Z</time>
      </trkpt>
      <trkpt lat="48.34848" lon="2.77432">
        <ele>77.9</ele>
        <time>2024-05-11T10:35:42Z</time>
      </trkpt>
      <trkpt lat="48.34839" lon="2.77434">
        <ele>77.3</ele>
        <time>2024-05-11T10:35:48Z</time>
      </trkpt>
      <trkpt lat="48.34831" lon="2.77433">
        <ele>76.9</ele>
        <time>2024-05-11T10:35:55Z</time>
      </trkpt>
      <trkpt lat="48.34824" lon="2.77432">
        <ele>76.5</ele>
        <time>2024-05-11T10:35:59Z</time>
      </trkpt>
      <trkpt lat="48.34816" lon="2.77434">
        <ele>76.1</ele>
        <time>2024-05-11T10:36:06Z</time>
      </trkpt>
      <trkpt lat="48.34805" lon="2.77435">
        <ele>75.6</ele>
        <time>2024-05-11T10:36:15Z</time>
      </trkpt>
      <trkpt lat="48.348" lon="2.77435">
        <ele>75.3</ele>
        <time>2024-05-11T10:36:18Z</time>
      </trkpt>
      <trkpt lat="48.34794" lon="2.77436">
        <ele>75</ele>
        <time>2024-05-11T10:36:24Z</time>
      </trkpt>
      <trkpt lat="48.34784" lon="2.77439">
        <ele>74.4</ele>
        <time>2024-05-11T10:36:31Z</time>
      </trkpt>
      <trkpt lat="48.34774" lon="2.77441">
        <ele>73.7</ele>
        <time>2024-05-11T10:36:38Z</time>
      </trkpt>
      <trkpt lat="48.34768" lon="2.77442">
        <ele>73.3</ele>
        <time>2024-05-11T10:36:45Z</time>
      </trkpt>
      <trkpt lat="48.34767" lon="2.77442">
        <ele>73.2</ele>
        <time>2024-05-11T10:36:46Z</time>
      </trkpt>
      <trkpt lat="48.34761" lon="2.77443">
        <ele>72.8</ele>
        <time>2024-05-11T10:36:52Z</time>
      </trkpt>
      <trkpt lat="48.34745" lon="2.77446">
        <ele>72.2</ele>
        <time>2024-05-11T10:37:00Z</time>
      </trkpt>
      <trkpt lat="48.34741" lon="2.77446">
        <ele>72.4</ele>
        <time>2024-05-11T10:37:02Z</time>
      </trkpt>
      <trkpt lat="48.34731" lon="2.77445">
        <ele>72.7</ele>
        <time>2024-05-11T10:37:09Z</time>
      </trkpt>
      <trkpt lat="48.34728" lon="2.77447">
        <ele>73</ele>
        <time>2024-05-11T10:37:23Z</time>
      </trkpt>
      <trkpt lat="48.34728" lon="2.77448">
        <ele>73.1</ele>
        <time>2024-05-11T10:37:38Z</time>
      </trkpt>
      <trkpt lat="48.3473" lon="2.77453">
        <ele>73.4</ele>
        <time>2024-05-11T10:37:42Z</time>
      </trkpt>
      <trkpt lat="48.34727" lon="2.77457">
        <ele>74</ele>
        <time>2024-05-11T10:37:48Z</time>
      </trkpt>
      <trkpt lat="48.34716" lon="2.77465">
        <ele>74.2</ele>
        <time>2024-05-11T10:38:01Z</time>
      </trkpt>
      <trkpt lat="48.34709" lon="2.77483">
        <ele>72.1</ele>
        <time>2024-05-11T10:38:09Z</time>
      </trkpt>
      <trkpt lat="48.34708" lon="2.7749">
        <ele>71.3</ele>
        <time>2024-05-11T10:38:15Z</time>
      </trkpt>
      <trkpt lat="48.34708" lon="2.77501">
        <ele>70.3</ele>
        <time>2024-05-11T10:38:23Z</time>
      </trkpt>
      <trkpt lat="48.34707" lon="2.77504">
        <ele>69.9</ele>
        <time>2024-05-11T10:38:28Z</time>
      </trkpt>
      <trkpt lat="48.34706" lon="2.77511">
        <ele>69.1</ele>
        <time>2024-05-11T10:38:35Z</time>
      </trkpt>
      <trkpt lat="48.34704" lon="2.77517">
        <ele>68.5</ele>
        <time>2024-05-11T10:38:40Z</time>
      </trkpt>
      <trkpt lat="48.34702" lon="2.77527">
        <ele>67.6</ele>
        <time>2024-05-11T10:38:45Z</time>
      </trkpt>
      <trkpt lat="48.34698" lon="2.77535">
        <ele>67.3</ele>
        <time>2024-05-11T10:38:52Z</time>
      </trkpt>
      <trkpt lat="48.34695" lon="2.77541">
        <ele>67.1</ele>
        <time>2024-05-11T10:38:56Z</time>
      </trkpt>
      <trkpt lat="48.34689" lon="2.77553">
        <ele>66.8</ele>
        <time>2024-05-11T10:39:04Z</time>
      </trkpt>
      <trkpt lat="48.34688" lon="2.77554">
        <ele>66.8</ele>
        <time>2024-05-11T10:39:05Z</time>
      </trkpt>
      <trkpt lat="48.34685" lon="2.7756">
        <ele>66.7</ele>
        <time>2024-05-11T10:39:09Z</time>
      </trkpt>
      <trkpt lat="48.34683" lon="2.77564">
        <ele>66.6</ele>
        <time>2024-05-11T10:39:13Z</time>
      </trkpt>
      <trkpt lat="48.34682" lon="2.77571">
        <ele>66.6</ele>
        <time>2024-05-11T10:39:18Z</time>
      </trkpt>
      <trkpt lat="48.34678" lon="2.77579">
        <ele>66.2</ele>
        <time>2024-05-11T10:39:24Z</time>
      </trkpt>
      <trkpt lat="48.34673" lon="2.77588">
        <ele>65.7</ele>
        <time>2024-05-11T10:39:30Z</time>
      </trkpt>
      <trkpt lat="48.3467" lon="2.77593">
        <ele>65.4</ele>
        <time>2024-05-11T10:39:37Z</time>
      </trkpt>
      <trkpt lat="48.34664" lon="2.776">
        <ele>64.7</ele>
        <time>2024-05-11T10:39:43Z</time>
      </trkpt>
      <trkpt lat="48.34655" lon="2.77607">
        <ele>63.8</ele>
        <time>2024-05-11T10:39:50Z</time>
      </trkpt>
      <trkpt lat="48.34648" lon="2.77614">
        <ele>63.1</ele>
        <time>2024-05-11T10:39:56Z</time>
      </trkpt>
      <trkpt lat="48.34644" lon="2.77627">
        <ele>63.1</ele>
        <time>2024-05-11T10:40:04Z</time>
      </trkpt>
      <trkpt lat="48.34643" lon="2.77628">
        <ele>63.1</ele>
        <time>2024-05-11T10:40:05Z</time>
      </trkpt>
      <trkpt lat="48.34632" lon="2.77642">
        <ele>62.1</ele>
        <time>2024-05-11T10:40:13Z</time>
      </trkpt>
      <trkpt lat="48.34631" lon="2.77645">
        <ele>62</ele>
        <time>2024-05-11T10:40:16Z</time>
      </trkpt>
      <trkpt lat="48.34625" lon="2.77656">
        <ele>61.4</ele>
        <time>2024-05-11T10:40:24Z</time>
      </trkpt>
      <trkpt lat="48.34624" lon="2.77663">
        <ele>61.2</ele>
        <time>2024-05-11T10:40:29Z</time>
      </trkpt>
      <trkpt lat="48.34617" lon="2.77671">
        <ele>60.3</ele>
        <time>2024-05-11T10:40:34Z</time>
      </trkpt>
      <trkpt lat="48.34601" lon="2.77679">
        <ele>59.1</ele>
        <time>2024-05-11T10:40:43Z</time>
      </trkpt>
      <trkpt lat="48.34596" lon="2.77684">
        <ele>58.7</ele>
        <time>2024-05-11T10:40:49Z</time>
      </trkpt>
      <trkpt lat="48.34588" lon="2.77685">
        <ele>57.8</ele>
        <time>2024-05-11T10:40:56Z</time>
      </trkpt>
      <trkpt lat="48.34585" lon="2.77685">
        <ele>57.6</ele>
        <time>2024-05-11T10:40:59Z</time>
      </trkpt>
      <trkpt lat="48.34579" lon="2.7769">
        <ele>56.9</ele>
        <time>2024-05-11T10:41:06Z</time>
      </trkpt>
      <trkpt lat="48.34576" lon="2.77692">
        <ele>56.6</ele>
        <time>2024-05-11T10:41:09Z</time>
      </trkpt>
      <trkpt lat="48.34569" lon="2.77696">
        <ele>56</ele>
        <time>2024-05-11T10:41:14Z</time>
      </trkpt>
      <trkpt lat="48.34563" lon="2.77697">
        <ele>55.6</ele>
        <time>2024-05-11T10:41:18Z</time>
      </trkpt>
      <trkpt lat="48.34547" lon="2.77696">
        <ele>54.7</ele>
        <time>2024-05-11T10:41:27Z</time>
      </trkpt>
      <trkpt lat="48.34544" lon="2.77695">
        <ele>54.6</ele>
        <time>2024-05-11T10:41:29Z</time>
      </trkpt>
      <trkpt lat="48.34539" lon="2.77693">
        <ele>54.5</ele>
        <time>2024-05-11T10:41:32Z</time>
      </trkpt>
      <trkpt lat="48.34534" lon="2.7769">
        <ele>54.3</ele>
        <time>2024-05-11T10:41:37Z</time>
      </trkpt>
      <trkpt lat="48.34523" lon="2.7768">
        <ele>54</ele>
        <time>2024-05-11T10:41:46Z</time>
      </trkpt>
      <trkpt lat="48.34517" lon="2.77672">
        <ele>54</ele>
        <time>2024-05-11T10:41:53Z</time>
      </trkpt>
      <trkpt lat="48.34512" lon="2.77659">
        <ele>54</ele>
        <time>2024-05-11T10:42:01Z</time>
      </trkpt>
      <trkpt lat="48.34509" lon="2.77648">
        <ele>53.8</ele>
        <time>2024-05-11T10:42:08Z</time>
      </trkpt>
      <trkpt lat="48.34508" lon="2.77646">
        <ele>53.7</ele>
        <time>2024-05-11T10:42:11Z</time>
      </trkpt>
      <trkpt lat="48.34504" lon="2.77642">
        <ele>53.4</ele>
        <time>2024-05-11T10:42:14Z</time>
      </trkpt>
      <trkpt lat="48.34501" lon="2.77631">
        <ele>53.4</ele>
        <time>2024-05-11T10:42:20Z</time>
      </trkpt>
      <trkpt lat="48.345" lon="2.7763">
        <ele>53.3</ele>
        <time>2024-05-11T10:42:21Z</time>
      </trkpt>
      <trkpt lat="48.34492" lon="2.77619">
        <ele>53.5</ele>
        <time>2024-05-11T10:42:29Z</time>
      </trkpt>
      <trkpt lat="48.34486" lon="2.77613">
        <ele>53.5</ele>
        <time>2024-05-11T10:42:36Z</time>
      </trkpt>
      <trkpt lat="48.34481" lon="2.77607">
        <ele>53.5</ele>
        <time>2024-05-11T10:42:40Z</time>
      </trkpt>
      <trkpt lat="48.34473" lon="2.77594">
        <ele>53.6</ele>
        <time>2024-05-11T10:42:50Z</time>
      </trkpt>
      <trkpt lat="48.34467" lon="2.77588">
        <ele>53.7</ele>
        <time>2024-05-11T10:42:57Z</time>
      </trkpt>
      <trkpt lat="48.34466" lon="2.77586">
        <ele>53.7</ele>
        <time>2024-05-11T10:43:05Z</time>
      </trkpt>
      <trkpt lat="48.34466" lon="2.77585">
        <ele>53.7</ele>
        <time>2024-05-11T10:43:17Z</time>
      </trkpt>
      <trkpt lat="48.34466" lon="2.77586">
        <ele>53.7</ele>
        <time>2024-05-11T10:43:26Z</time>
      </trkpt>
      <trkpt lat="48.34463" lon="2.77589">
        <ele>53.5</ele>
        <time>2024-05-11T10:43:29Z</time>
      </trkpt>
      <trkpt lat="48.34461" lon="2.77599">
        <ele>53.3</ele>
        <time>2024-05-11T10:43:37Z</time>
      </trkpt>
      <trkpt lat="48.34456" lon="2.77603">
        <ele>53.1</ele>
        <time>2024-05-11T10:43:43Z</time>
      </trkpt>
      <trkpt lat="48.34446" lon="2.77606">
        <ele>53</ele>
        <time>2024-05-11T10:43:52Z</time>
      </trkpt>
      <trkpt lat="48.34439" lon="2.77609">
        <ele>52.8</ele>
        <time>2024-05-11T10:44:00Z</time>
      </trkpt>
      <trkpt lat="48.34438" lon="2.77611">
        <ele>52.8</ele>
        <time>2024-05-11T10:44:07Z</time>
      </trkpt>
      <trkpt lat="48.34431" lon="2.77616">
        <ele>52.4</ele>
        <time>2024-05-11T10:44:17Z</time>
      </trkpt>
      <trkpt lat="48.34429" lon="2.77618">
        <ele>52.3</ele>
        <time>2024-05-11T10:44:31Z</time>
      </trkpt>
      <trkpt lat="48.34428" lon="2.77618">
        <ele>52.2</ele>
        <time>2024-05-11T10:44:44Z</time>
      </trkpt>
      <trkpt lat="48.3443" lon="2.77624">
        <ele>52.1</ele>
        <time>2024-05-11T10:44:55Z</time>
      </trkpt>
      <trkpt lat="48.34431" lon="2.77623">
        <ele>52.1</ele>
        <time>2024-05-11T10:45:06Z</time>
      </trkpt>
      <trkpt lat="48.34431" lon="2.77622">
        <ele>52.1</ele>
        <time>2024-05-11T10:45:13Z</time>
      </trkpt>
      <trkpt lat="48.3443" lon="2.7762">
        <ele>52.2</ele>
        <time>2024-05-11T10:45:22Z</time>
      </trkpt>
      <trkpt lat="48.34428" lon="2.77619">
        <ele>52.2</ele>
        <time>2024-05-11T10:45:26Z</time>
      </trkpt>
      <trkpt lat="48.34425" lon="2.77611">
        <ele>52.3</ele>
        <time>2024-05-11T10:45:34Z</time>
      </trkpt>
      <trkpt lat="48.34419" lon="2.77604">
        <ele>52.1</ele>
        <time>2024-05-11T10:45:41Z</time>
      </trkpt>
      <trkpt lat="48.34415" lon="2.77593">
        <ele>52</ele>
        <time>2024-05-11T10:45:48Z</time>
      </trkpt>
      <trkpt lat="48.34411" lon="2.77582">
        <ele>52</ele>
        <time>2024-05-11T10:45:54Z</time>
      </trkpt>
      <trkpt lat="48.34406" lon="2.77574">
        <ele>52</ele>
        <time>2024-05-11T10:46:00Z</time>
      </trkpt>
      <trkpt lat="48.344" lon="2.77572">
        <ele>52</ele>
        <time>2024-05-11T10:46:07Z</time>
      </trkpt>
      <trkpt lat="48.34398" lon="2.7757">
        <ele>52</ele>
        <time>2024-05-11T10:46:10Z</time>
      </trkpt>
      <trkpt lat="48.34394" lon="2.77568">
        <ele>52</ele>
        <time>2024-05-11T10:46:13Z</time>
      </trkpt>
      <trkpt lat="48.34388" lon="2.77561">
        <ele>52</ele>
        <time>2024-05-11T10:46:21Z</time>
      </trkpt>
      <trkpt lat="48.3438" lon="2.77553">
        <ele>52</ele>
        <time>2024-05-11T10:46:28Z</time>
      </trkpt>
      <trkpt lat="48.34379" lon="2.77552">
        <ele>52</ele>
        <time>2024-05-11T10:46:29Z</time>
      </trkpt>
      <trkpt lat="48.34376" lon="2.77546">
        <ele>52</ele>
        <time>2024-05-11T10:46:32Z</time>
      </trkpt>
      <trkpt lat="48.34371" lon="2.77544">
        <ele>52</ele>
        <time>2024-05-11T10:46:36Z</time>
      </trkpt>
      <trkpt lat="48.34368" lon="2.77539">
        <ele>52</ele>
        <time>2024-05-11T10:46:40Z</time>
      </trkpt>
      <trkpt lat="48.3436" lon="2.77536">
        <ele>52</ele>
        <time>2024-05-11T10:46:47Z</time>
      </trkpt>
      <trkpt lat="48.34354" lon="2.77534">
        <ele>52</ele>
        <time>2024-05-11T10:46:56Z</time>
      </trkpt>
      <trkpt lat="48.3435" lon="2.77534">
        <ele>52</ele>
        <time>2024-05-11T10:47:03Z</time>
      </trkpt>
      <trkpt lat="48.34347" lon="2.77533">
        <ele>52</ele>
        <time>2024-05-11T10:47:06Z</time>
      </trkpt>
      <trkpt lat="48.3434" lon="2.77531">
        <ele>52</ele>
        <time>2024-05-11T10:47:13Z</time>
      </trkpt>
      <trkpt lat="48.34336" lon="2.77531">
        <ele>52</ele>
        <time>2024-05-11T10:47:21Z</time>
      </trkpt>
      <trkpt lat="48.34332" lon="2.77531">
        <ele>52</ele>
        <time>2024-05-11T10:47:26Z</time>
      </trkpt>
      <trkpt lat="48.34321" lon="2.77533">
        <ele>52</ele>
        <time>2024-05-11T10:47:33Z</time>
      </trkpt>
      <trkpt lat="48.34311" lon="2.77531">
        <ele>52</ele>
        <time>2024-05-11T10:47:41Z</time>
      </trkpt>
      <trkpt lat="48.343" lon="2.77534">
        <ele>52</ele>
        <time>2024-05-11T10:47:47Z</time>
      </trkpt>
      <trkpt lat="48.34291" lon="2.77538">
        <ele>52</ele>
        <time>2024-05-11T10:47:54Z</time>
      </trkpt>
      <trkpt lat="48.34282" lon="2.77539">
        <ele>52</ele>
        <time>2024-05-11T10:48:01Z</time>
      </trkpt>
      <trkpt lat="48.34273" lon="2.77538">
        <ele>52</ele>
        <time>2024-05-11T10:48:08Z</time>
      </trkpt>
      <trkpt lat="48.34268" lon="2.77538">
        <ele>52</ele>
        <time>2024-05-11T10:48:13Z</time>
      </trkpt>
      <trkpt lat="48.3426" lon="2.77542">
        <ele>52</ele>
        <time>2024-05-11T10:48:22Z</time>
      </trkpt>
      <trkpt lat="48.34247" lon="2.77544">
        <ele>52</ele>
        <time>2024-05-11T10:48:31Z</time>
      </trkpt>
      <trkpt lat="48.34232" lon="2.7755">
        <ele>52.1</ele>
        <time>2024-05-11T10:48:41Z</time>
      </trkpt>
      <trkpt lat="48.34226" lon="2.77553">
        <ele>52.1</ele>
        <time>2024-05-11T10:48:48Z</time>
      </trkpt>
      <trkpt lat="48.34219" lon="2.77554">
        <ele>52.2</ele>
        <time>2024-05-11T10:48:55Z</time>
      </trkpt>
      <trkpt lat="48.3421" lon="2.77556">
        <ele>52.4</ele>
        <time>2024-05-11T10:49:01Z</time>
      </trkpt>
      <trkpt lat="48.34199" lon="2.7756">
        <ele>52.8</ele>
        <time>2024-05-11T10:49:08Z</time>
      </trkpt>
      <trkpt lat="48.34191" lon="2.77564">
        <ele>53</ele>
        <time>2024-05-11T10:49:15Z</time>
      </trkpt>
      <trkpt lat="48.34182" lon="2.77566">
        <ele>52.8</ele>
        <time>2024-05-11T10:49:22Z</time>
      </trkpt>
      <trkpt lat="48.34178" lon="2.77566">
        <ele>52.8</ele>
        <time>2024-05-11T10:49:24Z</time>
      </trkpt>
      <trkpt lat="48.34166" lon="2.77572">
        <ele>52.4</ele>
        <time>2024-05-11T10:49:32Z</time>
      </trkpt>
      <trkpt lat="48.34163" lon="2.77573">
        <ele>52.4</ele>
        <time>2024-05-11T10:49:35Z</time>
      </trkpt>
      <trkpt lat="48.3416" lon="2.77574">
        <ele>52.5</ele>
        <time>2024-05-11T10:49:37Z</time>
      </trkpt>
      <trkpt lat="48.34148" lon="2.7758">
        <ele>52.7</ele>
        <time>2024-05-11T10:49:44Z</time>
      </trkpt>
      <trkpt lat="48.34141" lon="2.77584">
        <ele>52.9</ele>
        <time>2024-05-11T10:49:47Z</time>
      </trkpt>
      <trkpt lat="48.34131" lon="2.776">
        <ele>52.3</ele>
        <time>2024-05-11T10:49:56Z</time>
      </trkpt>
      <trkpt lat="48.34128" lon="2.77606">
        <ele>52.2</ele>
        <time>2024-05-11T10:50:02Z</time>
      </trkpt>
      <trkpt lat="48.34124" lon="2.77624">
        <ele>52</ele>
        <time>2024-05-11T10:50:11Z</time>
      </trkpt>
      <trkpt lat="48.34119" lon="2.77631">
        <ele>52.2</ele>
        <time>2024-05-11T10:50:16Z</time>
      </trkpt>
      <trkpt lat="48.34117" lon="2.77648">
        <ele>52.4</ele>
        <time>2024-05-11T10:50:25Z</time>
      </trkpt>
      <trkpt lat="48.34111" lon="2.77661">
        <ele>53</ele>
        <time>2024-05-11T10:50:34Z</time>
      </trkpt>
      <trkpt lat="48.34113" lon="2.77674">
        <ele>52.2</ele>
        <time>2024-05-11T10:50:40Z</time>
      </trkpt>
      <trkpt lat="48.34113" lon="2.77683">
        <ele>51.7</ele>
        <time>2024-05-11T10:50:45Z</time>
      </trkpt>
      <trkpt lat="48.34112" lon="2.77692">
        <ele>51.1</ele>
        <time>2024-05-11T10:50:52Z</time>
      </trkpt>
      <trkpt lat="48.34111" lon="2.77694">
        <ele>51</ele>
        <time>2024-05-11T10:50:53Z</time>
      </trkpt>
      <trkpt lat="48.34109" lon="2.77698">
        <ele>50.9</ele>
        <time>2024-05-11T10:50:55Z</time>
      </trkpt>
      <trkpt lat="48.34106" lon="2.77705">
        <ele>50.8</ele>
        <time>2024-05-11T10:51:00Z</time>
      </trkpt>
      <trkpt lat="48.341" lon="2.77718">
        <ele>51.2</ele>
        <time>2024-05-11T10:51:08Z</time>
      </trkpt>
      <trkpt lat="48.34099" lon="2.77719">
        <ele>51.3</ele>
        <time>2024-05-11T10:51:09Z</time>
      </trkpt>
      <trkpt lat="48.34094" lon="2.77733">
        <ele>51.5</ele>
        <time>2024-05-11T10:51:16Z</time>
      </trkpt>
      <trkpt lat="48.34088" lon="2.77745">
        <ele>51.6</ele>
        <time>2024-05-11T10:51:23Z</time>
      </trkpt>
      <trkpt lat="48.3408" lon="2.77761">
        <ele>50.9</ele>
        <time>2024-05-11T10:51:31Z</time>
      </trkpt>
      <trkpt lat="48.3407" lon="2.77779">
        <ele>50.9</ele>
        <time>2024-05-11T10:51:41Z</time>
      </trkpt>
      <trkpt lat="48.34067" lon="2.77788">
        <ele>51.1</ele>
        <time>2024-05-11T10:51:47Z</time>
      </trkpt>
      <trkpt lat="48.34067" lon="2.77792">
        <ele>51</ele>
        <time>2024-05-11T10:51:49Z</time>
      </trkpt>
      <trkpt lat="48.34063" lon="2.77803">
        <ele>51.3</ele>
        <time>2024-05-11T10:51:56Z</time>
      </trkpt>
      <trkpt lat="48.3406" lon="2.7781">
        <ele>51.2</ele>
        <time>2024-05-11T10:52:00Z</time>
      </trkpt>
      <trkpt lat="48.34055" lon="2.77823">
        <ele>50.7</ele>
        <time>2024-05-11T10:52:08Z</time>
      </trkpt>
      <trkpt lat="48.34053" lon="2.77836">
        <ele>50.2</ele>
        <time>2024-05-11T10:52:16Z</time>
      </trkpt>
      <trkpt lat="48.34038" lon="2.77851">
        <ele>51.2</ele>
        <time>2024-05-11T10:52:24Z</time>
      </trkpt>
      <trkpt lat="48.34037" lon="2.77852">
        <ele>51.4</ele>
        <time>2024-05-11T10:52:25Z</time>
      </trkpt>
      <trkpt lat="48.34035" lon="2.77858">
        <ele>51.5</ele>
        <time>2024-05-11T10:52:28Z</time>
      </trkpt>
      <trkpt lat="48.34029" lon="2.77867">
        <ele>51.7</ele>
        <time>2024-05-11T10:52:33Z</time>
      </trkpt>
      <trkpt lat="48.34027" lon="2.77872">
        <ele>51.6</ele>
        <time>2024-05-11T10:52:36Z</time>
      </trkpt>
      <trkpt lat="48.34024" lon="2.77875">
        <ele>51.4</ele>
        <time>2024-05-11T10:52:39Z</time>
      </trkpt>
      <trkpt lat="48.34022" lon="2.7788">
        <ele>51.2</ele>
        <time>2024-05-11T10:52:43Z</time>
      </trkpt>
      <trkpt lat="48.34021" lon="2.77888">
        <ele>51</ele>
        <time>2024-05-11T10:52:48Z</time>
      </trkpt>
      <trkpt lat="48.34017" lon="2.77898">
        <ele>50.9</ele>
        <time>2024-05-11T10:52:55Z</time>
      </trkpt>
      <trkpt lat="48.34015" lon="2.77902">
        <ele>51</ele>
        <time>2024-05-11T10:52:57Z</time>
      </trkpt>
      <trkpt lat="48.34007" lon="2.77912">
        <ele>51.4</ele>
        <time>2024-05-11T10:53:04Z</time>
      </trkpt>
      <trkpt lat="48.34002" lon="2.7792">
        <ele>51.7</ele>
        <time>2024-05-11T10:53:09Z</time>
      </trkpt>
      <trkpt lat="48.33999" lon="2.77925">
        <ele>51.7</ele>
        <time>2024-05-11T10:53:12Z</time>
      </trkpt>
      <trkpt lat="48.33993" lon="2.77934">
        <ele>51.4</ele>
        <time>2024-05-11T10:53:18Z</time>
      </trkpt>
      <trkpt lat="48.33989" lon="2.7794">
        <ele>51.4</ele>
        <time>2024-05-11T10:53:25Z</time>
      </trkpt>
      <trkpt lat="48.33986" lon="2.77941">
        <ele>51.5</ele>
        <time>2024-05-11T10:53:28Z</time>
      </trkpt>
      <trkpt lat="48.33969" lon="2.77948">
        <ele>51.8</ele>
        <time>2024-05-11T10:53:36Z</time>
      </trkpt>
      <trkpt lat="48.33961" lon="2.77951">
        <ele>51.3</ele>
        <time>2024-05-11T10:53:42Z</time>
      </trkpt>
      <trkpt lat="48.33956" lon="2.77955">
        <ele>51.1</ele>
        <time>2024-05-11T10:53:48Z</time>
      </trkpt>
      <trkpt lat="48.33951" lon="2.77959">
        <ele>50.9</ele>
        <time>2024-05-11T10:53:56Z</time>
      </trkpt>
      <trkpt lat="48.33948" lon="2.77963">
        <ele>50.8</ele>
        <time>2024-05-11T10:53:59Z</time>
      </trkpt>
      <trkpt lat="48.33944" lon="2.77963">
        <ele>50.7</ele>
        <time>2024-05-11T10:54:05Z</time>
      </trkpt>
      <trkpt lat="48.33936" lon="2.77968">
        <ele>50.6</ele>
        <time>2024-05-11T10:54:12Z</time>
      </trkpt>
      <trkpt lat="48.3393" lon="2.77974">
        <ele>50.5</ele>
        <time>2024-05-11T10:54:18Z</time>
      </trkpt>
      <trkpt lat="48.33926" lon="2.77978">
        <ele>50.6</ele>
        <time>2024-05-11T10:54:23Z</time>
      </trkpt>
      <trkpt lat="48.33919" lon="2.77984">
        <ele>50.5</ele>
        <time>2024-05-11T10:54:31Z</time>
      </trkpt>
      <trkpt lat="48.33915" lon="2.7799">
        <ele>50.6</ele>
        <time>2024-05-11T10:54:39Z</time>
      </trkpt>
      <trkpt lat="48.33907" lon="2.77995">
        <ele>50.5</ele>
        <time>2024-05-11T10:54:46Z</time>
      </trkpt>
      <trkpt lat="48.33903" lon="2.78">
        <ele>50.5</ele>
        <time>2024-05-11T10:54:49Z</time>
      </trkpt>
      <trkpt lat="48.33896" lon="2.78005">
        <ele>50.4</ele>
        <time>2024-05-11T10:54:56Z</time>
      </trkpt>
      <trkpt lat="48.33888" lon="2.7801">
        <ele>50.3</ele>
        <time>2024-05-11T10:55:01Z</time>
      </trkpt>
      <trkpt lat="48.33884" lon="2.78017">
        <ele>50.5</ele>
        <time>2024-05-11T10:55:06Z</time>
      </trkpt>
      <trkpt lat="48.33883" lon="2.78019">
        <ele>50.5</ele>
        <time>2024-05-11T10:55:08Z</time>
      </trkpt>
      <trkpt lat="48.33875" lon="2.78027">
        <ele>50.5</ele>
        <time>2024-05-11T10:55:17Z</time>
      </trkpt>
      <trkpt lat="48.33874" lon="2.78039">
        <ele>50.7</ele>
        <time>2024-05-11T10:55:24Z</time>
      </trkpt>
      <trkpt lat="48.33865" lon="2.78046">
        <ele>50.7</ele>
        <time>2024-05-11T10:55:31Z</time>
      </trkpt>
      <trkpt lat="48.33858" lon="2.78052">
        <ele>50.9</ele>
        <time>2024-05-11T10:55:39Z</time>
      </trkpt>
      <trkpt lat="48.33854" lon="2.78054">
        <ele>50.9</ele>
        <time>2024-05-11T10:55:45Z</time>
      </trkpt>
      <trkpt lat="48.33848" lon="2.78058">
        <ele>50.9</ele>
        <time>2024-05-11T10:55:51Z</time>
      </trkpt>
      <trkpt lat="48.33841" lon="2.78064">
        <ele>50.9</ele>
        <time>2024-05-11T10:55:58Z</time>
      </trkpt>
      <trkpt lat="48.33828" lon="2.78077">
        <ele>51</ele>
        <time>2024-05-11T10:56:05Z</time>
      </trkpt>
      <trkpt lat="48.3382" lon="2.78087">
        <ele>50.9</ele>
        <time>2024-05-11T10:56:11Z</time>
      </trkpt>
      <trkpt lat="48.33816" lon="2.78091">
        <ele>50.9</ele>
        <time>2024-05-11T10:56:15Z</time>
      </trkpt>
      <trkpt lat="48.33809" lon="2.78098">
        <ele>50.9</ele>
        <time>2024-05-11T10:56:23Z</time>
      </trkpt>
      <trkpt lat="48.33807" lon="2.781">
        <ele>51</ele>
        <time>2024-05-11T10:56:29Z</time>
      </trkpt>
      <trkpt lat="48.338" lon="2.78107">
        <ele>51</ele>
        <time>2024-05-11T10:56:36Z</time>
      </trkpt>
      <trkpt lat="48.33794" lon="2.78115">
        <ele>51</ele>
        <time>2024-05-11T10:56:43Z</time>
      </trkpt>
      <trkpt lat="48.33784" lon="2.78125">
        <ele>51</ele>
        <time>2024-05-11T10:56:51Z</time>
      </trkpt>
      <trkpt lat="48.33777" lon="2.78131">
        <ele>51</ele>
        <time>2024-05-11T10:56:57Z</time>
      </trkpt>
      <trkpt lat="48.3377" lon="2.78137">
        <ele>51</ele>
        <time>2024-05-11T10:57:02Z</time>
      </trkpt>
      <trkpt lat="48.3376" lon="2.78146">
        <ele>51</ele>
        <time>2024-05-11T10:57:09Z</time>
      </trkpt>
      <trkpt lat="48.3375" lon="2.78153">
        <ele>51</ele>
        <time>2024-05-11T10:57:16Z</time>
      </trkpt>
      <trkpt lat="48.33747" lon="2.78156">
        <ele>51</ele>
        <time>2024-05-11T10:57:19Z</time>
      </trkpt>
      <trkpt lat="48.33738" lon="2.78163">
        <ele>50.9</ele>
        <time>2024-05-11T10:57:27Z</time>
      </trkpt>
      <trkpt lat="48.3373" lon="2.78172">
        <ele>51</ele>
        <time>2024-05-11T10:57:36Z</time>
      </trkpt>
      <trkpt lat="48.33721" lon="2.78183">
        <ele>51</ele>
        <time>2024-05-11T10:57:45Z</time>
      </trkpt>
      <trkpt lat="48.33705" lon="2.7819">
        <ele>50.9</ele>
        <time>2024-05-11T10:57:53Z</time>
      </trkpt>
      <trkpt lat="48.337" lon="2.78191">
        <ele>50.9</ele>
        <time>2024-05-11T10:57:56Z</time>
      </trkpt>
      <trkpt lat="48.33694" lon="2.78195">
        <ele>51</ele>
        <time>2024-05-11T10:58:02Z</time>
      </trkpt>
      <trkpt lat="48.3369" lon="2.78201">
        <ele>51</ele>
        <time>2024-05-11T10:58:08Z</time>
      </trkpt>
      <trkpt lat="48.33686" lon="2.78209">
        <ele>51</ele>
        <time>2024-05-11T10:58:15Z</time>
      </trkpt>
      <trkpt lat="48.3368" lon="2.7821">
        <ele>51</ele>
        <time>2024-05-11T10:58:23Z</time>
      </trkpt>
      <trkpt lat="48.33675" lon="2.78211">
        <ele>51</ele>
        <time>2024-05-11T10:58:31Z</time>
      </trkpt>
      <trkpt lat="48.33668" lon="2.78211">
        <ele>51</ele>
        <time>2024-05-11T10:58:42Z</time>
      </trkpt>
      <trkpt lat="48.33666" lon="2.78212">
        <ele>51</ele>
        <time>2024-05-11T10:58:45Z</time>
      </trkpt>
      <trkpt lat="48.33661" lon="2.78216">
        <ele>50.9</ele>
        <time>2024-05-11T10:58:53Z</time>
      </trkpt>
      <trkpt lat="48.3366" lon="2.78217">
        <ele>50.9</ele>
        <time>2024-05-11T10:58:54Z</time>
      </trkpt>
      <trkpt lat="48.33652" lon="2.78226">
        <ele>51</ele>
        <time>2024-05-11T10:59:03Z</time>
      </trkpt>
      <trkpt lat="48.33643" lon="2.78233">
        <ele>51</ele>
        <time>2024-05-11T10:59:09Z</time>
      </trkpt>
      <trkpt lat="48.33638" lon="2.78233">
        <ele>51</ele>
        <time>2024-05-11T10:59:16Z</time>
      </trkpt>
      <trkpt lat="48.33637" lon="2.78233">
        <ele>50.9</ele>
        <time>2024-05-11T10:59:22Z</time>
      </trkpt>
      <trkpt lat="48.33635" lon="2.78235">
        <ele>50.8</ele>
        <time>2024-05-11T10:59:27Z</time>
      </trkpt>
      <trkpt lat="48.3363" lon="2.7824">
        <ele>50.8</ele>
        <time>2024-05-11T10:59:35Z</time>
      </trkpt>
      <trkpt lat="48.33629" lon="2.78241">
        <ele>50.8</ele>
        <time>2024-05-11T10:59:36Z</time>
      </trkpt>
      <trkpt lat="48.33626" lon="2.78242">
        <ele>50.7</ele>
        <time>2024-05-11T10:59:43Z</time>
      </trkpt>
      <trkpt lat="48.33627" lon="2.78243">
        <ele>50.8</ele>
        <time>2024-05-11T10:59:52Z</time>
      </trkpt>
      <trkpt lat="48.33627" lon="2.78245">
        <ele>50.8</ele>
        <time>2024-05-11T10:59:59Z</time>
      </trkpt>
      <trkpt lat="48.33625" lon="2.78247">
        <ele>50.9</ele>
        <time>2024-05-11T11:00:01Z</time>
      </trkpt>
      <trkpt lat="48.33619" lon="2.78255">
        <ele>51</ele>
        <time>2024-05-11T11:00:08Z</time>
      </trkpt>
      <trkpt lat="48.33614" lon="2.78263">
        <ele>51</ele>
        <time>2024-05-11T11:00:15Z</time>
      </trkpt>
      <trkpt lat="48.3361" lon="2.7827">
        <ele>50.9</ele>
        <time>2024-05-11T11:00:21Z</time>
      </trkpt>
      <trkpt lat="48.33609" lon="2.78281">
        <ele>50.8</ele>
        <time>2024-05-11T11:00:28Z</time>
      </trkpt>
      <trkpt lat="48.33607" lon="2.78285">
        <ele>50.7</ele>
        <time>2024-05-11T11:00:33Z</time>
      </trkpt>
      <trkpt lat="48.33607" lon="2.78289">
        <ele>50.7</ele>
        <time>2024-05-11T11:00:36Z</time>
      </trkpt>
      <trkpt lat="48.33601" lon="2.78301">
        <ele>50.3</ele>
        <time>2024-05-11T11:00:44Z</time>
      </trkpt>
      <trkpt lat="48.33601" lon="2.78302">
        <ele>50.3</ele>
        <time>2024-05-11T11:00:45Z</time>
      </trkpt>
      <trkpt lat="48.33597" lon="2.78313">
        <ele>50</ele>
        <time>2024-05-11T11:00:53Z</time>
      </trkpt>
      <trkpt lat="48.33598" lon="2.78321">
        <ele>50</ele>
        <time>2024-05-11T11:00:57Z</time>
      </trkpt>
      <trkpt lat="48.33597" lon="2.78336">
        <ele>50.1</ele>
        <time>2024-05-11T11:01:05Z</time>
      </trkpt>
      <trkpt lat="48.33597" lon="2.78342">
        <ele>50.3</ele>
        <time>2024-05-11T11:01:12Z</time>
      </trkpt>
      <trkpt lat="48.33595" lon="2.78352">
        <ele>50.6</ele>
        <time>2024-05-11T11:01:19Z</time>
      </trkpt>
      <trkpt lat="48.33593" lon="2.78358">
        <ele>50.9</ele>
        <time>2024-05-11T11:01:23Z</time>
      </trkpt>
      <trkpt lat="48.33592" lon="2.78361">
        <ele>51</ele>
        <time>2024-05-11T11:01:25Z</time>
      </trkpt>
      <trkpt lat="48.33588" lon="2.78373">
        <ele>51</ele>
        <time>2024-05-11T11:01:32Z</time>
      </trkpt>
      <trkpt lat="48.33586" lon="2.78382">
        <ele>51</ele>
        <time>2024-05-11T11:01:38Z</time>
      </trkpt>
      <trkpt lat="48.33584" lon="2.78388">
        <ele>51</ele>
        <time>2024-05-11T11:01:45Z</time>
      </trkpt>
      <trkpt lat="48.33581" lon="2.78389">
        <ele>50.8</ele>
        <time>2024-05-11T11:01:53Z</time>
      </trkpt>
      <trkpt lat="48.3358" lon="2.78393">
        <ele>50.8</ele>
        <time>2024-05-11T11:02:00Z</time>
      </trkpt>
      <trkpt lat="48.3358" lon="2.78397">
        <ele>50.7</ele>
        <time>2024-05-11T11:02:02Z</time>
      </trkpt>
      <trkpt lat="48.33576" lon="2.78405">
        <ele>50.5</ele>
        <time>2024-05-11T11:02:09Z</time>
      </trkpt>
      <trkpt lat="48.33575" lon="2.78405">
        <ele>50.4</ele>
        <time>2024-05-11T11:02:10Z</time>
      </trkpt>
      <trkpt lat="48.33572" lon="2.78411">
        <ele>50.2</ele>
        <time>2024-05-11T11:02:17Z</time>
      </trkpt>
      <trkpt lat="48.33574" lon="2.78412">
        <ele>50.3</ele>
        <time>2024-05-11T11:02:24Z</time>
      </trkpt>
      <trkpt lat="48.33572" lon="2.78419">
        <ele>50.2</ele>
        <time>2024-05-11T11:02:31Z</time>
      </trkpt>
      <trkpt lat="48.33572" lon="2.7843">
        <ele>50.2</ele>
        <time>2024-05-11T11:02:39Z</time>
      </trkpt>
      <trkpt lat="48.33572" lon="2.78436">
        <ele>50.2</ele>
        <time>2024-05-11T11:02:45Z</time>
      </trkpt>
      <trkpt lat="48.33572" lon="2.78447">
        <ele>50.1</ele>
        <time>2024-05-11T11:02:52Z</time>
      </trkpt>
      <trkpt lat="48.33575" lon="2.78455">
        <ele>50.2</ele>
        <time>2024-05-11T11:02:59Z</time>
      </trkpt>
      <trkpt lat="48.33575" lon="2.78457">
        <ele>50.2</ele>
        <time>2024-05-11T11:03:00Z</time>
      </trkpt>
      <trkpt lat="48.33578" lon="2.7846">
        <ele>50.2</ele>
        <time>2024-05-11T11:03:02Z</time>
      </trkpt>
      <trkpt lat="48.33582" lon="2.78469">
        <ele>50.1</ele>
        <time>2024-05-11T11:03:09Z</time>
      </trkpt>
      <trkpt lat="48.33588" lon="2.78476">
        <ele>50.1</ele>
        <time>2024-05-11T11:03:17Z</time>
      </trkpt>
      <trkpt lat="48.3359" lon="2.78477">
        <ele>50.1</ele>
        <time>2024-05-11T11:03:23Z</time>
      </trkpt>
      <trkpt lat="48.33593" lon="2.78481">
        <ele>50.1</ele>
        <time>2024-05-11T11:03:28Z</time>
      </trkpt>
      <trkpt lat="48.33596" lon="2.78483">
        <ele>50.2</ele>
        <time>2024-05-11T11:03:31Z</time>
      </trkpt>
      <trkpt lat="48.33602" lon="2.78493">
        <ele>50.4</ele>
        <time>2024-05-11T11:03:38Z</time>
      </trkpt>
      <trkpt lat="48.33606" lon="2.78503">
        <ele>50.5</ele>
        <time>2024-05-11T11:03:46Z</time>
      </trkpt>
      <trkpt lat="48.33608" lon="2.78509">
        <ele>50.5</ele>
        <time>2024-05-11T11:03:48Z</time>
      </trkpt>
      <trkpt lat="48.33618" lon="2.7853">
        <ele>50.2</ele>
        <time>2024-05-11T11:03:56Z</time>
      </trkpt>
      <trkpt lat="48.33622" lon="2.78538">
        <ele>50.2</ele>
        <time>2024-05-11T11:04:01Z</time>
      </trkpt>
      <trkpt lat="48.33625" lon="2.78546">
        <ele>50.2</ele>
        <time>2024-05-11T11:04:06Z</time>
      </trkpt>
      <trkpt lat="48.33632" lon="2.78557">
        <ele>50.4</ele>
        <time>2024-05-11T11:04:11Z</time>
      </trkpt>
      <trkpt lat="48.33635" lon="2.78566">
        <ele>50.4</ele>
        <time>2024-05-11T11:04:16Z</time>
      </trkpt>
      <trkpt lat="48.33637" lon="2.7857">
        <ele>50.4</ele>
        <time>2024-05-11T11:04:18Z</time>
      </trkpt>
      <trkpt lat="48.33638" lon="2.78574">
        <ele>50.3</ele>
        <time>2024-05-11T11:04:20Z</time>
      </trkpt>
      <trkpt lat="48.33647" lon="2.7859">
        <ele>50.1</ele>
        <time>2024-05-11T11:04:28Z</time>
      </trkpt>
      <trkpt lat="48.33652" lon="2.78597">
        <ele>50.2</ele>
        <time>2024-05-11T11:04:35Z</time>
      </trkpt>
      <trkpt lat="48.33657" lon="2.78606">
        <ele>50.4</ele>
        <time>2024-05-11T11:04:42Z</time>
      </trkpt>
      <trkpt lat="48.33658" lon="2.78609">
        <ele>50.4</ele>
        <time>2024-05-11T11:04:44Z</time>
      </trkpt>
      <trkpt lat="48.33664" lon="2.78619">
        <ele>50.3</ele>
        <time>2024-05-11T11:04:52Z</time>
      </trkpt>
      <trkpt lat="48.33668" lon="2.78632">
        <ele>49.6</ele>
        <time>2024-05-11T11:04:59Z</time>
      </trkpt>
      <trkpt lat="48.3367" lon="2.78637">
        <ele>49.4</ele>
        <time>2024-05-11T11:05:02Z</time>
      </trkpt>
      <trkpt lat="48.33674" lon="2.78646">
        <ele>49.5</ele>
        <time>2024-05-11T11:05:07Z</time>
      </trkpt>
      <trkpt lat="48.3368" lon="2.78659">
        <ele>49.9</ele>
        <time>2024-05-11T11:05:15Z</time>
      </trkpt>
      <trkpt lat="48.33683" lon="2.78666">
        <ele>50.2</ele>
        <time>2024-05-11T11:05:19Z</time>
      </trkpt>
      <trkpt lat="48.33685" lon="2.78672">
        <ele>50.2</ele>
        <time>2024-05-11T11:05:23Z</time>
      </trkpt>
      <trkpt lat="48.33688" lon="2.78678">
        <ele>50.2</ele>
        <time>2024-05-11T11:05:26Z</time>
      </trkpt>
      <trkpt lat="48.33694" lon="2.78685">
        <ele>50.3</ele>
        <time>2024-05-11T11:05:31Z</time>
      </trkpt>
      <trkpt lat="48.33699" lon="2.78693">
        <ele>50.2</ele>
        <time>2024-05-11T11:05:37Z</time>
      </trkpt>
      <trkpt lat="48.33705" lon="2.78706">
        <ele>50.1</ele>
        <time>2024-05-11T11:05:44Z</time>
      </trkpt>
      <trkpt lat="48.33711" lon="2.78717">
        <ele>50.3</ele>
        <time>2024-05-11T11:05:51Z</time>
      </trkpt>
      <trkpt lat="48.33713" lon="2.78721">
        <ele>50.3</ele>
        <time>2024-05-11T11:05:54Z</time>
      </trkpt>
      <trkpt lat="48.33716" lon="2.78729">
        <ele>50.2</ele>
        <time>2024-05-11T11:06:00Z</time>
      </trkpt>
      <trkpt lat="48.33724" lon="2.78741">
        <ele>49.7</ele>
        <time>2024-05-11T11:06:07Z</time>
      </trkpt>
      <trkpt lat="48.33729" lon="2.78752">
        <ele>49.5</ele>
        <time>2024-05-11T11:06:15Z</time>
      </trkpt>
      <trkpt lat="48.33732" lon="2.78756">
        <ele>49.8</ele>
        <time>2024-05-11T11:06:18Z</time>
      </trkpt>
      <trkpt lat="48.33739" lon="2.78767">
        <ele>50.1</ele>
        <time>2024-05-11T11:06:25Z</time>
      </trkpt>
      <trkpt lat="48.33742" lon="2.78772">
        <ele>50.1</ele>
        <time>2024-05-11T11:06:31Z</time>
      </trkpt>
      <trkpt lat="48.33743" lon="2.78774">
        <ele>50.1</ele>
        <time>2024-05-11T11:06:33Z</time>
      </trkpt>
      <trkpt lat="48.33749" lon="2.7878">
        <ele>50</ele>
        <time>2024-05-11T11:06:38Z</time>
      </trkpt>
      <trkpt lat="48.33751" lon="2.78783">
        <ele>50</ele>
        <time>2024-05-11T11:06:40Z</time>
      </trkpt>
      <trkpt lat="48.33757" lon="2.78793">
        <ele>50.3</ele>
        <time>2024-05-11T11:06:45Z</time>
      </trkpt>
      <trkpt lat="48.33763" lon="2.78804">
        <ele>50.5</ele>
        <time>2024-05-11T11:06:52Z</time>
      </trkpt>
      <trkpt lat="48.33768" lon="2.78815">
        <ele>50.3</ele>
        <time>2024-05-11T11:06:59Z</time>
      </trkpt>
      <trkpt lat="48.33776" lon="2.78828">
        <ele>50.1</ele>
        <time>2024-05-11T11:07:06Z</time>
      </trkpt>
      <trkpt lat="48.33776" lon="2.78829">
        <ele>50.1</ele>
        <time>2024-05-11T11:07:07Z</time>
      </trkpt>
      <trkpt lat="48.3378" lon="2.78832">
        <ele>50.1</ele>
        <time>2024-05-11T11:07:10Z</time>
      </trkpt>
      <trkpt lat="48.33783" lon="2.78834">
        <ele>50.2</ele>
        <time>2024-05-11T11:07:15Z</time>
      </trkpt>
      <trkpt lat="48.33787" lon="2.78837">
        <ele>50.2</ele>
        <time>2024-05-11T11:07:18Z</time>
      </trkpt>
      <trkpt lat="48.3379" lon="2.7884">
        <ele>50.2</ele>
        <time>2024-05-11T11:07:22Z</time>
      </trkpt>
      <trkpt lat="48.338" lon="2.78845">
        <ele>50.4</ele>
        <time>2024-05-11T11:07:28Z</time>
      </trkpt>
      <trkpt lat="48.33809" lon="2.78851">
        <ele>50.4</ele>
        <time>2024-05-11T11:07:36Z</time>
      </trkpt>
      <trkpt lat="48.33813" lon="2.78856">
        <ele>50.4</ele>
        <time>2024-05-11T11:07:42Z</time>
      </trkpt>
      <trkpt lat="48.33818" lon="2.78865">
        <ele>50.4</ele>
        <time>2024-05-11T11:07:49Z</time>
      </trkpt>
      <trkpt lat="48.33819" lon="2.78866">
        <ele>50.4</ele>
        <time>2024-05-11T11:07:50Z</time>
      </trkpt>
      <trkpt lat="48.33828" lon="2.78876">
        <ele>50.4</ele>
        <time>2024-05-11T11:07:58Z</time>
      </trkpt>
      <trkpt lat="48.33835" lon="2.78884">
        <ele>50.2</ele>
        <time>2024-05-11T11:08:03Z</time>
      </trkpt>
      <trkpt lat="48.33839" lon="2.78887">
        <ele>50.2</ele>
        <time>2024-05-11T11:08:06Z</time>
      </trkpt>
      <trkpt lat="48.33841" lon="2.78889">
        <ele>50.3</ele>
        <time>2024-05-11T11:08:08Z</time>
      </trkpt>
      <trkpt lat="48.33851" lon="2.78902">
        <ele>49.9</ele>
        <time>2024-05-11T11:08:17Z</time>
      </trkpt>
      <trkpt lat="48.33858" lon="2.78911">
        <ele>49.4</ele>
        <time>2024-05-11T11:08:24Z</time>
      </trkpt>
      <trkpt lat="48.33862" lon="2.78914">
        <ele>49.2</ele>
        <time>2024-05-11T11:08:29Z</time>
      </trkpt>
      <trkpt lat="48.33863" lon="2.78916">
        <ele>49.1</ele>
        <time>2024-05-11T11:08:39Z</time>
      </trkpt>
      <trkpt lat="48.33864" lon="2.78914">
        <ele>49.3</ele>
        <time>2024-05-11T11:08:47Z</time>
      </trkpt>
      <trkpt lat="48.33864" lon="2.78915">
        <ele>49.2</ele>
        <time>2024-05-11T11:08:56Z</time>
      </trkpt>
      <trkpt lat="48.33864" lon="2.78914">
        <ele>49.3</ele>
        <time>2024-05-11T11:09:09Z</time>
      </trkpt>
      <trkpt lat="48.33864" lon="2.78915">
        <ele>49.2</ele>
        <time>2024-05-11T11:09:24Z</time>
      </trkpt>
      <trkpt lat="48.33865" lon="2.78915">
        <ele>49.2</ele>
        <time>2024-05-11T11:09:40Z</time>
      </trkpt>
      <trkpt lat="48.33865" lon="2.78916">
        <ele>49.2</ele>
        <time>2024-05-11T11:09:53Z</time>
      </trkpt>
      <trkpt lat="48.33865" lon="2.78916">
        <ele>49.2</ele>
        <time>2024-05-11T11:10:02Z</time>
      </trkpt>
      <trkpt lat="48.33865" lon="2.78915">
        <ele>49.2</ele>
        <time>2024-05-11T11:10:18Z</time>
      </trkpt>
      <trkpt lat="48.33866" lon="2.78914">
        <ele>49.4</ele>
        <time>2024-05-11T11:10:37Z</time>
      </trkpt>
      <trkpt lat="48.33867" lon="2.78914">
        <ele>49.4</ele>
        <time>2024-05-11T11:10:55Z</time>
      </trkpt>
      <trkpt lat="48.33868" lon="2.78914">
        <ele>49.4</ele>
        <time>2024-05-11T11:11:12Z</time>
      </trkpt>
      <trkpt lat="48.33868" lon="2.78914">
        <ele>49.4</ele>
        <time>2024-05-11T11:11:32Z</time>
      </trkpt>
      <trkpt lat="48.33868" lon="2.78914">
        <ele>49.4</ele>
        <time>2024-05-11T11:11:50Z</time>
      </trkpt>
      <trkpt lat="48.33867" lon="2.78914">
        <ele>49.4</ele>
        <time>2024-05-11T11:12:10Z</time>
      </trkpt>
      <trkpt lat="48.33868" lon="2.78915">
        <ele>49.3</ele>
        <time>2024-05-11T11:12:29Z</time>
      </trkpt>
      <trkpt lat="48.33868" lon="2.78915">
        <ele>49.3</ele>
        <time>2024-05-11T11:12:47Z</time>
      </trkpt>
      <trkpt lat="48.33868" lon="2.78916">
        <ele>49.3</ele>
        <time>2024-05-11T11:13:09Z</time>
      </trkpt>
      <trkpt lat="48.33868" lon="2.78916">
        <ele>49.3</ele>
        <time>2024-05-11T11:13:26Z</time>
      </trkpt>
      <trkpt lat="48.33868" lon="2.78916">
        <ele>49.3</ele>
        <time>2024-05-11T11:13:43Z</time>
      </trkpt>
      <trkpt lat="48.33868" lon="2.78915">
        <ele>49.3</ele>
        <time>2024-05-11T11:14:02Z</time>
      </trkpt>
      <trkpt lat="48.33868" lon="2.78914">
        <ele>49.4</ele>
        <time>2024-05-11T11:14:22Z</time>
      </trkpt>
      <trkpt lat="48.33869" lon="2.78915">
        <ele>49.4</ele>
        <time>2024-05-11T11:14:39Z</time>
      </trkpt>
      <trkpt lat="48.33869" lon="2.78915">
        <ele>49.4</ele>
        <time>2024-05-11T11:14:56Z</time>
      </trkpt>
      <trkpt lat="48.33869" lon="2.78916">
        <ele>49.3</ele>
        <time>2024-05-11T11:15:17Z</time>
      </trkpt>
      <trkpt lat="48.33868" lon="2.78915">
        <ele>49.4</ele>
        <time>2024-05-11T11:15:36Z</time>
      </trkpt>
      <trkpt lat="48.33869" lon="2.78915">
        <ele>49.4</ele>
        <time>2024-05-11T11:15:54Z</time>
      </trkpt>
      <trkpt lat="48.33869" lon="2.78914">
        <ele>49.4</ele>
        <time>2024-05-11T11:16:11Z</time>
      </trkpt>
      <trkpt lat="48.33869" lon="2.78914">
        <ele>49.4</ele>
        <time>2024-05-11T11:16:32Z</time>
      </trkpt>
      <trkpt lat="48.33869" lon="2.78914">
        <ele>49.4</ele>
        <time>2024-05-11T11:16:49Z</time>
      </trkpt>
      <trkpt lat="48.33869" lon="2.78914">
        <ele>49.5</ele>
        <time>2024-05-11T11:17:07Z</time>
      </trkpt>
      <trkpt lat="48.33869" lon="2.78914">
        <ele>49.5</ele>
        <time>2024-05-11T11:17:25Z</time>
      </trkpt>
      <trkpt lat="48.33869" lon="2.78915">
        <ele>49.4</ele>
        <time>2024-05-11T11:17:41Z</time>
      </trkpt>
      <trkpt lat="48.33869" lon="2.78915">
        <ele>49.4</ele>
        <time>2024-05-11T11:17:59Z</time>
      </trkpt>
      <trkpt lat="48.33869" lon="2.78915">
        <ele>49.4</ele>
        <time>2024-05-11T11:18:16Z</time>
      </trkpt>
      <trkpt lat="48.33869" lon="2.78915">
        <ele>49.4</ele>
        <time>2024-05-11T11:18:33Z</time>
      </trkpt>
      <trkpt lat="48.33869" lon="2.78914">
        <ele>49.4</ele>
        <time>2024-05-11T11:18:51Z</time>
      </trkpt>
      <trkpt lat="48.33869" lon="2.78914">
        <ele>49.5</ele>
        <time>2024-05-11T11:19:11Z</time>
      </trkpt>
      <trkpt lat="48.33869" lon="2.78913">
        <ele>49.5</ele>
        <time>2024-05-11T11:19:28Z</time>
      </trkpt>
      <trkpt lat="48.33869" lon="2.78914">
        <ele>49.5</ele>
        <time>2024-05-11T11:19:48Z</time>
      </trkpt>
      <trkpt lat="48.33869" lon="2.78914">
        <ele>49.5</ele>
        <time>2024-05-11T11:20:10Z</time>
      </trkpt>
      <trkpt lat="48.33869" lon="2.78913">
        <ele>49.5</ele>
        <time>2024-05-11T11:20:29Z</time>
      </trkpt>
      <trkpt lat="48.33868" lon="2.78913">
        <ele>49.5</ele>
        <time>2024-05-11T11:20:46Z</time>
      </trkpt>
      <trkpt lat="48.33868" lon="2.78913">
        <ele>49.5</ele>
        <time>2024-05-11T11:21:03Z</time>
      </trkpt>
      <trkpt lat="48.33867" lon="2.78912">
        <ele>49.5</ele>
        <time>2024-05-11T11:21:23Z</time>
      </trkpt>
      <trkpt lat="48.33868" lon="2.78912">
        <ele>49.5</ele>
        <time>2024-05-11T11:21:38Z</time>
      </trkpt>
      <trkpt lat="48.33868" lon="2.78911">
        <ele>49.6</ele>
        <time>2024-05-11T11:21:58Z</time>
      </trkpt>
      <trkpt lat="48.33868" lon="2.78911">
        <ele>49.6</ele>
        <time>2024-05-11T11:22:21Z</time>
      </trkpt>
      <trkpt lat="48.33868" lon="2.7891">
        <ele>49.7</ele>
        <time>2024-05-11T11:22:42Z</time>
      </trkpt>
      <trkpt lat="48.33868" lon="2.78911">
        <ele>49.6</ele>
        <time>2024-05-11T11:22:59Z</time>
      </trkpt>
      <trkpt lat="48.33868" lon="2.7891">
        <ele>49.6</ele>
        <time>2024-05-11T11:23:17Z</time>
      </trkpt>
      <trkpt lat="48.33867" lon="2.78911">
        <ele>49.6</ele>
        <time>2024-05-11T11:23:37Z</time>
      </trkpt>
      <trkpt lat="48.33867" lon="2.78911">
        <ele>49.6</ele>
        <time>2024-05-11T11:23:56Z</time>
      </trkpt>
      <trkpt lat="48.33867" lon="2.78911">
        <ele>49.6</ele>
        <time>2024-05-11T11:24:12Z</time>
      </trkpt>
      <trkpt lat="48.33868" lon="2.78912">
        <ele>49.5</ele>
        <time>2024-05-11T11:24:31Z</time>
      </trkpt>
      <trkpt lat="48.33868" lon="2.78912">
        <ele>49.6</ele>
        <time>2024-05-11T11:24:50Z</time>
      </trkpt>
      <trkpt lat="48.33868" lon="2.78911">
        <ele>49.6</ele>
        <time>2024-05-11T11:25:10Z</time>
      </trkpt>
      <trkpt lat="48.33868" lon="2.78912">
        <ele>49.6</ele>
        <time>2024-05-11T11:25:25Z</time>
      </trkpt>
      <trkpt lat="48.33868" lon="2.78911">
        <ele>49.6</ele>
        <time>2024-05-11T11:25:43Z</time>
      </trkpt>
      <trkpt lat="48.33868" lon="2.78912">
        <ele>49.6</ele>
        <time>2024-05-11T11:26:01Z</time>
      </trkpt>
      <trkpt lat="48.33868" lon="2.78911">
        <ele>49.6</ele>
        <time>2024-05-11T11:26:19Z</time>
      </trkpt>
      <trkpt lat="48.33868" lon="2.78911">
        <ele>49.6</ele>
        <time>2024-05-11T11:26:37Z</time>
      </trkpt>
      <trkpt lat="48.33868" lon="2.78911">
        <ele>49.6</ele>
        <time>2024-05-11T11:26:55Z</time>
      </trkpt>
      <trkpt lat="48.33868" lon="2.78911">
        <ele>49.6</ele>
        <time>2024-05-11T11:27:14Z</time>
      </trkpt>
      <trkpt lat="48.33868" lon="2.78911">
        <ele>49.6</ele>
        <time>2024-05-11T11:27:31Z</time>
      </trkpt>
      <trkpt lat="48.33868" lon="2.78911">
        <ele>49.6</ele>
        <time>2024-05-11T11:27:49Z</time>
      </trkpt>
      <trkpt lat="48.33868" lon="2.78912">
        <ele>49.6</ele>
        <time>2024-05-11T11:28:04Z</time>
      </trkpt>
      <trkpt lat="48.33868" lon="2.78912">
        <ele>49.6</ele>
        <time>2024-05-11T11:28:20Z</time>
      </trkpt>
      <trkpt lat="48.33869" lon="2.78912">
        <ele>49.5</ele>
        <time>2024-05-11T11:28:37Z</time>
      </trkpt>
      <trkpt lat="48.33869" lon="2.78913">
        <ele>49.5</ele>
        <time>2024-05-11T11:28:57Z</time>
      </trkpt>
      <trkpt lat="48.33869" lon="2.78912">
        <ele>49.6</ele>
        <time>2024-05-11T11:29:15Z</time>
      </trkpt>
      <trkpt lat="48.33869" lon="2.78912">
        <ele>49.6</ele>
        <time>2024-05-11T11:29:33Z</time>
      </trkpt>
      <trkpt lat="48.3387" lon="2.78911">
        <ele>49.6</ele>
        <time>2024-05-11T11:29:52Z</time>
      </trkpt>
      <trkpt lat="48.3387" lon="2.78911">
        <ele>49.7</ele>
        <time>2024-05-11T11:30:12Z</time>
      </trkpt>
      <trkpt lat="48.3387" lon="2.78911">
        <ele>49.7</ele>
        <time>2024-05-11T11:30:29Z</time>
      </trkpt>
      <trkpt lat="48.3387" lon="2.78911">
        <ele>49.6</ele>
        <time>2024-05-11T11:30:49Z</time>
      </trkpt>
      <trkpt lat="48.3387" lon="2.78911">
        <ele>49.6</ele>
        <time>2024-05-11T11:31:08Z</time>
      </trkpt>
      <trkpt lat="48.3387" lon="2.78911">
        <ele>49.7</ele>
        <time>2024-05-11T11:31:27Z</time>
      </trkpt>
      <trkpt lat="48.3387" lon="2.78911">
        <ele>49.7</ele>
        <time>2024-05-11T11:31:48Z</time>
      </trkpt>
      <trkpt lat="48.3387" lon="2.78911">
        <ele>49.7</ele>
        <time>2024-05-11T11:32:07Z</time>
      </trkpt>
      <trkpt lat="48.3387" lon="2.7891">
        <ele>49.8</ele>
        <time>2024-05-11T11:32:26Z</time>
      </trkpt>
      <trkpt lat="48.33871" lon="2.78909">
        <ele>49.8</ele>
        <time>2024-05-11T11:32:47Z</time>
      </trkpt>
      <trkpt lat="48.33872" lon="2.78909">
        <ele>49.8</ele>
        <time>2024-05-11T11:33:05Z</time>
      </trkpt>
      <trkpt lat="48.33872" lon="2.7891">
        <ele>49.8</ele>
        <time>2024-05-11T11:33:24Z</time>
      </trkpt>
      <trkpt lat="48.33871" lon="2.7891">
        <ele>49.7</ele>
        <time>2024-05-11T11:33:41Z</time>
      </trkpt>
      <trkpt lat="48.33871" lon="2.7891">
        <ele>49.7</ele>
        <time>2024-05-11T11:33:58Z</time>
      </trkpt>
      <trkpt lat="48.33871" lon="2.7891">
        <ele>49.7</ele>
        <time>2024-05-11T11:34:14Z</time>
      </trkpt>
      <trkpt lat="48.3387" lon="2.7891">
        <ele>49.7</ele>
        <time>2024-05-11T11:34:35Z</time>
      </trkpt>
      <trkpt lat="48.3387" lon="2.7891">
        <ele>49.7</ele>
        <time>2024-05-11T11:34:52Z</time>
      </trkpt>
      <trkpt lat="48.3387" lon="2.7891">
        <ele>49.7</ele>
        <time>2024-05-11T11:35:09Z</time>
      </trkpt>
      <trkpt lat="48.3387" lon="2.7891">
        <ele>49.7</ele>
        <time>2024-05-11T11:35:22Z</time>
      </trkpt>
      <trkpt lat="48.3387" lon="2.7891">
        <ele>49.7</ele>
        <time>2024-05-11T11:35:39Z</time>
      </trkpt>
      <trkpt lat="48.3387" lon="2.78909">
        <ele>49.8</ele>
        <time>2024-05-11T11:36:00Z</time>
      </trkpt>
      <trkpt lat="48.3387" lon="2.7891">
        <ele>49.8</ele>
        <time>2024-05-11T11:36:16Z</time>
      </trkpt>
      <trkpt lat="48.3387" lon="2.7891">
        <ele>49.7</ele>
        <time>2024-05-11T11:36:33Z</time>
      </trkpt>
      <trkpt lat="48.3387" lon="2.78909">
        <ele>49.8</ele>
        <time>2024-05-11T11:36:47Z</time>
      </trkpt>
      <trkpt lat="48.3387" lon="2.7891">
        <ele>49.7</ele>
        <time>2024-05-11T11:37:05Z</time>
      </trkpt>
      <trkpt lat="48.3387" lon="2.78909">
        <ele>49.8</ele>
        <time>2024-05-11T11:37:24Z</time>
      </trkpt>
      <trkpt lat="48.3387" lon="2.78909">
        <ele>49.8</ele>
        <time>2024-05-11T11:37:44Z</time>
      </trkpt>
      <trkpt lat="48.3387" lon="2.78909">
        <ele>49.8</ele>
        <time>2024-05-11T11:38:04Z</time>
      </trkpt>
      <trkpt lat="48.3387" lon="2.78909">
        <ele>49.8</ele>
        <time>2024-05-11T11:38:20Z</time>
      </trkpt>
      <trkpt lat="48.3387" lon="2.7891">
        <ele>49.7</ele>
        <time>2024-05-11T11:38:36Z</time>
      </trkpt>
      <trkpt lat="48.3387" lon="2.7891">
        <ele>49.7</ele>
        <time>2024-05-11T11:38:57Z</time>
      </trkpt>
      <trkpt lat="48.3387" lon="2.78911">
        <ele>49.7</ele>
        <time>2024-05-11T11:39:15Z</time>
      </trkpt>
      <trkpt lat="48.3387" lon="2.78911">
        <ele>49.7</ele>
        <time>2024-05-11T11:39:33Z</time>
      </trkpt>
      <trkpt lat="48.3387" lon="2.78911">
        <ele>49.7</ele>
        <time>2024-05-11T11:39:49Z</time>
      </trkpt>
      <trkpt lat="48.3387" lon="2.78911">
        <ele>49.7</ele>
        <time>2024-05-11T11:40:08Z</time>
      </trkpt>
      <trkpt lat="48.3387" lon="2.78911">
        <ele>49.6</ele>
        <time>2024-05-11T11:40:25Z</time>
      </trkpt>
      <trkpt lat="48.33869" lon="2.78911">
        <ele>49.6</ele>
        <time>2024-05-11T11:40:42Z</time>
      </trkpt>
      <trkpt lat="48.3387" lon="2.78911">
        <ele>49.7</ele>
        <time>2024-05-11T11:41:00Z</time>
      </trkpt>
      <trkpt lat="48.3387" lon="2.78911">
        <ele>49.7</ele>
        <time>2024-05-11T11:41:20Z</time>
      </trkpt>
      <trkpt lat="48.3387" lon="2.78911">
        <ele>49.7</ele>
        <time>2024-05-11T11:41:40Z</time>
      </trkpt>
      <trkpt lat="48.33869" lon="2.7891">
        <ele>49.7</ele>
        <time>2024-05-11T11:42:00Z</time>
      </trkpt>
      <trkpt lat="48.33869" lon="2.7891">
        <ele>49.7</ele>
        <time>2024-05-11T11:42:17Z</time>
      </trkpt>
      <trkpt lat="48.33869" lon="2.7891">
        <ele>49.7</ele>
        <time>2024-05-11T11:42:36Z</time>
      </trkpt>
      <trkpt lat="48.33869" lon="2.78909">
        <ele>49.7</ele>
        <time>2024-05-11T11:42:54Z</time>
      </trkpt>
      <trkpt lat="48.33869" lon="2.78909">
        <ele>49.7</ele>
        <time>2024-05-11T11:43:15Z</time>
      </trkpt>
      <trkpt lat="48.33869" lon="2.7891">
        <ele>49.7</ele>
        <time>2024-05-11T11:43:36Z</time>
      </trkpt>
      <trkpt lat="48.33869" lon="2.7891">
        <ele>49.7</ele>
        <time>2024-05-11T11:43:57Z</time>
      </trkpt>
      <trkpt lat="48.33868" lon="2.7891">
        <ele>49.7</ele>
        <time>2024-05-11T11:44:14Z</time>
      </trkpt>
      <trkpt lat="48.33868" lon="2.7891">
        <ele>49.7</ele>
        <time>2024-05-11T11:44:32Z</time>
      </trkpt>
      <trkpt lat="48.33868" lon="2.78909">
        <ele>49.7</ele>
        <time>2024-05-11T11:44:55Z</time>
      </trkpt>
      <trkpt lat="48.33867" lon="2.7891">
        <ele>49.7</ele>
        <time>2024-05-11T11:45:14Z</time>
      </trkpt>
      <trkpt lat="48.33868" lon="2.7891">
        <ele>49.7</ele>
        <time>2024-05-11T11:45:31Z</time>
      </trkpt>
      <trkpt lat="48.33868" lon="2.7891">
        <ele>49.7</ele>
        <time>2024-05-11T11:45:51Z</time>
      </trkpt>
      <trkpt lat="48.33868" lon="2.7891">
        <ele>49.7</ele>
        <time>2024-05-11T11:46:08Z</time>
      </trkpt>
      <trkpt lat="48.33868" lon="2.7891">
        <ele>49.7</ele>
        <time>2024-05-11T11:46:25Z</time>
      </trkpt>
      <trkpt lat="48.33868" lon="2.7891">
        <ele>49.7</ele>
        <time>2024-05-11T11:46:43Z</time>
      </trkpt>
      <trkpt lat="48.33868" lon="2.78909">
        <ele>49.7</ele>
        <time>2024-05-11T11:47:00Z</time>
      </trkpt>
      <trkpt lat="48.33868" lon="2.78908">
        <ele>49.8</ele>
        <time>2024-05-11T11:47:18Z</time>
      </trkpt>
      <trkpt lat="48.33868" lon="2.78908">
        <ele>49.8</ele>
        <time>2024-05-11T11:47:35Z</time>
      </trkpt>
      <trkpt lat="48.33869" lon="2.78907">
        <ele>49.9</ele>
        <time>2024-05-11T11:47:52Z</time>
      </trkpt>
      <trkpt lat="48.33868" lon="2.78907">
        <ele>49.8</ele>
        <time>2024-05-11T11:48:05Z</time>
      </trkpt>
      <trkpt lat="48.33868" lon="2.78908">
        <ele>49.8</ele>
        <time>2024-05-11T11:48:14Z</time>
      </trkpt>
      <trkpt lat="48.33868" lon="2.78908">
        <ele>49.8</ele>
        <time>2024-05-11T11:48:27Z</time>
      </trkpt>
      <trkpt lat="48.33868" lon="2.78909">
        <ele>49.7</ele>
        <time>2024-05-11T11:48:38Z</time>
      </trkpt>
      <trkpt lat="48.33867" lon="2.78911">
        <ele>49.6</ele>
        <time>2024-05-11T11:48:54Z</time>
      </trkpt>
      <trkpt lat="48.33868" lon="2.78912">
        <ele>49.6</ele>
        <time>2024-05-11T11:49:10Z</time>
      </trkpt>
      <trkpt lat="48.33867" lon="2.78912">
        <ele>49.5</ele>
        <time>2024-05-11T11:49:26Z</time>
      </trkpt>
      <trkpt lat="48.33867" lon="2.78911">
        <ele>49.6</ele>
        <time>2024-05-11T11:49:38Z</time>
      </trkpt>
      <trkpt lat="48.33867" lon="2.78911">
        <ele>49.5</ele>
        <time>2024-05-11T11:49:49Z</time>
      </trkpt>
      <trkpt lat="48.33867" lon="2.78912">
        <ele>49.5</ele>
        <time>2024-05-11T11:50:07Z</time>
      </trkpt>
      <trkpt lat="48.33867" lon="2.78912">
        <ele>49.5</ele>
        <time>2024-05-11T11:50:24Z</time>
      </trkpt>
      <trkpt lat="48.33868" lon="2.78912">
        <ele>49.6</ele>
        <time>2024-05-11T11:50:44Z</time>
      </trkpt>
      <trkpt lat="48.33868" lon="2.78912">
        <ele>49.6</ele>
        <time>2024-05-11T11:51:01Z</time>
      </trkpt>
      <trkpt lat="48.33868" lon="2.78912">
        <ele>49.6</ele>
        <time>2024-05-11T11:51:17Z</time>
      </trkpt>
      <trkpt lat="48.33868" lon="2.78911">
        <ele>49.6</ele>
        <time>2024-05-11T11:51:34Z</time>
      </trkpt>
      <trkpt lat="48.33868" lon="2.78911">
        <ele>49.6</ele>
        <time>2024-05-11T11:51:51Z</time>
      </trkpt>
      <trkpt lat="48.33868" lon="2.78911">
        <ele>49.6</ele>
        <time>2024-05-11T11:52:11Z</time>
      </trkpt>
      <trkpt lat="48.33868" lon="2.78911">
        <ele>49.6</ele>
        <time>2024-05-11T11:52:31Z</time>
      </trkpt>
      <trkpt lat="48.33869" lon="2.78911">
        <ele>49.6</ele>
        <time>2024-05-11T11:52:38Z</time>
      </trkpt>
      <trkpt lat="48.33869" lon="2.78913">
        <ele>49.5</ele>
        <time>2024-05-11T11:52:43Z</time>
      </trkpt>
      <trkpt lat="48.33871" lon="2.78915">
        <ele>49.4</ele>
        <time>2024-05-11T11:52:56Z</time>
      </trkpt>
      <trkpt lat="48.33871" lon="2.78915">
        <ele>49.4</ele>
        <time>2024-05-11T11:53:10Z</time>
      </trkpt>
      <trkpt lat="48.33871" lon="2.78915">
        <ele>49.4</ele>
        <time>2024-05-11T11:53:20Z</time>
      </trkpt>
      <trkpt lat="48.33871" lon="2.78916">
        <ele>49.4</ele>
        <time>2024-05-11T11:53:31Z</time>
      </trkpt>
      <trkpt lat="48.33871" lon="2.78915">
        <ele>49.5</ele>
        <time>2024-05-11T11:53:38Z</time>
      </trkpt>
      <trkpt lat="48.33872" lon="2.78913">
        <ele>49.6</ele>
        <time>2024-05-11T11:53:45Z</time>
      </trkpt>
      <trkpt lat="48.33876" lon="2.78913">
        <ele>49.7</ele>
        <time>2024-05-11T11:53:52Z</time>
      </trkpt>
      <trkpt lat="48.33879" lon="2.78913">
        <ele>49.8</ele>
        <time>2024-05-11T11:53:56Z</time>
      </trkpt>
      <trkpt lat="48.33881" lon="2.78914">
        <ele>49.8</ele>
        <time>2024-05-11T11:54:03Z</time>
      </trkpt>
      <trkpt lat="48.33888" lon="2.78917">
        <ele>49.9</ele>
        <time>2024-05-11T11:54:10Z</time>
      </trkpt>
      <trkpt lat="48.3389" lon="2.78917">
        <ele>50</ele>
        <time>2024-05-11T11:54:12Z</time>
      </trkpt>
      <trkpt lat="48.33893" lon="2.78917">
        <ele>50.1</ele>
        <time>2024-05-11T11:54:16Z</time>
      </trkpt>
      <trkpt lat="48.33899" lon="2.78917">
        <ele>50.4</ele>
        <time>2024-05-11T11:54:23Z</time>
      </trkpt>
      <trkpt lat="48.33903" lon="2.78918">
        <ele>50.4</ele>
        <time>2024-05-11T11:54:26Z</time>
      </trkpt>
      <trkpt lat="48.33912" lon="2.78923">
        <ele>50.4</ele>
        <time>2024-05-11T11:54:34Z</time>
      </trkpt>
      <trkpt lat="48.33919" lon="2.78927">
        <ele>50.2</ele>
        <time>2024-05-11T11:54:41Z</time>
      </trkpt>
      <trkpt lat="48.3393" lon="2.78925">
        <ele>50.2</ele>
        <time>2024-05-11T11:54:50Z</time>
      </trkpt>
      <trkpt lat="48.33935" lon="2.78925">
        <ele>50.1</ele>
        <time>2024-05-11T11:54:54Z</time>
      </trkpt>
      <trkpt lat="48.33938" lon="2.78927">
        <ele>50.1</ele>
        <time>2024-05-11T11:54:57Z</time>
      </trkpt>
      <trkpt lat="48.33943" lon="2.78931">
        <ele>50</ele>
        <time>2024-05-11T11:55:03Z</time>
      </trkpt>
      <trkpt lat="48.33946" lon="2.78934">
        <ele>50</ele>
        <time>2024-05-11T11:55:06Z</time>
      </trkpt>
      <trkpt lat="48.33955" lon="2.78941">
        <ele>50</ele>
        <time>2024-05-11T11:55:15Z</time>
      </trkpt>
      <trkpt lat="48.33965" lon="2.7895">
        <ele>49.7</ele>
        <time>2024-05-11T11:55:23Z</time>
      </trkpt>
      <trkpt lat="48.33973" lon="2.78956">
        <ele>49.6</ele>
        <time>2024-05-11T11:55:30Z</time>
      </trkpt>
      <trkpt lat="48.33981" lon="2.78967">
        <ele>49.8</ele>
        <time>2024-05-11T11:55:38Z</time>
      </trkpt>
      <trkpt lat="48.33985" lon="2.78972">
        <ele>50</ele>
        <time>2024-05-11T11:55:43Z</time>
      </trkpt>
      <trkpt lat="48.33988" lon="2.78974">
        <ele>50</ele>
        <time>2024-05-11T11:55:46Z</time>
      </trkpt>
      <trkpt lat="48.33997" lon="2.78981">
        <ele>50.2</ele>
        <time>2024-05-11T11:55:53Z</time>
      </trkpt>
      <trkpt lat="48.34005" lon="2.78984">
        <ele>50.2</ele>
        <time>2024-05-11T11:56:01Z</time>
      </trkpt>
      <trkpt lat="48.3401" lon="2.78986">
        <ele>50.2</ele>
        <time>2024-05-11T11:56:05Z</time>
      </trkpt>
      <trkpt lat="48.34016" lon="2.78994">
        <ele>49.9</ele>
        <time>2024-05-11T11:56:13Z</time>
      </trkpt>
      <trkpt lat="48.34018" lon="2.78994">
        <ele>49.9</ele>
        <time>2024-05-11T11:56:21Z</time>
      </trkpt>
      <trkpt lat="48.34019" lon="2.78997">
        <ele>49.8</ele>
        <time>2024-05-11T11:56:30Z</time>
      </trkpt>
      <trkpt lat="48.34022" lon="2.78993">
        <ele>50.1</ele>
        <time>2024-05-11T11:56:37Z</time>
      </trkpt>
      <trkpt lat="48.3403" lon="2.78988">
        <ele>50.4</ele>
        <time>2024-05-11T11:56:45Z</time>
      </trkpt>
      <trkpt lat="48.34033" lon="2.78989">
        <ele>50.3</ele>
        <time>2024-05-11T11:56:49Z</time>
      </trkpt>
      <trkpt lat="48.3404" lon="2.78983">
        <ele>50.3</ele>
        <time>2024-05-11T11:56:56Z</time>
      </trkpt>
      <trkpt lat="48.34042" lon="2.78979">
        <ele>50.4</ele>
        <time>2024-05-11T11:56:59Z</time>
      </trkpt>
      <trkpt lat="48.34048" lon="2.78969">
        <ele>50.4</ele>
        <time>2024-05-11T11:57:07Z</time>
      </trkpt>
      <trkpt lat="48.34049" lon="2.78967">
        <ele>50.4</ele>
        <time>2024-05-11T11:57:09Z</time>
      </trkpt>
      <trkpt lat="48.3405" lon="2.78955">
        <ele>50.7</ele>
        <time>2024-05-11T11:57:16Z</time>
      </trkpt>
      <trkpt lat="48.3405" lon="2.78943">
        <ele>50.9</ele>
        <time>2024-05-11T11:57:23Z</time>
      </trkpt>
      <trkpt lat="48.34051" lon="2.78941">
        <ele>50.9</ele>
        <time>2024-05-11T11:57:24Z</time>
      </trkpt>
      <trkpt lat="48.34051" lon="2.78931">
        <ele>50.5</ele>
        <time>2024-05-11T11:57:31Z</time>
      </trkpt>
      <trkpt lat="48.34053" lon="2.78925">
        <ele>50.3</ele>
        <time>2024-05-11T11:57:37Z</time>
      </trkpt>
      <trkpt lat="48.34053" lon="2.78922">
        <ele>50.2</ele>
        <time>2024-05-11T11:57:45Z</time>
      </trkpt>
      <trkpt lat="48.34053" lon="2.78921">
        <ele>50.2</ele>
        <time>2024-05-11T11:57:53Z</time>
      </trkpt>
      <trkpt lat="48.34053" lon="2.78921">
        <ele>50.1</ele>
        <time>2024-05-11T11:58:05Z</time>
      </trkpt>
      <trkpt lat="48.34053" lon="2.7892">
        <ele>50.1</ele>
        <time>2024-05-11T11:58:17Z</time>
      </trkpt>
      <trkpt lat="48.34054" lon="2.78919">
        <ele>50.1</ele>
        <time>2024-05-11T11:58:32Z</time>
      </trkpt>
      <trkpt lat="48.34054" lon="2.78919">
        <ele>50.1</ele>
        <time>2024-05-11T11:58:43Z</time>
      </trkpt>
      <trkpt lat="48.34054" lon="2.78918">
        <ele>50.1</ele>
        <time>2024-05-11T11:58:55Z</time>
      </trkpt>
      <trkpt lat="48.34054" lon="2.78918">
        <ele>50</ele>
        <time>2024-05-11T11:59:09Z</time>
      </trkpt>
      <trkpt lat="48.34055" lon="2.78919">
        <ele>50.1</ele>
        <time>2024-05-11T11:59:16Z</time>
      </trkpt>
      <trkpt lat="48.34054" lon="2.7892">
        <ele>50.1</ele>
        <time>2024-05-11T11:59:26Z</time>
      </trkpt>
      <trkpt lat="48.34054" lon="2.7892">
        <ele>50.1</ele>
        <time>2024-05-11T11:59:39Z</time>
      </trkpt>
      <trkpt lat="48.34054" lon="2.7892">
        <ele>50.1</ele>
        <time>2024-05-11T11:59:51Z</time>
      </trkpt>
      <trkpt lat="48.34053" lon="2.78924">
        <ele>50.2</ele>
        <time>2024-05-11T12:00:01Z</time>
      </trkpt>
      <trkpt lat="48.34052" lon="2.78927">
        <ele>50.4</ele>
        <time>2024-05-11T12:00:05Z</time>
      </trkpt>
      <trkpt lat="48.3405" lon="2.78938">
        <ele>50.8</ele>
        <time>2024-05-11T12:00:13Z</time>
      </trkpt>
      <trkpt lat="48.34049" lon="2.78942">
        <ele>50.9</ele>
        <time>2024-05-11T12:00:16Z</time>
      </trkpt>
      <trkpt lat="48.34048" lon="2.78959">
        <ele>50.6</ele>
        <time>2024-05-11T12:00:24Z</time>
      </trkpt>
      <trkpt lat="48.34047" lon="2.78961">
        <ele>50.6</ele>
        <time>2024-05-11T12:00:25Z</time>
      </trkpt>
      <trkpt lat="48.34044" lon="2.78969">
        <ele>50.5</ele>
        <time>2024-05-11T12:00:31Z</time>
      </trkpt>
      <trkpt lat="48.34039" lon="2.78981">
        <ele>50.4</ele>
        <time>2024-05-11T12:00:40Z</time>
      </trkpt>
      <trkpt lat="48.34037" lon="2.78984">
        <ele>50.4</ele>
        <time>2024-05-11T12:00:43Z</time>
      </trkpt>
      <trkpt lat="48.34033" lon="2.78985">
        <ele>50.4</ele>
        <time>2024-05-11T12:00:47Z</time>
      </trkpt>
      <trkpt lat="48.34028" lon="2.7899">
        <ele>50.3</ele>
        <time>2024-05-11T12:00:53Z</time>
      </trkpt>
      <trkpt lat="48.34022" lon="2.78999">
        <ele>49.8</ele>
        <time>2024-05-11T12:01:01Z</time>
      </trkpt>
      <trkpt lat="48.34022" lon="2.79003">
        <ele>49.7</ele>
        <time>2024-05-11T12:01:08Z</time>
      </trkpt>
      <trkpt lat="48.34027" lon="2.79005">
        <ele>49.8</ele>
        <time>2024-05-11T12:01:16Z</time>
      </trkpt>
      <trkpt lat="48.34028" lon="2.79007">
        <ele>49.8</ele>
        <time>2024-05-11T12:01:29Z</time>
      </trkpt>
      <trkpt lat="48.34028" lon="2.79006">
        <ele>49.8</ele>
        <time>2024-05-11T12:01:38Z</time>
      </trkpt>
      <trkpt lat="48.34028" lon="2.79007">
        <ele>49.8</ele>
        <time>2024-05-11T12:01:53Z</time>
      </trkpt>
      <trkpt lat="48.34029" lon="2.79008">
        <ele>49.7</ele>
        <time>2024-05-11T12:01:59Z</time>
      </trkpt>
      <trkpt lat="48.34031" lon="2.79011">
        <ele>49.7</ele>
        <time>2024-05-11T12:02:05Z</time>
      </trkpt>
      <trkpt lat="48.34034" lon="2.79011">
        <ele>49.7</ele>
        <time>2024-05-11T12:02:11Z</time>
      </trkpt>
      <trkpt lat="48.3404" lon="2.79011">
        <ele>49.8</ele>
        <time>2024-05-11T12:02:18Z</time>
      </trkpt>
      <trkpt lat="48.34044" lon="2.79011">
        <ele>49.8</ele>
        <time>2024-05-11T12:02:23Z</time>
      </trkpt>
      <trkpt lat="48.3405" lon="2.79014">
        <ele>49.9</ele>
        <time>2024-05-11T12:02:29Z</time>
      </trkpt>
      <trkpt lat="48.34052" lon="2.79014">
        <ele>49.9</ele>
        <time>2024-05-11T12:02:31Z</time>
      </trkpt>
      <trkpt lat="48.34056" lon="2.79017">
        <ele>50</ele>
        <time>2024-05-11T12:02:35Z</time>
      </trkpt>
      <trkpt lat="48.34058" lon="2.79017">
        <ele>50.1</ele>
        <time>2024-05-11T12:02:37Z</time>
      </trkpt>
      <trkpt lat="48.34067" lon="2.79023">
        <ele>50.4</ele>
        <time>2024-05-11T12:02:46Z</time>
      </trkpt>
      <trkpt lat="48.34074" lon="2.79029">
        <ele>50.6</ele>
        <time>2024-05-11T12:02:53Z</time>
      </trkpt>
      <trkpt lat="48.3408" lon="2.79036">
        <ele>50.5</ele>
        <time>2024-05-11T12:03:00Z</time>
      </trkpt>
      <trkpt lat="48.34085" lon="2.79044">
        <ele>50.4</ele>
        <time>2024-05-11T12:03:07Z</time>
      </trkpt>
      <trkpt lat="48.3409" lon="2.79051">
        <ele>50.3</ele>
        <time>2024-05-11T12:03:14Z</time>
      </trkpt>
      <trkpt lat="48.34092" lon="2.79053">
        <ele>50.3</ele>
        <time>2024-05-11T12:03:16Z</time>
      </trkpt>
      <trkpt lat="48.34095" lon="2.79055">
        <ele>50.4</ele>
        <time>2024-05-11T12:03:24Z</time>
      </trkpt>
      <trkpt lat="48.34096" lon="2.79056">
        <ele>50.4</ele>
        <time>2024-05-11T12:03:34Z</time>
      </trkpt>
      <trkpt lat="48.34097" lon="2.79057">
        <ele>50.4</ele>
        <time>2024-05-11T12:03:42Z</time>
      </trkpt>
      <trkpt lat="48.34098" lon="2.79058">
        <ele>50.4</ele>
        <time>2024-05-11T12:03:49Z</time>
      </trkpt>
      <trkpt lat="48.341" lon="2.79063">
        <ele>50.2</ele>
        <time>2024-05-11T12:03:55Z</time>
      </trkpt>
      <trkpt lat="48.34103" lon="2.79064">
        <ele>50.2</ele>
        <time>2024-05-11T12:04:01Z</time>
      </trkpt>
      <trkpt lat="48.34104" lon="2.79065">
        <ele>50.1</ele>
        <time>2024-05-11T12:04:07Z</time>
      </trkpt>
      <trkpt lat="48.34109" lon="2.79067">
        <ele>50.1</ele>
        <time>2024-05-11T12:04:13Z</time>
      </trkpt>
      <trkpt lat="48.3411" lon="2.79067">
        <ele>50.1</ele>
        <time>2024-05-11T12:04:14Z</time>
      </trkpt>
      <trkpt lat="48.34115" lon="2.7907">
        <ele>50</ele>
        <time>2024-05-11T12:04:22Z</time>
      </trkpt>
      <trkpt lat="48.34116" lon="2.79072">
        <ele>49.8</ele>
        <time>2024-05-11T12:04:29Z</time>
      </trkpt>
      <trkpt lat="48.34118" lon="2.79075">
        <ele>49.7</ele>
        <time>2024-05-11T12:04:36Z</time>
      </trkpt>
      <trkpt lat="48.34119" lon="2.79076">
        <ele>49.6</ele>
        <time>2024-05-11T12:04:38Z</time>
      </trkpt>
      <trkpt lat="48.34127" lon="2.79082">
        <ele>49.6</ele>
        <time>2024-05-11T12:04:45Z</time>
      </trkpt>
      <trkpt lat="48.34132" lon="2.79087">
        <ele>49.7</ele>
        <time>2024-05-11T12:04:52Z</time>
      </trkpt>
      <trkpt lat="48.34138" lon="2.79092">
        <ele>49.7</ele>
        <time>2024-05-11T12:04:57Z</time>
      </trkpt>
      <trkpt lat="48.34139" lon="2.79094">
        <ele>49.6</ele>
        <time>2024-05-11T12:04:59Z</time>
      </trkpt>
      <trkpt lat="48.34141" lon="2.79097">
        <ele>49.5</ele>
        <time>2024-05-11T12:05:02Z</time>
      </trkpt>
      <trkpt lat="48.34148" lon="2.79107">
        <ele>49.4</ele>
        <time>2024-05-11T12:05:09Z</time>
      </trkpt>
      <trkpt lat="48.34152" lon="2.79114">
        <ele>49.4</ele>
        <time>2024-05-11T12:05:15Z</time>
      </trkpt>
      <trkpt lat="48.34159" lon="2.79119">
        <ele>49.4</ele>
        <time>2024-05-11T12:05:22Z</time>
      </trkpt>
      <trkpt lat="48.34167" lon="2.79128">
        <ele>49.4</ele>
        <time>2024-05-11T12:05:30Z</time>
      </trkpt>
      <trkpt lat="48.34169" lon="2.7913">
        <ele>49.5</ele>
        <time>2024-05-11T12:05:33Z</time>
      </trkpt>
      <trkpt lat="48.34177" lon="2.79136">
        <ele>49.8</ele>
        <time>2024-05-11T12:05:41Z</time>
      </trkpt>
      <trkpt lat="48.34188" lon="2.79141">
        <ele>50.4</ele>
        <time>2024-05-11T12:05:50Z</time>
      </trkpt>
      <trkpt lat="48.34193" lon="2.79143">
        <ele>50.6</ele>
        <time>2024-05-11T12:05:55Z</time>
      </trkpt>
      <trkpt lat="48.34202" lon="2.79147">
        <ele>50.4</ele>
        <time>2024-05-11T12:06:03Z</time>
      </trkpt>
      <trkpt lat="48.3421" lon="2.79156">
        <ele>50.2</ele>
        <time>2024-05-11T12:06:10Z</time>
      </trkpt>
      <trkpt lat="48.34217" lon="2.79163">
        <ele>50.6</ele>
        <time>2024-05-11T12:06:18Z</time>
      </trkpt>
      <trkpt lat="48.34221" lon="2.79165">
        <ele>50.9</ele>
        <time>2024-05-11T12:06:22Z</time>
      </trkpt>
      <trkpt lat="48.34229" lon="2.79175">
        <ele>50.4</ele>
        <time>2024-05-11T12:06:30Z</time>
      </trkpt>
      <trkpt lat="48.3423" lon="2.79176">
        <ele>50.3</ele>
        <time>2024-05-11T12:06:31Z</time>
      </trkpt>
      <trkpt lat="48.34232" lon="2.79177">
        <ele>50.3</ele>
        <time>2024-05-11T12:06:33Z</time>
      </trkpt>
      <trkpt lat="48.34237" lon="2.79183">
        <ele>50.2</ele>
        <time>2024-05-11T12:06:38Z</time>
      </trkpt>
      <trkpt lat="48.34247" lon="2.79195">
        <ele>50.7</ele>
        <time>2024-05-11T12:06:48Z</time>
      </trkpt>
      <trkpt lat="48.34255" lon="2.79204">
        <ele>50</ele>
        <time>2024-05-11T12:06:56Z</time>
      </trkpt>
      <trkpt lat="48.3426" lon="2.79212">
        <ele>49.4</ele>
        <time>2024-05-11T12:07:03Z</time>
      </trkpt>
      <trkpt lat="48.34264" lon="2.79216">
        <ele>49.3</ele>
        <time>2024-05-11T12:07:07Z</time>
      </trkpt>
      <trkpt lat="48.34266" lon="2.7922">
        <ele>49.2</ele>
        <time>2024-05-11T12:07:10Z</time>
      </trkpt>
      <trkpt lat="48.34272" lon="2.79229">
        <ele>49.4</ele>
        <time>2024-05-11T12:07:17Z</time>
      </trkpt>
      <trkpt lat="48.34277" lon="2.79238">
        <ele>49.4</ele>
        <time>2024-05-11T12:07:24Z</time>
      </trkpt>
      <trkpt lat="48.34284" lon="2.79247">
        <ele>49.3</ele>
        <time>2024-05-11T12:07:32Z</time>
      </trkpt>
      <trkpt lat="48.34288" lon="2.79256">
        <ele>49.4</ele>
        <time>2024-05-11T12:07:38Z</time>
      </trkpt>
      <trkpt lat="48.34295" lon="2.79267">
        <ele>49.6</ele>
        <time>2024-05-11T12:07:46Z</time>
      </trkpt>
      <trkpt lat="48.343" lon="2.79275">
        <ele>49.8</ele>
        <time>2024-05-11T12:07:53Z</time>
      </trkpt>
      <trkpt lat="48.34305" lon="2.79285">
        <ele>49.7</ele>
        <time>2024-05-11T12:08:00Z</time>
      </trkpt>
      <trkpt lat="48.34308" lon="2.79288">
        <ele>49.7</ele>
        <time>2024-05-11T12:08:03Z</time>
      </trkpt>
      <trkpt lat="48.34314" lon="2.79298">
        <ele>49.7</ele>
        <time>2024-05-11T12:08:11Z</time>
      </trkpt>
      <trkpt lat="48.3432" lon="2.79307">
        <ele>50</ele>
        <time>2024-05-11T12:08:18Z</time>
      </trkpt>
      <trkpt lat="48.34322" lon="2.7931">
        <ele>49.9</ele>
        <time>2024-05-11T12:08:20Z</time>
      </trkpt>
      <trkpt lat="48.34329" lon="2.7932">
        <ele>49.8</ele>
        <time>2024-05-11T12:08:30Z</time>
      </trkpt>
      <trkpt lat="48.34331" lon="2.79321">
        <ele>49.8</ele>
        <time>2024-05-11T12:08:32Z</time>
      </trkpt>
      <trkpt lat="48.34341" lon="2.79331">
        <ele>49.4</ele>
        <time>2024-05-11T12:08:42Z</time>
      </trkpt>
      <trkpt lat="48.3435" lon="2.79343">
        <ele>49.7</ele>
        <time>2024-05-11T12:08:50Z</time>
      </trkpt>
      <trkpt lat="48.34358" lon="2.79353">
        <ele>50.5</ele>
        <time>2024-05-11T12:08:58Z</time>
      </trkpt>
      <trkpt lat="48.34367" lon="2.79361">
        <ele>50.8</ele>
        <time>2024-05-11T12:09:06Z</time>
      </trkpt>
      <trkpt lat="48.34375" lon="2.79371">
        <ele>50.3</ele>
        <time>2024-05-11T12:09:15Z</time>
      </trkpt>
      <trkpt lat="48.34378" lon="2.79374">
        <ele>50.3</ele>
        <time>2024-05-11T12:09:18Z</time>
      </trkpt>
      <trkpt lat="48.34386" lon="2.79384">
        <ele>50.7</ele>
        <time>2024-05-11T12:09:27Z</time>
      </trkpt>
      <trkpt lat="48.34393" lon="2.79392">
        <ele>50.7</ele>
        <time>2024-05-11T12:09:35Z</time>
      </trkpt>
      <trkpt lat="48.34396" lon="2.79395">
        <ele>50.5</ele>
        <time>2024-05-11T12:09:42Z</time>
      </trkpt>
      <trkpt lat="48.34398" lon="2.79399">
        <ele>50.3</ele>
        <time>2024-05-11T12:09:48Z</time>
      </trkpt>
      <trkpt lat="48.34398" lon="2.79398">
        <ele>50.3</ele>
        <time>2024-05-11T12:10:02Z</time>
      </trkpt>
      <trkpt lat="48.34398" lon="2.79399">
        <ele>50.3</ele>
        <time>2024-05-11T12:10:14Z</time>
      </trkpt>
      <trkpt lat="48.34399" lon="2.79399">
        <ele>50.3</ele>
        <time>2024-05-11T12:10:20Z</time>
      </trkpt>
      <trkpt lat="48.34403" lon="2.79401">
        <ele>50.3</ele>
        <time>2024-05-11T12:10:26Z</time>
      </trkpt>
      <trkpt lat="48.34404" lon="2.79402">
        <ele>50.3</ele>
        <time>2024-05-11T12:10:27Z</time>
      </trkpt>
      <trkpt lat="48.34412" lon="2.79411">
        <ele>50.6</ele>
        <time>2024-05-11T12:10:36Z</time>
      </trkpt>
      <trkpt lat="48.34413" lon="2.79412">
        <ele>50.6</ele>
        <time>2024-05-11T12:10:37Z</time>
      </trkpt>
      <trkpt lat="48.34424" lon="2.79424">
        <ele>50.3</ele>
        <time>2024-05-11T12:10:49Z</time>
      </trkpt>
      <trkpt lat="48.34429" lon="2.79429">
        <ele>50</ele>
        <time>2024-05-11T12:10:54Z</time>
      </trkpt>
      <trkpt lat="48.34437" lon="2.79438">
        <ele>49.8</ele>
        <time>2024-05-11T12:11:02Z</time>
      </trkpt>
      <trkpt lat="48.34445" lon="2.79445">
        <ele>50</ele>
        <time>2024-05-11T12:11:10Z</time>
      </trkpt>
      <trkpt lat="48.34454" lon="2.79456">
        <ele>49.9</ele>
        <time>2024-05-11T12:11:20Z</time>
      </trkpt>
      <trkpt lat="48.34456" lon="2.79457">
        <ele>49.9</ele>
        <time>2024-05-11T12:11:22Z</time>
      </trkpt>
      <trkpt lat="48.3446" lon="2.79462">
        <ele>50.1</ele>
        <time>2024-05-11T12:11:26Z</time>
      </trkpt>
      <trkpt lat="48.3447" lon="2.7947">
        <ele>50.8</ele>
        <time>2024-05-11T12:11:36Z</time>
      </trkpt>
      <trkpt lat="48.34475" lon="2.79475">
        <ele>50.7</ele>
        <time>2024-05-11T12:11:41Z</time>
      </trkpt>
      <trkpt lat="48.34485" lon="2.79484">
        <ele>50.3</ele>
        <time>2024-05-11T12:11:50Z</time>
      </trkpt>
      <trkpt lat="48.34488" lon="2.79488">
        <ele>50.3</ele>
        <time>2024-05-11T12:11:53Z</time>
      </trkpt>
      <trkpt lat="48.34495" lon="2.79496">
        <ele>50.6</ele>
        <time>2024-05-11T12:12:01Z</time>
      </trkpt>
      <trkpt lat="48.345" lon="2.79502">
        <ele>50.9</ele>
        <time>2024-05-11T12:12:06Z</time>
      </trkpt>
      <trkpt lat="48.34508" lon="2.79508">
        <ele>50.4</ele>
        <time>2024-05-11T12:12:14Z</time>
      </trkpt>
      <trkpt lat="48.34516" lon="2.79515">
        <ele>50.3</ele>
        <time>2024-05-11T12:12:22Z</time>
      </trkpt>
      <trkpt lat="48.34525" lon="2.79523">
        <ele>50.7</ele>
        <time>2024-05-11T12:12:32Z</time>
      </trkpt>
      <trkpt lat="48.34533" lon="2.79532">
        <ele>50.6</ele>
        <time>2024-05-11T12:12:40Z</time>
      </trkpt>
      <trkpt lat="48.34539" lon="2.79538">
        <ele>50.3</ele>
        <time>2024-05-11T12:12:46Z</time>
      </trkpt>
      <trkpt lat="48.34546" lon="2.79547">
        <ele>50.3</ele>
        <time>2024-05-11T12:12:55Z</time>
      </trkpt>
      <trkpt lat="48.3455" lon="2.79549">
        <ele>50.5</ele>
        <time>2024-05-11T12:12:58Z</time>
      </trkpt>
      <trkpt lat="48.34557" lon="2.79556">
        <ele>50.9</ele>
        <time>2024-05-11T12:13:06Z</time>
      </trkpt>
      <trkpt lat="48.34561" lon="2.7956">
        <ele>50.6</ele>
        <time>2024-05-11T12:13:10Z</time>
      </trkpt>
      <trkpt lat="48.34569" lon="2.7957">
        <ele>50</ele>
        <time>2024-05-11T12:13:19Z</time>
      </trkpt>
      <trkpt lat="48.34576" lon="2.79576">
        <ele>49.9</ele>
        <time>2024-05-11T12:13:26Z</time>
      </trkpt>
      <trkpt lat="48.34584" lon="2.79585">
        <ele>49.9</ele>
        <time>2024-05-11T12:13:35Z</time>
      </trkpt>
      <trkpt lat="48.34594" lon="2.79594">
        <ele>49.5</ele>
        <time>2024-05-11T12:13:44Z</time>
      </trkpt>
      <trkpt lat="48.34602" lon="2.79604">
        <ele>49.5</ele>
        <time>2024-05-11T12:13:53Z</time>
      </trkpt>
      <trkpt lat="48.3461" lon="2.79612">
        <ele>49.9</ele>
        <time>2024-05-11T12:14:02Z</time>
      </trkpt>
      <trkpt lat="48.3462" lon="2.79619">
        <ele>49.8</ele>
        <time>2024-05-11T12:14:11Z</time>
      </trkpt>
      <trkpt lat="48.34627" lon="2.79622">
        <ele>49.8</ele>
        <time>2024-05-11T12:14:17Z</time>
      </trkpt>
      <trkpt lat="48.34632" lon="2.79621">
        <ele>49.9</ele>
        <time>2024-05-11T12:14:21Z</time>
      </trkpt>
      <trkpt lat="48.34636" lon="2.79616">
        <ele>50</ele>
        <time>2024-05-11T12:14:25Z</time>
      </trkpt>
      <trkpt lat="48.34642" lon="2.7961">
        <ele>50</ele>
        <time>2024-05-11T12:14:32Z</time>
      </trkpt>
      <trkpt lat="48.34643" lon="2.79607">
        <ele>50</ele>
        <time>2024-05-11T12:14:35Z</time>
      </trkpt>
      <trkpt lat="48.34644" lon="2.79604">
        <ele>50</ele>
        <time>2024-05-11T12:14:37Z</time>
      </trkpt>
      <trkpt lat="48.34646" lon="2.79598">
        <ele>50</ele>
        <time>2024-05-11T12:14:42Z</time>
      </trkpt>
      <trkpt lat="48.34649" lon="2.79592">
        <ele>50</ele>
        <time>2024-05-11T12:14:46Z</time>
      </trkpt>
      <trkpt lat="48.3465" lon="2.7959">
        <ele>50</ele>
        <time>2024-05-11T12:14:48Z</time>
      </trkpt>
      <trkpt lat="48.34658" lon="2.79579">
        <ele>50</ele>
        <time>2024-05-11T12:14:57Z</time>
      </trkpt>
      <trkpt lat="48.34662" lon="2.7957">
        <ele>50</ele>
        <time>2024-05-11T12:15:02Z</time>
      </trkpt>
      <trkpt lat="48.34667" lon="2.7956">
        <ele>50</ele>
        <time>2024-05-11T12:15:08Z</time>
      </trkpt>
      <trkpt lat="48.34673" lon="2.79548">
        <ele>50</ele>
        <time>2024-05-11T12:15:15Z</time>
      </trkpt>
      <trkpt lat="48.34679" lon="2.79534">
        <ele>50</ele>
        <time>2024-05-11T12:15:24Z</time>
      </trkpt>
      <trkpt lat="48.34683" lon="2.79525">
        <ele>50</ele>
        <time>2024-05-11T12:15:30Z</time>
      </trkpt>
      <trkpt lat="48.34684" lon="2.79523">
        <ele>50</ele>
        <time>2024-05-11T12:15:32Z</time>
      </trkpt>
      <trkpt lat="48.34687" lon="2.79516">
        <ele>50</ele>
        <time>2024-05-11T12:15:36Z</time>
      </trkpt>
      <trkpt lat="48.34692" lon="2.79503">
        <ele>50</ele>
        <time>2024-05-11T12:15:44Z</time>
      </trkpt>
      <trkpt lat="48.34693" lon="2.795">
        <ele>50</ele>
        <time>2024-05-11T12:15:46Z</time>
      </trkpt>
      <trkpt lat="48.34695" lon="2.79495">
        <ele>50</ele>
        <time>2024-05-11T12:15:52Z</time>
      </trkpt>
      <trkpt lat="48.34696" lon="2.79494">
        <ele>50</ele>
        <time>2024-05-11T12:15:54Z</time>
      </trkpt>
      <trkpt lat="48.34704" lon="2.79492">
        <ele>50</ele>
        <time>2024-05-11T12:16:01Z</time>
      </trkpt>
      <trkpt lat="48.34708" lon="2.79488">
        <ele>50</ele>
        <time>2024-05-11T12:16:08Z</time>
      </trkpt>
      <trkpt lat="48.34711" lon="2.79481">
        <ele>50</ele>
        <time>2024-05-11T12:16:15Z</time>
      </trkpt>
      <trkpt lat="48.34713" lon="2.79478">
        <ele>50</ele>
        <time>2024-05-11T12:16:18Z</time>
      </trkpt>
      <trkpt lat="48.34716" lon="2.79473">
        <ele>50</ele>
        <time>2024-05-11T12:16:23Z</time>
      </trkpt>
      <trkpt lat="48.34717" lon="2.7947">
        <ele>50</ele>
        <time>2024-05-11T12:16:25Z</time>
      </trkpt>
      <trkpt lat="48.34721" lon="2.79466">
        <ele>50</ele>
        <time>2024-05-11T12:16:30Z</time>
      </trkpt>
      <trkpt lat="48.34724" lon="2.79455">
        <ele>50</ele>
        <time>2024-05-11T12:16:37Z</time>
      </trkpt>
      <trkpt lat="48.34727" lon="2.79446">
        <ele>50</ele>
        <time>2024-05-11T12:16:44Z</time>
      </trkpt>
      <trkpt lat="48.3473" lon="2.79437">
        <ele>50.1</ele>
        <time>2024-05-11T12:16:51Z</time>
      </trkpt>
      <trkpt lat="48.34735" lon="2.79427">
        <ele>50.3</ele>
        <time>2024-05-11T12:16:59Z</time>
      </trkpt>
      <trkpt lat="48.34736" lon="2.79425">
        <ele>50.3</ele>
        <time>2024-05-11T12:17:00Z</time>
      </trkpt>
      <trkpt lat="48.34739" lon="2.79418">
        <ele>50.6</ele>
        <time>2024-05-11T12:17:05Z</time>
      </trkpt>
      <trkpt lat="48.34747" lon="2.79412">
        <ele>50.9</ele>
        <time>2024-05-11T12:17:12Z</time>
      </trkpt>
      <trkpt lat="48.34755" lon="2.7941">
        <ele>51</ele>
        <time>2024-05-11T12:17:18Z</time>
      </trkpt>
      <trkpt lat="48.34763" lon="2.79415">
        <ele>51</ele>
        <time>2024-05-11T12:17:27Z</time>
      </trkpt>
      <trkpt lat="48.34768" lon="2.7942">
        <ele>50.9</ele>
        <time>2024-05-11T12:17:34Z</time>
      </trkpt>
      <trkpt lat="48.3477" lon="2.79421">
        <ele>50.8</ele>
        <time>2024-05-11T12:17:36Z</time>
      </trkpt>
      <trkpt lat="48.3478" lon="2.79435">
        <ele>50.4</ele>
        <time>2024-05-11T12:17:45Z</time>
      </trkpt>
      <trkpt lat="48.34784" lon="2.79437">
        <ele>50.5</ele>
        <time>2024-05-11T12:17:49Z</time>
      </trkpt>
      <trkpt lat="48.34791" lon="2.79445">
        <ele>50.5</ele>
        <time>2024-05-11T12:17:56Z</time>
      </trkpt>
      <trkpt lat="48.34795" lon="2.7945">
        <ele>50.6</ele>
        <time>2024-05-11T12:18:00Z</time>
      </trkpt>
      <trkpt lat="48.34801" lon="2.79457">
        <ele>50.8</ele>
        <time>2024-05-11T12:18:08Z</time>
      </trkpt>
      <trkpt lat="48.34806" lon="2.79463">
        <ele>51</ele>
        <time>2024-05-11T12:18:13Z</time>
      </trkpt>
      <trkpt lat="48.34807" lon="2.79464">
        <ele>51</ele>
        <time>2024-05-11T12:18:14Z</time>
      </trkpt>
      <trkpt lat="48.34812" lon="2.79473">
        <ele>51</ele>
        <time>2024-05-11T12:18:21Z</time>
      </trkpt>
      <trkpt lat="48.34817" lon="2.79479">
        <ele>50.9</ele>
        <time>2024-05-11T12:18:26Z</time>
      </trkpt>
      <trkpt lat="48.34823" lon="2.79486">
        <ele>50.8</ele>
        <time>2024-05-11T12:18:33Z</time>
      </trkpt>
      <trkpt lat="48.34829" lon="2.79491">
        <ele>50.9</ele>
        <time>2024-05-11T12:18:39Z</time>
      </trkpt>
      <trkpt lat="48.34837" lon="2.79502">
        <ele>51</ele>
        <time>2024-05-11T12:18:48Z</time>
      </trkpt>
      <trkpt lat="48.34841" lon="2.79505">
        <ele>51</ele>
        <time>2024-05-11T12:18:53Z</time>
      </trkpt>
      <trkpt lat="48.34842" lon="2.79506">
        <ele>51</ele>
        <time>2024-05-11T12:18:55Z</time>
      </trkpt>
      <trkpt lat="48.34843" lon="2.79509">
        <ele>51</ele>
        <time>2024-05-11T12:18:57Z</time>
      </trkpt>
      <trkpt lat="48.3485" lon="2.79516">
        <ele>51</ele>
        <time>2024-05-11T12:19:04Z</time>
      </trkpt>
      <trkpt lat="48.34854" lon="2.79519">
        <ele>51</ele>
        <time>2024-05-11T12:19:08Z</time>
      </trkpt>
      <trkpt lat="48.34855" lon="2.79522">
        <ele>51</ele>
        <time>2024-05-11T12:19:10Z</time>
      </trkpt>
      <trkpt lat="48.34861" lon="2.79528">
        <ele>51</ele>
        <time>2024-05-11T12:19:15Z</time>
      </trkpt>
      <trkpt lat="48.34869" lon="2.79535">
        <ele>51</ele>
        <time>2024-05-11T12:19:22Z</time>
      </trkpt>
      <trkpt lat="48.34872" lon="2.79543">
        <ele>51</ele>
        <time>2024-05-11T12:19:27Z</time>
      </trkpt>
      <trkpt lat="48.34875" lon="2.79545">
        <ele>51</ele>
        <time>2024-05-11T12:19:30Z</time>
      </trkpt>
      <trkpt lat="48.34881" lon="2.79553">
        <ele>51</ele>
        <time>2024-05-11T12:19:38Z</time>
      </trkpt>
      <trkpt lat="48.34886" lon="2.79559">
        <ele>51</ele>
        <time>2024-05-11T12:19:44Z</time>
      </trkpt>
      <trkpt lat="48.34892" lon="2.79566">
        <ele>51.1</ele>
        <time>2024-05-11T12:19:51Z</time>
      </trkpt>
      <trkpt lat="48.34899" lon="2.79575">
        <ele>51.1</ele>
        <time>2024-05-11T12:19:57Z</time>
      </trkpt>
      <trkpt lat="48.34907" lon="2.79588">
        <ele>50.9</ele>
        <time>2024-05-11T12:20:06Z</time>
      </trkpt>
      <trkpt lat="48.34912" lon="2.79594">
        <ele>50.9</ele>
        <time>2024-05-11T12:20:13Z</time>
      </trkpt>
      <trkpt lat="48.34914" lon="2.79597">
        <ele>51</ele>
        <time>2024-05-11T12:20:15Z</time>
      </trkpt>
      <trkpt lat="48.3492" lon="2.79602">
        <ele>51</ele>
        <time>2024-05-11T12:20:22Z</time>
      </trkpt>
      <trkpt lat="48.34921" lon="2.79604">
        <ele>51</ele>
        <time>2024-05-11T12:20:25Z</time>
      </trkpt>
      <trkpt lat="48.34926" lon="2.79611">
        <ele>51</ele>
        <time>2024-05-11T12:20:31Z</time>
      </trkpt>
      <trkpt lat="48.3493" lon="2.79618">
        <ele>51</ele>
        <time>2024-05-11T12:20:37Z</time>
      </trkpt>
      <trkpt lat="48.34938" lon="2.79628">
        <ele>51</ele>
        <time>2024-05-11T12:20:42Z</time>
      </trkpt>
      <trkpt lat="48.34949" lon="2.7964">
        <ele>51</ele>
        <time>2024-05-11T12:20:51Z</time>
      </trkpt>
      <trkpt lat="48.34956" lon="2.79649">
        <ele>51</ele>
        <time>2024-05-11T12:20:59Z</time>
      </trkpt>
      <trkpt lat="48.34959" lon="2.79654">
        <ele>51</ele>
        <time>2024-05-11T12:21:02Z</time>
      </trkpt>
      <trkpt lat="48.34964" lon="2.79662">
        <ele>51</ele>
        <time>2024-05-11T12:21:08Z</time>
      </trkpt>
      <trkpt lat="48.34973" lon="2.79668">
        <ele>51</ele>
        <time>2024-05-11T12:21:16Z</time>
      </trkpt>
      <trkpt lat="48.34982" lon="2.79676">
        <ele>51</ele>
        <time>2024-05-11T12:21:24Z</time>
      </trkpt>
      <trkpt lat="48.34988" lon="2.79684">
        <ele>51</ele>
        <time>2024-05-11T12:21:31Z</time>
      </trkpt>
      <trkpt lat="48.34993" lon="2.7969">
        <ele>51</ele>
        <time>2024-05-11T12:21:36Z</time>
      </trkpt>
      <trkpt lat="48.35" lon="2.79698">
        <ele>51</ele>
        <time>2024-05-11T12:21:45Z</time>
      </trkpt>
      <trkpt lat="48.35006" lon="2.79708">
        <ele>51</ele>
        <time>2024-05-11T12:21:52Z</time>
      </trkpt>
      <trkpt lat="48.35007" lon="2.7971">
        <ele>51</ele>
        <time>2024-05-11T12:21:53Z</time>
      </trkpt>
      <trkpt lat="48.35012" lon="2.79718">
        <ele>51</ele>
        <time>2024-05-11T12:22:00Z</time>
      </trkpt>
      <trkpt lat="48.35021" lon="2.79728">
        <ele>51</ele>
        <time>2024-05-11T12:22:08Z</time>
      </trkpt>
      <trkpt lat="48.35025" lon="2.79736">
        <ele>51</ele>
        <time>2024-05-11T12:22:15Z</time>
      </trkpt>
      <trkpt lat="48.35026" lon="2.79739">
        <ele>51</ele>
        <time>2024-05-11T12:22:17Z</time>
      </trkpt>
      <trkpt lat="48.35033" lon="2.79745">
        <ele>51</ele>
        <time>2024-05-11T12:22:24Z</time>
      </trkpt>
      <trkpt lat="48.35036" lon="2.79749">
        <ele>51</ele>
        <time>2024-05-11T12:22:28Z</time>
      </trkpt>
      <trkpt lat="48.35044" lon="2.79758">
        <ele>50.8</ele>
        <time>2024-05-11T12:22:36Z</time>
      </trkpt>
      <trkpt lat="48.35051" lon="2.79769">
        <ele>50.4</ele>
        <time>2024-05-11T12:22:42Z</time>
      </trkpt>
      <trkpt lat="48.35053" lon="2.7977">
        <ele>50.3</ele>
        <time>2024-05-11T12:22:43Z</time>
      </trkpt>
      <trkpt lat="48.3506" lon="2.79781">
        <ele>50.2</ele>
        <time>2024-05-11T12:22:50Z</time>
      </trkpt>
      <trkpt lat="48.35061" lon="2.79782">
        <ele>50.3</ele>
        <time>2024-05-11T12:22:51Z</time>
      </trkpt>
      <trkpt lat="48.35069" lon="2.79791">
        <ele>50.5</ele>
        <time>2024-05-11T12:22:58Z</time>
      </trkpt>
      <trkpt lat="48.35077" lon="2.79802">
        <ele>50.3</ele>
        <time>2024-05-11T12:23:06Z</time>
      </trkpt>
      <trkpt lat="48.35078" lon="2.79804">
        <ele>50.2</ele>
        <time>2024-05-11T12:23:07Z</time>
      </trkpt>
      <trkpt lat="48.35082" lon="2.79811">
        <ele>50</ele>
        <time>2024-05-11T12:23:12Z</time>
      </trkpt>
      <trkpt lat="48.35088" lon="2.79817">
        <ele>50.1</ele>
        <time>2024-05-11T12:23:19Z</time>
      </trkpt>
      <trkpt lat="48.35094" lon="2.79822">
        <ele>50.2</ele>
        <time>2024-05-11T12:23:26Z</time>
      </trkpt>
      <trkpt lat="48.35098" lon="2.79828">
        <ele>50.1</ele>
        <time>2024-05-11T12:23:32Z</time>
      </trkpt>
      <trkpt lat="48.35103" lon="2.79836">
        <ele>50</ele>
        <time>2024-05-11T12:23:39Z</time>
      </trkpt>
      <trkpt lat="48.3511" lon="2.79841">
        <ele>50</ele>
        <time>2024-05-11T12:23:46Z</time>
      </trkpt>
      <trkpt lat="48.35115" lon="2.79848">
        <ele>50.1</ele>
        <time>2024-05-11T12:23:51Z</time>
      </trkpt>
      <trkpt lat="48.3512" lon="2.79856">
        <ele>50.1</ele>
        <time>2024-05-11T12:23:58Z</time>
      </trkpt>
      <trkpt lat="48.35125" lon="2.7986">
        <ele>50</ele>
        <time>2024-05-11T12:24:04Z</time>
      </trkpt>
      <trkpt lat="48.35126" lon="2.79861">
        <ele>50</ele>
        <time>2024-05-11T12:24:05Z</time>
      </trkpt>
      <trkpt lat="48.35131" lon="2.79867">
        <ele>50</ele>
        <time>2024-05-11T12:24:13Z</time>
      </trkpt>
      <trkpt lat="48.35134" lon="2.79869">
        <ele>50</ele>
        <time>2024-05-11T12:24:20Z</time>
      </trkpt>
      <trkpt lat="48.35139" lon="2.79878">
        <ele>50</ele>
        <time>2024-05-11T12:24:27Z</time>
      </trkpt>
      <trkpt lat="48.35146" lon="2.79882">
        <ele>50.2</ele>
        <time>2024-05-11T12:24:33Z</time>
      </trkpt>
      <trkpt lat="48.35151" lon="2.79889">
        <ele>50.4</ele>
        <time>2024-05-11T12:24:39Z</time>
      </trkpt>
      <trkpt lat="48.35162" lon="2.799">
        <ele>50.5</ele>
        <time>2024-05-11T12:24:47Z</time>
      </trkpt>
      <trkpt lat="48.35169" lon="2.79908">
        <ele>50.4</ele>
        <time>2024-05-11T12:24:52Z</time>
      </trkpt>
      <trkpt lat="48.35172" lon="2.7991">
        <ele>50.4</ele>
        <time>2024-05-11T12:24:54Z</time>
      </trkpt>
      <trkpt lat="48.35185" lon="2.79923">
        <ele>50.5</ele>
        <time>2024-05-11T12:25:03Z</time>
      </trkpt>
      <trkpt lat="48.35192" lon="2.79927">
        <ele>50.6</ele>
        <time>2024-05-11T12:25:09Z</time>
      </trkpt>
      <trkpt lat="48.35201" lon="2.79936">
        <ele>50.5</ele>
        <time>2024-05-11T12:25:15Z</time>
      </trkpt>
      <trkpt lat="48.35211" lon="2.79944">
        <ele>50.6</ele>
        <time>2024-05-11T12:25:22Z</time>
      </trkpt>
      <trkpt lat="48.35221" lon="2.79951">
        <ele>50.7</ele>
        <time>2024-05-11T12:25:29Z</time>
      </trkpt>
      <trkpt lat="48.35227" lon="2.79959">
        <ele>50.6</ele>
        <time>2024-05-11T12:25:36Z</time>
      </trkpt>
      <trkpt lat="48.35228" lon="2.79963">
        <ele>50.5</ele>
        <time>2024-05-11T12:25:42Z</time>
      </trkpt>
      <trkpt lat="48.35231" lon="2.79969">
        <ele>50.4</ele>
        <time>2024-05-11T12:25:48Z</time>
      </trkpt>
      <trkpt lat="48.35233" lon="2.79973">
        <ele>50.4</ele>
        <time>2024-05-11T12:25:51Z</time>
      </trkpt>
      <trkpt lat="48.35237" lon="2.79977">
        <ele>50.5</ele>
        <time>2024-05-11T12:25:56Z</time>
      </trkpt>
      <trkpt lat="48.35242" lon="2.7998">
        <ele>50.7</ele>
        <time>2024-05-11T12:26:01Z</time>
      </trkpt>
      <trkpt lat="48.35249" lon="2.79988">
        <ele>51</ele>
        <time>2024-05-11T12:26:08Z</time>
      </trkpt>
      <trkpt lat="48.35254" lon="2.79991">
        <ele>51</ele>
        <time>2024-05-11T12:26:14Z</time>
      </trkpt>
      <trkpt lat="48.35264" lon="2.80001">
        <ele>51</ele>
        <time>2024-05-11T12:26:21Z</time>
      </trkpt>
      <trkpt lat="48.35269" lon="2.80005">
        <ele>50.8</ele>
        <time>2024-05-11T12:26:28Z</time>
      </trkpt>
      <trkpt lat="48.35274" lon="2.80009">
        <ele>50.7</ele>
        <time>2024-05-11T12:26:34Z</time>
      </trkpt>
      <trkpt lat="48.35277" lon="2.80011">
        <ele>50.6</ele>
        <time>2024-05-11T12:26:37Z</time>
      </trkpt>
      <trkpt lat="48.35285" lon="2.8002">
        <ele>50.5</ele>
        <time>2024-05-11T12:26:45Z</time>
      </trkpt>
      <trkpt lat="48.35287" lon="2.80023">
        <ele>50.4</ele>
        <time>2024-05-11T12:26:48Z</time>
      </trkpt>
      <trkpt lat="48.35291" lon="2.80028">
        <ele>50.5</ele>
        <time>2024-05-11T12:26:53Z</time>
      </trkpt>
      <trkpt lat="48.35298" lon="2.8004">
        <ele>50.4</ele>
        <time>2024-05-11T12:27:02Z</time>
      </trkpt>
      <trkpt lat="48.35303" lon="2.80044">
        <ele>50.4</ele>
        <time>2024-05-11T12:27:08Z</time>
      </trkpt>
      <trkpt lat="48.35309" lon="2.80053">
        <ele>50.2</ele>
        <time>2024-05-11T12:27:15Z</time>
      </trkpt>
      <trkpt lat="48.35316" lon="2.8006">
        <ele>50.3</ele>
        <time>2024-05-11T12:27:23Z</time>
      </trkpt>
      <trkpt lat="48.3532" lon="2.80067">
        <ele>50.3</ele>
        <time>2024-05-11T12:27:28Z</time>
      </trkpt>
      <trkpt lat="48.35321" lon="2.8007">
        <ele>50.3</ele>
        <time>2024-05-11T12:27:30Z</time>
      </trkpt>
      <trkpt lat="48.35323" lon="2.80079">
        <ele>50.1</ele>
        <time>2024-05-11T12:27:38Z</time>
      </trkpt>
      <trkpt lat="48.35328" lon="2.80084">
        <ele>50</ele>
        <time>2024-05-11T12:27:43Z</time>
      </trkpt>
      <trkpt lat="48.35334" lon="2.8009">
        <ele>50</ele>
        <time>2024-05-11T12:27:50Z</time>
      </trkpt>
      <trkpt lat="48.3534" lon="2.80099">
        <ele>50</ele>
        <time>2024-05-11T12:27:58Z</time>
      </trkpt>
      <trkpt lat="48.35344" lon="2.80107">
        <ele>50</ele>
        <time>2024-05-11T12:28:06Z</time>
      </trkpt>
      <trkpt lat="48.35346" lon="2.8011">
        <ele>50</ele>
        <time>2024-05-11T12:28:13Z</time>
      </trkpt>
      <trkpt lat="48.35352" lon="2.8012">
        <ele>50</ele>
        <time>2024-05-11T12:28:21Z</time>
      </trkpt>
      <trkpt lat="48.35362" lon="2.80135">
        <ele>50</ele>
        <time>2024-05-11T12:28:28Z</time>
      </trkpt>
      <trkpt lat="48.35366" lon="2.80144">
        <ele>50</ele>
        <time>2024-05-11T12:28:34Z</time>
      </trkpt>
      <trkpt lat="48.3537" lon="2.80151">
        <ele>50</ele>
        <time>2024-05-11T12:28:38Z</time>
      </trkpt>
      <trkpt lat="48.35374" lon="2.80162">
        <ele>50</ele>
        <time>2024-05-11T12:28:46Z</time>
      </trkpt>
      <trkpt lat="48.35377" lon="2.80168">
        <ele>50</ele>
        <time>2024-05-11T12:28:52Z</time>
      </trkpt>
      <trkpt lat="48.3538" lon="2.80173">
        <ele>50</ele>
        <time>2024-05-11T12:28:55Z</time>
      </trkpt>
      <trkpt lat="48.35387" lon="2.80186">
        <ele>50</ele>
        <time>2024-05-11T12:29:02Z</time>
      </trkpt>
      <trkpt lat="48.35391" lon="2.80192">
        <ele>50</ele>
        <time>2024-05-11T12:29:08Z</time>
      </trkpt>
      <trkpt lat="48.35395" lon="2.80201">
        <ele>50</ele>
        <time>2024-05-11T12:29:14Z</time>
      </trkpt>
      <trkpt lat="48.354" lon="2.80208">
        <ele>50</ele>
        <time>2024-05-11T12:29:20Z</time>
      </trkpt>
      <trkpt lat="48.35405" lon="2.80214">
        <ele>50</ele>
        <time>2024-05-11T12:29:27Z</time>
      </trkpt>
      <trkpt lat="48.35407" lon="2.80218">
        <ele>50</ele>
        <time>2024-05-11T12:29:31Z</time>
      </trkpt>
      <trkpt lat="48.35416" lon="2.80231">
        <ele>50</ele>
        <time>2024-05-11T12:29:39Z</time>
      </trkpt>
      <trkpt lat="48.35417" lon="2.80234">
        <ele>50</ele>
        <time>2024-05-11T12:29:41Z</time>
      </trkpt>
      <trkpt lat="48.35423" lon="2.80248">
        <ele>50</ele>
        <time>2024-05-11T12:29:49Z</time>
      </trkpt>
      <trkpt lat="48.35428" lon="2.80259">
        <ele>50</ele>
        <time>2024-05-11T12:29:56Z</time>
      </trkpt>
      <trkpt lat="48.35429" lon="2.80267">
        <ele>50</ele>
        <time>2024-05-11T12:30:03Z</time>
      </trkpt>
      <trkpt lat="48.35432" lon="2.80274">
        <ele>50</ele>
        <time>2024-05-11T12:30:09Z</time>
      </trkpt>
      <trkpt lat="48.35436" lon="2.80284">
        <ele>49.9</ele>
        <time>2024-05-11T12:30:16Z</time>
      </trkpt>
      <trkpt lat="48.35439" lon="2.80293">
        <ele>49.9</ele>
        <time>2024-05-11T12:30:21Z</time>
      </trkpt>
      <trkpt lat="48.35442" lon="2.80297">
        <ele>49.9</ele>
        <time>2024-05-11T12:30:28Z</time>
      </trkpt>
      <trkpt lat="48.35442" lon="2.80299">
        <ele>49.9</ele>
        <time>2024-05-11T12:30:34Z</time>
      </trkpt>
      <trkpt lat="48.35443" lon="2.80304">
        <ele>50</ele>
        <time>2024-05-11T12:30:40Z</time>
      </trkpt>
      <trkpt lat="48.35448" lon="2.8032">
        <ele>49.5</ele>
        <time>2024-05-11T12:30:48Z</time>
      </trkpt>
      <trkpt lat="48.35454" lon="2.80333">
        <ele>49.3</ele>
        <time>2024-05-11T12:30:54Z</time>
      </trkpt>
      <trkpt lat="48.35456" lon="2.80339">
        <ele>49.4</ele>
        <time>2024-05-11T12:30:57Z</time>
      </trkpt>
      <trkpt lat="48.3546" lon="2.80351">
        <ele>49.6</ele>
        <time>2024-05-11T12:31:03Z</time>
      </trkpt>
      <trkpt lat="48.35463" lon="2.80363">
        <ele>49.7</ele>
        <time>2024-05-11T12:31:10Z</time>
      </trkpt>
      <trkpt lat="48.35468" lon="2.80378">
        <ele>49.8</ele>
        <time>2024-05-11T12:31:19Z</time>
      </trkpt>
      <trkpt lat="48.35472" lon="2.80388">
        <ele>50</ele>
        <time>2024-05-11T12:31:26Z</time>
      </trkpt>
      <trkpt lat="48.35479" lon="2.80404">
        <ele>49.6</ele>
        <time>2024-05-11T12:31:35Z</time>
      </trkpt>
      <trkpt lat="48.35486" lon="2.80413">
        <ele>49.6</ele>
        <time>2024-05-11T12:31:42Z</time>
      </trkpt>
      <trkpt lat="48.35488" lon="2.80422">
        <ele>49.5</ele>
        <time>2024-05-11T12:31:47Z</time>
      </trkpt>
      <trkpt lat="48.35491" lon="2.80426">
        <ele>49.6</ele>
        <time>2024-05-11T12:31:53Z</time>
      </trkpt>
      <trkpt lat="48.35495" lon="2.80433">
        <ele>49.7</ele>
        <time>2024-05-11T12:31:59Z</time>
      </trkpt>
      <trkpt lat="48.35498" lon="2.80441">
        <ele>49.9</ele>
        <time>2024-05-11T12:32:05Z</time>
      </trkpt>
      <trkpt lat="48.355" lon="2.80449">
        <ele>49.8</ele>
        <time>2024-05-11T12:32:11Z</time>
      </trkpt>
      <trkpt lat="48.35504" lon="2.80457">
        <ele>49.6</ele>
        <time>2024-05-11T12:32:17Z</time>
      </trkpt>
      <trkpt lat="48.35506" lon="2.8046">
        <ele>49.6</ele>
        <time>2024-05-11T12:32:22Z</time>
      </trkpt>
      <trkpt lat="48.35511" lon="2.80469">
        <ele>49.5</ele>
        <time>2024-05-11T12:32:30Z</time>
      </trkpt>
      <trkpt lat="48.35517" lon="2.80485">
        <ele>49.4</ele>
        <time>2024-05-11T12:32:39Z</time>
      </trkpt>
      <trkpt lat="48.35521" lon="2.80492">
        <ele>49.6</ele>
        <time>2024-05-11T12:32:45Z</time>
      </trkpt>
      <trkpt lat="48.35523" lon="2.80497">
        <ele>49.7</ele>
        <time>2024-05-11T12:32:50Z</time>
      </trkpt>
      <trkpt lat="48.35531" lon="2.80509">
        <ele>49.4</ele>
        <time>2024-05-11T12:32:57Z</time>
      </trkpt>
      <trkpt lat="48.35535" lon="2.80518">
        <ele>49.1</ele>
        <time>2024-05-11T12:33:04Z</time>
      </trkpt>
      <trkpt lat="48.35539" lon="2.8053">
        <ele>48.8</ele>
        <time>2024-05-11T12:33:11Z</time>
      </trkpt>
      <trkpt lat="48.35541" lon="2.80538">
        <ele>49</ele>
        <time>2024-05-11T12:33:17Z</time>
      </trkpt>
      <trkpt lat="48.35548" lon="2.80549">
        <ele>49.5</ele>
        <time>2024-05-11T12:33:25Z</time>
      </trkpt>
      <trkpt lat="48.35554" lon="2.80562">
        <ele>49.7</ele>
        <time>2024-05-11T12:33:33Z</time>
      </trkpt>
      <trkpt lat="48.35557" lon="2.80569">
        <ele>49.6</ele>
        <time>2024-05-11T12:33:37Z</time>
      </trkpt>
      <trkpt lat="48.35563" lon="2.8058">
        <ele>49.4</ele>
        <time>2024-05-11T12:33:45Z</time>
      </trkpt>
      <trkpt lat="48.35566" lon="2.80591">
        <ele>49.2</ele>
        <time>2024-05-11T12:33:51Z</time>
      </trkpt>
      <trkpt lat="48.35566" lon="2.80595">
        <ele>49.1</ele>
        <time>2024-05-11T12:33:57Z</time>
      </trkpt>
      <trkpt lat="48.35567" lon="2.80598">
        <ele>49.1</ele>
        <time>2024-05-11T12:34:05Z</time>
      </trkpt>
      <trkpt lat="48.35568" lon="2.80598">
        <ele>49.2</ele>
        <time>2024-05-11T12:34:07Z</time>
      </trkpt>
      <trkpt lat="48.35572" lon="2.80606">
        <ele>49.3</ele>
        <time>2024-05-11T12:34:15Z</time>
      </trkpt>
      <trkpt lat="48.35574" lon="2.80608">
        <ele>49.4</ele>
        <time>2024-05-11T12:34:20Z</time>
      </trkpt>
      <trkpt lat="48.35577" lon="2.80612">
        <ele>49.5</ele>
        <time>2024-05-11T12:34:25Z</time>
      </trkpt>
      <trkpt lat="48.35581" lon="2.80623">
        <ele>49.5</ele>
        <time>2024-05-11T12:34:32Z</time>
      </trkpt>
      <trkpt lat="48.35586" lon="2.80632">
        <ele>49.3</ele>
        <time>2024-05-11T12:34:40Z</time>
      </trkpt>
      <trkpt lat="48.35588" lon="2.80639">
        <ele>49.2</ele>
        <time>2024-05-11T12:34:46Z</time>
      </trkpt>
      <trkpt lat="48.3559" lon="2.80645">
        <ele>49.1</ele>
        <time>2024-05-11T12:34:52Z</time>
      </trkpt>
      <trkpt lat="48.35595" lon="2.80656">
        <ele>49.1</ele>
        <time>2024-05-11T12:34:58Z</time>
      </trkpt>
      <trkpt lat="48.35596" lon="2.80658">
        <ele>49.1</ele>
        <time>2024-05-11T12:34:59Z</time>
      </trkpt>
      <trkpt lat="48.35605" lon="2.80671">
        <ele>49.4</ele>
        <time>2024-05-11T12:35:07Z</time>
      </trkpt>
      <trkpt lat="48.3561" lon="2.80681">
        <ele>49.4</ele>
        <time>2024-05-11T12:35:13Z</time>
      </trkpt>
      <trkpt lat="48.35611" lon="2.80681">
        <ele>49.4</ele>
        <time>2024-05-11T12:35:15Z</time>
      </trkpt>
      <trkpt lat="48.35616" lon="2.80692">
        <ele>49.3</ele>
        <time>2024-05-11T12:35:23Z</time>
      </trkpt>
      <trkpt lat="48.3562" lon="2.80703">
        <ele>49.1</ele>
        <time>2024-05-11T12:35:30Z</time>
      </trkpt>
      <trkpt lat="48.35625" lon="2.80713">
        <ele>49.2</ele>
        <time>2024-05-11T12:35:38Z</time>
      </trkpt>
      <trkpt lat="48.35629" lon="2.8072">
        <ele>49.3</ele>
        <time>2024-05-11T12:35:45Z</time>
      </trkpt>
      <trkpt lat="48.35633" lon="2.80725">
        <ele>49.5</ele>
        <time>2024-05-11T12:35:51Z</time>
      </trkpt>
      <trkpt lat="48.35637" lon="2.80731">
        <ele>49.5</ele>
        <time>2024-05-11T12:35:57Z</time>
      </trkpt>
      <trkpt lat="48.35643" lon="2.8074">
        <ele>49.4</ele>
        <time>2024-05-11T12:36:04Z</time>
      </trkpt>
      <trkpt lat="48.35646" lon="2.80745">
        <ele>49.2</ele>
        <time>2024-05-11T12:36:08Z</time>
      </trkpt>
      <trkpt lat="48.35649" lon="2.80751">
        <ele>49</ele>
        <time>2024-05-11T12:36:14Z</time>
      </trkpt>
      <trkpt lat="48.35654" lon="2.80758">
        <ele>49.1</ele>
        <time>2024-05-11T12:36:21Z</time>
      </trkpt>
      <trkpt lat="48.35656" lon="2.80764">
        <ele>49.3</ele>
        <time>2024-05-11T12:36:28Z</time>
      </trkpt>
      <trkpt lat="48.35661" lon="2.80769">
        <ele>49.5</ele>
        <time>2024-05-11T12:36:35Z</time>
      </trkpt>
      <trkpt lat="48.35663" lon="2.80773">
        <ele>49.7</ele>
        <time>2024-05-11T12:36:40Z</time>
      </trkpt>
      <trkpt lat="48.35666" lon="2.80784">
        <ele>50</ele>
        <time>2024-05-11T12:36:47Z</time>
      </trkpt>
      <trkpt lat="48.35671" lon="2.80796">
        <ele>49.9</ele>
        <time>2024-05-11T12:36:54Z</time>
      </trkpt>
      <trkpt lat="48.35673" lon="2.80798">
        <ele>49.8</ele>
        <time>2024-05-11T12:36:56Z</time>
      </trkpt>
      <trkpt lat="48.35677" lon="2.80804">
        <ele>49.6</ele>
        <time>2024-05-11T12:37:01Z</time>
      </trkpt>
      <trkpt lat="48.3568" lon="2.8081">
        <ele>49.6</ele>
        <time>2024-05-11T12:37:04Z</time>
      </trkpt>
      <trkpt lat="48.35689" lon="2.80821">
        <ele>49.7</ele>
        <time>2024-05-11T12:37:12Z</time>
      </trkpt>
      <trkpt lat="48.35692" lon="2.80824">
        <ele>49.7</ele>
        <time>2024-05-11T12:37:15Z</time>
      </trkpt>
      <trkpt lat="48.35694" lon="2.80826">
        <ele>49.7</ele>
        <time>2024-05-11T12:37:17Z</time>
      </trkpt>
      <trkpt lat="48.35701" lon="2.80837">
        <ele>50</ele>
        <time>2024-05-11T12:37:25Z</time>
      </trkpt>
      <trkpt lat="48.35707" lon="2.80852">
        <ele>50</ele>
        <time>2024-05-11T12:37:32Z</time>
      </trkpt>
      <trkpt lat="48.35709" lon="2.80853">
        <ele>50</ele>
        <time>2024-05-11T12:37:35Z</time>
      </trkpt>
      <trkpt lat="48.35715" lon="2.80859">
        <ele>50</ele>
        <time>2024-05-11T12:37:40Z</time>
      </trkpt>
      <trkpt lat="48.35716" lon="2.80861">
        <ele>50</ele>
        <time>2024-05-11T12:37:42Z</time>
      </trkpt>
      <trkpt lat="48.35717" lon="2.80863">
        <ele>50</ele>
        <time>2024-05-11T12:37:44Z</time>
      </trkpt>
      <trkpt lat="48.35717" lon="2.80866">
        <ele>50</ele>
        <time>2024-05-11T12:37:47Z</time>
      </trkpt>
      <trkpt lat="48.35719" lon="2.80868">
        <ele>50</ele>
        <time>2024-05-11T12:37:50Z</time>
      </trkpt>
      <trkpt lat="48.35723" lon="2.80875">
        <ele>50</ele>
        <time>2024-05-11T12:37:57Z</time>
      </trkpt>
      <trkpt lat="48.35725" lon="2.80877">
        <ele>49.9</ele>
        <time>2024-05-11T12:37:59Z</time>
      </trkpt>
      <trkpt lat="48.35733" lon="2.8089">
        <ele>49.6</ele>
        <time>2024-05-11T12:38:06Z</time>
      </trkpt>
      <trkpt lat="48.35733" lon="2.80892">
        <ele>49.5</ele>
        <time>2024-05-11T12:38:07Z</time>
      </trkpt>
      <trkpt lat="48.35741" lon="2.80904">
        <ele>49</ele>
        <time>2024-05-11T12:38:15Z</time>
      </trkpt>
      <trkpt lat="48.35743" lon="2.80908">
        <ele>48.9</ele>
        <time>2024-05-11T12:38:22Z</time>
      </trkpt>
      <trkpt lat="48.35746" lon="2.80912">
        <ele>48.9</ele>
        <time>2024-05-11T12:38:25Z</time>
      </trkpt>
      <trkpt lat="48.35753" lon="2.80917">
        <ele>49</ele>
        <time>2024-05-11T12:38:32Z</time>
      </trkpt>
      <trkpt lat="48.35754" lon="2.80919">
        <ele>49</ele>
        <time>2024-05-11T12:38:34Z</time>
      </trkpt>
      <trkpt lat="48.35762" lon="2.80928">
        <ele>49</ele>
        <time>2024-05-11T12:38:41Z</time>
      </trkpt>
      <trkpt lat="48.35766" lon="2.80934">
        <ele>49</ele>
        <time>2024-05-11T12:38:45Z</time>
      </trkpt>
      <trkpt lat="48.35771" lon="2.80942">
        <ele>49</ele>
        <time>2024-05-11T12:38:52Z</time>
      </trkpt>
      <trkpt lat="48.35776" lon="2.80943">
        <ele>49</ele>
        <time>2024-05-11T12:38:59Z</time>
      </trkpt>
      <trkpt lat="48.35783" lon="2.80947">
        <ele>49</ele>
        <time>2024-05-11T12:39:05Z</time>
      </trkpt>
      <trkpt lat="48.35786" lon="2.80951">
        <ele>49</ele>
        <time>2024-05-11T12:39:11Z</time>
      </trkpt>
      <trkpt lat="48.35789" lon="2.80953">
        <ele>49</ele>
        <time>2024-05-11T12:39:16Z</time>
      </trkpt>
      <trkpt lat="48.35789" lon="2.80954">
        <ele>49</ele>
        <time>2024-05-11T12:39:17Z</time>
      </trkpt>
      <trkpt lat="48.3579" lon="2.80954">
        <ele>49</ele>
        <time>2024-05-11T12:39:23Z</time>
      </trkpt>
      <trkpt lat="48.35795" lon="2.80956">
        <ele>49</ele>
        <time>2024-05-11T12:39:30Z</time>
      </trkpt>
      <trkpt lat="48.35798" lon="2.80957">
        <ele>49</ele>
        <time>2024-05-11T12:39:32Z</time>
      </trkpt>
      <trkpt lat="48.35805" lon="2.80964">
        <ele>49</ele>
        <time>2024-05-11T12:39:39Z</time>
      </trkpt>
      <trkpt lat="48.3581" lon="2.80967">
        <ele>49</ele>
        <time>2024-05-11T12:39:44Z</time>
      </trkpt>
      <trkpt lat="48.35813" lon="2.8097">
        <ele>49</ele>
        <time>2024-05-11T12:39:47Z</time>
      </trkpt>
      <trkpt lat="48.35824" lon="2.8098">
        <ele>49</ele>
        <time>2024-05-11T12:39:54Z</time>
      </trkpt>
      <trkpt lat="48.35829" lon="2.80984">
        <ele>49</ele>
        <time>2024-05-11T12:40:00Z</time>
      </trkpt>
      <trkpt lat="48.35829" lon="2.80985">
        <ele>49</ele>
        <time>2024-05-11T12:40:02Z</time>
      </trkpt>
      <trkpt lat="48.35832" lon="2.8099">
        <ele>49</ele>
        <time>2024-05-11T12:40:09Z</time>
      </trkpt>
      <trkpt lat="48.35837" lon="2.80996">
        <ele>49</ele>
        <time>2024-05-11T12:40:16Z</time>
      </trkpt>
      <trkpt lat="48.35846" lon="2.81007">
        <ele>49</ele>
        <time>2024-05-11T12:40:23Z</time>
      </trkpt>
      <trkpt lat="48.35855" lon="2.81019">
        <ele>49</ele>
        <time>2024-05-11T12:40:29Z</time>
      </trkpt>
      <trkpt lat="48.3586" lon="2.81025">
        <ele>49</ele>
        <time>2024-05-11T12:40:36Z</time>
      </trkpt>
      <trkpt lat="48.35865" lon="2.81032">
        <ele>49</ele>
        <time>2024-05-11T12:40:41Z</time>
      </trkpt>
      <trkpt lat="48.35872" lon="2.81038">
        <ele>49</ele>
        <time>2024-05-11T12:40:48Z</time>
      </trkpt>
      <trkpt lat="48.35879" lon="2.81047">
        <ele>49</ele>
        <time>2024-05-11T12:40:54Z</time>
      </trkpt>
      <trkpt lat="48.35881" lon="2.81056">
        <ele>49</ele>
        <time>2024-05-11T12:41:01Z</time>
      </trkpt>
      <trkpt lat="48.35888" lon="2.81061">
        <ele>49</ele>
        <time>2024-05-11T12:41:08Z</time>
      </trkpt>
      <trkpt lat="48.35889" lon="2.81063">
        <ele>49</ele>
        <time>2024-05-11T12:41:09Z</time>
      </trkpt>
      <trkpt lat="48.35895" lon="2.81067">
        <ele>49</ele>
        <time>2024-05-11T12:41:16Z</time>
      </trkpt>
      <trkpt lat="48.35897" lon="2.81069">
        <ele>49</ele>
        <time>2024-05-11T12:41:18Z</time>
      </trkpt>
      <trkpt lat="48.35902" lon="2.81073">
        <ele>49</ele>
        <time>2024-05-11T12:41:24Z</time>
      </trkpt>
      <trkpt lat="48.35906" lon="2.81078">
        <ele>49</ele>
        <time>2024-05-11T12:41:31Z</time>
      </trkpt>
      <trkpt lat="48.35912" lon="2.81085">
        <ele>48.9</ele>
        <time>2024-05-11T12:41:38Z</time>
      </trkpt>
      <trkpt lat="48.3592" lon="2.81088">
        <ele>48.8</ele>
        <time>2024-05-11T12:41:44Z</time>
      </trkpt>
      <trkpt lat="48.35926" lon="2.81091">
        <ele>48.7</ele>
        <time>2024-05-11T12:41:49Z</time>
      </trkpt>
      <trkpt lat="48.35937" lon="2.81094">
        <ele>48.6</ele>
        <time>2024-05-11T12:41:57Z</time>
      </trkpt>
      <trkpt lat="48.35947" lon="2.811">
        <ele>48.5</ele>
        <time>2024-05-11T12:42:05Z</time>
      </trkpt>
      <trkpt lat="48.3595" lon="2.81103">
        <ele>48.5</ele>
        <time>2024-05-11T12:42:10Z</time>
      </trkpt>
      <trkpt lat="48.35958" lon="2.81106">
        <ele>48.6</ele>
        <time>2024-05-11T12:42:17Z</time>
      </trkpt>
      <trkpt lat="48.3596" lon="2.8111">
        <ele>48.6</ele>
        <time>2024-05-11T12:42:23Z</time>
      </trkpt>
      <trkpt lat="48.35964" lon="2.81113">
        <ele>48.7</ele>
        <time>2024-05-11T12:42:28Z</time>
      </trkpt>
      <trkpt lat="48.3597" lon="2.81119">
        <ele>48.6</ele>
        <time>2024-05-11T12:42:34Z</time>
      </trkpt>
      <trkpt lat="48.3598" lon="2.81129">
        <ele>48.5</ele>
        <time>2024-05-11T12:42:41Z</time>
      </trkpt>
      <trkpt lat="48.35993" lon="2.81139">
        <ele>48.7</ele>
        <time>2024-05-11T12:42:49Z</time>
      </trkpt>
      <trkpt lat="48.36001" lon="2.81145">
        <ele>48.8</ele>
        <time>2024-05-11T12:42:54Z</time>
      </trkpt>
      <trkpt lat="48.36008" lon="2.8115">
        <ele>48.7</ele>
        <time>2024-05-11T12:42:56Z</time>
      </trkpt>
      <trkpt lat="48.36018" lon="2.81156">
        <ele>48.8</ele>
        <time>2024-05-11T12:43:02Z</time>
      </trkpt>
      <trkpt lat="48.36022" lon="2.81161">
        <ele>48.8</ele>
        <time>2024-05-11T12:43:08Z</time>
      </trkpt>
      <trkpt lat="48.3603" lon="2.81169">
        <ele>49</ele>
        <time>2024-05-11T12:43:14Z</time>
      </trkpt>
      <trkpt lat="48.36034" lon="2.81174">
        <ele>49</ele>
        <time>2024-05-11T12:43:21Z</time>
      </trkpt>
      <trkpt lat="48.36036" lon="2.81179">
        <ele>49</ele>
        <time>2024-05-11T12:43:27Z</time>
      </trkpt>
      <trkpt lat="48.36037" lon="2.81182">
        <ele>49</ele>
        <time>2024-05-11T12:43:33Z</time>
      </trkpt>
      <trkpt lat="48.36042" lon="2.81186">
        <ele>49</ele>
        <time>2024-05-11T12:43:38Z</time>
      </trkpt>
      <trkpt lat="48.36045" lon="2.81189">
        <ele>49</ele>
        <time>2024-05-11T12:43:47Z</time>
      </trkpt>
      <trkpt lat="48.36055" lon="2.81197">
        <ele>49</ele>
        <time>2024-05-11T12:43:54Z</time>
      </trkpt>
      <trkpt lat="48.36061" lon="2.81202">
        <ele>49</ele>
        <time>2024-05-11T12:44:01Z</time>
      </trkpt>
      <trkpt lat="48.36064" lon="2.81205">
        <ele>49</ele>
        <time>2024-05-11T12:44:12Z</time>
      </trkpt>
      <trkpt lat="48.36064" lon="2.81205">
        <ele>49</ele>
        <time>2024-05-11T12:44:18Z</time>
      </trkpt>
      <trkpt lat="48.36065" lon="2.81206">
        <ele>49</ele>
        <time>2024-05-11T12:44:26Z</time>
      </trkpt>
      <trkpt lat="48.36067" lon="2.81211">
        <ele>49</ele>
        <time>2024-05-11T12:44:32Z</time>
      </trkpt>
      <trkpt lat="48.3607" lon="2.81214">
        <ele>49</ele>
        <time>2024-05-11T12:44:35Z</time>
      </trkpt>
      <trkpt lat="48.36073" lon="2.81222">
        <ele>49</ele>
        <time>2024-05-11T12:44:42Z</time>
      </trkpt>
      <trkpt lat="48.36078" lon="2.8123">
        <ele>49</ele>
        <time>2024-05-11T12:44:49Z</time>
      </trkpt>
      <trkpt lat="48.36081" lon="2.81233">
        <ele>49</ele>
        <time>2024-05-11T12:44:57Z</time>
      </trkpt>
      <trkpt lat="48.36083" lon="2.81236">
        <ele>49</ele>
        <time>2024-05-11T12:45:04Z</time>
      </trkpt>
      <trkpt lat="48.36086" lon="2.81238">
        <ele>49</ele>
        <time>2024-05-11T12:45:13Z</time>
      </trkpt>
      <trkpt lat="48.36087" lon="2.81238">
        <ele>49</ele>
        <time>2024-05-11T12:45:20Z</time>
      </trkpt>
      <trkpt lat="48.36089" lon="2.81242">
        <ele>49</ele>
        <time>2024-05-11T12:45:26Z</time>
      </trkpt>
      <trkpt lat="48.36092" lon="2.81248">
        <ele>49</ele>
        <time>2024-05-11T12:45:31Z</time>
      </trkpt>
      <trkpt lat="48.36098" lon="2.81257">
        <ele>49</ele>
        <time>2024-05-11T12:45:38Z</time>
      </trkpt>
      <trkpt lat="48.36103" lon="2.81265">
        <ele>49</ele>
        <time>2024-05-11T12:45:45Z</time>
      </trkpt>
      <trkpt lat="48.36105" lon="2.8127">
        <ele>49</ele>
        <time>2024-05-11T12:45:51Z</time>
      </trkpt>
      <trkpt lat="48.36107" lon="2.81273">
        <ele>49</ele>
        <time>2024-05-11T12:45:55Z</time>
      </trkpt>
      <trkpt lat="48.36109" lon="2.81279">
        <ele>49</ele>
        <time>2024-05-11T12:46:01Z</time>
      </trkpt>
      <trkpt lat="48.36112" lon="2.81283">
        <ele>49</ele>
        <time>2024-05-11T12:46:07Z</time>
      </trkpt>
      <trkpt lat="48.36115" lon="2.81287">
        <ele>49</ele>
        <time>2024-05-11T12:46:12Z</time>
      </trkpt>
      <trkpt lat="48.36119" lon="2.81294">
        <ele>49</ele>
        <time>2024-05-11T12:46:18Z</time>
      </trkpt>
      <trkpt lat="48.36121" lon="2.81296">
        <ele>49</ele>
        <time>2024-05-11T12:46:21Z</time>
      </trkpt>
      <trkpt lat="48.36125" lon="2.81305">
        <ele>49</ele>
        <time>2024-05-11T12:46:28Z</time>
      </trkpt>
      <trkpt lat="48.36129" lon="2.81311">
        <ele>49</ele>
        <time>2024-05-11T12:46:33Z</time>
      </trkpt>
      <trkpt lat="48.36133" lon="2.81318">
        <ele>49</ele>
        <time>2024-05-11T12:46:39Z</time>
      </trkpt>
      <trkpt lat="48.36135" lon="2.81324">
        <ele>49</ele>
        <time>2024-05-11T12:46:44Z</time>
      </trkpt>
      <trkpt lat="48.36148" lon="2.81343">
        <ele>48.8</ele>
        <time>2024-05-11T12:46:50Z</time>
      </trkpt>
      <trkpt lat="48.36149" lon="2.81345">
        <ele>48.7</ele>
        <time>2024-05-11T12:46:52Z</time>
      </trkpt>
      <trkpt lat="48.36152" lon="2.81351">
        <ele>48.7</ele>
        <time>2024-05-11T12:46:56Z</time>
      </trkpt>
      <trkpt lat="48.36157" lon="2.81363">
        <ele>48.6</ele>
        <time>2024-05-11T12:47:03Z</time>
      </trkpt>
      <trkpt lat="48.36161" lon="2.81373">
        <ele>48.5</ele>
        <time>2024-05-11T12:47:08Z</time>
      </trkpt>
      <trkpt lat="48.36167" lon="2.81386">
        <ele>48.1</ele>
        <time>2024-05-11T12:47:15Z</time>
      </trkpt>
      <trkpt lat="48.36175" lon="2.81401">
        <ele>48.2</ele>
        <time>2024-05-11T12:47:23Z</time>
      </trkpt>
      <trkpt lat="48.36179" lon="2.81416">
        <ele>48</ele>
        <time>2024-05-11T12:47:31Z</time>
      </trkpt>
      <trkpt lat="48.36179" lon="2.81417">
        <ele>48</ele>
        <time>2024-05-11T12:47:32Z</time>
      </trkpt>
      <trkpt lat="48.36182" lon="2.81425">
        <ele>48</ele>
        <time>2024-05-11T12:47:37Z</time>
      </trkpt>
      <trkpt lat="48.36186" lon="2.81433">
        <ele>48</ele>
        <time>2024-05-11T12:47:43Z</time>
      </trkpt>
      <trkpt lat="48.36193" lon="2.81446">
        <ele>48</ele>
        <time>2024-05-11T12:47:52Z</time>
      </trkpt>
      <trkpt lat="48.36196" lon="2.81451">
        <ele>48</ele>
        <time>2024-05-11T12:47:56Z</time>
      </trkpt>
      <trkpt lat="48.36199" lon="2.8146">
        <ele>48</ele>
        <time>2024-05-11T12:48:02Z</time>
      </trkpt>
      <trkpt lat="48.36203" lon="2.81469">
        <ele>48</ele>
        <time>2024-05-11T12:48:08Z</time>
      </trkpt>
      <trkpt lat="48.36203" lon="2.8147">
        <ele>48</ele>
        <time>2024-05-11T12:48:09Z</time>
      </trkpt>
      <trkpt lat="48.36207" lon="2.81479">
        <ele>48</ele>
        <time>2024-05-11T12:48:15Z</time>
      </trkpt>
      <trkpt lat="48.36211" lon="2.81487">
        <ele>48</ele>
        <time>2024-05-11T12:48:23Z</time>
      </trkpt>
      <trkpt lat="48.36213" lon="2.8149">
        <ele>48</ele>
        <time>2024-05-11T12:48:29Z</time>
      </trkpt>
      <trkpt lat="48.36214" lon="2.81498">
        <ele>48</ele>
        <time>2024-05-11T12:48:34Z</time>
      </trkpt>
      <trkpt lat="48.36217" lon="2.81505">
        <ele>48</ele>
        <time>2024-05-11T12:48:39Z</time>
      </trkpt>
      <trkpt lat="48.36221" lon="2.81512">
        <ele>48</ele>
        <time>2024-05-11T12:48:46Z</time>
      </trkpt>
      <trkpt lat="48.36221" lon="2.81515">
        <ele>48</ele>
        <time>2024-05-11T12:48:48Z</time>
      </trkpt>
      <trkpt lat="48.36224" lon="2.81522">
        <ele>48.1</ele>
        <time>2024-05-11T12:48:53Z</time>
      </trkpt>
      <trkpt lat="48.36228" lon="2.81528">
        <ele>48.2</ele>
        <time>2024-05-11T12:49:00Z</time>
      </trkpt>
      <trkpt lat="48.3623" lon="2.81533">
        <ele>48.2</ele>
        <time>2024-05-11T12:49:06Z</time>
      </trkpt>
      <trkpt lat="48.36233" lon="2.8154">
        <ele>48.2</ele>
        <time>2024-05-11T12:49:11Z</time>
      </trkpt>
      <trkpt lat="48.36234" lon="2.81547">
        <ele>48.1</ele>
        <time>2024-05-11T12:49:14Z</time>
      </trkpt>
      <trkpt lat="48.36238" lon="2.81563">
        <ele>48</ele>
        <time>2024-05-11T12:49:21Z</time>
      </trkpt>
      <trkpt lat="48.36241" lon="2.81575">
        <ele>48</ele>
        <time>2024-05-11T12:49:28Z</time>
      </trkpt>
      <trkpt lat="48.36242" lon="2.81583">
        <ele>48</ele>
        <time>2024-05-11T12:49:33Z</time>
      </trkpt>
      <trkpt lat="48.36245" lon="2.81591">
        <ele>48</ele>
        <time>2024-05-11T12:49:39Z</time>
      </trkpt>
      <trkpt lat="48.36248" lon="2.81598">
        <ele>48</ele>
        <time>2024-05-11T12:49:43Z</time>
      </trkpt>
      <trkpt lat="48.36254" lon="2.81612">
        <ele>48.1</ele>
        <time>2024-05-11T12:49:52Z</time>
      </trkpt>
      <trkpt lat="48.36256" lon="2.81617">
        <ele>48.2</ele>
        <time>2024-05-11T12:49:55Z</time>
      </trkpt>
      <trkpt lat="48.36258" lon="2.81627">
        <ele>48.3</ele>
        <time>2024-05-11T12:50:01Z</time>
      </trkpt>
      <trkpt lat="48.36259" lon="2.81636">
        <ele>48.3</ele>
        <time>2024-05-11T12:50:07Z</time>
      </trkpt>
      <trkpt lat="48.3626" lon="2.8164">
        <ele>48.4</ele>
        <time>2024-05-11T12:50:10Z</time>
      </trkpt>
      <trkpt lat="48.36263" lon="2.81649">
        <ele>48.7</ele>
        <time>2024-05-11T12:50:15Z</time>
      </trkpt>
      <trkpt lat="48.36266" lon="2.81656">
        <ele>48.8</ele>
        <time>2024-05-11T12:50:21Z</time>
      </trkpt>
      <trkpt lat="48.36267" lon="2.81662">
        <ele>48.9</ele>
        <time>2024-05-11T12:50:26Z</time>
      </trkpt>
      <trkpt lat="48.36272" lon="2.81669">
        <ele>49</ele>
        <time>2024-05-11T12:50:32Z</time>
      </trkpt>
      <trkpt lat="48.36272" lon="2.81677">
        <ele>49.1</ele>
        <time>2024-05-11T12:50:37Z</time>
      </trkpt>
      <trkpt lat="48.36275" lon="2.81684">
        <ele>49.1</ele>
        <time>2024-05-11T12:50:43Z</time>
      </trkpt>
      <trkpt lat="48.36278" lon="2.81698">
        <ele>49.2</ele>
        <time>2024-05-11T12:50:50Z</time>
      </trkpt>
      <trkpt lat="48.3628" lon="2.81706">
        <ele>49.5</ele>
        <time>2024-05-11T12:50:53Z</time>
      </trkpt>
      <trkpt lat="48.36283" lon="2.81721">
        <ele>50</ele>
        <time>2024-05-11T12:51:00Z</time>
      </trkpt>
      <trkpt lat="48.36286" lon="2.81727">
        <ele>50.1</ele>
        <time>2024-05-11T12:51:04Z</time>
      </trkpt>
      <trkpt lat="48.36287" lon="2.81734">
        <ele>50.1</ele>
        <time>2024-05-11T12:51:10Z</time>
      </trkpt>
      <trkpt lat="48.36289" lon="2.81739">
        <ele>50.1</ele>
        <time>2024-05-11T12:51:16Z</time>
      </trkpt>
      <trkpt lat="48.36293" lon="2.81748">
        <ele>49.9</ele>
        <time>2024-05-11T12:51:21Z</time>
      </trkpt>
      <trkpt lat="48.36299" lon="2.81758">
        <ele>49.6</ele>
        <time>2024-05-11T12:51:27Z</time>
      </trkpt>
      <trkpt lat="48.36302" lon="2.81764">
        <ele>49.6</ele>
        <time>2024-05-11T12:51:35Z</time>
      </trkpt>
      <trkpt lat="48.36306" lon="2.81769">
        <ele>49.8</ele>
        <time>2024-05-11T12:51:46Z</time>
      </trkpt>
      <trkpt lat="48.36308" lon="2.8177">
        <ele>50.2</ele>
        <time>2024-05-11T12:52:00Z</time>
      </trkpt>
      <trkpt lat="48.36308" lon="2.8177">
        <ele>50.2</ele>
        <time>2024-05-11T12:52:03Z</time>
      </trkpt>
      <trkpt lat="48.36308" lon="2.81771">
        <ele>50.1</ele>
        <time>2024-05-11T12:52:05Z</time>
      </trkpt>
      <trkpt lat="48.36309" lon="2.81777">
        <ele>50.5</ele>
        <time>2024-05-11T12:52:12Z</time>
      </trkpt>
      <trkpt lat="48.36313" lon="2.81783">
        <ele>50.6</ele>
        <time>2024-05-11T12:52:18Z</time>
      </trkpt>
      <trkpt lat="48.36314" lon="2.81787">
        <ele>50.3</ele>
        <time>2024-05-11T12:52:22Z</time>
      </trkpt>
      <trkpt lat="48.36317" lon="2.818">
        <ele>49.4</ele>
        <time>2024-05-11T12:52:31Z</time>
      </trkpt>
      <trkpt lat="48.36318" lon="2.81806">
        <ele>48.9</ele>
        <time>2024-05-11T12:52:35Z</time>
      </trkpt>
      <trkpt lat="48.36323" lon="2.8182">
        <ele>48.9</ele>
        <time>2024-05-11T12:52:43Z</time>
      </trkpt>
      <trkpt lat="48.36323" lon="2.81823">
        <ele>48.9</ele>
        <time>2024-05-11T12:52:45Z</time>
      </trkpt>
      <trkpt lat="48.36328" lon="2.81838">
        <ele>48.7</ele>
        <time>2024-05-11T12:52:53Z</time>
      </trkpt>
      <trkpt lat="48.36331" lon="2.81843">
        <ele>48.6</ele>
        <time>2024-05-11T12:52:56Z</time>
      </trkpt>
      <trkpt lat="48.36337" lon="2.81859">
        <ele>48.6</ele>
        <time>2024-05-11T12:53:04Z</time>
      </trkpt>
      <trkpt lat="48.36343" lon="2.81865">
        <ele>49.2</ele>
        <time>2024-05-11T12:53:10Z</time>
      </trkpt>
      <trkpt lat="48.36347" lon="2.81869">
        <ele>49.6</ele>
        <time>2024-05-11T12:53:13Z</time>
      </trkpt>
      <trkpt lat="48.36356" lon="2.81881">
        <ele>49.5</ele>
        <time>2024-05-11T12:53:19Z</time>
      </trkpt>
      <trkpt lat="48.36358" lon="2.81882">
        <ele>49.6</ele>
        <time>2024-05-11T12:53:20Z</time>
      </trkpt>
      <trkpt lat="48.36366" lon="2.81892">
        <ele>49.2</ele>
        <time>2024-05-11T12:53:27Z</time>
      </trkpt>
      <trkpt lat="48.36376" lon="2.81907">
        <ele>49.1</ele>
        <time>2024-05-11T12:53:35Z</time>
      </trkpt>
      <trkpt lat="48.36386" lon="2.81911">
        <ele>49.2</ele>
        <time>2024-05-11T12:53:42Z</time>
      </trkpt>
      <trkpt lat="48.36391" lon="2.81912">
        <ele>49.4</ele>
        <time>2024-05-11T12:53:45Z</time>
      </trkpt>
      <trkpt lat="48.36396" lon="2.81913">
        <ele>49.5</ele>
        <time>2024-05-11T12:53:48Z</time>
      </trkpt>
      <trkpt lat="48.36407" lon="2.81917">
        <ele>49.6</ele>
        <time>2024-05-11T12:53:56Z</time>
      </trkpt>
      <trkpt lat="48.36412" lon="2.8192">
        <ele>49.7</ele>
        <time>2024-05-11T12:54:01Z</time>
      </trkpt>
      <trkpt lat="48.36415" lon="2.81921">
        <ele>49.8</ele>
        <time>2024-05-11T12:54:03Z</time>
      </trkpt>
      <trkpt lat="48.36431" lon="2.8193">
        <ele>50.1</ele>
        <time>2024-05-11T12:54:11Z</time>
      </trkpt>
      <trkpt lat="48.3645" lon="2.81939">
        <ele>50.3</ele>
        <time>2024-05-11T12:54:20Z</time>
      </trkpt>
      <trkpt lat="48.36469" lon="2.8195">
        <ele>49.8</ele>
        <time>2024-05-11T12:54:31Z</time>
      </trkpt>
      <trkpt lat="48.36481" lon="2.81956">
        <ele>49.9</ele>
        <time>2024-05-11T12:54:39Z</time>
      </trkpt>
      <trkpt lat="48.36494" lon="2.81964">
        <ele>50.1</ele>
        <time>2024-05-11T12:54:49Z</time>
      </trkpt>
      <trkpt lat="48.36495" lon="2.81966">
        <ele>50.1</ele>
        <time>2024-05-11T12:54:54Z</time>
      </trkpt>
      <trkpt lat="48.36498" lon="2.8197">
        <ele>50</ele>
        <time>2024-05-11T12:55:01Z</time>
      </trkpt>
      <trkpt lat="48.365" lon="2.8197">
        <ele>50.1</ele>
        <time>2024-05-11T12:55:02Z</time>
      </trkpt>
      <trkpt lat="48.36502" lon="2.8197">
        <ele>50.1</ele>
        <time>2024-05-11T12:55:04Z</time>
      </trkpt>
      <trkpt lat="48.36514" lon="2.81974">
        <ele>50</ele>
        <time>2024-05-11T12:55:13Z</time>
      </trkpt>
      <trkpt lat="48.36523" lon="2.81977">
        <ele>50</ele>
        <time>2024-05-11T12:55:19Z</time>
      </trkpt>
      <trkpt lat="48.36532" lon="2.81981">
        <ele>50.1</ele>
        <time>2024-05-11T12:55:26Z</time>
      </trkpt>
      <trkpt lat="48.36541" lon="2.81984">
        <ele>50.3</ele>
        <time>2024-05-11T12:55:34Z</time>
      </trkpt>
      <trkpt lat="48.36552" lon="2.81989">
        <ele>50.3</ele>
        <time>2024-05-11T12:55:42Z</time>
      </trkpt>
      <trkpt lat="48.36559" lon="2.81991">
        <ele>50.5</ele>
        <time>2024-05-11T12:55:49Z</time>
      </trkpt>
      <trkpt lat="48.36568" lon="2.81994">
        <ele>50.8</ele>
        <time>2024-05-11T12:55:57Z</time>
      </trkpt>
      <trkpt lat="48.36575" lon="2.81993">
        <ele>51.1</ele>
        <time>2024-05-11T12:56:04Z</time>
      </trkpt>
      <trkpt lat="48.36578" lon="2.81992">
        <ele>51.4</ele>
        <time>2024-05-11T12:56:09Z</time>
      </trkpt>
      <trkpt lat="48.36583" lon="2.81994">
        <ele>51.4</ele>
        <time>2024-05-11T12:56:16Z</time>
      </trkpt>
      <trkpt lat="48.36585" lon="2.81998">
        <ele>51.1</ele>
        <time>2024-05-11T12:56:26Z</time>
      </trkpt>
      <trkpt lat="48.36594" lon="2.82007">
        <ele>51.4</ele>
        <time>2024-05-11T12:56:32Z</time>
      </trkpt>
      <trkpt lat="48.36599" lon="2.82005">
        <ele>51.3</ele>
        <time>2024-05-11T12:56:34Z</time>
      </trkpt>
      <trkpt lat="48.36603" lon="2.82003">
        <ele>51.2</ele>
        <time>2024-05-11T12:56:36Z</time>
      </trkpt>
      <trkpt lat="48.36608" lon="2.82003">
        <ele>51.2</ele>
        <time>2024-05-11T12:56:41Z</time>
      </trkpt>
      <trkpt lat="48.36609" lon="2.82003">
        <ele>51.2</ele>
        <time>2024-05-11T12:56:42Z</time>
      </trkpt>
      <trkpt lat="48.36612" lon="2.82004">
        <ele>51.3</ele>
        <time>2024-05-11T12:56:45Z</time>
      </trkpt>
      <trkpt lat="48.36614" lon="2.82005">
        <ele>51.4</ele>
        <time>2024-05-11T12:56:47Z</time>
      </trkpt>
      <trkpt lat="48.36622" lon="2.82003">
        <ele>51.4</ele>
        <time>2024-05-11T12:56:54Z</time>
      </trkpt>
      <trkpt lat="48.36627" lon="2.82003">
        <ele>51.5</ele>
        <time>2024-05-11T12:56:58Z</time>
      </trkpt>
      <trkpt lat="48.36635" lon="2.82">
        <ele>51.9</ele>
        <time>2024-05-11T12:57:06Z</time>
      </trkpt>
      <trkpt lat="48.36644" lon="2.82">
        <ele>52</ele>
        <time>2024-05-11T12:57:13Z</time>
      </trkpt>
      <trkpt lat="48.36648" lon="2.81995">
        <ele>52.4</ele>
        <time>2024-05-11T12:57:18Z</time>
      </trkpt>
      <trkpt lat="48.3665" lon="2.81994">
        <ele>52.4</ele>
        <time>2024-05-11T12:57:20Z</time>
      </trkpt>
      <trkpt lat="48.36661" lon="2.81989">
        <ele>52.8</ele>
        <time>2024-05-11T12:57:27Z</time>
      </trkpt>
      <trkpt lat="48.3667" lon="2.81987">
        <ele>53.2</ele>
        <time>2024-05-11T12:57:35Z</time>
      </trkpt>
      <trkpt lat="48.36677" lon="2.81987">
        <ele>53.5</ele>
        <time>2024-05-11T12:57:40Z</time>
      </trkpt>
      <trkpt lat="48.36683" lon="2.81983">
        <ele>54.2</ele>
        <time>2024-05-11T12:57:46Z</time>
      </trkpt>
      <trkpt lat="48.36689" lon="2.81981">
        <ele>54.7</ele>
        <time>2024-05-11T12:57:50Z</time>
      </trkpt>
      <trkpt lat="48.36694" lon="2.81982">
        <ele>54.9</ele>
        <time>2024-05-11T12:57:54Z</time>
      </trkpt>
      <trkpt lat="48.36704" lon="2.81978">
        <ele>55.5</ele>
        <time>2024-05-11T12:58:02Z</time>
      </trkpt>
      <trkpt lat="48.36708" lon="2.81978">
        <ele>55.5</ele>
        <time>2024-05-11T12:58:06Z</time>
      </trkpt>
      <trkpt lat="48.36717" lon="2.81974">
        <ele>55.9</ele>
        <time>2024-05-11T12:58:14Z</time>
      </trkpt>
      <trkpt lat="48.36718" lon="2.81974">
        <ele>55.9</ele>
        <time>2024-05-11T12:58:15Z</time>
      </trkpt>
      <trkpt lat="48.36723" lon="2.81972">
        <ele>56</ele>
        <time>2024-05-11T12:58:20Z</time>
      </trkpt>
      <trkpt lat="48.36729" lon="2.81972">
        <ele>56.3</ele>
        <time>2024-05-11T12:58:25Z</time>
      </trkpt>
      <trkpt lat="48.36735" lon="2.81968">
        <ele>56.8</ele>
        <time>2024-05-11T12:58:30Z</time>
      </trkpt>
      <trkpt lat="48.36745" lon="2.81967">
        <ele>57.2</ele>
        <time>2024-05-11T12:58:39Z</time>
      </trkpt>
      <trkpt lat="48.36752" lon="2.81964">
        <ele>57.6</ele>
        <time>2024-05-11T12:58:45Z</time>
      </trkpt>
      <trkpt lat="48.36756" lon="2.81963">
        <ele>57.6</ele>
        <time>2024-05-11T12:58:49Z</time>
      </trkpt>
      <trkpt lat="48.36761" lon="2.8196">
        <ele>57.7</ele>
        <time>2024-05-11T12:58:53Z</time>
      </trkpt>
      <trkpt lat="48.36766" lon="2.81958">
        <ele>57.7</ele>
        <time>2024-05-11T12:58:57Z</time>
      </trkpt>
      <trkpt lat="48.36778" lon="2.81955">
        <ele>57.6</ele>
        <time>2024-05-11T12:59:06Z</time>
      </trkpt>
      <trkpt lat="48.36787" lon="2.81953">
        <ele>57.9</ele>
        <time>2024-05-11T12:59:14Z</time>
      </trkpt>
      <trkpt lat="48.36792" lon="2.81952">
        <ele>58.1</ele>
        <time>2024-05-11T12:59:18Z</time>
      </trkpt>
      <trkpt lat="48.36803" lon="2.81949">
        <ele>58.6</ele>
        <time>2024-05-11T12:59:28Z</time>
      </trkpt>
      <trkpt lat="48.36806" lon="2.81949">
        <ele>58.7</ele>
        <time>2024-05-11T12:59:31Z</time>
      </trkpt>
      <trkpt lat="48.36815" lon="2.81948">
        <ele>59.1</ele>
        <time>2024-05-11T12:59:38Z</time>
      </trkpt>
      <trkpt lat="48.36826" lon="2.81945">
        <ele>59.7</ele>
        <time>2024-05-11T12:59:47Z</time>
      </trkpt>
      <trkpt lat="48.3683" lon="2.81942">
        <ele>60</ele>
        <time>2024-05-11T12:59:52Z</time>
      </trkpt>
      <trkpt lat="48.36842" lon="2.81937">
        <ele>59.8</ele>
        <time>2024-05-11T13:00:01Z</time>
      </trkpt>
      <trkpt lat="48.36848" lon="2.81932">
        <ele>59.6</ele>
        <time>2024-05-11T13:00:07Z</time>
      </trkpt>
      <trkpt lat="48.36859" lon="2.81925">
        <ele>59.5</ele>
        <time>2024-05-11T13:00:17Z</time>
      </trkpt>
      <trkpt lat="48.36862" lon="2.81923">
        <ele>59.6</ele>
        <time>2024-05-11T13:00:20Z</time>
      </trkpt>
      <trkpt lat="48.36869" lon="2.81917">
        <ele>59.6</ele>
        <time>2024-05-11T13:00:27Z</time>
      </trkpt>
      <trkpt lat="48.36876" lon="2.81912">
        <ele>59.6</ele>
        <time>2024-05-11T13:00:34Z</time>
      </trkpt>
      <trkpt lat="48.36883" lon="2.81906">
        <ele>59.6</ele>
        <time>2024-05-11T13:00:40Z</time>
      </trkpt>
      <trkpt lat="48.36891" lon="2.81901">
        <ele>59.5</ele>
        <time>2024-05-11T13:00:47Z</time>
      </trkpt>
      <trkpt lat="48.36898" lon="2.81895">
        <ele>59.6</ele>
        <time>2024-05-11T13:00:55Z</time>
      </trkpt>
      <trkpt lat="48.36906" lon="2.81888">
        <ele>60</ele>
        <time>2024-05-11T13:01:02Z</time>
      </trkpt>
      <trkpt lat="48.36912" lon="2.81883">
        <ele>60</ele>
        <time>2024-05-11T13:01:07Z</time>
      </trkpt>
      <trkpt lat="48.36918" lon="2.81879">
        <ele>59.9</ele>
        <time>2024-05-11T13:01:12Z</time>
      </trkpt>
      <trkpt lat="48.36923" lon="2.81873">
        <ele>59.6</ele>
        <time>2024-05-11T13:01:19Z</time>
      </trkpt>
      <trkpt lat="48.36931" lon="2.81863">
        <ele>59.4</ele>
        <time>2024-05-11T13:01:28Z</time>
      </trkpt>
      <trkpt lat="48.36937" lon="2.81856">
        <ele>59.5</ele>
        <time>2024-05-11T13:01:35Z</time>
      </trkpt>
      <trkpt lat="48.36942" lon="2.81849">
        <ele>59.6</ele>
        <time>2024-05-11T13:01:41Z</time>
      </trkpt>
      <trkpt lat="48.36945" lon="2.81843">
        <ele>59.6</ele>
        <time>2024-05-11T13:01:46Z</time>
      </trkpt>
      <trkpt lat="48.36948" lon="2.81839">
        <ele>59.5</ele>
        <time>2024-05-11T13:01:50Z</time>
      </trkpt>
      <trkpt lat="48.36957" lon="2.81829">
        <ele>59.3</ele>
        <time>2024-05-11T13:01:59Z</time>
      </trkpt>
      <trkpt lat="48.36962" lon="2.8182">
        <ele>59.3</ele>
        <time>2024-05-11T13:02:05Z</time>
      </trkpt>
      <trkpt lat="48.36963" lon="2.81819">
        <ele>59.4</ele>
        <time>2024-05-11T13:02:06Z</time>
      </trkpt>
      <trkpt lat="48.36967" lon="2.81809">
        <ele>59.8</ele>
        <time>2024-05-11T13:02:12Z</time>
      </trkpt>
      <trkpt lat="48.36971" lon="2.81805">
        <ele>60</ele>
        <time>2024-05-11T13:02:16Z</time>
      </trkpt>
      <trkpt lat="48.36974" lon="2.81801">
        <ele>59.7</ele>
        <time>2024-05-11T13:02:20Z</time>
      </trkpt>
      <trkpt lat="48.36981" lon="2.81791">
        <ele>59.3</ele>
        <time>2024-05-11T13:02:28Z</time>
      </trkpt>
      <trkpt lat="48.36983" lon="2.81789">
        <ele>59.3</ele>
        <time>2024-05-11T13:02:30Z</time>
      </trkpt>
      <trkpt lat="48.36987" lon="2.81787">
        <ele>59.3</ele>
        <time>2024-05-11T13:02:34Z</time>
      </trkpt>
      <trkpt lat="48.3699" lon="2.81784">
        <ele>59.4</ele>
        <time>2024-05-11T13:02:37Z</time>
      </trkpt>
      <trkpt lat="48.36997" lon="2.81776">
        <ele>60</ele>
        <time>2024-05-11T13:02:44Z</time>
      </trkpt>
      <trkpt lat="48.37" lon="2.81773">
        <ele>60.2</ele>
        <time>2024-05-11T13:02:47Z</time>
      </trkpt>
      <trkpt lat="48.37007" lon="2.81762">
        <ele>60.7</ele>
        <time>2024-05-11T13:02:54Z</time>
      </trkpt>
      <trkpt lat="48.37013" lon="2.81758">
        <ele>61.1</ele>
        <time>2024-05-11T13:02:58Z</time>
      </trkpt>
      <trkpt lat="48.3702" lon="2.81746">
        <ele>61.9</ele>
        <time>2024-05-11T13:03:06Z</time>
      </trkpt>
      <trkpt lat="48.3702" lon="2.81744">
        <ele>61.9</ele>
        <time>2024-05-11T13:03:07Z</time>
      </trkpt>
      <trkpt lat="48.37023" lon="2.81735">
        <ele>62.4</ele>
        <time>2024-05-11T13:03:13Z</time>
      </trkpt>
      <trkpt lat="48.37023" lon="2.81734">
        <ele>62.4</ele>
        <time>2024-05-11T13:03:14Z</time>
      </trkpt>
      <trkpt lat="48.37026" lon="2.8173">
        <ele>62.7</ele>
        <time>2024-05-11T13:03:21Z</time>
      </trkpt>
      <trkpt lat="48.37029" lon="2.81727">
        <ele>62.8</ele>
        <time>2024-05-11T13:03:24Z</time>
      </trkpt>
      <trkpt lat="48.37034" lon="2.81715">
        <ele>63.2</ele>
        <time>2024-05-11T13:03:31Z</time>
      </trkpt>
      <trkpt lat="48.37036" lon="2.81707">
        <ele>63.4</ele>
        <time>2024-05-11T13:03:35Z</time>
      </trkpt>
      <trkpt lat="48.37039" lon="2.81703">
        <ele>63.4</ele>
        <time>2024-05-11T13:03:39Z</time>
      </trkpt>
      <trkpt lat="48.37046" lon="2.8169">
        <ele>63.4</ele>
        <time>2024-05-11T13:03:48Z</time>
      </trkpt>
      <trkpt lat="48.37049" lon="2.81682">
        <ele>63.2</ele>
        <time>2024-05-11T13:03:55Z</time>
      </trkpt>
      <trkpt lat="48.37052" lon="2.81679">
        <ele>63.1</ele>
        <time>2024-05-11T13:04:04Z</time>
      </trkpt>
      <trkpt lat="48.37054" lon="2.8167">
        <ele>63.1</ele>
        <time>2024-05-11T13:04:09Z</time>
      </trkpt>
      <trkpt lat="48.37058" lon="2.81668">
        <ele>62.8</ele>
        <time>2024-05-11T13:04:16Z</time>
      </trkpt>
      <trkpt lat="48.37059" lon="2.81668">
        <ele>62.8</ele>
        <time>2024-05-11T13:04:18Z</time>
      </trkpt>
      <trkpt lat="48.3706" lon="2.81672">
        <ele>62.7</ele>
        <time>2024-05-11T13:04:24Z</time>
      </trkpt>
      <trkpt lat="48.37061" lon="2.81673">
        <ele>62.6</ele>
        <time>2024-05-11T13:04:25Z</time>
      </trkpt>
      <trkpt lat="48.37066" lon="2.81682">
        <ele>62.3</ele>
        <time>2024-05-11T13:04:32Z</time>
      </trkpt>
      <trkpt lat="48.37075" lon="2.81696">
        <ele>61.6</ele>
        <time>2024-05-11T13:04:40Z</time>
      </trkpt>
      <trkpt lat="48.37087" lon="2.81703">
        <ele>60.5</ele>
        <time>2024-05-11T13:04:47Z</time>
      </trkpt>
      <trkpt lat="48.37089" lon="2.81714">
        <ele>60</ele>
        <time>2024-05-11T13:04:54Z</time>
      </trkpt>
      <trkpt lat="48.37092" lon="2.81722">
        <ele>59.7</ele>
        <time>2024-05-11T13:05:01Z</time>
      </trkpt>
      <trkpt lat="48.37097" lon="2.81723">
        <ele>59.5</ele>
        <time>2024-05-11T13:05:05Z</time>
      </trkpt>
      <trkpt lat="48.37103" lon="2.81724">
        <ele>59.3</ele>
        <time>2024-05-11T13:05:12Z</time>
      </trkpt>
      <trkpt lat="48.37105" lon="2.81726">
        <ele>59.2</ele>
        <time>2024-05-11T13:05:16Z</time>
      </trkpt>
      <trkpt lat="48.37108" lon="2.81727">
        <ele>59.1</ele>
        <time>2024-05-11T13:05:18Z</time>
      </trkpt>
      <trkpt lat="48.37113" lon="2.81731">
        <ele>58.9</ele>
        <time>2024-05-11T13:05:25Z</time>
      </trkpt>
      <trkpt lat="48.37116" lon="2.81734">
        <ele>58.8</ele>
        <time>2024-05-11T13:05:29Z</time>
      </trkpt>
      <trkpt lat="48.37122" lon="2.81735">
        <ele>58.4</ele>
        <time>2024-05-11T13:05:36Z</time>
      </trkpt>
      <trkpt lat="48.37127" lon="2.81736">
        <ele>58.1</ele>
        <time>2024-05-11T13:05:44Z</time>
      </trkpt>
      <trkpt lat="48.37133" lon="2.81738">
        <ele>57.8</ele>
        <time>2024-05-11T13:05:49Z</time>
      </trkpt>
      <trkpt lat="48.37136" lon="2.81739">
        <ele>57.6</ele>
        <time>2024-05-11T13:05:55Z</time>
      </trkpt>
      <trkpt lat="48.37143" lon="2.81738">
        <ele>57.3</ele>
        <time>2024-05-11T13:06:02Z</time>
      </trkpt>
      <trkpt lat="48.37143" lon="2.81739">
        <ele>57.2</ele>
        <time>2024-05-11T13:06:03Z</time>
      </trkpt>
      <trkpt lat="48.37149" lon="2.81744">
        <ele>56.8</ele>
        <time>2024-05-11T13:06:10Z</time>
      </trkpt>
      <trkpt lat="48.37154" lon="2.81744">
        <ele>56.7</ele>
        <time>2024-05-11T13:06:15Z</time>
      </trkpt>
      <trkpt lat="48.37162" lon="2.81764">
        <ele>56.2</ele>
        <time>2024-05-11T13:06:22Z</time>
      </trkpt>
      <trkpt lat="48.37164" lon="2.81762">
        <ele>56.1</ele>
        <time>2024-05-11T13:06:27Z</time>
      </trkpt>
      <trkpt lat="48.37169" lon="2.81763">
        <ele>55.9</ele>
        <time>2024-05-11T13:06:30Z</time>
      </trkpt>
      <trkpt lat="48.37172" lon="2.81765">
        <ele>55.8</ele>
        <time>2024-05-11T13:06:32Z</time>
      </trkpt>
      <trkpt lat="48.3718" lon="2.81764">
        <ele>55.5</ele>
        <time>2024-05-11T13:06:38Z</time>
      </trkpt>
      <trkpt lat="48.37181" lon="2.81765">
        <ele>55.5</ele>
        <time>2024-05-11T13:06:43Z</time>
      </trkpt>
      <trkpt lat="48.37189" lon="2.81768">
        <ele>55.2</ele>
        <time>2024-05-11T13:06:53Z</time>
      </trkpt>
      <trkpt lat="48.37194" lon="2.81777">
        <ele>55</ele>
        <time>2024-05-11T13:07:01Z</time>
      </trkpt>
      <trkpt lat="48.37199" lon="2.81779">
        <ele>54.8</ele>
        <time>2024-05-11T13:07:07Z</time>
      </trkpt>
      <trkpt lat="48.37205" lon="2.81781">
        <ele>54.6</ele>
        <time>2024-05-11T13:07:12Z</time>
      </trkpt>
      <trkpt lat="48.37208" lon="2.8178">
        <ele>54.5</ele>
        <time>2024-05-11T13:07:15Z</time>
      </trkpt>
      <trkpt lat="48.37216" lon="2.81779">
        <ele>54.2</ele>
        <time>2024-05-11T13:07:22Z</time>
      </trkpt>
      <trkpt lat="48.37219" lon="2.81778">
        <ele>54.1</ele>
        <time>2024-05-11T13:07:28Z</time>
      </trkpt>
      <trkpt lat="48.37221" lon="2.81778">
        <ele>54</ele>
        <time>2024-05-11T13:07:35Z</time>
      </trkpt>
      <trkpt lat="48.37218" lon="2.81778">
        <ele>54.2</ele>
        <time>2024-05-11T13:07:43Z</time>
      </trkpt>
      <trkpt lat="48.37216" lon="2.81779">
        <ele>54.2</ele>
        <time>2024-05-11T13:07:51Z</time>
      </trkpt>
      <trkpt lat="48.37213" lon="2.81777">
        <ele>54.3</ele>
        <time>2024-05-11T13:08:00Z</time>
      </trkpt>
      <trkpt lat="48.37212" lon="2.81778">
        <ele>54.4</ele>
        <time>2024-05-11T13:08:01Z</time>
      </trkpt>
      <trkpt lat="48.37202" lon="2.8178">
        <ele>54.7</ele>
        <time>2024-05-11T13:08:15Z</time>
      </trkpt>
      <trkpt lat="48.37204" lon="2.81776">
        <ele>54.7</ele>
        <time>2024-05-11T13:08:25Z</time>
      </trkpt>
      <trkpt lat="48.37205" lon="2.81775">
        <ele>54.7</ele>
        <time>2024-05-11T13:08:36Z</time>
      </trkpt>
      <trkpt lat="48.37204" lon="2.81778">
        <ele>54.7</ele>
        <time>2024-05-11T13:08:46Z</time>
      </trkpt>
      <trkpt lat="48.37223" lon="2.81786">
        <ele>54</ele>
        <time>2024-05-11T13:08:57Z</time>
      </trkpt>
      <trkpt lat="48.3723" lon="2.81781">
        <ele>53.7</ele>
        <time>2024-05-11T13:09:08Z</time>
      </trkpt>
      <trkpt lat="48.37232" lon="2.81781">
        <ele>53.6</ele>
        <time>2024-05-11T13:09:21Z</time>
      </trkpt>
      <trkpt lat="48.37233" lon="2.81782">
        <ele>53.5</ele>
        <time>2024-05-11T13:09:32Z</time>
      </trkpt>
      <trkpt lat="48.37234" lon="2.81782">
        <ele>53.5</ele>
        <time>2024-05-11T13:09:42Z</time>
      </trkpt>
      <trkpt lat="48.37235" lon="2.81781">
        <ele>53.5</ele>
        <time>2024-05-11T13:09:59Z</time>
      </trkpt>
      <trkpt lat="48.37237" lon="2.81782">
        <ele>53.4</ele>
        <time>2024-05-11T13:10:08Z</time>
      </trkpt>
      <trkpt lat="48.37238" lon="2.81784">
        <ele>53.3</ele>
        <time>2024-05-11T13:10:20Z</time>
      </trkpt>
      <trkpt lat="48.3724" lon="2.81784">
        <ele>53.2</ele>
        <time>2024-05-11T13:10:32Z</time>
      </trkpt>
      <trkpt lat="48.37239" lon="2.81786">
        <ele>53.2</ele>
        <time>2024-05-11T13:10:43Z</time>
      </trkpt>
      <trkpt lat="48.37238" lon="2.81787">
        <ele>53.2</ele>
        <time>2024-05-11T13:10:51Z</time>
      </trkpt>
      <trkpt lat="48.3724" lon="2.81787">
        <ele>53.2</ele>
        <time>2024-05-11T13:11:02Z</time>
      </trkpt>
      <trkpt lat="48.3724" lon="2.81787">
        <ele>53.2</ele>
        <time>2024-05-11T13:11:14Z</time>
      </trkpt>
      <trkpt lat="48.37237" lon="2.81788">
        <ele>53.3</ele>
        <time>2024-05-11T13:11:26Z</time>
      </trkpt>
      <trkpt lat="48.3724" lon="2.81787">
        <ele>53.1</ele>
        <time>2024-05-11T13:11:36Z</time>
      </trkpt>
      <trkpt lat="48.37243" lon="2.81787">
        <ele>53</ele>
        <time>2024-05-11T13:11:47Z</time>
      </trkpt>
      <trkpt lat="48.37246" lon="2.81788">
        <ele>52.9</ele>
        <time>2024-05-11T13:12:02Z</time>
      </trkpt>
      <trkpt lat="48.37245" lon="2.81789">
        <ele>52.8</ele>
        <time>2024-05-11T13:12:15Z</time>
      </trkpt>
      <trkpt lat="48.37244" lon="2.8179">
        <ele>52.9</ele>
        <time>2024-05-11T13:12:26Z</time>
      </trkpt>
      <trkpt lat="48.37243" lon="2.81791">
        <ele>52.9</ele>
        <time>2024-05-11T13:12:42Z</time>
      </trkpt>
      <trkpt lat="48.37243" lon="2.81792">
        <ele>52.9</ele>
        <time>2024-05-11T13:12:54Z</time>
      </trkpt>
      <trkpt lat="48.37243" lon="2.81792">
        <ele>52.9</ele>
        <time>2024-05-11T13:13:00Z</time>
      </trkpt>
      <trkpt lat="48.37245" lon="2.81793">
        <ele>52.7</ele>
        <time>2024-05-11T13:13:10Z</time>
      </trkpt>
      <trkpt lat="48.37246" lon="2.81792">
        <ele>52.7</ele>
        <time>2024-05-11T13:13:18Z</time>
      </trkpt>
      <trkpt lat="48.37248" lon="2.81792">
        <ele>52.6</ele>
        <time>2024-05-11T13:13:28Z</time>
      </trkpt>
      <trkpt lat="48.3725" lon="2.81791">
        <ele>52.5</ele>
        <time>2024-05-11T13:13:43Z</time>
      </trkpt>
      <trkpt lat="48.37251" lon="2.81791">
        <ele>52.5</ele>
        <time>2024-05-11T13:13:56Z</time>
      </trkpt>
      <trkpt lat="48.37252" lon="2.8179">
        <ele>52.5</ele>
        <time>2024-05-11T13:14:05Z</time>
      </trkpt>
      <trkpt lat="48.37253" lon="2.81791">
        <ele>52.4</ele>
        <time>2024-05-11T13:14:16Z</time>
      </trkpt>
      <trkpt lat="48.37256" lon="2.8179">
        <ele>52.3</ele>
        <time>2024-05-11T13:14:28Z</time>
      </trkpt>
      <trkpt lat="48.37262" lon="2.81785">
        <ele>52.3</ele>
        <time>2024-05-11T13:14:40Z</time>
      </trkpt>
      <trkpt lat="48.3726" lon="2.81786">
        <ele>52.3</ele>
        <time>2024-05-11T13:14:48Z</time>
      </trkpt>
      <trkpt lat="48.37259" lon="2.81787">
        <ele>52.4</ele>
        <time>2024-05-11T13:14:57Z</time>
      </trkpt>
      <trkpt lat="48.37258" lon="2.81787">
        <ele>52.4</ele>
        <time>2024-05-11T13:14:58Z</time>
      </trkpt>
      <trkpt lat="48.37257" lon="2.81789">
        <ele>52.4</ele>
        <time>2024-05-11T13:15:04Z</time>
      </trkpt>
      <trkpt lat="48.37257" lon="2.81788">
        <ele>52.4</ele>
        <time>2024-05-11T13:15:16Z</time>
      </trkpt>
      <trkpt lat="48.37254" lon="2.8179">
        <ele>52.4</ele>
        <time>2024-05-11T13:15:23Z</time>
      </trkpt>
      <trkpt lat="48.37252" lon="2.81792">
        <ele>52.4</ele>
        <time>2024-05-11T13:15:29Z</time>
      </trkpt>
      <trkpt lat="48.37249" lon="2.81793">
        <ele>52.5</ele>
        <time>2024-05-11T13:15:38Z</time>
      </trkpt>
      <trkpt lat="48.3725" lon="2.81792">
        <ele>52.5</ele>
        <time>2024-05-11T13:15:51Z</time>
      </trkpt>
      <trkpt lat="48.37249" lon="2.81793">
        <ele>52.5</ele>
        <time>2024-05-11T13:15:59Z</time>
      </trkpt>
      <trkpt lat="48.37248" lon="2.81794">
        <ele>52.5</ele>
        <time>2024-05-11T13:16:06Z</time>
      </trkpt>
      <trkpt lat="48.37248" lon="2.81793">
        <ele>52.5</ele>
        <time>2024-05-11T13:16:16Z</time>
      </trkpt>
      <trkpt lat="48.37248" lon="2.81793">
        <ele>52.5</ele>
        <time>2024-05-11T13:16:30Z</time>
      </trkpt>
      <trkpt lat="48.37249" lon="2.81793">
        <ele>52.5</ele>
        <time>2024-05-11T13:16:40Z</time>
      </trkpt>
      <trkpt lat="48.37249" lon="2.81792">
        <ele>52.5</ele>
        <time>2024-05-11T13:16:52Z</time>
      </trkpt>
      <trkpt lat="48.37249" lon="2.81792">
        <ele>52.5</ele>
        <time>2024-05-11T13:17:01Z</time>
      </trkpt>
      <trkpt lat="48.3725" lon="2.81792">
        <ele>52.5</ele>
        <time>2024-05-11T13:17:13Z</time>
      </trkpt>
      <trkpt lat="48.37251" lon="2.81794">
        <ele>52.4</ele>
        <time>2024-05-11T13:17:23Z</time>
      </trkpt>
      <trkpt lat="48.3725" lon="2.81794">
        <ele>52.4</ele>
        <time>2024-05-11T13:17:34Z</time>
      </trkpt>
      <trkpt lat="48.37251" lon="2.81793">
        <ele>52.4</ele>
        <time>2024-05-11T13:17:46Z</time>
      </trkpt>
      <trkpt lat="48.37252" lon="2.81792">
        <ele>52.4</ele>
        <time>2024-05-11T13:17:56Z</time>
      </trkpt>
      <trkpt lat="48.37253" lon="2.81792">
        <ele>52.4</ele>
        <time>2024-05-11T13:18:03Z</time>
      </trkpt>
      <trkpt lat="48.37253" lon="2.81792">
        <ele>52.4</ele>
        <time>2024-05-11T13:18:13Z</time>
      </trkpt>
      <trkpt lat="48.37253" lon="2.81792">
        <ele>52.4</ele>
        <time>2024-05-11T13:18:18Z</time>
      </trkpt>
      <trkpt lat="48.37253" lon="2.81792">
        <ele>52.4</ele>
        <time>2024-05-11T13:18:29Z</time>
      </trkpt>
      <trkpt lat="48.37254" lon="2.81792">
        <ele>52.4</ele>
        <time>2024-05-11T13:18:36Z</time>
      </trkpt>
      <trkpt lat="48.37254" lon="2.81792">
        <ele>52.3</ele>
        <time>2024-05-11T13:18:45Z</time>
      </trkpt>
      <trkpt lat="48.37255" lon="2.81793">
        <ele>52.3</ele>
        <time>2024-05-11T13:18:55Z</time>
      </trkpt>
      <trkpt lat="48.37254" lon="2.81793">
        <ele>52.3</ele>
        <time>2024-05-11T13:19:07Z</time>
      </trkpt>
      <trkpt lat="48.37254" lon="2.81793">
        <ele>52.3</ele>
        <time>2024-05-11T13:19:17Z</time>
      </trkpt>
      <trkpt lat="48.37254" lon="2.81793">
        <ele>52.3</ele>
        <time>2024-05-11T13:19:23Z</time>
      </trkpt>
      <trkpt lat="48.37255" lon="2.81792">
        <ele>52.3</ele>
        <time>2024-05-11T13:19:29Z</time>
      </trkpt>
      <trkpt lat="48.37254" lon="2.81791">
        <ele>52.4</ele>
        <time>2024-05-11T13:19:42Z</time>
      </trkpt>
      <trkpt lat="48.37254" lon="2.81792">
        <ele>52.4</ele>
        <time>2024-05-11T13:19:53Z</time>
      </trkpt>
      <trkpt lat="48.37253" lon="2.81792">
        <ele>52.4</ele>
        <time>2024-05-11T13:20:05Z</time>
      </trkpt>
      <trkpt lat="48.37252" lon="2.81792">
        <ele>52.4</ele>
        <time>2024-05-11T13:20:12Z</time>
      </trkpt>
      <trkpt lat="48.37251" lon="2.81792">
        <ele>52.5</ele>
        <time>2024-05-11T13:20:25Z</time>
      </trkpt>
      <trkpt lat="48.37251" lon="2.81792">
        <ele>52.5</ele>
        <time>2024-05-11T13:20:36Z</time>
      </trkpt>
      <trkpt lat="48.37253" lon="2.81793">
        <ele>52.4</ele>
        <time>2024-05-11T13:20:55Z</time>
      </trkpt>
      <trkpt lat="48.37253" lon="2.81792">
        <ele>52.4</ele>
        <time>2024-05-11T13:21:05Z</time>
      </trkpt>
      <trkpt lat="48.37253" lon="2.81793">
        <ele>52.4</ele>
        <time>2024-05-11T13:21:15Z</time>
      </trkpt>
      <trkpt lat="48.37253" lon="2.81793">
        <ele>52.4</ele>
        <time>2024-05-11T13:21:26Z</time>
      </trkpt>
      <trkpt lat="48.37253" lon="2.81792">
        <ele>52.4</ele>
        <time>2024-05-11T13:21:37Z</time>
      </trkpt>
      <trkpt lat="48.37253" lon="2.81792">
        <ele>52.4</ele>
        <time>2024-05-11T13:21:49Z</time>
      </trkpt>
      <trkpt lat="48.37252" lon="2.81793">
        <ele>52.4</ele>
        <time>2024-05-11T13:22:02Z</time>
      </trkpt>
      <trkpt lat="48.37252" lon="2.81794">
        <ele>52.4</ele>
        <time>2024-05-11T13:22:14Z</time>
      </trkpt>
      <trkpt lat="48.37252" lon="2.81794">
        <ele>52.4</ele>
        <time>2024-05-11T13:22:23Z</time>
      </trkpt>
      <trkpt lat="48.37253" lon="2.81793">
        <ele>52.3</ele>
        <time>2024-05-11T13:22:32Z</time>
      </trkpt>
      <trkpt lat="48.37254" lon="2.81795">
        <ele>52.3</ele>
        <time>2024-05-11T13:22:39Z</time>
      </trkpt>
      <trkpt lat="48.37257" lon="2.81796">
        <ele>52.1</ele>
        <time>2024-05-11T13:22:46Z</time>
      </trkpt>
      <trkpt lat="48.37263" lon="2.81797">
        <ele>51.8</ele>
        <time>2024-05-11T13:23:00Z</time>
      </trkpt>
      <trkpt lat="48.37264" lon="2.81798">
        <ele>51.8</ele>
        <time>2024-05-11T13:23:10Z</time>
      </trkpt>
      <trkpt lat="48.37264" lon="2.81798">
        <ele>51.8</ele>
        <time>2024-05-11T13:23:22Z</time>
      </trkpt>
      <trkpt lat="48.3726" lon="2.81807">
        <ele>51.6</ele>
        <time>2024-05-11T13:23:29Z</time>
      </trkpt>
      <trkpt lat="48.37261" lon="2.81812">
        <ele>51.5</ele>
        <time>2024-05-11T13:23:36Z</time>
      </trkpt>
      <trkpt lat="48.37263" lon="2.81813">
        <ele>51.4</ele>
        <time>2024-05-11T13:23:46Z</time>
      </trkpt>
      <trkpt lat="48.37265" lon="2.81814">
        <ele>51.3</ele>
        <time>2024-05-11T13:23:59Z</time>
      </trkpt>
      <trkpt lat="48.37263" lon="2.81813">
        <ele>51.4</ele>
        <time>2024-05-11T13:24:07Z</time>
      </trkpt>
      <trkpt lat="48.37263" lon="2.81808">
        <ele>51.5</ele>
        <time>2024-05-11T13:24:16Z</time>
      </trkpt>
      <trkpt lat="48.37262" lon="2.81807">
        <ele>51.5</ele>
        <time>2024-05-11T13:24:28Z</time>
      </trkpt>
      <trkpt lat="48.37262" lon="2.81807">
        <ele>51.5</ele>
        <time>2024-05-11T13:24:31Z</time>
      </trkpt>
      <trkpt lat="48.37263" lon="2.81813">
        <ele>51.4</ele>
        <time>2024-05-11T13:24:38Z</time>
      </trkpt>
      <trkpt lat="48.37263" lon="2.81814">
        <ele>51.4</ele>
        <time>2024-05-11T13:24:39Z</time>
      </trkpt>
      <trkpt lat="48.37268" lon="2.8182">
        <ele>51.2</ele>
        <time>2024-05-11T13:24:46Z</time>
      </trkpt>
      <trkpt lat="48.37267" lon="2.81821">
        <ele>51.2</ele>
        <time>2024-05-11T13:24:47Z</time>
      </trkpt>
      <trkpt lat="48.3727" lon="2.81825">
        <ele>51.1</ele>
        <time>2024-05-11T13:24:54Z</time>
      </trkpt>
      <trkpt lat="48.3727" lon="2.81829">
        <ele>51</ele>
        <time>2024-05-11T13:24:59Z</time>
      </trkpt>
      <trkpt lat="48.37271" lon="2.81834">
        <ele>51</ele>
        <time>2024-05-11T13:25:05Z</time>
      </trkpt>
      <trkpt lat="48.3727" lon="2.81835">
        <ele>50.9</ele>
        <time>2024-05-11T13:25:12Z</time>
      </trkpt>
      <trkpt lat="48.37269" lon="2.81837">
        <ele>50.7</ele>
        <time>2024-05-11T13:25:15Z</time>
      </trkpt>
      <trkpt lat="48.37269" lon="2.81843">
        <ele>50.3</ele>
        <time>2024-05-11T13:25:21Z</time>
      </trkpt>
      <trkpt lat="48.37279" lon="2.81849">
        <ele>49.8</ele>
        <time>2024-05-11T13:25:29Z</time>
      </trkpt>
      <trkpt lat="48.37283" lon="2.81853">
        <ele>49.5</ele>
        <time>2024-05-11T13:25:32Z</time>
      </trkpt>
      <trkpt lat="48.37287" lon="2.81861">
        <ele>49</ele>
        <time>2024-05-11T13:25:39Z</time>
      </trkpt>
      <trkpt lat="48.37286" lon="2.81865">
        <ele>48.5</ele>
        <time>2024-05-11T13:25:42Z</time>
      </trkpt>
      <trkpt lat="48.37285" lon="2.81867">
        <ele>48.3</ele>
        <time>2024-05-11T13:25:45Z</time>
      </trkpt>
      <trkpt lat="48.37284" lon="2.81873">
        <ele>47.5</ele>
        <time>2024-05-11T13:25:53Z</time>
      </trkpt>
      <trkpt lat="48.37281" lon="2.8188">
        <ele>46.5</ele>
        <time>2024-05-11T13:25:58Z</time>
      </trkpt>
      <trkpt lat="48.37281" lon="2.81882">
        <ele>46.2</ele>
        <time>2024-05-11T13:25:59Z</time>
      </trkpt>
      <trkpt lat="48.37278" lon="2.8189">
        <ele>45.1</ele>
        <time>2024-05-11T13:26:05Z</time>
      </trkpt>
      <trkpt lat="48.37277" lon="2.81892">
        <ele>45.1</ele>
        <time>2024-05-11T13:26:08Z</time>
      </trkpt>
      <trkpt lat="48.37282" lon="2.81902">
        <ele>45.7</ele>
        <time>2024-05-11T13:26:17Z</time>
      </trkpt>
      <trkpt lat="48.37291" lon="2.81905">
        <ele>46</ele>
        <time>2024-05-11T13:26:25Z</time>
      </trkpt>
      <trkpt lat="48.37292" lon="2.81911">
        <ele>46</ele>
        <time>2024-05-11T13:26:32Z</time>
      </trkpt>
      <trkpt lat="48.37301" lon="2.81921">
        <ele>45.9</ele>
        <time>2024-05-11T13:26:39Z</time>
      </trkpt>
      <trkpt lat="48.37305" lon="2.81923">
        <ele>45.8</ele>
        <time>2024-05-11T13:26:43Z</time>
      </trkpt>
      <trkpt lat="48.37307" lon="2.81921">
        <ele>45.9</ele>
        <time>2024-05-11T13:26:49Z</time>
      </trkpt>
      <trkpt lat="48.37308" lon="2.81921">
        <ele>45.8</ele>
        <time>2024-05-11T13:27:00Z</time>
      </trkpt>
      <trkpt lat="48.37308" lon="2.81921">
        <ele>45.8</ele>
        <time>2024-05-11T13:27:07Z</time>
      </trkpt>
      <trkpt lat="48.37308" lon="2.81921">
        <ele>45.8</ele>
        <time>2024-05-11T13:27:20Z</time>
      </trkpt>
      <trkpt lat="48.37308" lon="2.81922">
        <ele>45.8</ele>
        <time>2024-05-11T13:27:35Z</time>
      </trkpt>
      <trkpt lat="48.37308" lon="2.81922">
        <ele>45.8</ele>
        <time>2024-05-11T13:27:49Z</time>
      </trkpt>
      <trkpt lat="48.37307" lon="2.81922">
        <ele>45.8</ele>
        <time>2024-05-11T13:28:07Z</time>
      </trkpt>
      <trkpt lat="48.37308" lon="2.81922">
        <ele>45.8</ele>
        <time>2024-05-11T13:28:18Z</time>
      </trkpt>
      <trkpt lat="48.37308" lon="2.81923">
        <ele>45.8</ele>
        <time>2024-05-11T13:28:28Z</time>
      </trkpt>
      <trkpt lat="48.37309" lon="2.81923">
        <ele>45.8</ele>
        <time>2024-05-11T13:28:44Z</time>
      </trkpt>
      <trkpt lat="48.37309" lon="2.81924">
        <ele>45.7</ele>
        <time>2024-05-11T13:29:01Z</time>
      </trkpt>
      <trkpt lat="48.37309" lon="2.81924">
        <ele>45.7</ele>
        <time>2024-05-11T13:29:14Z</time>
      </trkpt>
      <trkpt lat="48.37308" lon="2.81924">
        <ele>45.7</ele>
        <time>2024-05-11T13:29:23Z</time>
      </trkpt>
      <trkpt lat="48.37308" lon="2.81924">
        <ele>45.7</ele>
        <time>2024-05-11T13:29:33Z</time>
      </trkpt>
      <trkpt lat="48.37308" lon="2.81925">
        <ele>45.7</ele>
        <time>2024-05-11T13:29:39Z</time>
      </trkpt>
      <trkpt lat="48.37308" lon="2.81925">
        <ele>45.7</ele>
        <time>2024-05-11T13:29:44Z</time>
      </trkpt>
      <trkpt lat="48.37308" lon="2.81924">
        <ele>45.7</ele>
        <time>2024-05-11T13:29:54Z</time>
      </trkpt>
      <trkpt lat="48.37308" lon="2.81925">
        <ele>45.7</ele>
        <time>2024-05-11T13:30:09Z</time>
      </trkpt>
      <trkpt lat="48.37307" lon="2.81924">
        <ele>45.7</ele>
        <time>2024-05-11T13:30:24Z</time>
      </trkpt>
      <trkpt lat="48.37307" lon="2.81924">
        <ele>45.7</ele>
        <time>2024-05-11T13:30:39Z</time>
      </trkpt>
      <trkpt lat="48.37308" lon="2.81924">
        <ele>45.7</ele>
        <time>2024-05-11T13:30:53Z</time>
      </trkpt>
      <trkpt lat="48.37308" lon="2.81923">
        <ele>45.8</ele>
        <time>2024-05-11T13:31:11Z</time>
      </trkpt>
      <trkpt lat="48.37308" lon="2.81924">
        <ele>45.7</ele>
        <time>2024-05-11T13:31:27Z</time>
      </trkpt>
      <trkpt lat="48.37307" lon="2.81924">
        <ele>45.7</ele>
        <time>2024-05-11T13:31:44Z</time>
      </trkpt>
      <trkpt lat="48.37307" lon="2.81924">
        <ele>45.7</ele>
        <time>2024-05-11T13:32:01Z</time>
      </trkpt>
      <trkpt lat="48.37308" lon="2.81924">
        <ele>45.7</ele>
        <time>2024-05-11T13:32:15Z</time>
      </trkpt>
      <trkpt lat="48.37307" lon="2.81924">
        <ele>45.7</ele>
        <time>2024-05-11T13:32:30Z</time>
      </trkpt>
      <trkpt lat="48.37308" lon="2.81924">
        <ele>45.7</ele>
        <time>2024-05-11T13:32:47Z</time>
      </trkpt>
      <trkpt lat="48.37308" lon="2.81924">
        <ele>45.7</ele>
        <time>2024-05-11T13:33:03Z</time>
      </trkpt>
      <trkpt lat="48.37308" lon="2.81924">
        <ele>45.7</ele>
        <time>2024-05-11T13:33:17Z</time>
      </trkpt>
      <trkpt lat="48.37309" lon="2.81924">
        <ele>45.7</ele>
        <time>2024-05-11T13:33:34Z</time>
      </trkpt>
      <trkpt lat="48.37309" lon="2.81925">
        <ele>45.7</ele>
        <time>2024-05-11T13:33:48Z</time>
      </trkpt>
      <trkpt lat="48.37309" lon="2.81925">
        <ele>45.7</ele>
        <time>2024-05-11T13:34:05Z</time>
      </trkpt>
      <trkpt lat="48.37309" lon="2.81925">
        <ele>45.7</ele>
        <time>2024-05-11T13:34:21Z</time>
      </trkpt>
      <trkpt lat="48.37309" lon="2.81925">
        <ele>45.7</ele>
        <time>2024-05-11T13:34:33Z</time>
      </trkpt>
      <trkpt lat="48.3731" lon="2.81925">
        <ele>45.7</ele>
        <time>2024-05-11T13:34:47Z</time>
      </trkpt>
      <trkpt lat="48.3731" lon="2.81925">
        <ele>45.7</ele>
        <time>2024-05-11T13:35:04Z</time>
      </trkpt>
      <trkpt lat="48.3731" lon="2.81924">
        <ele>45.7</ele>
        <time>2024-05-11T13:35:20Z</time>
      </trkpt>
      <trkpt lat="48.37311" lon="2.81925">
        <ele>45.7</ele>
        <time>2024-05-11T13:35:38Z</time>
      </trkpt>
      <trkpt lat="48.37311" lon="2.81925">
        <ele>45.7</ele>
        <time>2024-05-11T13:35:54Z</time>
      </trkpt>
      <trkpt lat="48.3731" lon="2.81925">
        <ele>45.7</ele>
        <time>2024-05-11T13:36:07Z</time>
      </trkpt>
      <trkpt lat="48.3731" lon="2.81925">
        <ele>45.7</ele>
        <time>2024-05-11T13:36:25Z</time>
      </trkpt>
      <trkpt lat="48.37309" lon="2.81924">
        <ele>45.7</ele>
        <time>2024-05-11T13:36:40Z</time>
      </trkpt>
      <trkpt lat="48.37309" lon="2.81923">
        <ele>45.8</ele>
        <time>2024-05-11T13:37:00Z</time>
      </trkpt>
      <trkpt lat="48.37309" lon="2.81923">
        <ele>45.8</ele>
        <time>2024-05-11T13:37:16Z</time>
      </trkpt>
      <trkpt lat="48.37309" lon="2.81923">
        <ele>45.8</ele>
        <time>2024-05-11T13:37:32Z</time>
      </trkpt>
      <trkpt lat="48.3731" lon="2.81923">
        <ele>45.8</ele>
        <time>2024-05-11T13:37:50Z</time>
      </trkpt>
      <trkpt lat="48.3731" lon="2.81922">
        <ele>45.8</ele>
        <time>2024-05-11T13:38:07Z</time>
      </trkpt>
      <trkpt lat="48.3731" lon="2.81923">
        <ele>45.8</ele>
        <time>2024-05-11T13:38:23Z</time>
      </trkpt>
      <trkpt lat="48.3731" lon="2.81923">
        <ele>45.8</ele>
        <time>2024-05-11T13:38:36Z</time>
      </trkpt>
      <trkpt lat="48.37309" lon="2.81924">
        <ele>45.7</ele>
        <time>2024-05-11T13:38:54Z</time>
      </trkpt>
      <trkpt lat="48.37309" lon="2.81924">
        <ele>45.7</ele>
        <time>2024-05-11T13:39:07Z</time>
      </trkpt>
      <trkpt lat="48.37309" lon="2.81925">
        <ele>45.7</ele>
        <time>2024-05-11T13:39:25Z</time>
      </trkpt>
      <trkpt lat="48.37309" lon="2.81926">
        <ele>45.7</ele>
        <time>2024-05-11T13:39:33Z</time>
      </trkpt>
      <trkpt lat="48.37309" lon="2.81927">
        <ele>45.6</ele>
        <time>2024-05-11T13:39:40Z</time>
      </trkpt>
      <trkpt lat="48.37308" lon="2.81927">
        <ele>45.6</ele>
        <time>2024-05-11T13:39:50Z</time>
      </trkpt>
      <trkpt lat="48.37308" lon="2.81927">
        <ele>45.6</ele>
        <time>2024-05-11T13:39:58Z</time>
      </trkpt>
      <trkpt lat="48.37308" lon="2.81927">
        <ele>45.6</ele>
        <time>2024-05-11T13:40:06Z</time>
      </trkpt>
      <trkpt lat="48.37309" lon="2.81926">
        <ele>45.7</ele>
        <time>2024-05-11T13:40:23Z</time>
      </trkpt>
      <trkpt lat="48.3731" lon="2.81926">
        <ele>45.6</ele>
        <time>2024-05-11T13:40:26Z</time>
      </trkpt>
      <trkpt lat="48.37316" lon="2.81928">
        <ele>45.6</ele>
        <time>2024-05-11T13:40:35Z</time>
      </trkpt>
      <trkpt lat="48.37316" lon="2.81926">
        <ele>45.7</ele>
        <time>2024-05-11T13:40:36Z</time>
      </trkpt>
      <trkpt lat="48.37314" lon="2.81926">
        <ele>45.7</ele>
        <time>2024-05-11T13:40:38Z</time>
      </trkpt>
      <trkpt lat="48.37312" lon="2.81922">
        <ele>45.8</ele>
        <time>2024-05-11T13:40:42Z</time>
      </trkpt>
      <trkpt lat="48.37311" lon="2.81921">
        <ele>45.8</ele>
        <time>2024-05-11T13:40:44Z</time>
      </trkpt>
      <trkpt lat="48.37308" lon="2.81918">
        <ele>46</ele>
        <time>2024-05-11T13:40:52Z</time>
      </trkpt>
      <trkpt lat="48.37307" lon="2.8192">
        <ele>45.9</ele>
        <time>2024-05-11T13:40:58Z</time>
      </trkpt>
      <trkpt lat="48.37307" lon="2.81919">
        <ele>45.9</ele>
        <time>2024-05-11T13:41:13Z</time>
      </trkpt>
      <trkpt lat="48.37307" lon="2.81919">
        <ele>45.9</ele>
        <time>2024-05-11T13:41:26Z</time>
      </trkpt>
      <trkpt lat="48.37307" lon="2.8192">
        <ele>45.9</ele>
        <time>2024-05-11T13:41:34Z</time>
      </trkpt>
      <trkpt lat="48.37306" lon="2.81919">
        <ele>45.9</ele>
        <time>2024-05-11T13:41:50Z</time>
      </trkpt>
      <trkpt lat="48.37306" lon="2.8192">
        <ele>45.9</ele>
        <time>2024-05-11T13:41:58Z</time>
      </trkpt>
      <trkpt lat="48.37306" lon="2.81919">
        <ele>45.9</ele>
        <time>2024-05-11T13:42:14Z</time>
      </trkpt>
      <trkpt lat="48.37306" lon="2.81919">
        <ele>45.9</ele>
        <time>2024-05-11T13:42:25Z</time>
      </trkpt>
      <trkpt lat="48.37306" lon="2.81919">
        <ele>45.9</ele>
        <time>2024-05-11T13:42:41Z</time>
      </trkpt>
      <trkpt lat="48.37306" lon="2.81919">
        <ele>45.9</ele>
        <time>2024-05-11T13:42:58Z</time>
      </trkpt>
      <trkpt lat="48.37306" lon="2.81919">
        <ele>45.9</ele>
        <time>2024-05-11T13:43:10Z</time>
      </trkpt>
      <trkpt lat="48.37306" lon="2.81919">
        <ele>45.9</ele>
        <time>2024-05-11T13:43:26Z</time>
      </trkpt>
      <trkpt lat="48.37306" lon="2.81919">
        <ele>45.9</ele>
        <time>2024-05-11T13:43:41Z</time>
      </trkpt>
      <trkpt lat="48.37306" lon="2.81919">
        <ele>45.9</ele>
        <time>2024-05-11T13:43:54Z</time>
      </trkpt>
      <trkpt lat="48.37306" lon="2.8192">
        <ele>45.9</ele>
        <time>2024-05-11T13:44:08Z</time>
      </trkpt>
      <trkpt lat="48.37306" lon="2.81919">
        <ele>45.9</ele>
        <time>2024-05-11T13:44:26Z</time>
      </trkpt>
      <trkpt lat="48.37306" lon="2.81919">
        <ele>45.9</ele>
        <time>2024-05-11T13:44:42Z</time>
      </trkpt>
      <trkpt lat="48.37306" lon="2.81919">
        <ele>45.9</ele>
        <time>2024-05-11T13:45:01Z</time>
      </trkpt>
      <trkpt lat="48.37306" lon="2.81919">
        <ele>45.9</ele>
        <time>2024-05-11T13:45:16Z</time>
      </trkpt>
      <trkpt lat="48.37306" lon="2.8192">
        <ele>45.9</ele>
        <time>2024-05-11T13:45:34Z</time>
      </trkpt>
      <trkpt lat="48.37306" lon="2.81919">
        <ele>45.9</ele>
        <time>2024-05-11T13:45:49Z</time>
      </trkpt>
      <trkpt lat="48.37306" lon="2.81919">
        <ele>45.9</ele>
        <time>2024-05-11T13:46:03Z</time>
      </trkpt>
      <trkpt lat="48.37306" lon="2.81918">
        <ele>45.9</ele>
        <time>2024-05-11T13:46:17Z</time>
      </trkpt>
      <trkpt lat="48.37306" lon="2.81918">
        <ele>45.9</ele>
        <time>2024-05-11T13:46:24Z</time>
      </trkpt>
      <trkpt lat="48.37306" lon="2.81918">
        <ele>45.9</ele>
        <time>2024-05-11T13:46:37Z</time>
      </trkpt>
      <trkpt lat="48.37306" lon="2.81918">
        <ele>45.9</ele>
        <time>2024-05-11T13:46:49Z</time>
      </trkpt>
      <trkpt lat="48.37306" lon="2.81919">
        <ele>45.9</ele>
        <time>2024-05-11T13:47:03Z</time>
      </trkpt>
      <trkpt lat="48.37306" lon="2.81918">
        <ele>46</ele>
        <time>2024-05-11T13:47:20Z</time>
      </trkpt>
      <trkpt lat="48.37307" lon="2.81918">
        <ele>46</ele>
        <time>2024-05-11T13:47:35Z</time>
      </trkpt>
      <trkpt lat="48.37307" lon="2.81917">
        <ele>46</ele>
        <time>2024-05-11T13:47:52Z</time>
      </trkpt>
      <trkpt lat="48.37307" lon="2.81916">
        <ele>46</ele>
        <time>2024-05-11T13:48:03Z</time>
      </trkpt>
      <trkpt lat="48.37308" lon="2.81917">
        <ele>46</ele>
        <time>2024-05-11T13:48:14Z</time>
      </trkpt>
      <trkpt lat="48.37308" lon="2.81917">
        <ele>46</ele>
        <time>2024-05-11T13:48:27Z</time>
      </trkpt>
      <trkpt lat="48.37308" lon="2.81917">
        <ele>46</ele>
        <time>2024-05-11T13:48:38Z</time>
      </trkpt>
      <trkpt lat="48.37308" lon="2.81917">
        <ele>46</ele>
        <time>2024-05-11T13:48:58Z</time>
      </trkpt>
      <trkpt lat="48.37308" lon="2.81917">
        <ele>46</ele>
        <time>2024-05-11T13:49:15Z</time>
      </trkpt>
      <trkpt lat="48.37307" lon="2.81917">
        <ele>46</ele>
        <time>2024-05-11T13:49:30Z</time>
      </trkpt>
      <trkpt lat="48.37308" lon="2.81917">
        <ele>46</ele>
        <time>2024-05-11T13:49:49Z</time>
      </trkpt>
      <trkpt lat="48.37308" lon="2.81917">
        <ele>46</ele>
        <time>2024-05-11T13:50:07Z</time>
      </trkpt>
      <trkpt lat="48.37308" lon="2.81916">
        <ele>46</ele>
        <time>2024-05-11T13:50:22Z</time>
      </trkpt>
      <trkpt lat="48.37308" lon="2.81916">
        <ele>46</ele>
        <time>2024-05-11T13:50:39Z</time>
      </trkpt>
      <trkpt lat="48.37308" lon="2.81917">
        <ele>46</ele>
        <time>2024-05-11T13:50:55Z</time>
      </trkpt>
      <trkpt lat="48.37308" lon="2.81917">
        <ele>46</ele>
        <time>2024-05-11T13:51:12Z</time>
      </trkpt>
      <trkpt lat="48.37309" lon="2.81917">
        <ele>46</ele>
        <time>2024-05-11T13:51:29Z</time>
      </trkpt>
      <trkpt lat="48.37308" lon="2.81918">
        <ele>46</ele>
        <time>2024-05-11T13:51:43Z</time>
      </trkpt>
      <trkpt lat="48.37308" lon="2.81918">
        <ele>46</ele>
        <time>2024-05-11T13:51:53Z</time>
      </trkpt>
      <trkpt lat="48.37308" lon="2.81918">
        <ele>46</ele>
        <time>2024-05-11T13:52:07Z</time>
      </trkpt>
      <trkpt lat="48.37307" lon="2.81919">
        <ele>45.9</ele>
        <time>2024-05-11T13:52:16Z</time>
      </trkpt>
      <trkpt lat="48.37306" lon="2.8192">
        <ele>45.9</ele>
        <time>2024-05-11T13:52:26Z</time>
      </trkpt>
      <trkpt lat="48.37306" lon="2.8192">
        <ele>45.9</ele>
        <time>2024-05-11T13:52:34Z</time>
      </trkpt>
      <trkpt lat="48.37305" lon="2.8192">
        <ele>45.9</ele>
        <time>2024-05-11T13:52:40Z</time>
      </trkpt>
      <trkpt lat="48.37305" lon="2.8192">
        <ele>45.9</ele>
        <time>2024-05-11T13:52:48Z</time>
      </trkpt>
      <trkpt lat="48.37305" lon="2.81917">
        <ele>46</ele>
        <time>2024-05-11T13:52:54Z</time>
      </trkpt>
      <trkpt lat="48.37306" lon="2.81914">
        <ele>46.1</ele>
        <time>2024-05-11T13:52:58Z</time>
      </trkpt>
      <trkpt lat="48.37308" lon="2.81912">
        <ele>46.2</ele>
        <time>2024-05-11T13:53:04Z</time>
      </trkpt>
      <trkpt lat="48.37312" lon="2.81913">
        <ele>46.1</ele>
        <time>2024-05-11T13:53:07Z</time>
      </trkpt>
      <trkpt lat="48.37318" lon="2.81911">
        <ele>46.2</ele>
        <time>2024-05-11T13:53:13Z</time>
      </trkpt>
      <trkpt lat="48.37326" lon="2.8191">
        <ele>46.3</ele>
        <time>2024-05-11T13:53:20Z</time>
      </trkpt>
      <trkpt lat="48.37335" lon="2.81906">
        <ele>46.3</ele>
        <time>2024-05-11T13:53:29Z</time>
      </trkpt>
      <trkpt lat="48.37337" lon="2.81905">
        <ele>46.3</ele>
        <time>2024-05-11T13:53:31Z</time>
      </trkpt>
      <trkpt lat="48.37346" lon="2.81905">
        <ele>46.2</ele>
        <time>2024-05-11T13:53:38Z</time>
      </trkpt>
      <trkpt lat="48.37352" lon="2.81903">
        <ele>46.1</ele>
        <time>2024-05-11T13:53:45Z</time>
      </trkpt>
      <trkpt lat="48.37358" lon="2.81902">
        <ele>46.1</ele>
        <time>2024-05-11T13:53:52Z</time>
      </trkpt>
      <trkpt lat="48.37361" lon="2.81901">
        <ele>46.2</ele>
        <time>2024-05-11T13:53:56Z</time>
      </trkpt>
      <trkpt lat="48.37367" lon="2.819">
        <ele>46.1</ele>
        <time>2024-05-11T13:54:02Z</time>
      </trkpt>
      <trkpt lat="48.3737" lon="2.81901">
        <ele>46</ele>
        <time>2024-05-11T13:54:05Z</time>
      </trkpt>
      <trkpt lat="48.37375" lon="2.81901">
        <ele>45.9</ele>
        <time>2024-05-11T13:54:13Z</time>
      </trkpt>
      <trkpt lat="48.37374" lon="2.81899">
        <ele>46</ele>
        <time>2024-05-11T13:54:22Z</time>
      </trkpt>
      <trkpt lat="48.37373" lon="2.81899">
        <ele>46</ele>
        <time>2024-05-11T13:54:31Z</time>
      </trkpt>
      <trkpt lat="48.37374" lon="2.81898">
        <ele>46.1</ele>
        <time>2024-05-11T13:54:42Z</time>
      </trkpt>
      <trkpt lat="48.37373" lon="2.81897">
        <ele>46.1</ele>
        <time>2024-05-11T13:54:50Z</time>
      </trkpt>
      <trkpt lat="48.37377" lon="2.81896">
        <ele>46</ele>
        <time>2024-05-11T13:54:56Z</time>
      </trkpt>
      <trkpt lat="48.37383" lon="2.81895">
        <ele>45.9</ele>
        <time>2024-05-11T13:55:01Z</time>
      </trkpt>
      <trkpt lat="48.37386" lon="2.81895">
        <ele>45.9</ele>
        <time>2024-05-11T13:55:04Z</time>
      </trkpt>
      <trkpt lat="48.37395" lon="2.81891">
        <ele>45.9</ele>
        <time>2024-05-11T13:55:14Z</time>
      </trkpt>
      <trkpt lat="48.37404" lon="2.81888">
        <ele>46.1</ele>
        <time>2024-05-11T13:55:22Z</time>
      </trkpt>
      <trkpt lat="48.37407" lon="2.81887">
        <ele>46.2</ele>
        <time>2024-05-11T13:55:25Z</time>
      </trkpt>
      <trkpt lat="48.37411" lon="2.81887">
        <ele>46.2</ele>
        <time>2024-05-11T13:55:29Z</time>
      </trkpt>
      <trkpt lat="48.37417" lon="2.81882">
        <ele>46.7</ele>
        <time>2024-05-11T13:55:36Z</time>
      </trkpt>
      <trkpt lat="48.37421" lon="2.81883">
        <ele>46.6</ele>
        <time>2024-05-11T13:55:41Z</time>
      </trkpt>
      <trkpt lat="48.37424" lon="2.81884">
        <ele>46.4</ele>
        <time>2024-05-11T13:55:44Z</time>
      </trkpt>
      <trkpt lat="48.37429" lon="2.81885">
        <ele>46.3</ele>
        <time>2024-05-11T13:55:48Z</time>
      </trkpt>
      <trkpt lat="48.37436" lon="2.81886">
        <ele>46.2</ele>
        <time>2024-05-11T13:55:53Z</time>
      </trkpt>
      <trkpt lat="48.37443" lon="2.81886">
        <ele>46.1</ele>
        <time>2024-05-11T13:55:59Z</time>
      </trkpt>
      <trkpt lat="48.37448" lon="2.8188">
        <ele>46.2</ele>
        <time>2024-05-11T13:56:06Z</time>
      </trkpt>
      <trkpt lat="48.37449" lon="2.81878">
        <ele>46.3</ele>
        <time>2024-05-11T13:56:12Z</time>
      </trkpt>
      <trkpt lat="48.37454" lon="2.81878">
        <ele>46.2</ele>
        <time>2024-05-11T13:56:19Z</time>
      </trkpt>
      <trkpt lat="48.37457" lon="2.81878">
        <ele>46.1</ele>
        <time>2024-05-11T13:56:22Z</time>
      </trkpt>
      <trkpt lat="48.37461" lon="2.81878">
        <ele>46</ele>
        <time>2024-05-11T13:56:25Z</time>
      </trkpt>
      <trkpt lat="48.37468" lon="2.81879">
        <ele>45.8</ele>
        <time>2024-05-11T13:56:31Z</time>
      </trkpt>
      <trkpt lat="48.37474" lon="2.81881">
        <ele>45.6</ele>
        <time>2024-05-11T13:56:36Z</time>
      </trkpt>
      <trkpt lat="48.37482" lon="2.81881">
        <ele>45.5</ele>
        <time>2024-05-11T13:56:42Z</time>
      </trkpt>
      <trkpt lat="48.37491" lon="2.81877">
        <ele>45.6</ele>
        <time>2024-05-11T13:56:50Z</time>
      </trkpt>
      <trkpt lat="48.37492" lon="2.81876">
        <ele>45.6</ele>
        <time>2024-05-11T13:56:51Z</time>
      </trkpt>
      <trkpt lat="48.37495" lon="2.81875">
        <ele>45.6</ele>
        <time>2024-05-11T13:56:54Z</time>
      </trkpt>
      <trkpt lat="48.37506" lon="2.81873">
        <ele>45.7</ele>
        <time>2024-05-11T13:57:02Z</time>
      </trkpt>
      <trkpt lat="48.37514" lon="2.81876">
        <ele>45.7</ele>
        <time>2024-05-11T13:57:09Z</time>
      </trkpt>
      <trkpt lat="48.37521" lon="2.81875">
        <ele>45.9</ele>
        <time>2024-05-11T13:57:16Z</time>
      </trkpt>
      <trkpt lat="48.37531" lon="2.81876">
        <ele>46</ele>
        <time>2024-05-11T13:57:24Z</time>
      </trkpt>
      <trkpt lat="48.37535" lon="2.81875">
        <ele>46</ele>
        <time>2024-05-11T13:57:31Z</time>
      </trkpt>
      <trkpt lat="48.3754" lon="2.81875">
        <ele>46</ele>
        <time>2024-05-11T13:57:37Z</time>
      </trkpt>
      <trkpt lat="48.37548" lon="2.81874">
        <ele>46.1</ele>
        <time>2024-05-11T13:57:43Z</time>
      </trkpt>
      <trkpt lat="48.37556" lon="2.81873">
        <ele>46.1</ele>
        <time>2024-05-11T13:57:49Z</time>
      </trkpt>
      <trkpt lat="48.37558" lon="2.81873">
        <ele>46.1</ele>
        <time>2024-05-11T13:57:51Z</time>
      </trkpt>
      <trkpt lat="48.3757" lon="2.81875">
        <ele>46</ele>
        <time>2024-05-11T13:57:59Z</time>
      </trkpt>
      <trkpt lat="48.37577" lon="2.81875">
        <ele>46</ele>
        <time>2024-05-11T13:58:04Z</time>
      </trkpt>
      <trkpt lat="48.3758" lon="2.81874">
        <ele>46.1</ele>
        <time>2024-05-11T13:58:07Z</time>
      </trkpt>
      <trkpt lat="48.37589" lon="2.81874">
        <ele>46</ele>
        <time>2024-05-11T13:58:14Z</time>
      </trkpt>
      <trkpt lat="48.3759" lon="2.81875">
        <ele>45.9</ele>
        <time>2024-05-11T13:58:17Z</time>
      </trkpt>
      <trkpt lat="48.37601" lon="2.81875">
        <ele>45.7</ele>
        <time>2024-05-11T13:58:26Z</time>
      </trkpt>
      <trkpt lat="48.37605" lon="2.81877">
        <ele>45.5</ele>
        <time>2024-05-11T13:58:30Z</time>
      </trkpt>
      <trkpt lat="48.37608" lon="2.81877">
        <ele>45.5</ele>
        <time>2024-05-11T13:58:33Z</time>
      </trkpt>
      <trkpt lat="48.37615" lon="2.81877">
        <ele>45.4</ele>
        <time>2024-05-11T13:58:38Z</time>
      </trkpt>
      <trkpt lat="48.37618" lon="2.81875">
        <ele>45.4</ele>
        <time>2024-05-11T13:58:41Z</time>
      </trkpt>
      <trkpt lat="48.37623" lon="2.81875">
        <ele>45.3</ele>
        <time>2024-05-11T13:58:44Z</time>
      </trkpt>
      <trkpt lat="48.37633" lon="2.81873">
        <ele>45.1</ele>
        <time>2024-05-11T13:58:51Z</time>
      </trkpt>
      <trkpt lat="48.37639" lon="2.81871">
        <ele>45</ele>
        <time>2024-05-11T13:58:56Z</time>
      </trkpt>
      <trkpt lat="48.37647" lon="2.81867">
        <ele>45</ele>
        <time>2024-05-11T13:59:03Z</time>
      </trkpt>
      <trkpt lat="48.37648" lon="2.81867">
        <ele>45</ele>
        <time>2024-05-11T13:59:04Z</time>
      </trkpt>
      <trkpt lat="48.37656" lon="2.81866">
        <ele>45</ele>
        <time>2024-05-11T13:59:11Z</time>
      </trkpt>
      <trkpt lat="48.37658" lon="2.81864">
        <ele>45</ele>
        <time>2024-05-11T13:59:13Z</time>
      </trkpt>
      <trkpt lat="48.3766" lon="2.81863">
        <ele>45</ele>
        <time>2024-05-11T13:59:15Z</time>
      </trkpt>
      <trkpt lat="48.37663" lon="2.81863">
        <ele>45</ele>
        <time>2024-05-11T13:59:19Z</time>
      </trkpt>
      <trkpt lat="48.37669" lon="2.81863">
        <ele>45</ele>
        <time>2024-05-11T13:59:25Z</time>
      </trkpt>
      <trkpt lat="48.37675" lon="2.81859">
        <ele>45.1</ele>
        <time>2024-05-11T13:59:31Z</time>
      </trkpt>
      <trkpt lat="48.37676" lon="2.81859">
        <ele>45.1</ele>
        <time>2024-05-11T13:59:32Z</time>
      </trkpt>
      <trkpt lat="48.37685" lon="2.81855">
        <ele>45.2</ele>
        <time>2024-05-11T13:59:39Z</time>
      </trkpt>
      <trkpt lat="48.37692" lon="2.8185">
        <ele>45.4</ele>
        <time>2024-05-11T13:59:45Z</time>
      </trkpt>
      <trkpt lat="48.37699" lon="2.81849">
        <ele>45.4</ele>
        <time>2024-05-11T13:59:51Z</time>
      </trkpt>
      <trkpt lat="48.37708" lon="2.81841">
        <ele>45.4</ele>
        <time>2024-05-11T13:59:58Z</time>
      </trkpt>
      <trkpt lat="48.37717" lon="2.81839">
        <ele>45.1</ele>
        <time>2024-05-11T14:00:05Z</time>
      </trkpt>
      <trkpt lat="48.37723" lon="2.81834">
        <ele>45</ele>
        <time>2024-05-11T14:00:11Z</time>
      </trkpt>
      <trkpt lat="48.37732" lon="2.81826">
        <ele>45.3</ele>
        <time>2024-05-11T14:00:18Z</time>
      </trkpt>
      <trkpt lat="48.37743" lon="2.81819">
        <ele>45.5</ele>
        <time>2024-05-11T14:00:27Z</time>
      </trkpt>
      <trkpt lat="48.3775" lon="2.81812">
        <ele>45.8</ele>
        <time>2024-05-11T14:00:34Z</time>
      </trkpt>
      <trkpt lat="48.37758" lon="2.81807">
        <ele>45.7</ele>
        <time>2024-05-11T14:00:41Z</time>
      </trkpt>
      <trkpt lat="48.3776" lon="2.81805">
        <ele>45.7</ele>
        <time>2024-05-11T14:00:43Z</time>
      </trkpt>
      <trkpt lat="48.37768" lon="2.81797">
        <ele>45.6</ele>
        <time>2024-05-11T14:00:51Z</time>
      </trkpt>
      <trkpt lat="48.37775" lon="2.8179">
        <ele>45.6</ele>
        <time>2024-05-11T14:00:58Z</time>
      </trkpt>
      <trkpt lat="48.37783" lon="2.8178">
        <ele>45.8</ele>
        <time>2024-05-11T14:01:06Z</time>
      </trkpt>
      <trkpt lat="48.37792" lon="2.81768">
        <ele>45.8</ele>
        <time>2024-05-11T14:01:15Z</time>
      </trkpt>
      <trkpt lat="48.37794" lon="2.81765">
        <ele>45.9</ele>
        <time>2024-05-11T14:01:18Z</time>
      </trkpt>
      <trkpt lat="48.37801" lon="2.81757">
        <ele>45.9</ele>
        <time>2024-05-11T14:01:26Z</time>
      </trkpt>
      <trkpt lat="48.37807" lon="2.81748">
        <ele>46.1</ele>
        <time>2024-05-11T14:01:33Z</time>
      </trkpt>
      <trkpt lat="48.37814" lon="2.81738">
        <ele>46.3</ele>
        <time>2024-05-11T14:01:42Z</time>
      </trkpt>
      <trkpt lat="48.37821" lon="2.81729">
        <ele>46.3</ele>
        <time>2024-05-11T14:01:50Z</time>
      </trkpt>
      <trkpt lat="48.37822" lon="2.81727">
        <ele>46.3</ele>
        <time>2024-05-11T14:01:51Z</time>
      </trkpt>
      <trkpt lat="48.37826" lon="2.81716">
        <ele>46.3</ele>
        <time>2024-05-11T14:01:58Z</time>
      </trkpt>
      <trkpt lat="48.37832" lon="2.81707">
        <ele>46.1</ele>
        <time>2024-05-11T14:02:05Z</time>
      </trkpt>
      <trkpt lat="48.37839" lon="2.81695">
        <ele>46</ele>
        <time>2024-05-11T14:02:14Z</time>
      </trkpt>
      <trkpt lat="48.3784" lon="2.81692">
        <ele>46.1</ele>
        <time>2024-05-11T14:02:16Z</time>
      </trkpt>
      <trkpt lat="48.37846" lon="2.8168">
        <ele>46.3</ele>
        <time>2024-05-11T14:02:25Z</time>
      </trkpt>
      <trkpt lat="48.3785" lon="2.81673">
        <ele>46.3</ele>
        <time>2024-05-11T14:02:32Z</time>
      </trkpt>
      <trkpt lat="48.37853" lon="2.81671">
        <ele>46.2</ele>
        <time>2024-05-11T14:02:36Z</time>
      </trkpt>
      <trkpt lat="48.37854" lon="2.81665">
        <ele>46.3</ele>
        <time>2024-05-11T14:02:40Z</time>
      </trkpt>
      <trkpt lat="48.37856" lon="2.81663">
        <ele>46.3</ele>
        <time>2024-05-11T14:02:42Z</time>
      </trkpt>
      <trkpt lat="48.37859" lon="2.81657">
        <ele>46.4</ele>
        <time>2024-05-11T14:02:47Z</time>
      </trkpt>
      <trkpt lat="48.37861" lon="2.81655">
        <ele>46.4</ele>
        <time>2024-05-11T14:02:49Z</time>
      </trkpt>
      <trkpt lat="48.37865" lon="2.81646">
        <ele>46.7</ele>
        <time>2024-05-11T14:02:55Z</time>
      </trkpt>
      <trkpt lat="48.37871" lon="2.81636">
        <ele>46.6</ele>
        <time>2024-05-11T14:03:03Z</time>
      </trkpt>
      <trkpt lat="48.37872" lon="2.81633">
        <ele>46.6</ele>
        <time>2024-05-11T14:03:05Z</time>
      </trkpt>
      <trkpt lat="48.37874" lon="2.81629">
        <ele>46.5</ele>
        <time>2024-05-11T14:03:08Z</time>
      </trkpt>
      <trkpt lat="48.37876" lon="2.81622">
        <ele>46.5</ele>
        <time>2024-05-11T14:03:13Z</time>
      </trkpt>
      <trkpt lat="48.3788" lon="2.81613">
        <ele>46.3</ele>
        <time>2024-05-11T14:03:19Z</time>
      </trkpt>
      <trkpt lat="48.37885" lon="2.81601">
        <ele>46.5</ele>
        <time>2024-05-11T14:03:26Z</time>
      </trkpt>
      <trkpt lat="48.37885" lon="2.81598">
        <ele>46.5</ele>
        <time>2024-05-11T14:03:28Z</time>
      </trkpt>
      <trkpt lat="48.37892" lon="2.81587">
        <ele>46.6</ele>
        <time>2024-05-11T14:03:37Z</time>
      </trkpt>
      <trkpt lat="48.37898" lon="2.81569">
        <ele>46.4</ele>
        <time>2024-05-11T14:03:45Z</time>
      </trkpt>
      <trkpt lat="48.37902" lon="2.81562">
        <ele>46.1</ele>
        <time>2024-05-11T14:03:51Z</time>
      </trkpt>
      <trkpt lat="48.37905" lon="2.81552">
        <ele>45.9</ele>
        <time>2024-05-11T14:03:58Z</time>
      </trkpt>
      <trkpt lat="48.37907" lon="2.8155">
        <ele>45.8</ele>
        <time>2024-05-11T14:04:00Z</time>
      </trkpt>
      <trkpt lat="48.37909" lon="2.81544">
        <ele>45.9</ele>
        <time>2024-05-11T14:04:03Z</time>
      </trkpt>
      <trkpt lat="48.3791" lon="2.81538">
        <ele>45.9</ele>
        <time>2024-05-11T14:04:06Z</time>
      </trkpt>
      <trkpt lat="48.37916" lon="2.81527">
        <ele>46</ele>
        <time>2024-05-11T14:04:13Z</time>
      </trkpt>
      <trkpt lat="48.37916" lon="2.81525">
        <ele>46.1</ele>
        <time>2024-05-11T14:04:14Z</time>
      </trkpt>
      <trkpt lat="48.37919" lon="2.81518">
        <ele>46.3</ele>
        <time>2024-05-11T14:04:18Z</time>
      </trkpt>
      <trkpt lat="48.37922" lon="2.81504">
        <ele>46.5</ele>
        <time>2024-05-11T14:04:24Z</time>
      </trkpt>
      <trkpt lat="48.37931" lon="2.81486">
        <ele>46.2</ele>
        <time>2024-05-11T14:04:32Z</time>
      </trkpt>
      <trkpt lat="48.37932" lon="2.81482">
        <ele>46.3</ele>
        <time>2024-05-11T14:04:34Z</time>
      </trkpt>
      <trkpt lat="48.37935" lon="2.81475">
        <ele>46.3</ele>
        <time>2024-05-11T14:04:38Z</time>
      </trkpt>
      <trkpt lat="48.37937" lon="2.81468">
        <ele>46.4</ele>
        <time>2024-05-11T14:04:42Z</time>
      </trkpt>
      <trkpt lat="48.37943" lon="2.81455">
        <ele>46.6</ele>
        <time>2024-05-11T14:04:50Z</time>
      </trkpt>
      <trkpt lat="48.37947" lon="2.81448">
        <ele>46.7</ele>
        <time>2024-05-11T14:04:55Z</time>
      </trkpt>
      <trkpt lat="48.37948" lon="2.8144">
        <ele>46.6</ele>
        <time>2024-05-11T14:04:59Z</time>
      </trkpt>
      <trkpt lat="48.37953" lon="2.81431">
        <ele>46.2</ele>
        <time>2024-05-11T14:05:04Z</time>
      </trkpt>
      <trkpt lat="48.37956" lon="2.81416">
        <ele>46</ele>
        <time>2024-05-11T14:05:12Z</time>
      </trkpt>
      <trkpt lat="48.37958" lon="2.8141">
        <ele>46</ele>
        <time>2024-05-11T14:05:15Z</time>
      </trkpt>
      <trkpt lat="48.37961" lon="2.81399">
        <ele>46</ele>
        <time>2024-05-11T14:05:22Z</time>
      </trkpt>
      <trkpt lat="48.37962" lon="2.81398">
        <ele>46</ele>
        <time>2024-05-11T14:05:23Z</time>
      </trkpt>
      <trkpt lat="48.37966" lon="2.81388">
        <ele>46</ele>
        <time>2024-05-11T14:05:30Z</time>
      </trkpt>
      <trkpt lat="48.37971" lon="2.8138">
        <ele>46.3</ele>
        <time>2024-05-11T14:05:37Z</time>
      </trkpt>
      <trkpt lat="48.37976" lon="2.81372">
        <ele>46.4</ele>
        <time>2024-05-11T14:05:44Z</time>
      </trkpt>
      <trkpt lat="48.37979" lon="2.81365">
        <ele>46.4</ele>
        <time>2024-05-11T14:05:50Z</time>
      </trkpt>
      <trkpt lat="48.37983" lon="2.81356">
        <ele>46.1</ele>
        <time>2024-05-11T14:05:56Z</time>
      </trkpt>
      <trkpt lat="48.37985" lon="2.81348">
        <ele>45.8</ele>
        <time>2024-05-11T14:06:01Z</time>
      </trkpt>
      <trkpt lat="48.37987" lon="2.81344">
        <ele>45.7</ele>
        <time>2024-05-11T14:06:03Z</time>
      </trkpt>
      <trkpt lat="48.37992" lon="2.81329">
        <ele>45.5</ele>
        <time>2024-05-11T14:06:12Z</time>
      </trkpt>
      <trkpt lat="48.37998" lon="2.81317">
        <ele>46.1</ele>
        <time>2024-05-11T14:06:19Z</time>
      </trkpt>
      <trkpt lat="48.38002" lon="2.81308">
        <ele>46.7</ele>
        <time>2024-05-11T14:06:25Z</time>
      </trkpt>
      <trkpt lat="48.38007" lon="2.81292">
        <ele>46.5</ele>
        <time>2024-05-11T14:06:34Z</time>
      </trkpt>
      <trkpt lat="48.3801" lon="2.81286">
        <ele>46.3</ele>
        <time>2024-05-11T14:06:38Z</time>
      </trkpt>
      <trkpt lat="48.38014" lon="2.81276">
        <ele>46</ele>
        <time>2024-05-11T14:06:44Z</time>
      </trkpt>
      <trkpt lat="48.38016" lon="2.81265">
        <ele>45.6</ele>
        <time>2024-05-11T14:06:50Z</time>
      </trkpt>
      <trkpt lat="48.38019" lon="2.8126">
        <ele>45.4</ele>
        <time>2024-05-11T14:06:53Z</time>
      </trkpt>
      <trkpt lat="48.38023" lon="2.81251">
        <ele>45.2</ele>
        <time>2024-05-11T14:06:59Z</time>
      </trkpt>
      <trkpt lat="48.38027" lon="2.81243">
        <ele>45.3</ele>
        <time>2024-05-11T14:07:05Z</time>
      </trkpt>
      <trkpt lat="48.38032" lon="2.81232">
        <ele>45.5</ele>
        <time>2024-05-11T14:07:12Z</time>
      </trkpt>
      <trkpt lat="48.38033" lon="2.81231">
        <ele>45.6</ele>
        <time>2024-05-11T14:07:13Z</time>
      </trkpt>
      <trkpt lat="48.38037" lon="2.81216">
        <ele>45.8</ele>
        <time>2024-05-11T14:07:21Z</time>
      </trkpt>
      <trkpt lat="48.3804" lon="2.81203">
        <ele>46</ele>
        <time>2024-05-11T14:07:28Z</time>
      </trkpt>
      <trkpt lat="48.3804" lon="2.81202">
        <ele>46</ele>
        <time>2024-05-11T14:07:29Z</time>
      </trkpt>
      <trkpt lat="48.38042" lon="2.81196">
        <ele>45.9</ele>
        <time>2024-05-11T14:07:32Z</time>
      </trkpt>
      <trkpt lat="48.3805" lon="2.81184">
        <ele>46</ele>
        <time>2024-05-11T14:07:39Z</time>
      </trkpt>
      <trkpt lat="48.38052" lon="2.81178">
        <ele>46.3</ele>
        <time>2024-05-11T14:07:47Z</time>
      </trkpt>
      <trkpt lat="48.38058" lon="2.81169">
        <ele>46.7</ele>
        <time>2024-05-11T14:07:55Z</time>
      </trkpt>
      <trkpt lat="48.38062" lon="2.81157">
        <ele>46.5</ele>
        <time>2024-05-11T14:08:03Z</time>
      </trkpt>
      <trkpt lat="48.38067" lon="2.81144">
        <ele>46.2</ele>
        <time>2024-05-11T14:08:12Z</time>
      </trkpt>
      <trkpt lat="48.38071" lon="2.81136">
        <ele>45.9</ele>
        <time>2024-05-11T14:08:18Z</time>
      </trkpt>
      <trkpt lat="48.38076" lon="2.81128">
        <ele>45.7</ele>
        <time>2024-05-11T14:08:24Z</time>
      </trkpt>
      <trkpt lat="48.3808" lon="2.81114">
        <ele>45.9</ele>
        <time>2024-05-11T14:08:33Z</time>
      </trkpt>
      <trkpt lat="48.38087" lon="2.81102">
        <ele>46.2</ele>
        <time>2024-05-11T14:08:40Z</time>
      </trkpt>
      <trkpt lat="48.38093" lon="2.81088">
        <ele>46.2</ele>
        <time>2024-05-11T14:08:48Z</time>
      </trkpt>
      <trkpt lat="48.38098" lon="2.81079">
        <ele>45.9</ele>
        <time>2024-05-11T14:08:54Z</time>
      </trkpt>
      <trkpt lat="48.38101" lon="2.81074">
        <ele>45.8</ele>
        <time>2024-05-11T14:08:58Z</time>
      </trkpt>
      <trkpt lat="48.38105" lon="2.81064">
        <ele>45.8</ele>
        <time>2024-05-11T14:09:04Z</time>
      </trkpt>
      <trkpt lat="48.38111" lon="2.81051">
        <ele>46.2</ele>
        <time>2024-05-11T14:09:12Z</time>
      </trkpt>
      <trkpt lat="48.38117" lon="2.8104">
        <ele>46.3</ele>
        <time>2024-05-11T14:09:20Z</time>
      </trkpt>
      <trkpt lat="48.3812" lon="2.81034">
        <ele>46.3</ele>
        <time>2024-05-11T14:09:24Z</time>
      </trkpt>
      <trkpt lat="48.38121" lon="2.81031">
        <ele>46.2</ele>
        <time>2024-05-11T14:09:26Z</time>
      </trkpt>
      <trkpt lat="48.38128" lon="2.81019">
        <ele>46</ele>
        <time>2024-05-11T14:09:34Z</time>
      </trkpt>
      <trkpt lat="48.38133" lon="2.81008">
        <ele>46</ele>
        <time>2024-05-11T14:09:41Z</time>
      </trkpt>
      <trkpt lat="48.38134" lon="2.81006">
        <ele>46</ele>
        <time>2024-05-11T14:09:43Z</time>
      </trkpt>
      <trkpt lat="48.38136" lon="2.81001">
        <ele>46.1</ele>
        <time>2024-05-11T14:09:46Z</time>
      </trkpt>
      <trkpt lat="48.38139" lon="2.80998">
        <ele>46.1</ele>
        <time>2024-05-11T14:09:49Z</time>
      </trkpt>
      <trkpt lat="48.38146" lon="2.80987">
        <ele>46.2</ele>
        <time>2024-05-11T14:09:57Z</time>
      </trkpt>
      <trkpt lat="48.38153" lon="2.80976">
        <ele>46</ele>
        <time>2024-05-11T14:10:05Z</time>
      </trkpt>
      <trkpt lat="48.38155" lon="2.80973">
        <ele>45.8</ele>
        <time>2024-05-11T14:10:09Z</time>
      </trkpt>
      <trkpt lat="48.38161" lon="2.80964">
        <ele>45.9</ele>
        <time>2024-05-11T14:10:16Z</time>
      </trkpt>
      <trkpt lat="48.38164" lon="2.80957">
        <ele>46.1</ele>
        <time>2024-05-11T14:10:21Z</time>
      </trkpt>
      <trkpt lat="48.38173" lon="2.80947">
        <ele>46.4</ele>
        <time>2024-05-11T14:10:31Z</time>
      </trkpt>
      <trkpt lat="48.38176" lon="2.80943">
        <ele>46.3</ele>
        <time>2024-05-11T14:10:34Z</time>
      </trkpt>
      <trkpt lat="48.3818" lon="2.80938">
        <ele>46</ele>
        <time>2024-05-11T14:10:38Z</time>
      </trkpt>
      <trkpt lat="48.38186" lon="2.80929">
        <ele>45.8</ele>
        <time>2024-05-11T14:10:45Z</time>
      </trkpt>
      <trkpt lat="48.38192" lon="2.80919">
        <ele>45.9</ele>
        <time>2024-05-11T14:10:53Z</time>
      </trkpt>
      <trkpt lat="48.38199" lon="2.80908">
        <ele>46.3</ele>
        <time>2024-05-11T14:11:01Z</time>
      </trkpt>
      <trkpt lat="48.38205" lon="2.80902">
        <ele>46.3</ele>
        <time>2024-05-11T14:11:09Z</time>
      </trkpt>
      <trkpt lat="48.38206" lon="2.80901">
        <ele>46.3</ele>
        <time>2024-05-11T14:11:10Z</time>
      </trkpt>
      <trkpt lat="48.38213" lon="2.80892">
        <ele>46.3</ele>
        <time>2024-05-11T14:11:18Z</time>
      </trkpt>
      <trkpt lat="48.38219" lon="2.80884">
        <ele>46.3</ele>
        <time>2024-05-11T14:11:26Z</time>
      </trkpt>
      <trkpt lat="48.38223" lon="2.80876">
        <ele>46.5</ele>
        <time>2024-05-11T14:11:32Z</time>
      </trkpt>
      <trkpt lat="48.38226" lon="2.8087">
        <ele>46.5</ele>
        <time>2024-05-11T14:11:35Z</time>
      </trkpt>
      <trkpt lat="48.38232" lon="2.80862">
        <ele>46.3</ele>
        <time>2024-05-11T14:11:42Z</time>
      </trkpt>
      <trkpt lat="48.38237" lon="2.80857">
        <ele>46</ele>
        <time>2024-05-11T14:11:49Z</time>
      </trkpt>
      <trkpt lat="48.38237" lon="2.80855">
        <ele>45.9</ele>
        <time>2024-05-11T14:11:50Z</time>
      </trkpt>
      <trkpt lat="48.38241" lon="2.80851">
        <ele>45.8</ele>
        <time>2024-05-11T14:11:54Z</time>
      </trkpt>
      <trkpt lat="48.38249" lon="2.80843">
        <ele>45.7</ele>
        <time>2024-05-11T14:12:02Z</time>
      </trkpt>
      <trkpt lat="48.3825" lon="2.80843">
        <ele>45.7</ele>
        <time>2024-05-11T14:12:03Z</time>
      </trkpt>
      <trkpt lat="48.38253" lon="2.80837">
        <ele>45.9</ele>
        <time>2024-05-11T14:12:07Z</time>
      </trkpt>
      <trkpt lat="48.3826" lon="2.80825">
        <ele>46.2</ele>
        <time>2024-05-11T14:12:14Z</time>
      </trkpt>
      <trkpt lat="48.38264" lon="2.80819">
        <ele>46.3</ele>
        <time>2024-05-11T14:12:18Z</time>
      </trkpt>
      <trkpt lat="48.3827" lon="2.80809">
        <ele>46.2</ele>
        <time>2024-05-11T14:12:25Z</time>
      </trkpt>
      <trkpt lat="48.38272" lon="2.80806">
        <ele>46.2</ele>
        <time>2024-05-11T14:12:27Z</time>
      </trkpt>
      <trkpt lat="48.38281" lon="2.80793">
        <ele>46.4</ele>
        <time>2024-05-11T14:12:36Z</time>
      </trkpt>
      <trkpt lat="48.38286" lon="2.80785">
        <ele>46.3</ele>
        <time>2024-05-11T14:12:42Z</time>
      </trkpt>
      <trkpt lat="48.38291" lon="2.80779">
        <ele>46.1</ele>
        <time>2024-05-11T14:12:48Z</time>
      </trkpt>
      <trkpt lat="48.38297" lon="2.80768">
        <ele>45.8</ele>
        <time>2024-05-11T14:12:56Z</time>
      </trkpt>
      <trkpt lat="48.383" lon="2.80763">
        <ele>45.8</ele>
        <time>2024-05-11T14:13:01Z</time>
      </trkpt>
      <trkpt lat="48.38301" lon="2.8076">
        <ele>45.8</ele>
        <time>2024-05-11T14:13:03Z</time>
      </trkpt>
      <trkpt lat="48.38309" lon="2.80749">
        <ele>45.9</ele>
        <time>2024-05-11T14:13:11Z</time>
      </trkpt>
      <trkpt lat="48.3831" lon="2.80738">
        <ele>46.2</ele>
        <time>2024-05-11T14:13:16Z</time>
      </trkpt>
      <trkpt lat="48.38312" lon="2.8073">
        <ele>46.3</ele>
        <time>2024-05-11T14:13:21Z</time>
      </trkpt>
      <trkpt lat="48.38315" lon="2.80725">
        <ele>46.3</ele>
        <time>2024-05-11T14:13:24Z</time>
      </trkpt>
      <trkpt lat="48.38318" lon="2.80723">
        <ele>46.1</ele>
        <time>2024-05-11T14:13:27Z</time>
      </trkpt>
      <trkpt lat="48.38323" lon="2.80714">
        <ele>46</ele>
        <time>2024-05-11T14:13:34Z</time>
      </trkpt>
      <trkpt lat="48.38323" lon="2.80713">
        <ele>45.9</ele>
        <time>2024-05-11T14:13:35Z</time>
      </trkpt>
      <trkpt lat="48.38328" lon="2.80705">
        <ele>45.9</ele>
        <time>2024-05-11T14:13:41Z</time>
      </trkpt>
      <trkpt lat="48.38336" lon="2.80703">
        <ele>45.6</ele>
        <time>2024-05-11T14:13:49Z</time>
      </trkpt>
      <trkpt lat="48.38337" lon="2.80702">
        <ele>45.6</ele>
        <time>2024-05-11T14:13:50Z</time>
      </trkpt>
      <trkpt lat="48.38344" lon="2.80697">
        <ele>45.5</ele>
        <time>2024-05-11T14:13:58Z</time>
      </trkpt>
      <trkpt lat="48.3835" lon="2.80689">
        <ele>45.6</ele>
        <time>2024-05-11T14:14:05Z</time>
      </trkpt>
      <trkpt lat="48.38356" lon="2.8068">
        <ele>45.7</ele>
        <time>2024-05-11T14:14:12Z</time>
      </trkpt>
      <trkpt lat="48.38358" lon="2.80676">
        <ele>45.8</ele>
        <time>2024-05-11T14:14:15Z</time>
      </trkpt>
      <trkpt lat="48.38365" lon="2.80668">
        <ele>45.8</ele>
        <time>2024-05-11T14:14:23Z</time>
      </trkpt>
      <trkpt lat="48.38371" lon="2.80658">
        <ele>45.6</ele>
        <time>2024-05-11T14:14:31Z</time>
      </trkpt>
      <trkpt lat="48.38376" lon="2.80654">
        <ele>45.5</ele>
        <time>2024-05-11T14:14:35Z</time>
      </trkpt>
      <trkpt lat="48.38382" lon="2.80643">
        <ele>45.2</ele>
        <time>2024-05-11T14:14:43Z</time>
      </trkpt>
      <trkpt lat="48.38389" lon="2.80631">
        <ele>45.3</ele>
        <time>2024-05-11T14:14:51Z</time>
      </trkpt>
      <trkpt lat="48.38396" lon="2.80621">
        <ele>45.5</ele>
        <time>2024-05-11T14:14:59Z</time>
      </trkpt>
      <trkpt lat="48.38404" lon="2.80609">
        <ele>45.6</ele>
        <time>2024-05-11T14:15:08Z</time>
      </trkpt>
      <trkpt lat="48.38409" lon="2.80599">
        <ele>45.7</ele>
        <time>2024-05-11T14:15:16Z</time>
      </trkpt>
      <trkpt lat="48.3841" lon="2.80597">
        <ele>45.8</ele>
        <time>2024-05-11T14:15:18Z</time>
      </trkpt>
      <trkpt lat="48.3841" lon="2.80592">
        <ele>45.9</ele>
        <time>2024-05-11T14:15:21Z</time>
      </trkpt>
      <trkpt lat="48.38407" lon="2.80585">
        <ele>46.3</ele>
        <time>2024-05-11T14:15:25Z</time>
      </trkpt>
      <trkpt lat="48.38403" lon="2.80579">
        <ele>46.4</ele>
        <time>2024-05-11T14:15:32Z</time>
      </trkpt>
      <trkpt lat="48.384" lon="2.8057">
        <ele>46.4</ele>
        <time>2024-05-11T14:15:38Z</time>
      </trkpt>
      <trkpt lat="48.38395" lon="2.80559">
        <ele>46.6</ele>
        <time>2024-05-11T14:15:45Z</time>
      </trkpt>
      <trkpt lat="48.38394" lon="2.80556">
        <ele>46.6</ele>
        <time>2024-05-11T14:15:47Z</time>
      </trkpt>
      <trkpt lat="48.38393" lon="2.80544">
        <ele>46.4</ele>
        <time>2024-05-11T14:15:54Z</time>
      </trkpt>
      <trkpt lat="48.38394" lon="2.80543">
        <ele>46.4</ele>
        <time>2024-05-11T14:15:55Z</time>
      </trkpt>
      <trkpt lat="48.38396" lon="2.80535">
        <ele>46.1</ele>
        <time>2024-05-11T14:16:00Z</time>
      </trkpt>
      <trkpt lat="48.384" lon="2.80526">
        <ele>46</ele>
        <time>2024-05-11T14:16:08Z</time>
      </trkpt>
      <trkpt lat="48.38405" lon="2.80521">
        <ele>46.1</ele>
        <time>2024-05-11T14:16:12Z</time>
      </trkpt>
      <trkpt lat="48.38411" lon="2.80518">
        <ele>46.3</ele>
        <time>2024-05-11T14:16:17Z</time>
      </trkpt>
      <trkpt lat="48.38416" lon="2.80519">
        <ele>46.3</ele>
        <time>2024-05-11T14:16:22Z</time>
      </trkpt>
      <trkpt lat="48.38418" lon="2.80522">
        <ele>46.2</ele>
        <time>2024-05-11T14:16:25Z</time>
      </trkpt>
      <trkpt lat="48.3842" lon="2.80528">
        <ele>46.1</ele>
        <time>2024-05-11T14:16:30Z</time>
      </trkpt>
      <trkpt lat="48.38427" lon="2.80528">
        <ele>46.4</ele>
        <time>2024-05-11T14:16:35Z</time>
      </trkpt>
      <trkpt lat="48.38431" lon="2.80532">
        <ele>46.4</ele>
        <time>2024-05-11T14:16:39Z</time>
      </trkpt>
      <trkpt lat="48.38438" lon="2.8054">
        <ele>46.4</ele>
        <time>2024-05-11T14:16:47Z</time>
      </trkpt>
      <trkpt lat="48.38439" lon="2.80541">
        <ele>46.4</ele>
        <time>2024-05-11T14:16:48Z</time>
      </trkpt>
      <trkpt lat="48.38444" lon="2.80542">
        <ele>46.5</ele>
        <time>2024-05-11T14:16:54Z</time>
      </trkpt>
      <trkpt lat="48.38455" lon="2.80534">
        <ele>46.1</ele>
        <time>2024-05-11T14:17:04Z</time>
      </trkpt>
      <trkpt lat="48.38462" lon="2.80523">
        <ele>45.8</ele>
        <time>2024-05-11T14:17:12Z</time>
      </trkpt>
      <trkpt lat="48.38469" lon="2.80514">
        <ele>45.6</ele>
        <time>2024-05-11T14:17:19Z</time>
      </trkpt>
      <trkpt lat="48.38475" lon="2.805">
        <ele>46</ele>
        <time>2024-05-11T14:17:29Z</time>
      </trkpt>
      <trkpt lat="48.38476" lon="2.80496">
        <ele>46</ele>
        <time>2024-05-11T14:17:31Z</time>
      </trkpt>
      <trkpt lat="48.38483" lon="2.80486">
        <ele>45.8</ele>
        <time>2024-05-11T14:17:40Z</time>
      </trkpt>
      <trkpt lat="48.38484" lon="2.80484">
        <ele>45.7</ele>
        <time>2024-05-11T14:17:42Z</time>
      </trkpt>
      <trkpt lat="48.38489" lon="2.80471">
        <ele>45.4</ele>
        <time>2024-05-11T14:17:51Z</time>
      </trkpt>
      <trkpt lat="48.38494" lon="2.8046">
        <ele>45.6</ele>
        <time>2024-05-11T14:17:59Z</time>
      </trkpt>
      <trkpt lat="48.38499" lon="2.80451">
        <ele>45.8</ele>
        <time>2024-05-11T14:18:06Z</time>
      </trkpt>
      <trkpt lat="48.38505" lon="2.80442">
        <ele>45.9</ele>
        <time>2024-05-11T14:18:14Z</time>
      </trkpt>
      <trkpt lat="48.3851" lon="2.80433">
        <ele>45.9</ele>
        <time>2024-05-11T14:18:20Z</time>
      </trkpt>
      <trkpt lat="48.38513" lon="2.80431">
        <ele>45.8</ele>
        <time>2024-05-11T14:18:23Z</time>
      </trkpt>
      <trkpt lat="48.38515" lon="2.80423">
        <ele>45.8</ele>
        <time>2024-05-11T14:18:28Z</time>
      </trkpt>
      <trkpt lat="48.3852" lon="2.80413">
        <ele>45.5</ele>
        <time>2024-05-11T14:18:36Z</time>
      </trkpt>
      <trkpt lat="48.3852" lon="2.80412">
        <ele>45.5</ele>
        <time>2024-05-11T14:18:37Z</time>
      </trkpt>
      <trkpt lat="48.38522" lon="2.80401">
        <ele>45.3</ele>
        <time>2024-05-11T14:18:43Z</time>
      </trkpt>
      <trkpt lat="48.38522" lon="2.80399">
        <ele>45.3</ele>
        <time>2024-05-11T14:18:44Z</time>
      </trkpt>
      <trkpt lat="48.38522" lon="2.80392">
        <ele>45.2</ele>
        <time>2024-05-11T14:18:47Z</time>
      </trkpt>
      <trkpt lat="48.38525" lon="2.80386">
        <ele>45.2</ele>
        <time>2024-05-11T14:18:51Z</time>
      </trkpt>
      <trkpt lat="48.38531" lon="2.80376">
        <ele>45.4</ele>
        <time>2024-05-11T14:19:00Z</time>
      </trkpt>
      <trkpt lat="48.38536" lon="2.80367">
        <ele>45.6</ele>
        <time>2024-05-11T14:19:06Z</time>
      </trkpt>
      <trkpt lat="48.38541" lon="2.80352">
        <ele>45.7</ele>
        <time>2024-05-11T14:19:14Z</time>
      </trkpt>
      <trkpt lat="48.38546" lon="2.80341">
        <ele>45.6</ele>
        <time>2024-05-11T14:19:21Z</time>
      </trkpt>
      <trkpt lat="48.38551" lon="2.80325">
        <ele>45.8</ele>
        <time>2024-05-11T14:19:29Z</time>
      </trkpt>
      <trkpt lat="48.38552" lon="2.80324">
        <ele>45.9</ele>
        <time>2024-05-11T14:19:30Z</time>
      </trkpt>
      <trkpt lat="48.38556" lon="2.80316">
        <ele>46.2</ele>
        <time>2024-05-11T14:19:35Z</time>
      </trkpt>
      <trkpt lat="48.38564" lon="2.80299">
        <ele>46.5</ele>
        <time>2024-05-11T14:19:45Z</time>
      </trkpt>
      <trkpt lat="48.38566" lon="2.80295">
        <ele>46.4</ele>
        <time>2024-05-11T14:19:47Z</time>
      </trkpt>
      <trkpt lat="48.38572" lon="2.80286">
        <ele>46.2</ele>
        <time>2024-05-11T14:19:55Z</time>
      </trkpt>
      <trkpt lat="48.38573" lon="2.80285">
        <ele>46.2</ele>
        <time>2024-05-11T14:19:56Z</time>
      </trkpt>
      <trkpt lat="48.38579" lon="2.80276">
        <ele>46.2</ele>
        <time>2024-05-11T14:20:04Z</time>
      </trkpt>
      <trkpt lat="48.38586" lon="2.80267">
        <ele>45.9</ele>
        <time>2024-05-11T14:20:12Z</time>
      </trkpt>
      <trkpt lat="48.3859" lon="2.80263">
        <ele>45.8</ele>
        <time>2024-05-11T14:20:16Z</time>
      </trkpt>
      <trkpt lat="48.38598" lon="2.80254">
        <ele>45.5</ele>
        <time>2024-05-11T14:20:24Z</time>
      </trkpt>
      <trkpt lat="48.38605" lon="2.80247">
        <ele>45.4</ele>
        <time>2024-05-11T14:20:32Z</time>
      </trkpt>
      <trkpt lat="48.38608" lon="2.80243">
        <ele>45.6</ele>
        <time>2024-05-11T14:20:36Z</time>
      </trkpt>
      <trkpt lat="48.38616" lon="2.80237">
        <ele>45.9</ele>
        <time>2024-05-11T14:20:43Z</time>
      </trkpt>
      <trkpt lat="48.38626" lon="2.80229">
        <ele>46.1</ele>
        <time>2024-05-11T14:20:52Z</time>
      </trkpt>
      <trkpt lat="48.38631" lon="2.80227">
        <ele>46.1</ele>
        <time>2024-05-11T14:20:58Z</time>
      </trkpt>
      <trkpt lat="48.38632" lon="2.80227">
        <ele>46</ele>
        <time>2024-05-11T14:21:01Z</time>
      </trkpt>
      <trkpt lat="48.38638" lon="2.8022">
        <ele>46.1</ele>
        <time>2024-05-11T14:21:08Z</time>
      </trkpt>
      <trkpt lat="48.3864" lon="2.80219">
        <ele>46.1</ele>
        <time>2024-05-11T14:21:18Z</time>
      </trkpt>
      <trkpt lat="48.38638" lon="2.80219">
        <ele>46.1</ele>
        <time>2024-05-11T14:21:25Z</time>
      </trkpt>
      <trkpt lat="48.38638" lon="2.80219">
        <ele>46.1</ele>
        <time>2024-05-11T14:21:32Z</time>
      </trkpt>
      <trkpt lat="48.38639" lon="2.80219">
        <ele>46.1</ele>
        <time>2024-05-11T14:21:41Z</time>
      </trkpt>
      <trkpt lat="48.3864" lon="2.8022">
        <ele>46.1</ele>
        <time>2024-05-11T14:21:44Z</time>
      </trkpt>
      <trkpt lat="48.38642" lon="2.80217">
        <ele>46.1</ele>
        <time>2024-05-11T14:21:47Z</time>
      </trkpt>
      <trkpt lat="48.38649" lon="2.80212">
        <ele>46.1</ele>
        <time>2024-05-11T14:21:54Z</time>
      </trkpt>
      <trkpt lat="48.38656" lon="2.80209">
        <ele>46.1</ele>
        <time>2024-05-11T14:22:01Z</time>
      </trkpt>
      <trkpt lat="48.3866" lon="2.80208">
        <ele>46.1</ele>
        <time>2024-05-11T14:22:06Z</time>
      </trkpt>
      <trkpt lat="48.38665" lon="2.80206">
        <ele>46.2</ele>
        <time>2024-05-11T14:22:11Z</time>
      </trkpt>
      <trkpt lat="48.3867" lon="2.80205">
        <ele>46.1</ele>
        <time>2024-05-11T14:22:16Z</time>
      </trkpt>
      <trkpt lat="48.38675" lon="2.802">
        <ele>46.1</ele>
        <time>2024-05-11T14:22:23Z</time>
      </trkpt>
      <trkpt lat="48.38684" lon="2.80193">
        <ele>45.8</ele>
        <time>2024-05-11T14:22:31Z</time>
      </trkpt>
      <trkpt lat="48.38685" lon="2.8019">
        <ele>45.9</ele>
        <time>2024-05-11T14:22:33Z</time>
      </trkpt>
      <trkpt lat="48.38691" lon="2.80181">
        <ele>46.1</ele>
        <time>2024-05-11T14:22:41Z</time>
      </trkpt>
      <trkpt lat="48.38697" lon="2.80175">
        <ele>46.2</ele>
        <time>2024-05-11T14:22:48Z</time>
      </trkpt>
      <trkpt lat="48.38698" lon="2.80174">
        <ele>46.3</ele>
        <time>2024-05-11T14:22:49Z</time>
      </trkpt>
      <trkpt lat="48.38703" lon="2.80165">
        <ele>46.4</ele>
        <time>2024-05-11T14:22:55Z</time>
      </trkpt>
      <trkpt lat="48.3871" lon="2.80159">
        <ele>46</ele>
        <time>2024-05-11T14:23:02Z</time>
      </trkpt>
      <trkpt lat="48.38716" lon="2.80148">
        <ele>46</ele>
        <time>2024-05-11T14:23:10Z</time>
      </trkpt>
      <trkpt lat="48.38719" lon="2.80139">
        <ele>46.1</ele>
        <time>2024-05-11T14:23:16Z</time>
      </trkpt>
      <trkpt lat="48.3872" lon="2.80136">
        <ele>46.2</ele>
        <time>2024-05-11T14:23:18Z</time>
      </trkpt>
      <trkpt lat="48.38724" lon="2.80126">
        <ele>46.3</ele>
        <time>2024-05-11T14:23:25Z</time>
      </trkpt>
      <trkpt lat="48.38726" lon="2.80114">
        <ele>46.6</ele>
        <time>2024-05-11T14:23:32Z</time>
      </trkpt>
      <trkpt lat="48.38728" lon="2.80102">
        <ele>46.6</ele>
        <time>2024-05-11T14:23:39Z</time>
      </trkpt>
      <trkpt lat="48.38729" lon="2.80097">
        <ele>46.5</ele>
        <time>2024-05-11T14:23:42Z</time>
      </trkpt>
      <trkpt lat="48.3873" lon="2.80086">
        <ele>46.4</ele>
        <time>2024-05-11T14:23:48Z</time>
      </trkpt>
      <trkpt lat="48.3873" lon="2.80076">
        <ele>46.2</ele>
        <time>2024-05-11T14:23:54Z</time>
      </trkpt>
      <trkpt lat="48.38731" lon="2.80071">
        <ele>46.1</ele>
        <time>2024-05-11T14:23:57Z</time>
      </trkpt>
      <trkpt lat="48.38733" lon="2.80058">
        <ele>45.7</ele>
        <time>2024-05-11T14:24:03Z</time>
      </trkpt>
      <trkpt lat="48.38734" lon="2.80046">
        <ele>45.6</ele>
        <time>2024-05-11T14:24:09Z</time>
      </trkpt>
      <trkpt lat="48.38736" lon="2.80034">
        <ele>45.5</ele>
        <time>2024-05-11T14:24:15Z</time>
      </trkpt>
      <trkpt lat="48.38735" lon="2.80023">
        <ele>45.5</ele>
        <time>2024-05-11T14:24:22Z</time>
      </trkpt>
      <trkpt lat="48.38735" lon="2.80018">
        <ele>45.5</ele>
        <time>2024-05-11T14:24:25Z</time>
      </trkpt>
      <trkpt lat="48.38738" lon="2.80006">
        <ele>45.4</ele>
        <time>2024-05-11T14:24:31Z</time>
      </trkpt>
      <trkpt lat="48.38738" lon="2.80005">
        <ele>45.4</ele>
        <time>2024-05-11T14:24:32Z</time>
      </trkpt>
      <trkpt lat="48.38741" lon="2.79998">
        <ele>45.3</ele>
        <time>2024-05-11T14:24:38Z</time>
      </trkpt>
      <trkpt lat="48.38744" lon="2.79989">
        <ele>45.2</ele>
        <time>2024-05-11T14:24:45Z</time>
      </trkpt>
      <trkpt lat="48.38744" lon="2.79977">
        <ele>45.2</ele>
        <time>2024-05-11T14:24:52Z</time>
      </trkpt>
      <trkpt lat="48.38744" lon="2.79969">
        <ele>45.3</ele>
        <time>2024-05-11T14:24:58Z</time>
      </trkpt>
      <trkpt lat="48.38743" lon="2.79961">
        <ele>45.7</ele>
        <time>2024-05-11T14:25:04Z</time>
      </trkpt>
      <trkpt lat="48.38746" lon="2.79947">
        <ele>46.1</ele>
        <time>2024-05-11T14:25:11Z</time>
      </trkpt>
      <trkpt lat="48.38747" lon="2.79944">
        <ele>46.1</ele>
        <time>2024-05-11T14:25:13Z</time>
      </trkpt>
      <trkpt lat="48.38748" lon="2.79933">
        <ele>46.1</ele>
        <time>2024-05-11T14:25:20Z</time>
      </trkpt>
      <trkpt lat="48.38748" lon="2.79924">
        <ele>46.1</ele>
        <time>2024-05-11T14:25:27Z</time>
      </trkpt>
      <trkpt lat="48.38748" lon="2.79918">
        <ele>46.1</ele>
        <time>2024-05-11T14:25:33Z</time>
      </trkpt>
      <trkpt lat="48.3875" lon="2.79911">
        <ele>46</ele>
        <time>2024-05-11T14:25:36Z</time>
      </trkpt>
      <trkpt lat="48.38752" lon="2.79899">
        <ele>45.9</ele>
        <time>2024-05-11T14:25:43Z</time>
      </trkpt>
      <trkpt lat="48.3875" lon="2.79889">
        <ele>46</ele>
        <time>2024-05-11T14:25:49Z</time>
      </trkpt>
      <trkpt lat="48.38752" lon="2.79884">
        <ele>46.1</ele>
        <time>2024-05-11T14:25:55Z</time>
      </trkpt>
      <trkpt lat="48.38751" lon="2.79875">
        <ele>46.4</ele>
        <time>2024-05-11T14:26:01Z</time>
      </trkpt>
      <trkpt lat="48.38751" lon="2.79865">
        <ele>46.8</ele>
        <time>2024-05-11T14:26:08Z</time>
      </trkpt>
      <trkpt lat="48.38751" lon="2.7986">
        <ele>46.9</ele>
        <time>2024-05-11T14:26:14Z</time>
      </trkpt>
      <trkpt lat="48.38754" lon="2.79846">
        <ele>46.3</ele>
        <time>2024-05-11T14:26:20Z</time>
      </trkpt>
      <trkpt lat="48.38756" lon="2.79836">
        <ele>45.9</ele>
        <time>2024-05-11T14:26:26Z</time>
      </trkpt>
      <trkpt lat="48.38753" lon="2.79819">
        <ele>46.4</ele>
        <time>2024-05-11T14:26:33Z</time>
      </trkpt>
      <trkpt lat="48.38752" lon="2.79808">
        <ele>46.8</ele>
        <time>2024-05-11T14:26:40Z</time>
      </trkpt>
      <trkpt lat="48.38753" lon="2.79799">
        <ele>46.7</ele>
        <time>2024-05-11T14:26:45Z</time>
      </trkpt>
      <trkpt lat="48.38752" lon="2.79784">
        <ele>46.2</ele>
        <time>2024-05-11T14:26:53Z</time>
      </trkpt>
      <trkpt lat="48.38753" lon="2.79778">
        <ele>45.9</ele>
        <time>2024-05-11T14:26:56Z</time>
      </trkpt>
      <trkpt lat="48.38754" lon="2.79772">
        <ele>45.9</ele>
        <time>2024-05-11T14:26:59Z</time>
      </trkpt>
      <trkpt lat="48.38753" lon="2.79756">
        <ele>46</ele>
        <time>2024-05-11T14:27:08Z</time>
      </trkpt>
      <trkpt lat="48.38753" lon="2.79743">
        <ele>46</ele>
        <time>2024-05-11T14:27:15Z</time>
      </trkpt>
      <trkpt lat="48.38752" lon="2.79734">
        <ele>46</ele>
        <time>2024-05-11T14:27:21Z</time>
      </trkpt>
      <trkpt lat="48.38751" lon="2.79725">
        <ele>46</ele>
        <time>2024-05-11T14:27:26Z</time>
      </trkpt>
      <trkpt lat="48.38751" lon="2.79718">
        <ele>46</ele>
        <time>2024-05-11T14:27:30Z</time>
      </trkpt>
      <trkpt lat="48.38749" lon="2.79709">
        <ele>46</ele>
        <time>2024-05-11T14:27:35Z</time>
      </trkpt>
      <trkpt lat="48.3875" lon="2.79701">
        <ele>46</ele>
        <time>2024-05-11T14:27:39Z</time>
      </trkpt>
      <trkpt lat="48.38751" lon="2.79685">
        <ele>46</ele>
        <time>2024-05-11T14:27:47Z</time>
      </trkpt>
      <trkpt lat="48.38751" lon="2.79673">
        <ele>46</ele>
        <time>2024-05-11T14:27:53Z</time>
      </trkpt>
      <trkpt lat="48.3875" lon="2.7967">
        <ele>46</ele>
        <time>2024-05-11T14:27:55Z</time>
      </trkpt>
      <trkpt lat="48.38747" lon="2.79656">
        <ele>46</ele>
        <time>2024-05-11T14:28:03Z</time>
      </trkpt>
      <trkpt lat="48.38746" lon="2.79655">
        <ele>46</ele>
        <time>2024-05-11T14:28:04Z</time>
      </trkpt>
      <trkpt lat="48.38743" lon="2.79646">
        <ele>46</ele>
        <time>2024-05-11T14:28:11Z</time>
      </trkpt>
      <trkpt lat="48.38741" lon="2.79636">
        <ele>46</ele>
        <time>2024-05-11T14:28:18Z</time>
      </trkpt>
      <trkpt lat="48.3874" lon="2.79624">
        <ele>46</ele>
        <time>2024-05-11T14:28:26Z</time>
      </trkpt>
      <trkpt lat="48.38743" lon="2.79612">
        <ele>46</ele>
        <time>2024-05-11T14:28:33Z</time>
      </trkpt>
      <trkpt lat="48.38747" lon="2.79598">
        <ele>46.4</ele>
        <time>2024-05-11T14:28:41Z</time>
      </trkpt>
      <trkpt lat="48.38747" lon="2.79589">
        <ele>46.7</ele>
        <time>2024-05-11T14:28:46Z</time>
      </trkpt>
      <trkpt lat="48.38747" lon="2.79574">
        <ele>46.9</ele>
        <time>2024-05-11T14:28:53Z</time>
      </trkpt>
      <trkpt lat="48.38748" lon="2.79573">
        <ele>47</ele>
        <time>2024-05-11T14:28:54Z</time>
      </trkpt>
      <trkpt lat="48.3875" lon="2.79562">
        <ele>47</ele>
        <time>2024-05-11T14:29:00Z</time>
      </trkpt>
      <trkpt lat="48.3875" lon="2.79556">
        <ele>47</ele>
        <time>2024-05-11T14:29:04Z</time>
      </trkpt>
      <trkpt lat="48.38752" lon="2.79544">
        <ele>46.5</ele>
        <time>2024-05-11T14:29:11Z</time>
      </trkpt>
      <trkpt lat="48.38751" lon="2.79542">
        <ele>46.4</ele>
        <time>2024-05-11T14:29:12Z</time>
      </trkpt>
      <trkpt lat="48.38751" lon="2.79535">
        <ele>46.2</ele>
        <time>2024-05-11T14:29:16Z</time>
      </trkpt>
      <trkpt lat="48.38751" lon="2.79525">
        <ele>46.1</ele>
        <time>2024-05-11T14:29:22Z</time>
      </trkpt>
      <trkpt lat="48.38751" lon="2.7952">
        <ele>46.2</ele>
        <time>2024-05-11T14:29:25Z</time>
      </trkpt>
      <trkpt lat="48.38751" lon="2.7951">
        <ele>46.6</ele>
        <time>2024-05-11T14:29:30Z</time>
      </trkpt>
      <trkpt lat="48.38747" lon="2.79497">
        <ele>46.9</ele>
        <time>2024-05-11T14:29:38Z</time>
      </trkpt>
      <trkpt lat="48.38745" lon="2.7949">
        <ele>46.8</ele>
        <time>2024-05-11T14:29:43Z</time>
      </trkpt>
      <trkpt lat="48.38746" lon="2.79484">
        <ele>46.9</ele>
        <time>2024-05-11T14:29:46Z</time>
      </trkpt>
      <trkpt lat="48.38746" lon="2.79478">
        <ele>46.9</ele>
        <time>2024-05-11T14:29:49Z</time>
      </trkpt>
      <trkpt lat="48.38744" lon="2.79459">
        <ele>46.4</ele>
        <time>2024-05-11T14:29:57Z</time>
      </trkpt>
      <trkpt lat="48.38743" lon="2.79442">
        <ele>45.9</ele>
        <time>2024-05-11T14:30:05Z</time>
      </trkpt>
      <trkpt lat="48.38742" lon="2.7943">
        <ele>45.5</ele>
        <time>2024-05-11T14:30:11Z</time>
      </trkpt>
      <trkpt lat="48.38741" lon="2.79418">
        <ele>45</ele>
        <time>2024-05-11T14:30:17Z</time>
      </trkpt>
      <trkpt lat="48.38737" lon="2.79408">
        <ele>45.1</ele>
        <time>2024-05-11T14:30:23Z</time>
      </trkpt>
      <trkpt lat="48.38736" lon="2.79399">
        <ele>45.3</ele>
        <time>2024-05-11T14:30:29Z</time>
      </trkpt>
      <trkpt lat="48.38736" lon="2.79391">
        <ele>45.5</ele>
        <time>2024-05-11T14:30:34Z</time>
      </trkpt>
      <trkpt lat="48.38736" lon="2.79382">
        <ele>45.5</ele>
        <time>2024-05-11T14:30:40Z</time>
      </trkpt>
      <trkpt lat="48.38735" lon="2.79373">
        <ele>45.5</ele>
        <time>2024-05-11T14:30:46Z</time>
      </trkpt>
      <trkpt lat="48.38735" lon="2.79363">
        <ele>45.5</ele>
        <time>2024-05-11T14:30:53Z</time>
      </trkpt>
      <trkpt lat="48.38735" lon="2.79348">
        <ele>45.5</ele>
        <time>2024-05-11T14:31:00Z</time>
      </trkpt>
      <trkpt lat="48.38735" lon="2.79347">
        <ele>45.5</ele>
        <time>2024-05-11T14:31:01Z</time>
      </trkpt>
      <trkpt lat="48.38735" lon="2.79338">
        <ele>45.5</ele>
        <time>2024-05-11T14:31:07Z</time>
      </trkpt>
      <trkpt lat="48.38735" lon="2.79335">
        <ele>45.5</ele>
        <time>2024-05-11T14:31:09Z</time>
      </trkpt>
      <trkpt lat="48.38734" lon="2.7932">
        <ele>45.6</ele>
        <time>2024-05-11T14:31:15Z</time>
      </trkpt>
      <trkpt lat="48.38736" lon="2.79312">
        <ele>45.5</ele>
        <time>2024-05-11T14:31:19Z</time>
      </trkpt>
      <trkpt lat="48.38735" lon="2.79303">
        <ele>45.5</ele>
        <time>2024-05-11T14:31:24Z</time>
      </trkpt>
      <trkpt lat="48.38734" lon="2.79297">
        <ele>45.6</ele>
        <time>2024-05-11T14:31:28Z</time>
      </trkpt>
      <trkpt lat="48.38734" lon="2.79288">
        <ele>45.6</ele>
        <time>2024-05-11T14:31:34Z</time>
      </trkpt>
      <trkpt lat="48.38734" lon="2.79281">
        <ele>45.6</ele>
        <time>2024-05-11T14:31:38Z</time>
      </trkpt>
      <trkpt lat="48.38734" lon="2.79269">
        <ele>45.7</ele>
        <time>2024-05-11T14:31:45Z</time>
      </trkpt>
      <trkpt lat="48.38735" lon="2.79265">
        <ele>45.8</ele>
        <time>2024-05-11T14:31:47Z</time>
      </trkpt>
      <trkpt lat="48.38733" lon="2.79253">
        <ele>46</ele>
        <time>2024-05-11T14:31:54Z</time>
      </trkpt>
      <trkpt lat="48.38735" lon="2.79241">
        <ele>46</ele>
        <time>2024-05-11T14:32:01Z</time>
      </trkpt>
      <trkpt lat="48.38735" lon="2.7924">
        <ele>46</ele>
        <time>2024-05-11T14:32:02Z</time>
      </trkpt>
      <trkpt lat="48.38739" lon="2.7923">
        <ele>46</ele>
        <time>2024-05-11T14:32:09Z</time>
      </trkpt>
      <trkpt lat="48.3874" lon="2.79226">
        <ele>46</ele>
        <time>2024-05-11T14:32:11Z</time>
      </trkpt>
      <trkpt lat="48.38742" lon="2.7922">
        <ele>46</ele>
        <time>2024-05-11T14:32:14Z</time>
      </trkpt>
      <trkpt lat="48.38748" lon="2.79208">
        <ele>46</ele>
        <time>2024-05-11T14:32:22Z</time>
      </trkpt>
      <trkpt lat="48.38749" lon="2.79205">
        <ele>46</ele>
        <time>2024-05-11T14:32:24Z</time>
      </trkpt>
      <trkpt lat="48.38753" lon="2.79191">
        <ele>45.9</ele>
        <time>2024-05-11T14:32:32Z</time>
      </trkpt>
      <trkpt lat="48.38755" lon="2.79181">
        <ele>45.8</ele>
        <time>2024-05-11T14:32:38Z</time>
      </trkpt>
      <trkpt lat="48.38756" lon="2.79178">
        <ele>45.8</ele>
        <time>2024-05-11T14:32:41Z</time>
      </trkpt>
      <trkpt lat="48.38757" lon="2.79175">
        <ele>45.7</ele>
        <time>2024-05-11T14:32:43Z</time>
      </trkpt>
      <trkpt lat="48.38759" lon="2.79171">
        <ele>45.7</ele>
        <time>2024-05-11T14:32:50Z</time>
      </trkpt>
      <trkpt lat="48.3876" lon="2.79168">
        <ele>45.6</ele>
        <time>2024-05-11T14:32:53Z</time>
      </trkpt>
      <trkpt lat="48.38765" lon="2.79153">
        <ele>46.2</ele>
        <time>2024-05-11T14:33:01Z</time>
      </trkpt>
      <trkpt lat="48.38771" lon="2.79139">
        <ele>46.5</ele>
        <time>2024-05-11T14:33:09Z</time>
      </trkpt>
      <trkpt lat="48.3877" lon="2.7913">
        <ele>46.6</ele>
        <time>2024-05-11T14:33:14Z</time>
      </trkpt>
      <trkpt lat="48.38768" lon="2.79117">
        <ele>47</ele>
        <time>2024-05-11T14:33:23Z</time>
      </trkpt>
      <trkpt lat="48.38769" lon="2.79112">
        <ele>46.9</ele>
        <time>2024-05-11T14:33:27Z</time>
      </trkpt>
      <trkpt lat="48.38772" lon="2.79107">
        <ele>46.8</ele>
        <time>2024-05-11T14:33:34Z</time>
      </trkpt>
      <trkpt lat="48.38778" lon="2.79095">
        <ele>46.6</ele>
        <time>2024-05-11T14:33:41Z</time>
      </trkpt>
      <trkpt lat="48.38784" lon="2.79087">
        <ele>46.7</ele>
        <time>2024-05-11T14:33:47Z</time>
      </trkpt>
      <trkpt lat="48.38788" lon="2.79078">
        <ele>47</ele>
        <time>2024-05-11T14:33:54Z</time>
      </trkpt>
      <trkpt lat="48.3879" lon="2.79075">
        <ele>47</ele>
        <time>2024-05-11T14:33:59Z</time>
      </trkpt>
      <trkpt lat="48.38791" lon="2.79074">
        <ele>47.1</ele>
        <time>2024-05-11T14:34:00Z</time>
      </trkpt>
      <trkpt lat="48.38797" lon="2.79067">
        <ele>46.8</ele>
        <time>2024-05-11T14:34:07Z</time>
      </trkpt>
      <trkpt lat="48.38798" lon="2.79067">
        <ele>46.8</ele>
        <time>2024-05-11T14:34:08Z</time>
      </trkpt>
      <trkpt lat="48.38805" lon="2.79061">
        <ele>46.1</ele>
        <time>2024-05-11T14:34:15Z</time>
      </trkpt>
      <trkpt lat="48.3881" lon="2.79057">
        <ele>46</ele>
        <time>2024-05-11T14:34:21Z</time>
      </trkpt>
      <trkpt lat="48.38817" lon="2.7905">
        <ele>46.5</ele>
        <time>2024-05-11T14:34:28Z</time>
      </trkpt>
      <trkpt lat="48.38818" lon="2.79048">
        <ele>46.6</ele>
        <time>2024-05-11T14:34:30Z</time>
      </trkpt>
      <trkpt lat="48.38826" lon="2.79041">
        <ele>46.6</ele>
        <time>2024-05-11T14:34:38Z</time>
      </trkpt>
      <trkpt lat="48.3883" lon="2.79038">
        <ele>46.3</ele>
        <time>2024-05-11T14:34:43Z</time>
      </trkpt>
      <trkpt lat="48.38836" lon="2.79037">
        <ele>46</ele>
        <time>2024-05-11T14:34:47Z</time>
      </trkpt>
      <trkpt lat="48.38839" lon="2.79033">
        <ele>46</ele>
        <time>2024-05-11T14:34:50Z</time>
      </trkpt>
      <trkpt lat="48.38841" lon="2.79032">
        <ele>46</ele>
        <time>2024-05-11T14:34:52Z</time>
      </trkpt>
      <trkpt lat="48.38849" lon="2.79024">
        <ele>46.2</ele>
        <time>2024-05-11T14:34:59Z</time>
      </trkpt>
      <trkpt lat="48.3885" lon="2.79023">
        <ele>46.3</ele>
        <time>2024-05-11T14:35:00Z</time>
      </trkpt>
      <trkpt lat="48.38853" lon="2.79022">
        <ele>46.4</ele>
        <time>2024-05-11T14:35:02Z</time>
      </trkpt>
      <trkpt lat="48.38862" lon="2.79011">
        <ele>46.6</ele>
        <time>2024-05-11T14:35:10Z</time>
      </trkpt>
      <trkpt lat="48.38868" lon="2.79004">
        <ele>46.6</ele>
        <time>2024-05-11T14:35:16Z</time>
      </trkpt>
      <trkpt lat="48.38875" lon="2.78995">
        <ele>47.3</ele>
        <time>2024-05-11T14:35:24Z</time>
      </trkpt>
      <trkpt lat="48.38881" lon="2.78993">
        <ele>47.1</ele>
        <time>2024-05-11T14:35:31Z</time>
      </trkpt>
      <trkpt lat="48.38889" lon="2.78987">
        <ele>47</ele>
        <time>2024-05-11T14:35:38Z</time>
      </trkpt>
      <trkpt lat="48.3889" lon="2.78986">
        <ele>47</ele>
        <time>2024-05-11T14:35:39Z</time>
      </trkpt>
      <trkpt lat="48.38892" lon="2.78985">
        <ele>46.9</ele>
        <time>2024-05-11T14:35:41Z</time>
      </trkpt>
      <trkpt lat="48.38897" lon="2.78981">
        <ele>46.9</ele>
        <time>2024-05-11T14:35:45Z</time>
      </trkpt>
      <trkpt lat="48.389" lon="2.7898">
        <ele>46.8</ele>
        <time>2024-05-11T14:35:47Z</time>
      </trkpt>
      <trkpt lat="48.38904" lon="2.78977">
        <ele>46.7</ele>
        <time>2024-05-11T14:35:51Z</time>
      </trkpt>
      <trkpt lat="48.38912" lon="2.7897">
        <ele>46.8</ele>
        <time>2024-05-11T14:35:59Z</time>
      </trkpt>
      <trkpt lat="48.38917" lon="2.78968">
        <ele>46.7</ele>
        <time>2024-05-11T14:36:06Z</time>
      </trkpt>
      <trkpt lat="48.38919" lon="2.78967">
        <ele>47</ele>
        <time>2024-05-11T14:36:08Z</time>
      </trkpt>
      <trkpt lat="48.38923" lon="2.78966">
        <ele>47</ele>
        <time>2024-05-11T14:36:10Z</time>
      </trkpt>
      <trkpt lat="48.38931" lon="2.78962">
        <ele>47.2</ele>
        <time>2024-05-11T14:36:16Z</time>
      </trkpt>
      <trkpt lat="48.38941" lon="2.78955">
        <ele>47.5</ele>
        <time>2024-05-11T14:36:23Z</time>
      </trkpt>
      <trkpt lat="48.3895" lon="2.78949">
        <ele>47.3</ele>
        <time>2024-05-11T14:36:31Z</time>
      </trkpt>
      <trkpt lat="48.38953" lon="2.78947">
        <ele>47.2</ele>
        <time>2024-05-11T14:36:34Z</time>
      </trkpt>
      <trkpt lat="48.38957" lon="2.78945">
        <ele>47.1</ele>
        <time>2024-05-11T14:36:37Z</time>
      </trkpt>
      <trkpt lat="48.38968" lon="2.78938">
        <ele>47.1</ele>
        <time>2024-05-11T14:36:45Z</time>
      </trkpt>
      <trkpt lat="48.38977" lon="2.78935">
        <ele>47.3</ele>
        <time>2024-05-11T14:36:51Z</time>
      </trkpt>
      <trkpt lat="48.38984" lon="2.7893">
        <ele>47.6</ele>
        <time>2024-05-11T14:36:56Z</time>
      </trkpt>
      <trkpt lat="48.38987" lon="2.78926">
        <ele>47.9</ele>
        <time>2024-05-11T14:36:59Z</time>
      </trkpt>
      <trkpt lat="48.38993" lon="2.78922">
        <ele>48.1</ele>
        <time>2024-05-11T14:37:05Z</time>
      </trkpt>
      <trkpt lat="48.38996" lon="2.78919">
        <ele>48.1</ele>
        <time>2024-05-11T14:37:08Z</time>
      </trkpt>
      <trkpt lat="48.39006" lon="2.78916">
        <ele>47.8</ele>
        <time>2024-05-11T14:37:16Z</time>
      </trkpt>
      <trkpt lat="48.39016" lon="2.78917">
        <ele>47.4</ele>
        <time>2024-05-11T14:37:22Z</time>
      </trkpt>
      <trkpt lat="48.39025" lon="2.78913">
        <ele>47.4</ele>
        <time>2024-05-11T14:37:30Z</time>
      </trkpt>
      <trkpt lat="48.39027" lon="2.78911">
        <ele>47.4</ele>
        <time>2024-05-11T14:37:32Z</time>
      </trkpt>
      <trkpt lat="48.39039" lon="2.789">
        <ele>47.8</ele>
        <time>2024-05-11T14:37:40Z</time>
      </trkpt>
      <trkpt lat="48.39048" lon="2.78895">
        <ele>48.2</ele>
        <time>2024-05-11T14:37:48Z</time>
      </trkpt>
      <trkpt lat="48.39055" lon="2.7889">
        <ele>48.8</ele>
        <time>2024-05-11T14:37:55Z</time>
      </trkpt>
      <trkpt lat="48.39061" lon="2.78888">
        <ele>49.1</ele>
        <time>2024-05-11T14:38:02Z</time>
      </trkpt>
      <trkpt lat="48.39064" lon="2.78888">
        <ele>48.9</ele>
        <time>2024-05-11T14:38:05Z</time>
      </trkpt>
      <trkpt lat="48.39069" lon="2.78888">
        <ele>48.8</ele>
        <time>2024-05-11T14:38:09Z</time>
      </trkpt>
      <trkpt lat="48.39075" lon="2.78884">
        <ele>49.8</ele>
        <time>2024-05-11T14:38:14Z</time>
      </trkpt>
      <trkpt lat="48.39085" lon="2.78883">
        <ele>50.1</ele>
        <time>2024-05-11T14:38:21Z</time>
      </trkpt>
      <trkpt lat="48.39096" lon="2.78885">
        <ele>48.7</ele>
        <time>2024-05-11T14:38:29Z</time>
      </trkpt>
      <trkpt lat="48.39104" lon="2.78887">
        <ele>47.6</ele>
        <time>2024-05-11T14:38:37Z</time>
      </trkpt>
      <trkpt lat="48.39107" lon="2.78883">
        <ele>48.6</ele>
        <time>2024-05-11T14:38:39Z</time>
      </trkpt>
      <trkpt lat="48.39113" lon="2.78874">
        <ele>50</ele>
        <time>2024-05-11T14:38:45Z</time>
      </trkpt>
      <trkpt lat="48.39124" lon="2.78878">
        <ele>48</ele>
        <time>2024-05-11T14:38:53Z</time>
      </trkpt>
      <trkpt lat="48.39125" lon="2.7888">
        <ele>47.6</ele>
        <time>2024-05-11T14:38:54Z</time>
      </trkpt>
      <trkpt lat="48.3913" lon="2.78879">
        <ele>47.2</ele>
        <time>2024-05-11T14:38:57Z</time>
      </trkpt>
      <trkpt lat="48.39142" lon="2.78881">
        <ele>46.1</ele>
        <time>2024-05-11T14:39:06Z</time>
      </trkpt>
      <trkpt lat="48.3915" lon="2.7888">
        <ele>46.2</ele>
        <time>2024-05-11T14:39:13Z</time>
      </trkpt>
      <trkpt lat="48.39151" lon="2.78879">
        <ele>46.2</ele>
        <time>2024-05-11T14:39:15Z</time>
      </trkpt>
      <trkpt lat="48.39158" lon="2.78879">
        <ele>46.2</ele>
        <time>2024-05-11T14:39:22Z</time>
      </trkpt>
      <trkpt lat="48.39165" lon="2.78878">
        <ele>46.2</ele>
        <time>2024-05-11T14:39:28Z</time>
      </trkpt>
      <trkpt lat="48.39174" lon="2.78874">
        <ele>46.6</ele>
        <time>2024-05-11T14:39:35Z</time>
      </trkpt>
      <trkpt lat="48.39181" lon="2.78877">
        <ele>46.3</ele>
        <time>2024-05-11T14:39:41Z</time>
      </trkpt>
      <trkpt lat="48.39191" lon="2.78875">
        <ele>46.5</ele>
        <time>2024-05-11T14:39:48Z</time>
      </trkpt>
      <trkpt lat="48.39204" lon="2.78878">
        <ele>46.2</ele>
        <time>2024-05-11T14:39:58Z</time>
      </trkpt>
      <trkpt lat="48.39212" lon="2.78876">
        <ele>46.4</ele>
        <time>2024-05-11T14:40:04Z</time>
      </trkpt>
      <trkpt lat="48.39223" lon="2.78875">
        <ele>46.5</ele>
        <time>2024-05-11T14:40:12Z</time>
      </trkpt>
      <trkpt lat="48.39225" lon="2.78876">
        <ele>46.4</ele>
        <time>2024-05-11T14:40:14Z</time>
      </trkpt>
      <trkpt lat="48.39237" lon="2.78874">
        <ele>46.6</ele>
        <time>2024-05-11T14:40:22Z</time>
      </trkpt>
      <trkpt lat="48.39246" lon="2.78875">
        <ele>46.5</ele>
        <time>2024-05-11T14:40:28Z</time>
      </trkpt>
      <trkpt lat="48.39253" lon="2.78878">
        <ele>46.2</ele>
        <time>2024-05-11T14:40:33Z</time>
      </trkpt>
      <trkpt lat="48.39258" lon="2.78878">
        <ele>46.3</ele>
        <time>2024-05-11T14:40:38Z</time>
      </trkpt>
      <trkpt lat="48.3926" lon="2.78877">
        <ele>46.5</ele>
        <time>2024-05-11T14:40:40Z</time>
      </trkpt>
      <trkpt lat="48.39266" lon="2.78877">
        <ele>46.5</ele>
        <time>2024-05-11T14:40:45Z</time>
      </trkpt>
      <trkpt lat="48.39275" lon="2.78874">
        <ele>47</ele>
        <time>2024-05-11T14:40:52Z</time>
      </trkpt>
      <trkpt lat="48.39285" lon="2.78876">
        <ele>46.8</ele>
        <time>2024-05-11T14:40:59Z</time>
      </trkpt>
      <trkpt lat="48.39288" lon="2.78876">
        <ele>46.9</ele>
        <time>2024-05-11T14:41:01Z</time>
      </trkpt>
      <trkpt lat="48.39294" lon="2.78877">
        <ele>46.8</ele>
        <time>2024-05-11T14:41:08Z</time>
      </trkpt>
      <trkpt lat="48.39295" lon="2.78877">
        <ele>46.8</ele>
        <time>2024-05-11T14:41:09Z</time>
      </trkpt>
      <trkpt lat="48.39306" lon="2.78876">
        <ele>46.9</ele>
        <time>2024-05-11T14:41:17Z</time>
      </trkpt>
      <trkpt lat="48.39315" lon="2.78874">
        <ele>46.9</ele>
        <time>2024-05-11T14:41:24Z</time>
      </trkpt>
      <trkpt lat="48.39323" lon="2.78872">
        <ele>47.1</ele>
        <time>2024-05-11T14:41:31Z</time>
      </trkpt>
      <trkpt lat="48.39328" lon="2.78872">
        <ele>46.9</ele>
        <time>2024-05-11T14:41:34Z</time>
      </trkpt>
      <trkpt lat="48.39333" lon="2.78869">
        <ele>47.1</ele>
        <time>2024-05-11T14:41:38Z</time>
      </trkpt>
      <trkpt lat="48.39336" lon="2.78868">
        <ele>47.2</ele>
        <time>2024-05-11T14:41:41Z</time>
      </trkpt>
      <trkpt lat="48.39345" lon="2.7887">
        <ele>46.7</ele>
        <time>2024-05-11T14:41:50Z</time>
      </trkpt>
      <trkpt lat="48.39354" lon="2.78871">
        <ele>46.5</ele>
        <time>2024-05-11T14:41:57Z</time>
      </trkpt>
      <trkpt lat="48.39356" lon="2.78871">
        <ele>46.4</ele>
        <time>2024-05-11T14:41:58Z</time>
      </trkpt>
      <trkpt lat="48.39363" lon="2.78872">
        <ele>46.3</ele>
        <time>2024-05-11T14:42:04Z</time>
      </trkpt>
      <trkpt lat="48.39365" lon="2.78871">
        <ele>46.6</ele>
        <time>2024-05-11T14:42:06Z</time>
      </trkpt>
      <trkpt lat="48.39374" lon="2.78872">
        <ele>47.1</ele>
        <time>2024-05-11T14:42:13Z</time>
      </trkpt>
      <trkpt lat="48.39384" lon="2.78873">
        <ele>47.5</ele>
        <time>2024-05-11T14:42:20Z</time>
      </trkpt>
      <trkpt lat="48.39392" lon="2.78876">
        <ele>47.3</ele>
        <time>2024-05-11T14:42:27Z</time>
      </trkpt>
      <trkpt lat="48.39401" lon="2.78877">
        <ele>47</ele>
        <time>2024-05-11T14:42:34Z</time>
      </trkpt>
      <trkpt lat="48.39402" lon="2.78877">
        <ele>47</ele>
        <time>2024-05-11T14:42:35Z</time>
      </trkpt>
      <trkpt lat="48.39405" lon="2.78876">
        <ele>47.1</ele>
        <time>2024-05-11T14:42:38Z</time>
      </trkpt>
      <trkpt lat="48.39414" lon="2.78876">
        <ele>47</ele>
        <time>2024-05-11T14:42:45Z</time>
      </trkpt>
      <trkpt lat="48.39418" lon="2.78877">
        <ele>46.8</ele>
        <time>2024-05-11T14:42:47Z</time>
      </trkpt>
      <trkpt lat="48.3943" lon="2.78878">
        <ele>46.8</ele>
        <time>2024-05-11T14:42:56Z</time>
      </trkpt>
      <trkpt lat="48.39434" lon="2.78878">
        <ele>46.8</ele>
        <time>2024-05-11T14:43:00Z</time>
      </trkpt>
      <trkpt lat="48.39443" lon="2.78876">
        <ele>46.9</ele>
        <time>2024-05-11T14:43:07Z</time>
      </trkpt>
      <trkpt lat="48.39444" lon="2.78876">
        <ele>47</ele>
        <time>2024-05-11T14:43:08Z</time>
      </trkpt>
      <trkpt lat="48.39454" lon="2.78876">
        <ele>47.1</ele>
        <time>2024-05-11T14:43:16Z</time>
      </trkpt>
      <trkpt lat="48.39462" lon="2.78875">
        <ele>47.3</ele>
        <time>2024-05-11T14:43:23Z</time>
      </trkpt>
      <trkpt lat="48.39472" lon="2.78876">
        <ele>47.4</ele>
        <time>2024-05-11T14:43:29Z</time>
      </trkpt>
      <trkpt lat="48.39478" lon="2.78877">
        <ele>47.2</ele>
        <time>2024-05-11T14:43:34Z</time>
      </trkpt>
      <trkpt lat="48.39483" lon="2.78877">
        <ele>47.1</ele>
        <time>2024-05-11T14:43:38Z</time>
      </trkpt>
      <trkpt lat="48.39489" lon="2.78878">
        <ele>47</ele>
        <time>2024-05-11T14:43:43Z</time>
      </trkpt>
      <trkpt lat="48.395" lon="2.78882">
        <ele>46.5</ele>
        <time>2024-05-11T14:43:52Z</time>
      </trkpt>
      <trkpt lat="48.3951" lon="2.78885">
        <ele>46.3</ele>
        <time>2024-05-11T14:44:00Z</time>
      </trkpt>
      <trkpt lat="48.39517" lon="2.78887">
        <ele>46.1</ele>
        <time>2024-05-11T14:44:06Z</time>
      </trkpt>
      <trkpt lat="48.39519" lon="2.78887">
        <ele>46.1</ele>
        <time>2024-05-11T14:44:08Z</time>
      </trkpt>
      <trkpt lat="48.39525" lon="2.78888">
        <ele>46</ele>
        <time>2024-05-11T14:44:13Z</time>
      </trkpt>
      <trkpt lat="48.39537" lon="2.78889">
        <ele>46</ele>
        <time>2024-05-11T14:44:23Z</time>
      </trkpt>
      <trkpt lat="48.39545" lon="2.7889">
        <ele>46</ele>
        <time>2024-05-11T14:44:30Z</time>
      </trkpt>
      <trkpt lat="48.39548" lon="2.7889">
        <ele>46</ele>
        <time>2024-05-11T14:44:32Z</time>
      </trkpt>
      <trkpt lat="48.39557" lon="2.78893">
        <ele>46</ele>
        <time>2024-05-11T14:44:39Z</time>
      </trkpt>
      <trkpt lat="48.39567" lon="2.78896">
        <ele>46</ele>
        <time>2024-05-11T14:44:47Z</time>
      </trkpt>
      <trkpt lat="48.39575" lon="2.78898">
        <ele>46</ele>
        <time>2024-05-11T14:44:53Z</time>
      </trkpt>
      <trkpt lat="48.39583" lon="2.789">
        <ele>46</ele>
        <time>2024-05-11T14:45:00Z</time>
      </trkpt>
      <trkpt lat="48.39591" lon="2.78901">
        <ele>46</ele>
        <time>2024-05-11T14:45:08Z</time>
      </trkpt>
      <trkpt lat="48.39601" lon="2.78902">
        <ele>46</ele>
        <time>2024-05-11T14:45:16Z</time>
      </trkpt>
      <trkpt lat="48.39604" lon="2.78903">
        <ele>46</ele>
        <time>2024-05-11T14:45:18Z</time>
      </trkpt>
      <trkpt lat="48.39612" lon="2.78902">
        <ele>46</ele>
        <time>2024-05-11T14:45:26Z</time>
      </trkpt>
      <trkpt lat="48.39614" lon="2.78903">
        <ele>46.1</ele>
        <time>2024-05-11T14:45:28Z</time>
      </trkpt>
      <trkpt lat="48.39626" lon="2.78906">
        <ele>46.2</ele>
        <time>2024-05-11T14:45:37Z</time>
      </trkpt>
      <trkpt lat="48.39632" lon="2.78905">
        <ele>46.3</ele>
        <time>2024-05-11T14:45:43Z</time>
      </trkpt>
      <trkpt lat="48.39643" lon="2.78909">
        <ele>46.4</ele>
        <time>2024-05-11T14:45:50Z</time>
      </trkpt>
      <trkpt lat="48.39648" lon="2.7891">
        <ele>46.4</ele>
        <time>2024-05-11T14:45:55Z</time>
      </trkpt>
      <trkpt lat="48.39651" lon="2.7891">
        <ele>46.4</ele>
        <time>2024-05-11T14:45:57Z</time>
      </trkpt>
      <trkpt lat="48.3966" lon="2.78912">
        <ele>46.4</ele>
        <time>2024-05-11T14:46:05Z</time>
      </trkpt>
      <trkpt lat="48.3967" lon="2.78914">
        <ele>46.4</ele>
        <time>2024-05-11T14:46:12Z</time>
      </trkpt>
      <trkpt lat="48.3968" lon="2.78917">
        <ele>46.5</ele>
        <time>2024-05-11T14:46:19Z</time>
      </trkpt>
      <trkpt lat="48.39692" lon="2.78923">
        <ele>46.5</ele>
        <time>2024-05-11T14:46:28Z</time>
      </trkpt>
      <trkpt lat="48.39698" lon="2.78924">
        <ele>46.6</ele>
        <time>2024-05-11T14:46:35Z</time>
      </trkpt>
      <trkpt lat="48.39704" lon="2.78928">
        <ele>46.5</ele>
        <time>2024-05-11T14:46:42Z</time>
      </trkpt>
      <trkpt lat="48.39711" lon="2.78932">
        <ele>46.5</ele>
        <time>2024-05-11T14:46:49Z</time>
      </trkpt>
      <trkpt lat="48.39722" lon="2.78935">
        <ele>46.7</ele>
        <time>2024-05-11T14:46:57Z</time>
      </trkpt>
      <trkpt lat="48.39735" lon="2.78939">
        <ele>46.9</ele>
        <time>2024-05-11T14:47:05Z</time>
      </trkpt>
      <trkpt lat="48.39744" lon="2.78943">
        <ele>47</ele>
        <time>2024-05-11T14:47:11Z</time>
      </trkpt>
      <trkpt lat="48.39752" lon="2.78944">
        <ele>47.1</ele>
        <time>2024-05-11T14:47:17Z</time>
      </trkpt>
      <trkpt lat="48.39763" lon="2.7895">
        <ele>46.7</ele>
        <time>2024-05-11T14:47:26Z</time>
      </trkpt>
      <trkpt lat="48.39769" lon="2.78952">
        <ele>46.5</ele>
        <time>2024-05-11T14:47:32Z</time>
      </trkpt>
      <trkpt lat="48.39771" lon="2.78952">
        <ele>46.5</ele>
        <time>2024-05-11T14:47:36Z</time>
      </trkpt>
      <trkpt lat="48.3978" lon="2.78955">
        <ele>46.3</ele>
        <time>2024-05-11T14:47:44Z</time>
      </trkpt>
      <trkpt lat="48.39785" lon="2.78954">
        <ele>46.6</ele>
        <time>2024-05-11T14:47:47Z</time>
      </trkpt>
      <trkpt lat="48.39799" lon="2.78954">
        <ele>47.1</ele>
        <time>2024-05-11T14:47:56Z</time>
      </trkpt>
      <trkpt lat="48.39806" lon="2.78957">
        <ele>47.1</ele>
        <time>2024-05-11T14:48:03Z</time>
      </trkpt>
      <trkpt lat="48.39807" lon="2.78958">
        <ele>47.1</ele>
        <time>2024-05-11T14:48:04Z</time>
      </trkpt>
      <trkpt lat="48.3981" lon="2.78959">
        <ele>47.1</ele>
        <time>2024-05-11T14:48:11Z</time>
      </trkpt>
      <trkpt lat="48.39811" lon="2.78959">
        <ele>47.1</ele>
        <time>2024-05-11T14:48:21Z</time>
      </trkpt>
      <trkpt lat="48.39812" lon="2.7896">
        <ele>47</ele>
        <time>2024-05-11T14:48:36Z</time>
      </trkpt>
      <trkpt lat="48.39812" lon="2.7896">
        <ele>47</ele>
        <time>2024-05-11T14:48:49Z</time>
      </trkpt>
      <trkpt lat="48.39814" lon="2.78961">
        <ele>47</ele>
        <time>2024-05-11T14:48:57Z</time>
      </trkpt>
      <trkpt lat="48.39817" lon="2.78963">
        <ele>46.9</ele>
        <time>2024-05-11T14:49:04Z</time>
      </trkpt>
      <trkpt lat="48.39823" lon="2.78967">
        <ele>46.9</ele>
        <time>2024-05-11T14:49:11Z</time>
      </trkpt>
      <trkpt lat="48.3983" lon="2.78969">
        <ele>47</ele>
        <time>2024-05-11T14:49:18Z</time>
      </trkpt>
      <trkpt lat="48.39835" lon="2.78971">
        <ele>47</ele>
        <time>2024-05-11T14:49:22Z</time>
      </trkpt>
      <trkpt lat="48.39845" lon="2.78974">
        <ele>46.5</ele>
        <time>2024-05-11T14:49:29Z</time>
      </trkpt>
      <trkpt lat="48.39849" lon="2.78976">
        <ele>46.3</ele>
        <time>2024-05-11T14:49:33Z</time>
      </trkpt>
      <trkpt lat="48.39856" lon="2.78979">
        <ele>46.1</ele>
        <time>2024-05-11T14:49:40Z</time>
      </trkpt>
      <trkpt lat="48.39862" lon="2.78981">
        <ele>46</ele>
        <time>2024-05-11T14:49:45Z</time>
      </trkpt>
      <trkpt lat="48.39871" lon="2.78983">
        <ele>46.2</ele>
        <time>2024-05-11T14:49:52Z</time>
      </trkpt>
      <trkpt lat="48.39872" lon="2.78983">
        <ele>46.2</ele>
        <time>2024-05-11T14:49:53Z</time>
      </trkpt>
      <trkpt lat="48.39881" lon="2.78985">
        <ele>46.4</ele>
        <time>2024-05-11T14:50:01Z</time>
      </trkpt>
      <trkpt lat="48.39891" lon="2.7899">
        <ele>46.4</ele>
        <time>2024-05-11T14:50:09Z</time>
      </trkpt>
      <trkpt lat="48.39892" lon="2.78991">
        <ele>46.3</ele>
        <time>2024-05-11T14:50:10Z</time>
      </trkpt>
      <trkpt lat="48.39902" lon="2.78992">
        <ele>46.3</ele>
        <time>2024-05-11T14:50:19Z</time>
      </trkpt>
      <trkpt lat="48.39912" lon="2.78997">
        <ele>46.1</ele>
        <time>2024-05-11T14:50:28Z</time>
      </trkpt>
      <trkpt lat="48.39923" lon="2.79004">
        <ele>46</ele>
        <time>2024-05-11T14:50:37Z</time>
      </trkpt>
      <trkpt lat="48.3993" lon="2.79006">
        <ele>46.1</ele>
        <time>2024-05-11T14:50:43Z</time>
      </trkpt>
      <trkpt lat="48.39933" lon="2.79007">
        <ele>46.1</ele>
        <time>2024-05-11T14:50:46Z</time>
      </trkpt>
      <trkpt lat="48.39943" lon="2.7901">
        <ele>46.3</ele>
        <time>2024-05-11T14:50:55Z</time>
      </trkpt>
      <trkpt lat="48.39951" lon="2.7901">
        <ele>46.5</ele>
        <time>2024-05-11T14:51:02Z</time>
      </trkpt>
      <trkpt lat="48.39952" lon="2.79011">
        <ele>46.6</ele>
        <time>2024-05-11T14:51:03Z</time>
      </trkpt>
      <trkpt lat="48.39963" lon="2.79014">
        <ele>46.8</ele>
        <time>2024-05-11T14:51:11Z</time>
      </trkpt>
      <trkpt lat="48.39972" lon="2.79009">
        <ele>47</ele>
        <time>2024-05-11T14:51:20Z</time>
      </trkpt>
      <trkpt lat="48.39975" lon="2.79002">
        <ele>47</ele>
        <time>2024-05-11T14:51:25Z</time>
      </trkpt>
      <trkpt lat="48.39976" lon="2.79">
        <ele>47</ele>
        <time>2024-05-11T14:51:29Z</time>
      </trkpt>
      <trkpt lat="48.39978" lon="2.78984">
        <ele>48.1</ele>
        <time>2024-05-11T14:51:40Z</time>
      </trkpt>
      <trkpt lat="48.39982" lon="2.78971">
        <ele>49.1</ele>
        <time>2024-05-11T14:51:47Z</time>
      </trkpt>
      <trkpt lat="48.39982" lon="2.78967">
        <ele>49.4</ele>
        <time>2024-05-11T14:51:52Z</time>
      </trkpt>
      <trkpt lat="48.39978" lon="2.78957">
        <ele>50.2</ele>
        <time>2024-05-11T14:51:59Z</time>
      </trkpt>
      <trkpt lat="48.39974" lon="2.78949">
        <ele>50.7</ele>
        <time>2024-05-11T14:52:06Z</time>
      </trkpt>
      <trkpt lat="48.39968" lon="2.7894">
        <ele>52.2</ele>
        <time>2024-05-11T14:52:15Z</time>
      </trkpt>
      <trkpt lat="48.39963" lon="2.78933">
        <ele>54.1</ele>
        <time>2024-05-11T14:52:22Z</time>
      </trkpt>
      <trkpt lat="48.39962" lon="2.78932">
        <ele>54.3</ele>
        <time>2024-05-11T14:52:23Z</time>
      </trkpt>
      <trkpt lat="48.39955" lon="2.78926">
        <ele>55.9</ele>
        <time>2024-05-11T14:52:32Z</time>
      </trkpt>
      <trkpt lat="48.39954" lon="2.78926">
        <ele>56</ele>
        <time>2024-05-11T14:52:34Z</time>
      </trkpt>
      <trkpt lat="48.39949" lon="2.78922">
        <ele>57.2</ele>
        <time>2024-05-11T14:52:41Z</time>
      </trkpt>
      <trkpt lat="48.3995" lon="2.78919">
        <ele>58.3</ele>
        <time>2024-05-11T14:52:47Z</time>
      </trkpt>
      <trkpt lat="48.39949" lon="2.78914">
        <ele>59.4</ele>
        <time>2024-05-11T14:52:54Z</time>
      </trkpt>
      <trkpt lat="48.3995" lon="2.78907">
        <ele>60.5</ele>
        <time>2024-05-11T14:53:03Z</time>
      </trkpt>
      <trkpt lat="48.3995" lon="2.78899">
        <ele>62</ele>
        <time>2024-05-11T14:53:11Z</time>
      </trkpt>
      <trkpt lat="48.3995" lon="2.78892">
        <ele>63.5</ele>
        <time>2024-05-11T14:53:18Z</time>
      </trkpt>
      <trkpt lat="48.39952" lon="2.78884">
        <ele>64.9</ele>
        <time>2024-05-11T14:53:24Z</time>
      </trkpt>
      <trkpt lat="48.39953" lon="2.78877">
        <ele>66.2</ele>
        <time>2024-05-11T14:53:32Z</time>
      </trkpt>
      <trkpt lat="48.39954" lon="2.78868">
        <ele>68.1</ele>
        <time>2024-05-11T14:53:40Z</time>
      </trkpt>
      <trkpt lat="48.39955" lon="2.78863">
        <ele>68.9</ele>
        <time>2024-05-11T14:53:47Z</time>
      </trkpt>
      <trkpt lat="48.39956" lon="2.78857">
        <ele>69.9</ele>
        <time>2024-05-11T14:53:51Z</time>
      </trkpt>
      <trkpt lat="48.39956" lon="2.78847">
        <ele>71.2</ele>
        <time>2024-05-11T14:53:58Z</time>
      </trkpt>
      <trkpt lat="48.39955" lon="2.78845">
        <ele>71.5</ele>
        <time>2024-05-11T14:54:05Z</time>
      </trkpt>
      <trkpt lat="48.39955" lon="2.78843">
        <ele>71.7</ele>
        <time>2024-05-11T14:54:19Z</time>
      </trkpt>
      <trkpt lat="48.39955" lon="2.78843">
        <ele>71.7</ele>
        <time>2024-05-11T14:54:31Z</time>
      </trkpt>
      <trkpt lat="48.39955" lon="2.78843">
        <ele>71.8</ele>
        <time>2024-05-11T14:54:43Z</time>
      </trkpt>
      <trkpt lat="48.39954" lon="2.78843">
        <ele>71.8</ele>
        <time>2024-05-11T14:55:01Z</time>
      </trkpt>
      <trkpt lat="48.39955" lon="2.78843">
        <ele>71.7</ele>
        <time>2024-05-11T14:55:08Z</time>
      </trkpt>
      <trkpt lat="48.39951" lon="2.78843">
        <ele>71.8</ele>
        <time>2024-05-11T14:55:16Z</time>
      </trkpt>
      <trkpt lat="48.39952" lon="2.78843">
        <ele>71.7</ele>
        <time>2024-05-11T14:55:29Z</time>
      </trkpt>
      <trkpt lat="48.39951" lon="2.78843">
        <ele>71.7</ele>
        <time>2024-05-11T14:55:45Z</time>
      </trkpt>
      <trkpt lat="48.39951" lon="2.78843">
        <ele>71.7</ele>
        <time>2024-05-11T14:55:54Z</time>
      </trkpt>
      <trkpt lat="48.39951" lon="2.78843">
        <ele>71.7</ele>
        <time>2024-05-11T14:56:10Z</time>
      </trkpt>
      <trkpt lat="48.39951" lon="2.78842">
        <ele>71.8</ele>
        <time>2024-05-11T14:56:20Z</time>
      </trkpt>
      <trkpt lat="48.39951" lon="2.78842">
        <ele>71.8</ele>
        <time>2024-05-11T14:56:35Z</time>
      </trkpt>
      <trkpt lat="48.39951" lon="2.78842">
        <ele>71.9</ele>
        <time>2024-05-11T14:56:48Z</time>
      </trkpt>
      <trkpt lat="48.39951" lon="2.78842">
        <ele>71.9</ele>
        <time>2024-05-11T14:57:01Z</time>
      </trkpt>
      <trkpt lat="48.39951" lon="2.78842">
        <ele>71.8</ele>
        <time>2024-05-11T14:57:16Z</time>
      </trkpt>
      <trkpt lat="48.39951" lon="2.78841">
        <ele>71.9</ele>
        <time>2024-05-11T14:57:30Z</time>
      </trkpt>
      <trkpt lat="48.39951" lon="2.78842">
        <ele>71.9</ele>
        <time>2024-05-11T14:57:43Z</time>
      </trkpt>
      <trkpt lat="48.39951" lon="2.78842">
        <ele>71.9</ele>
        <time>2024-05-11T14:58:01Z</time>
      </trkpt>
      <trkpt lat="48.39951" lon="2.78842">
        <ele>71.9</ele>
        <time>2024-05-11T14:58:16Z</time>
      </trkpt>
      <trkpt lat="48.39951" lon="2.78842">
        <ele>71.9</ele>
        <time>2024-05-11T14:58:26Z</time>
      </trkpt>
      <trkpt lat="48.39951" lon="2.78841">
        <ele>71.9</ele>
        <time>2024-05-11T14:58:43Z</time>
      </trkpt>
      <trkpt lat="48.39951" lon="2.78841">
        <ele>72</ele>
        <time>2024-05-11T14:58:58Z</time>
      </trkpt>
      <trkpt lat="48.39952" lon="2.78841">
        <ele>72</ele>
        <time>2024-05-11T14:59:07Z</time>
      </trkpt>
      <trkpt lat="48.39952" lon="2.78841">
        <ele>72</ele>
        <time>2024-05-11T14:59:19Z</time>
      </trkpt>
      <trkpt lat="48.39952" lon="2.7884">
        <ele>72.1</ele>
        <time>2024-05-11T14:59:36Z</time>
      </trkpt>
      <trkpt lat="48.39952" lon="2.78841">
        <ele>72</ele>
        <time>2024-05-11T14:59:48Z</time>
      </trkpt>
      <trkpt lat="48.39952" lon="2.78841">
        <ele>71.9</ele>
        <time>2024-05-11T14:59:54Z</time>
      </trkpt>
      <trkpt lat="48.39952" lon="2.78842">
        <ele>71.9</ele>
        <time>2024-05-11T15:00:02Z</time>
      </trkpt>
      <trkpt lat="48.39952" lon="2.78842">
        <ele>71.9</ele>
        <time>2024-05-11T15:00:15Z</time>
      </trkpt>
      <trkpt lat="48.39952" lon="2.78842">
        <ele>71.9</ele>
        <time>2024-05-11T15:00:28Z</time>
      </trkpt>
      <trkpt lat="48.39952" lon="2.78841">
        <ele>71.9</ele>
        <time>2024-05-11T15:00:42Z</time>
      </trkpt>
      <trkpt lat="48.39951" lon="2.7884">
        <ele>72.1</ele>
        <time>2024-05-11T15:00:54Z</time>
      </trkpt>
      <trkpt lat="48.39952" lon="2.7884">
        <ele>72.2</ele>
        <time>2024-05-11T15:01:01Z</time>
      </trkpt>
      <trkpt lat="48.39951" lon="2.7884">
        <ele>72.1</ele>
        <time>2024-05-11T15:01:12Z</time>
      </trkpt>
      <trkpt lat="48.39951" lon="2.7884">
        <ele>72.2</ele>
        <time>2024-05-11T15:01:24Z</time>
      </trkpt>
      <trkpt lat="48.39951" lon="2.78839">
        <ele>72.2</ele>
        <time>2024-05-11T15:01:38Z</time>
      </trkpt>
      <trkpt lat="48.39952" lon="2.7884">
        <ele>72.2</ele>
        <time>2024-05-11T15:01:51Z</time>
      </trkpt>
      <trkpt lat="48.39952" lon="2.7884">
        <ele>72.2</ele>
        <time>2024-05-11T15:02:05Z</time>
      </trkpt>
      <trkpt lat="48.39952" lon="2.78839">
        <ele>72.2</ele>
        <time>2024-05-11T15:02:12Z</time>
      </trkpt>
      <trkpt lat="48.39953" lon="2.78835">
        <ele>72.8</ele>
        <time>2024-05-11T15:02:17Z</time>
      </trkpt>
      <trkpt lat="48.39953" lon="2.78829">
        <ele>73.3</ele>
        <time>2024-05-11T15:02:24Z</time>
      </trkpt>
      <trkpt lat="48.39953" lon="2.78822">
        <ele>73.7</ele>
        <time>2024-05-11T15:02:30Z</time>
      </trkpt>
      <trkpt lat="48.39953" lon="2.78812">
        <ele>74.3</ele>
        <time>2024-05-11T15:02:37Z</time>
      </trkpt>
      <trkpt lat="48.39953" lon="2.78808">
        <ele>74.5</ele>
        <time>2024-05-11T15:02:39Z</time>
      </trkpt>
      <trkpt lat="48.39955" lon="2.78794">
        <ele>75</ele>
        <time>2024-05-11T15:02:48Z</time>
      </trkpt>
      <trkpt lat="48.39956" lon="2.78788">
        <ele>75.2</ele>
        <time>2024-05-11T15:02:52Z</time>
      </trkpt>
      <trkpt lat="48.39958" lon="2.78781">
        <ele>75.4</ele>
        <time>2024-05-11T15:02:57Z</time>
      </trkpt>
      <trkpt lat="48.39955" lon="2.7877">
        <ele>75.9</ele>
        <time>2024-05-11T15:03:05Z</time>
      </trkpt>
      <trkpt lat="48.39956" lon="2.78757">
        <ele>76.3</ele>
        <time>2024-05-11T15:03:13Z</time>
      </trkpt>
      <trkpt lat="48.39957" lon="2.78748">
        <ele>76.6</ele>
        <time>2024-05-11T15:03:18Z</time>
      </trkpt>
      <trkpt lat="48.39961" lon="2.78735">
        <ele>77</ele>
        <time>2024-05-11T15:03:25Z</time>
      </trkpt>
      <trkpt lat="48.39961" lon="2.78726">
        <ele>77.3</ele>
        <time>2024-05-11T15:03:30Z</time>
      </trkpt>
      <trkpt lat="48.39963" lon="2.78714">
        <ele>77.5</ele>
        <time>2024-05-11T15:03:37Z</time>
      </trkpt>
      <trkpt lat="48.39967" lon="2.78703">
        <ele>77.7</ele>
        <time>2024-05-11T15:03:43Z</time>
      </trkpt>
      <trkpt lat="48.39967" lon="2.78702">
        <ele>77.8</ele>
        <time>2024-05-11T15:03:44Z</time>
      </trkpt>
      <trkpt lat="48.39965" lon="2.78689">
        <ele>78.2</ele>
        <time>2024-05-11T15:03:52Z</time>
      </trkpt>
      <trkpt lat="48.39962" lon="2.78683">
        <ele>78.4</ele>
        <time>2024-05-11T15:03:56Z</time>
      </trkpt>
      <trkpt lat="48.39967" lon="2.78681">
        <ele>78.5</ele>
        <time>2024-05-11T15:04:05Z</time>
      </trkpt>
      <trkpt lat="48.39974" lon="2.78681">
        <ele>78.5</ele>
        <time>2024-05-11T15:04:11Z</time>
      </trkpt>
      <trkpt lat="48.39977" lon="2.78682">
        <ele>78.4</ele>
        <time>2024-05-11T15:04:15Z</time>
      </trkpt>
      <trkpt lat="48.39987" lon="2.78686">
        <ele>78.3</ele>
        <time>2024-05-11T15:04:23Z</time>
      </trkpt>
      <trkpt lat="48.3999" lon="2.78687">
        <ele>78.3</ele>
        <time>2024-05-11T15:04:25Z</time>
      </trkpt>
      <trkpt lat="48.39994" lon="2.7869">
        <ele>78.1</ele>
        <time>2024-05-11T15:04:29Z</time>
      </trkpt>
      <trkpt lat="48.39996" lon="2.78691">
        <ele>78.1</ele>
        <time>2024-05-11T15:04:31Z</time>
      </trkpt>
      <trkpt lat="48.39999" lon="2.78693">
        <ele>78</ele>
        <time>2024-05-11T15:04:34Z</time>
      </trkpt>
      <trkpt lat="48.40009" lon="2.78698">
        <ele>77.9</ele>
        <time>2024-05-11T15:04:42Z</time>
      </trkpt>
      <trkpt lat="48.40018" lon="2.78703">
        <ele>77.7</ele>
        <time>2024-05-11T15:04:50Z</time>
      </trkpt>
      <trkpt lat="48.40019" lon="2.78703">
        <ele>77.7</ele>
        <time>2024-05-11T15:04:51Z</time>
      </trkpt>
      <trkpt lat="48.40025" lon="2.78708">
        <ele>77.5</ele>
        <time>2024-05-11T15:04:57Z</time>
      </trkpt>
      <trkpt lat="48.40029" lon="2.78704">
        <ele>77.7</ele>
        <time>2024-05-11T15:05:01Z</time>
      </trkpt>
      <trkpt lat="48.40031" lon="2.787">
        <ele>77.8</ele>
        <time>2024-05-11T15:05:03Z</time>
      </trkpt>
      <trkpt lat="48.40031" lon="2.78693">
        <ele>78</ele>
        <time>2024-05-11T15:05:07Z</time>
      </trkpt>
      <trkpt lat="48.40033" lon="2.7868">
        <ele>78.4</ele>
        <time>2024-05-11T15:05:14Z</time>
      </trkpt>
      <trkpt lat="48.40034" lon="2.78667">
        <ele>78.7</ele>
        <time>2024-05-11T15:05:21Z</time>
      </trkpt>
      <trkpt lat="48.40033" lon="2.78651">
        <ele>78.9</ele>
        <time>2024-05-11T15:05:30Z</time>
      </trkpt>
      <trkpt lat="48.40032" lon="2.7864">
        <ele>79</ele>
        <time>2024-05-11T15:05:38Z</time>
      </trkpt>
      <trkpt lat="48.40034" lon="2.78624">
        <ele>79.5</ele>
        <time>2024-05-11T15:05:47Z</time>
      </trkpt>
      <trkpt lat="48.40035" lon="2.7861">
        <ele>80</ele>
        <time>2024-05-11T15:05:55Z</time>
      </trkpt>
      <trkpt lat="48.40036" lon="2.78597">
        <ele>80.5</ele>
        <time>2024-05-11T15:06:03Z</time>
      </trkpt>
      <trkpt lat="48.40036" lon="2.78587">
        <ele>80.9</ele>
        <time>2024-05-11T15:06:09Z</time>
      </trkpt>
      <trkpt lat="48.40036" lon="2.78577">
        <ele>81.2</ele>
        <time>2024-05-11T15:06:15Z</time>
      </trkpt>
      <trkpt lat="48.40036" lon="2.78569">
        <ele>81.5</ele>
        <time>2024-05-11T15:06:19Z</time>
      </trkpt>
      <trkpt lat="48.40034" lon="2.78552">
        <ele>82.2</ele>
        <time>2024-05-11T15:06:29Z</time>
      </trkpt>
      <trkpt lat="48.40033" lon="2.78539">
        <ele>83.1</ele>
        <time>2024-05-11T15:06:36Z</time>
      </trkpt>
      <trkpt lat="48.40031" lon="2.78523">
        <ele>84</ele>
        <time>2024-05-11T15:06:44Z</time>
      </trkpt>
      <trkpt lat="48.40034" lon="2.78509">
        <ele>84.5</ele>
        <time>2024-05-11T15:06:50Z</time>
      </trkpt>
      <trkpt lat="48.40034" lon="2.78506">
        <ele>84.5</ele>
        <time>2024-05-11T15:06:52Z</time>
      </trkpt>
      <trkpt lat="48.40037" lon="2.78496">
        <ele>84.8</ele>
        <time>2024-05-11T15:06:58Z</time>
      </trkpt>
      <trkpt lat="48.40043" lon="2.78484">
        <ele>85.3</ele>
        <time>2024-05-11T15:07:05Z</time>
      </trkpt>
      <trkpt lat="48.40043" lon="2.78483">
        <ele>85.4</ele>
        <time>2024-05-11T15:07:06Z</time>
      </trkpt>
      <trkpt lat="48.40038" lon="2.78472">
        <ele>86</ele>
        <time>2024-05-11T15:07:12Z</time>
      </trkpt>
      <trkpt lat="48.40034" lon="2.78463">
        <ele>86.3</ele>
        <time>2024-05-11T15:07:19Z</time>
      </trkpt>
      <trkpt lat="48.4003" lon="2.78464">
        <ele>86.3</ele>
        <time>2024-05-11T15:07:23Z</time>
      </trkpt>
      <trkpt lat="48.40016" lon="2.78462">
        <ele>86.4</ele>
        <time>2024-05-11T15:07:33Z</time>
      </trkpt>
      <trkpt lat="48.40012" lon="2.78461">
        <ele>86.4</ele>
        <time>2024-05-11T15:07:35Z</time>
      </trkpt>
      <trkpt lat="48.40004" lon="2.78457">
        <ele>86.5</ele>
        <time>2024-05-11T15:07:41Z</time>
      </trkpt>
      <trkpt lat="48.40001" lon="2.78456">
        <ele>86.6</ele>
        <time>2024-05-11T15:07:43Z</time>
      </trkpt>
      <trkpt lat="48.39998" lon="2.78444">
        <ele>87.1</ele>
        <time>2024-05-11T15:07:50Z</time>
      </trkpt>
      <trkpt lat="48.39997" lon="2.78437">
        <ele>87.4</ele>
        <time>2024-05-11T15:07:54Z</time>
      </trkpt>
      <trkpt lat="48.39996" lon="2.78429">
        <ele>87.7</ele>
        <time>2024-05-11T15:07:58Z</time>
      </trkpt>
      <trkpt lat="48.39994" lon="2.78417">
        <ele>88.2</ele>
        <time>2024-05-11T15:08:04Z</time>
      </trkpt>
      <trkpt lat="48.39993" lon="2.78406">
        <ele>88.6</ele>
        <time>2024-05-11T15:08:10Z</time>
      </trkpt>
      <trkpt lat="48.39988" lon="2.78389">
        <ele>89.4</ele>
        <time>2024-05-11T15:08:20Z</time>
      </trkpt>
      <trkpt lat="48.39988" lon="2.78385">
        <ele>89.6</ele>
        <time>2024-05-11T15:08:22Z</time>
      </trkpt>
      <trkpt lat="48.39986" lon="2.78371">
        <ele>90.1</ele>
        <time>2024-05-11T15:08:30Z</time>
      </trkpt>
      <trkpt lat="48.39984" lon="2.78359">
        <ele>90.6</ele>
        <time>2024-05-11T15:08:37Z</time>
      </trkpt>
      <trkpt lat="48.39982" lon="2.78352">
        <ele>90.8</ele>
        <time>2024-05-11T15:08:42Z</time>
      </trkpt>
      <trkpt lat="48.39981" lon="2.78345">
        <ele>90.9</ele>
        <time>2024-05-11T15:08:46Z</time>
      </trkpt>
      <trkpt lat="48.3998" lon="2.78333">
        <ele>91</ele>
        <time>2024-05-11T15:08:53Z</time>
      </trkpt>
      <trkpt lat="48.39976" lon="2.7832">
        <ele>91.5</ele>
        <time>2024-05-11T15:09:02Z</time>
      </trkpt>
      <trkpt lat="48.39974" lon="2.78312">
        <ele>91.8</ele>
        <time>2024-05-11T15:09:07Z</time>
      </trkpt>
      <trkpt lat="48.39972" lon="2.78302">
        <ele>92.1</ele>
        <time>2024-05-11T15:09:13Z</time>
      </trkpt>
      <trkpt lat="48.39971" lon="2.78301">
        <ele>92.2</ele>
        <time>2024-05-11T15:09:14Z</time>
      </trkpt>
      <trkpt lat="48.39969" lon="2.78293">
        <ele>92.5</ele>
        <time>2024-05-11T15:09:21Z</time>
      </trkpt>
      <trkpt lat="48.39967" lon="2.78289">
        <ele>92.7</ele>
        <time>2024-05-11T15:09:27Z</time>
      </trkpt>
      <trkpt lat="48.39964" lon="2.78278">
        <ele>93</ele>
        <time>2024-05-11T15:09:35Z</time>
      </trkpt>
      <trkpt lat="48.39963" lon="2.78267">
        <ele>93.4</ele>
        <time>2024-05-11T15:09:43Z</time>
      </trkpt>
      <trkpt lat="48.39963" lon="2.78254">
        <ele>93.9</ele>
        <time>2024-05-11T15:09:50Z</time>
      </trkpt>
      <trkpt lat="48.39961" lon="2.78242">
        <ele>94.3</ele>
        <time>2024-05-11T15:09:57Z</time>
      </trkpt>
      <trkpt lat="48.39958" lon="2.78234">
        <ele>94.6</ele>
        <time>2024-05-11T15:10:03Z</time>
      </trkpt>
      <trkpt lat="48.39957" lon="2.78228">
        <ele>94.8</ele>
        <time>2024-05-11T15:10:07Z</time>
      </trkpt>
      <trkpt lat="48.39957" lon="2.78221">
        <ele>95</ele>
        <time>2024-05-11T15:10:11Z</time>
      </trkpt>
      <trkpt lat="48.39957" lon="2.78218">
        <ele>95</ele>
        <time>2024-05-11T15:10:13Z</time>
      </trkpt>
      <trkpt lat="48.39955" lon="2.78211">
        <ele>95</ele>
        <time>2024-05-11T15:10:20Z</time>
      </trkpt>
      <trkpt lat="48.39955" lon="2.78198">
        <ele>95</ele>
        <time>2024-05-11T15:10:28Z</time>
      </trkpt>
      <trkpt lat="48.39953" lon="2.78187">
        <ele>95.3</ele>
        <time>2024-05-11T15:10:35Z</time>
      </trkpt>
      <trkpt lat="48.39952" lon="2.78171">
        <ele>95.8</ele>
        <time>2024-05-11T15:10:44Z</time>
      </trkpt>
      <trkpt lat="48.3995" lon="2.78161">
        <ele>96</ele>
        <time>2024-05-11T15:10:52Z</time>
      </trkpt>
      <trkpt lat="48.3995" lon="2.78154">
        <ele>96</ele>
        <time>2024-05-11T15:10:57Z</time>
      </trkpt>
      <trkpt lat="48.39946" lon="2.78142">
        <ele>96</ele>
        <time>2024-05-11T15:11:05Z</time>
      </trkpt>
      <trkpt lat="48.39945" lon="2.78126">
        <ele>96</ele>
        <time>2024-05-11T15:11:14Z</time>
      </trkpt>
      <trkpt lat="48.39942" lon="2.78113">
        <ele>96</ele>
        <time>2024-05-11T15:11:23Z</time>
      </trkpt>
      <trkpt lat="48.39939" lon="2.78101">
        <ele>96</ele>
        <time>2024-05-11T15:11:30Z</time>
      </trkpt>
      <trkpt lat="48.39938" lon="2.78091">
        <ele>96</ele>
        <time>2024-05-11T15:11:37Z</time>
      </trkpt>
      <trkpt lat="48.39938" lon="2.78083">
        <ele>96</ele>
        <time>2024-05-11T15:11:42Z</time>
      </trkpt>
      <trkpt lat="48.39936" lon="2.78072">
        <ele>96</ele>
        <time>2024-05-11T15:11:49Z</time>
      </trkpt>
      <trkpt lat="48.39935" lon="2.78063">
        <ele>96</ele>
        <time>2024-05-11T15:11:54Z</time>
      </trkpt>
      <trkpt lat="48.39934" lon="2.78055">
        <ele>96</ele>
        <time>2024-05-11T15:12:01Z</time>
      </trkpt>
      <trkpt lat="48.39932" lon="2.78047">
        <ele>96</ele>
        <time>2024-05-11T15:12:05Z</time>
      </trkpt>
      <trkpt lat="48.39931" lon="2.78034">
        <ele>96</ele>
        <time>2024-05-11T15:12:13Z</time>
      </trkpt>
      <trkpt lat="48.3993" lon="2.78022">
        <ele>96</ele>
        <time>2024-05-11T15:12:20Z</time>
      </trkpt>
      <trkpt lat="48.3993" lon="2.78016">
        <ele>96</ele>
        <time>2024-05-11T15:12:26Z</time>
      </trkpt>
      <trkpt lat="48.3993" lon="2.78015">
        <ele>96</ele>
        <time>2024-05-11T15:12:27Z</time>
      </trkpt>
      <trkpt lat="48.39928" lon="2.78002">
        <ele>96</ele>
        <time>2024-05-11T15:12:35Z</time>
      </trkpt>
      <trkpt lat="48.39927" lon="2.77994">
        <ele>96</ele>
        <time>2024-05-11T15:12:39Z</time>
      </trkpt>
      <trkpt lat="48.39929" lon="2.77965">
        <ele>96</ele>
        <time>2024-05-11T15:12:49Z</time>
      </trkpt>
      <trkpt lat="48.39929" lon="2.77964">
        <ele>96</ele>
        <time>2024-05-11T15:12:50Z</time>
      </trkpt>
      <trkpt lat="48.39926" lon="2.77955">
        <ele>96</ele>
        <time>2024-05-11T15:12:56Z</time>
      </trkpt>
      <trkpt lat="48.39924" lon="2.77945">
        <ele>96</ele>
        <time>2024-05-11T15:13:02Z</time>
      </trkpt>
      <trkpt lat="48.39924" lon="2.77927">
        <ele>95.4</ele>
        <time>2024-05-11T15:13:10Z</time>
      </trkpt>
      <trkpt lat="48.39921" lon="2.77919">
        <ele>95.1</ele>
        <time>2024-05-11T15:13:15Z</time>
      </trkpt>
      <trkpt lat="48.3992" lon="2.7791">
        <ele>95</ele>
        <time>2024-05-11T15:13:22Z</time>
      </trkpt>
      <trkpt lat="48.39919" lon="2.77906">
        <ele>95</ele>
        <time>2024-05-11T15:13:29Z</time>
      </trkpt>
      <trkpt lat="48.39918" lon="2.77894">
        <ele>95</ele>
        <time>2024-05-11T15:13:37Z</time>
      </trkpt>
      <trkpt lat="48.39914" lon="2.77882">
        <ele>94.8</ele>
        <time>2024-05-11T15:13:45Z</time>
      </trkpt>
      <trkpt lat="48.39912" lon="2.77878">
        <ele>94.8</ele>
        <time>2024-05-11T15:13:47Z</time>
      </trkpt>
      <trkpt lat="48.39908" lon="2.77856">
        <ele>94.3</ele>
        <time>2024-05-11T15:13:56Z</time>
      </trkpt>
      <trkpt lat="48.39904" lon="2.77841">
        <ele>94.4</ele>
        <time>2024-05-11T15:14:02Z</time>
      </trkpt>
      <trkpt lat="48.39903" lon="2.77838">
        <ele>94.5</ele>
        <time>2024-05-11T15:14:03Z</time>
      </trkpt>
      <trkpt lat="48.39899" lon="2.7782">
        <ele>94.2</ele>
        <time>2024-05-11T15:14:10Z</time>
      </trkpt>
      <trkpt lat="48.39895" lon="2.77806">
        <ele>93.8</ele>
        <time>2024-05-11T15:14:18Z</time>
      </trkpt>
      <trkpt lat="48.39894" lon="2.77804">
        <ele>93.8</ele>
        <time>2024-05-11T15:14:19Z</time>
      </trkpt>
      <trkpt lat="48.3989" lon="2.77792">
        <ele>93.9</ele>
        <time>2024-05-11T15:14:24Z</time>
      </trkpt>
      <trkpt lat="48.39889" lon="2.77784">
        <ele>94</ele>
        <time>2024-05-11T15:14:28Z</time>
      </trkpt>
      <trkpt lat="48.39883" lon="2.77769">
        <ele>93.7</ele>
        <time>2024-05-11T15:14:37Z</time>
      </trkpt>
      <trkpt lat="48.39884" lon="2.77765">
        <ele>93.5</ele>
        <time>2024-05-11T15:14:41Z</time>
      </trkpt>
      <trkpt lat="48.39882" lon="2.77754">
        <ele>93.1</ele>
        <time>2024-05-11T15:14:47Z</time>
      </trkpt>
      <trkpt lat="48.39877" lon="2.77743">
        <ele>93</ele>
        <time>2024-05-11T15:14:55Z</time>
      </trkpt>
      <trkpt lat="48.39874" lon="2.77736">
        <ele>93</ele>
        <time>2024-05-11T15:15:01Z</time>
      </trkpt>
      <trkpt lat="48.39869" lon="2.77725">
        <ele>93</ele>
        <time>2024-05-11T15:15:08Z</time>
      </trkpt>
      <trkpt lat="48.39864" lon="2.77711">
        <ele>92.6</ele>
        <time>2024-05-11T15:15:16Z</time>
      </trkpt>
      <trkpt lat="48.39863" lon="2.77706">
        <ele>92.4</ele>
        <time>2024-05-11T15:15:19Z</time>
      </trkpt>
      <trkpt lat="48.3986" lon="2.77703">
        <ele>92.3</ele>
        <time>2024-05-11T15:15:21Z</time>
      </trkpt>
      <trkpt lat="48.39852" lon="2.77691">
        <ele>92.3</ele>
        <time>2024-05-11T15:15:29Z</time>
      </trkpt>
      <trkpt lat="48.39841" lon="2.77681">
        <ele>92.4</ele>
        <time>2024-05-11T15:15:36Z</time>
      </trkpt>
      <trkpt lat="48.39836" lon="2.77672">
        <ele>92.2</ele>
        <time>2024-05-11T15:15:45Z</time>
      </trkpt>
      <trkpt lat="48.39834" lon="2.77666">
        <ele>92</ele>
        <time>2024-05-11T15:15:49Z</time>
      </trkpt>
      <trkpt lat="48.3983" lon="2.77657">
        <ele>92.1</ele>
        <time>2024-05-11T15:15:56Z</time>
      </trkpt>
      <trkpt lat="48.39829" lon="2.77651">
        <ele>92.2</ele>
        <time>2024-05-11T15:16:02Z</time>
      </trkpt>
      <trkpt lat="48.39827" lon="2.77649">
        <ele>92.2</ele>
        <time>2024-05-11T15:16:04Z</time>
      </trkpt>
      <trkpt lat="48.39821" lon="2.7764">
        <ele>92.4</ele>
        <time>2024-05-11T15:16:10Z</time>
      </trkpt>
      <trkpt lat="48.39819" lon="2.77635">
        <ele>92.4</ele>
        <time>2024-05-11T15:16:13Z</time>
      </trkpt>
      <trkpt lat="48.39813" lon="2.77624">
        <ele>92.2</ele>
        <time>2024-05-11T15:16:21Z</time>
      </trkpt>
      <trkpt lat="48.39812" lon="2.7762">
        <ele>92.1</ele>
        <time>2024-05-11T15:16:24Z</time>
      </trkpt>
      <trkpt lat="48.39808" lon="2.77605">
        <ele>91.9</ele>
        <time>2024-05-11T15:16:33Z</time>
      </trkpt>
      <trkpt lat="48.39807" lon="2.776">
        <ele>91.9</ele>
        <time>2024-05-11T15:16:36Z</time>
      </trkpt>
      <trkpt lat="48.39806" lon="2.77598">
        <ele>92</ele>
        <time>2024-05-11T15:16:38Z</time>
      </trkpt>
      <trkpt lat="48.39803" lon="2.77589">
        <ele>92</ele>
        <time>2024-05-11T15:16:45Z</time>
      </trkpt>
      <trkpt lat="48.39801" lon="2.77579">
        <ele>91.8</ele>
        <time>2024-05-11T15:16:53Z</time>
      </trkpt>
      <trkpt lat="48.398" lon="2.7757">
        <ele>91.5</ele>
        <time>2024-05-11T15:16:59Z</time>
      </trkpt>
      <trkpt lat="48.39804" lon="2.77559">
        <ele>91.1</ele>
        <time>2024-05-11T15:17:05Z</time>
      </trkpt>
      <trkpt lat="48.39807" lon="2.77553">
        <ele>90.9</ele>
        <time>2024-05-11T15:17:10Z</time>
      </trkpt>
      <trkpt lat="48.39807" lon="2.77541">
        <ele>90.4</ele>
        <time>2024-05-11T15:17:18Z</time>
      </trkpt>
      <trkpt lat="48.39807" lon="2.77539">
        <ele>90.4</ele>
        <time>2024-05-11T15:17:19Z</time>
      </trkpt>
      <trkpt lat="48.39805" lon="2.77536">
        <ele>90.3</ele>
        <time>2024-05-11T15:17:21Z</time>
      </trkpt>
      <trkpt lat="48.398" lon="2.77525">
        <ele>90</ele>
        <time>2024-05-11T15:17:28Z</time>
      </trkpt>
      <trkpt lat="48.39795" lon="2.77511">
        <ele>90</ele>
        <time>2024-05-11T15:17:36Z</time>
      </trkpt>
      <trkpt lat="48.3979" lon="2.77501">
        <ele>90</ele>
        <time>2024-05-11T15:17:42Z</time>
      </trkpt>
      <trkpt lat="48.39785" lon="2.77488">
        <ele>89.6</ele>
        <time>2024-05-11T15:17:49Z</time>
      </trkpt>
      <trkpt lat="48.39783" lon="2.77477">
        <ele>89.2</ele>
        <time>2024-05-11T15:17:56Z</time>
      </trkpt>
      <trkpt lat="48.39775" lon="2.77471">
        <ele>89</ele>
        <time>2024-05-11T15:18:02Z</time>
      </trkpt>
      <trkpt lat="48.39765" lon="2.77456">
        <ele>89</ele>
        <time>2024-05-11T15:18:09Z</time>
      </trkpt>
      <trkpt lat="48.39762" lon="2.77437">
        <ele>88.9</ele>
        <time>2024-05-11T15:18:18Z</time>
      </trkpt>
      <trkpt lat="48.39762" lon="2.77432">
        <ele>88.7</ele>
        <time>2024-05-11T15:18:21Z</time>
      </trkpt>
      <trkpt lat="48.39759" lon="2.77417">
        <ele>88.3</ele>
        <time>2024-05-11T15:18:29Z</time>
      </trkpt>
      <trkpt lat="48.39756" lon="2.77408">
        <ele>87.9</ele>
        <time>2024-05-11T15:18:36Z</time>
      </trkpt>
      <trkpt lat="48.39754" lon="2.77401">
        <ele>87.6</ele>
        <time>2024-05-11T15:18:43Z</time>
      </trkpt>
      <trkpt lat="48.39755" lon="2.77399">
        <ele>87.5</ele>
        <time>2024-05-11T15:18:44Z</time>
      </trkpt>
      <trkpt lat="48.39753" lon="2.77389">
        <ele>87.1</ele>
        <time>2024-05-11T15:18:52Z</time>
      </trkpt>
      <trkpt lat="48.39752" lon="2.77378">
        <ele>87</ele>
        <time>2024-05-11T15:18:57Z</time>
      </trkpt>
      <trkpt lat="48.39751" lon="2.77363">
        <ele>87</ele>
        <time>2024-05-11T15:19:04Z</time>
      </trkpt>
      <trkpt lat="48.39752" lon="2.7735">
        <ele>86.6</ele>
        <time>2024-05-11T15:19:11Z</time>
      </trkpt>
      <trkpt lat="48.39752" lon="2.77347">
        <ele>86.5</ele>
        <time>2024-05-11T15:19:12Z</time>
      </trkpt>
      <trkpt lat="48.39751" lon="2.77333">
        <ele>86</ele>
        <time>2024-05-11T15:19:18Z</time>
      </trkpt>
      <trkpt lat="48.39751" lon="2.77322">
        <ele>86</ele>
        <time>2024-05-11T15:19:22Z</time>
      </trkpt>
      <trkpt lat="48.3975" lon="2.77311">
        <ele>86</ele>
        <time>2024-05-11T15:19:29Z</time>
      </trkpt>
      <trkpt lat="48.3975" lon="2.77307">
        <ele>86</ele>
        <time>2024-05-11T15:19:32Z</time>
      </trkpt>
      <trkpt lat="48.3975" lon="2.77296">
        <ele>86</ele>
        <time>2024-05-11T15:19:39Z</time>
      </trkpt>
      <trkpt lat="48.3975" lon="2.77284">
        <ele>86</ele>
        <time>2024-05-11T15:19:44Z</time>
      </trkpt>
      <trkpt lat="48.39751" lon="2.77274">
        <ele>86</ele>
        <time>2024-05-11T15:19:47Z</time>
      </trkpt>
      <trkpt lat="48.39753" lon="2.77264">
        <ele>86</ele>
        <time>2024-05-11T15:19:52Z</time>
      </trkpt>
      <trkpt lat="48.39752" lon="2.77248">
        <ele>86</ele>
        <time>2024-05-11T15:19:59Z</time>
      </trkpt>
      <trkpt lat="48.39752" lon="2.77245">
        <ele>86</ele>
        <time>2024-05-11T15:20:00Z</time>
      </trkpt>
      <trkpt lat="48.39752" lon="2.77232">
        <ele>86</ele>
        <time>2024-05-11T15:20:07Z</time>
      </trkpt>
      <trkpt lat="48.39751" lon="2.77228">
        <ele>86</ele>
        <time>2024-05-11T15:20:12Z</time>
      </trkpt>
      <trkpt lat="48.3975" lon="2.77213">
        <ele>86</ele>
        <time>2024-05-11T15:20:21Z</time>
      </trkpt>
      <trkpt lat="48.3975" lon="2.7721">
        <ele>86</ele>
        <time>2024-05-11T15:20:23Z</time>
      </trkpt>
      <trkpt lat="48.39749" lon="2.77193">
        <ele>86</ele>
        <time>2024-05-11T15:20:31Z</time>
      </trkpt>
      <trkpt lat="48.39749" lon="2.77191">
        <ele>86</ele>
        <time>2024-05-11T15:20:32Z</time>
      </trkpt>
      <trkpt lat="48.3975" lon="2.77178">
        <ele>86</ele>
        <time>2024-05-11T15:20:38Z</time>
      </trkpt>
      <trkpt lat="48.39749" lon="2.77169">
        <ele>86</ele>
        <time>2024-05-11T15:20:44Z</time>
      </trkpt>
      <trkpt lat="48.39749" lon="2.77167">
        <ele>86</ele>
        <time>2024-05-11T15:20:45Z</time>
      </trkpt>
      <trkpt lat="48.3975" lon="2.77155">
        <ele>86</ele>
        <time>2024-05-11T15:20:52Z</time>
      </trkpt>
      <trkpt lat="48.39752" lon="2.77144">
        <ele>86</ele>
        <time>2024-05-11T15:20:59Z</time>
      </trkpt>
      <trkpt lat="48.3975" lon="2.77139">
        <ele>86</ele>
        <time>2024-05-11T15:21:05Z</time>
      </trkpt>
      <trkpt lat="48.3975" lon="2.77133">
        <ele>85.8</ele>
        <time>2024-05-11T15:21:10Z</time>
      </trkpt>
      <trkpt lat="48.39746" lon="2.77124">
        <ele>85.4</ele>
        <time>2024-05-11T15:21:17Z</time>
      </trkpt>
      <trkpt lat="48.39746" lon="2.77122">
        <ele>85.3</ele>
        <time>2024-05-11T15:21:18Z</time>
      </trkpt>
      <trkpt lat="48.39746" lon="2.77118">
        <ele>85.1</ele>
        <time>2024-05-11T15:21:20Z</time>
      </trkpt>
      <trkpt lat="48.39746" lon="2.77099">
        <ele>85.3</ele>
        <time>2024-05-11T15:21:28Z</time>
      </trkpt>
      <trkpt lat="48.39742" lon="2.77092">
        <ele>85.4</ele>
        <time>2024-05-11T15:21:34Z</time>
      </trkpt>
      <trkpt lat="48.3974" lon="2.7708">
        <ele>85.7</ele>
        <time>2024-05-11T15:21:40Z</time>
      </trkpt>
      <trkpt lat="48.3974" lon="2.77075">
        <ele>85.9</ele>
        <time>2024-05-11T15:21:42Z</time>
      </trkpt>
      <trkpt lat="48.3974" lon="2.7707">
        <ele>86</ele>
        <time>2024-05-11T15:21:44Z</time>
      </trkpt>
      <trkpt lat="48.39741" lon="2.77065">
        <ele>86.1</ele>
        <time>2024-05-11T15:21:46Z</time>
      </trkpt>
      <trkpt lat="48.39741" lon="2.77059">
        <ele>86.3</ele>
        <time>2024-05-11T15:21:48Z</time>
      </trkpt>
      <trkpt lat="48.39741" lon="2.77043">
        <ele>86.6</ele>
        <time>2024-05-11T15:21:55Z</time>
      </trkpt>
      <trkpt lat="48.39739" lon="2.77028">
        <ele>87</ele>
        <time>2024-05-11T15:22:02Z</time>
      </trkpt>
      <trkpt lat="48.39738" lon="2.77015">
        <ele>87</ele>
        <time>2024-05-11T15:22:09Z</time>
      </trkpt>
      <trkpt lat="48.39738" lon="2.77008">
        <ele>87</ele>
        <time>2024-05-11T15:22:13Z</time>
      </trkpt>
      <trkpt lat="48.39738" lon="2.76983">
        <ele>87</ele>
        <time>2024-05-11T15:22:21Z</time>
      </trkpt>
      <trkpt lat="48.39739" lon="2.7697">
        <ele>87</ele>
        <time>2024-05-11T15:22:26Z</time>
      </trkpt>
      <trkpt lat="48.39738" lon="2.76954">
        <ele>87</ele>
        <time>2024-05-11T15:22:35Z</time>
      </trkpt>
      <trkpt lat="48.39738" lon="2.76941">
        <ele>87.1</ele>
        <time>2024-05-11T15:22:43Z</time>
      </trkpt>
      <trkpt lat="48.39737" lon="2.76922">
        <ele>87.4</ele>
        <time>2024-05-11T15:22:51Z</time>
      </trkpt>
      <trkpt lat="48.39738" lon="2.76909">
        <ele>87.7</ele>
        <time>2024-05-11T15:22:55Z</time>
      </trkpt>
      <trkpt lat="48.39741" lon="2.76889">
        <ele>88</ele>
        <time>2024-05-11T15:23:03Z</time>
      </trkpt>
      <trkpt lat="48.3974" lon="2.76888">
        <ele>88</ele>
        <time>2024-05-11T15:23:05Z</time>
      </trkpt>
      <trkpt lat="48.39739" lon="2.76875">
        <ele>88</ele>
        <time>2024-05-11T15:23:12Z</time>
      </trkpt>
      <trkpt lat="48.39738" lon="2.76862">
        <ele>88</ele>
        <time>2024-05-11T15:23:20Z</time>
      </trkpt>
      <trkpt lat="48.39739" lon="2.7684">
        <ele>88</ele>
        <time>2024-05-11T15:23:28Z</time>
      </trkpt>
      <trkpt lat="48.39738" lon="2.76831">
        <ele>88</ele>
        <time>2024-05-11T15:23:34Z</time>
      </trkpt>
      <trkpt lat="48.39737" lon="2.76826">
        <ele>88</ele>
        <time>2024-05-11T15:23:39Z</time>
      </trkpt>
      <trkpt lat="48.39736" lon="2.76821">
        <ele>88</ele>
        <time>2024-05-11T15:23:43Z</time>
      </trkpt>
      <trkpt lat="48.39736" lon="2.76817">
        <ele>88</ele>
        <time>2024-05-11T15:23:45Z</time>
      </trkpt>
      <trkpt lat="48.39736" lon="2.76797">
        <ele>88</ele>
        <time>2024-05-11T15:23:53Z</time>
      </trkpt>
      <trkpt lat="48.39736" lon="2.76793">
        <ele>88</ele>
        <time>2024-05-11T15:23:54Z</time>
      </trkpt>
      <trkpt lat="48.39735" lon="2.76789">
        <ele>88</ele>
        <time>2024-05-11T15:23:56Z</time>
      </trkpt>
      <trkpt lat="48.39735" lon="2.76773">
        <ele>88</ele>
        <time>2024-05-11T15:24:03Z</time>
      </trkpt>
      <trkpt lat="48.39735" lon="2.76773">
        <ele>88</ele>
        <time>2024-05-11T15:24:04Z</time>
      </trkpt>
      <trkpt lat="48.39734" lon="2.7676">
        <ele>88</ele>
        <time>2024-05-11T15:24:11Z</time>
      </trkpt>
      <trkpt lat="48.39734" lon="2.76758">
        <ele>88</ele>
        <time>2024-05-11T15:24:12Z</time>
      </trkpt>
      <trkpt lat="48.39733" lon="2.76747">
        <ele>88</ele>
        <time>2024-05-11T15:24:17Z</time>
      </trkpt>
      <trkpt lat="48.39733" lon="2.76739">
        <ele>88</ele>
        <time>2024-05-11T15:24:22Z</time>
      </trkpt>
      <trkpt lat="48.39734" lon="2.76727">
        <ele>88</ele>
        <time>2024-05-11T15:24:26Z</time>
      </trkpt>
      <trkpt lat="48.39737" lon="2.76705">
        <ele>88</ele>
        <time>2024-05-11T15:24:34Z</time>
      </trkpt>
      <trkpt lat="48.39737" lon="2.76692">
        <ele>88</ele>
        <time>2024-05-11T15:24:42Z</time>
      </trkpt>
      <trkpt lat="48.39737" lon="2.76683">
        <ele>88</ele>
        <time>2024-05-11T15:24:50Z</time>
      </trkpt>
      <trkpt lat="48.39736" lon="2.76679">
        <ele>88</ele>
        <time>2024-05-11T15:24:52Z</time>
      </trkpt>
      <trkpt lat="48.39733" lon="2.76667">
        <ele>88</ele>
        <time>2024-05-11T15:25:01Z</time>
      </trkpt>
      <trkpt lat="48.39732" lon="2.76654">
        <ele>88</ele>
        <time>2024-05-11T15:25:09Z</time>
      </trkpt>
      <trkpt lat="48.39729" lon="2.76642">
        <ele>88</ele>
        <time>2024-05-11T15:25:17Z</time>
      </trkpt>
      <trkpt lat="48.39729" lon="2.76639">
        <ele>88</ele>
        <time>2024-05-11T15:25:19Z</time>
      </trkpt>
      <trkpt lat="48.39729" lon="2.76627">
        <ele>88</ele>
        <time>2024-05-11T15:25:26Z</time>
      </trkpt>
      <trkpt lat="48.39729" lon="2.76615">
        <ele>88</ele>
        <time>2024-05-11T15:25:33Z</time>
      </trkpt>
      <trkpt lat="48.39729" lon="2.76601">
        <ele>88</ele>
        <time>2024-05-11T15:25:40Z</time>
      </trkpt>
      <trkpt lat="48.3973" lon="2.76583">
        <ele>88</ele>
        <time>2024-05-11T15:25:47Z</time>
      </trkpt>
      <trkpt lat="48.3973" lon="2.76574">
        <ele>87.8</ele>
        <time>2024-05-11T15:25:53Z</time>
      </trkpt>
      <trkpt lat="48.39729" lon="2.76567">
        <ele>87.6</ele>
        <time>2024-05-11T15:26:00Z</time>
      </trkpt>
      <trkpt lat="48.39729" lon="2.76556">
        <ele>87.2</ele>
        <time>2024-05-11T15:26:05Z</time>
      </trkpt>
      <trkpt lat="48.39731" lon="2.76531">
        <ele>87</ele>
        <time>2024-05-11T15:26:13Z</time>
      </trkpt>
      <trkpt lat="48.39729" lon="2.76517">
        <ele>87</ele>
        <time>2024-05-11T15:26:20Z</time>
      </trkpt>
      <trkpt lat="48.39729" lon="2.76508">
        <ele>87</ele>
        <time>2024-05-11T15:26:25Z</time>
      </trkpt>
      <trkpt lat="48.39728" lon="2.76491">
        <ele>87</ele>
        <time>2024-05-11T15:26:33Z</time>
      </trkpt>
      <trkpt lat="48.39727" lon="2.76481">
        <ele>87</ele>
        <time>2024-05-11T15:26:39Z</time>
      </trkpt>
      <trkpt lat="48.39727" lon="2.76472">
        <ele>87</ele>
        <time>2024-05-11T15:26:45Z</time>
      </trkpt>
      <trkpt lat="48.39726" lon="2.7647">
        <ele>87</ele>
        <time>2024-05-11T15:26:46Z</time>
      </trkpt>
      <trkpt lat="48.39723" lon="2.76462">
        <ele>87</ele>
        <time>2024-05-11T15:26:53Z</time>
      </trkpt>
      <trkpt lat="48.39723" lon="2.76454">
        <ele>87</ele>
        <time>2024-05-11T15:27:01Z</time>
      </trkpt>
      <trkpt lat="48.39727" lon="2.76442">
        <ele>87</ele>
        <time>2024-05-11T15:27:07Z</time>
      </trkpt>
      <trkpt lat="48.39726" lon="2.76438">
        <ele>87</ele>
        <time>2024-05-11T15:27:14Z</time>
      </trkpt>
      <trkpt lat="48.39726" lon="2.76436">
        <ele>87</ele>
        <time>2024-05-11T15:27:21Z</time>
      </trkpt>
      <trkpt lat="48.39723" lon="2.7643">
        <ele>87</ele>
        <time>2024-05-11T15:27:25Z</time>
      </trkpt>
      <trkpt lat="48.3972" lon="2.76427">
        <ele>87</ele>
        <time>2024-05-11T15:27:29Z</time>
      </trkpt>
      <trkpt lat="48.39714" lon="2.76415">
        <ele>87</ele>
        <time>2024-05-11T15:27:39Z</time>
      </trkpt>
      <trkpt lat="48.39712" lon="2.76412">
        <ele>87.1</ele>
        <time>2024-05-11T15:27:42Z</time>
      </trkpt>
      <trkpt lat="48.39709" lon="2.76404">
        <ele>87.2</ele>
        <time>2024-05-11T15:27:49Z</time>
      </trkpt>
      <trkpt lat="48.39702" lon="2.76403">
        <ele>87.1</ele>
        <time>2024-05-11T15:27:59Z</time>
      </trkpt>
      <trkpt lat="48.39692" lon="2.76401">
        <ele>86.9</ele>
        <time>2024-05-11T15:28:08Z</time>
      </trkpt>
      <trkpt lat="48.39682" lon="2.76401">
        <ele>86.8</ele>
        <time>2024-05-11T15:28:16Z</time>
      </trkpt>
      <trkpt lat="48.39676" lon="2.764">
        <ele>86.6</ele>
        <time>2024-05-11T15:28:23Z</time>
      </trkpt>
      <trkpt lat="48.39663" lon="2.76398">
        <ele>86.3</ele>
        <time>2024-05-11T15:28:32Z</time>
      </trkpt>
      <trkpt lat="48.39657" lon="2.76398">
        <ele>86.3</ele>
        <time>2024-05-11T15:28:39Z</time>
      </trkpt>
      <trkpt lat="48.39642" lon="2.76398">
        <ele>86.3</ele>
        <time>2024-05-11T15:28:48Z</time>
      </trkpt>
      <trkpt lat="48.39632" lon="2.76397">
        <ele>86.2</ele>
        <time>2024-05-11T15:28:56Z</time>
      </trkpt>
      <trkpt lat="48.39624" lon="2.76399">
        <ele>86.2</ele>
        <time>2024-05-11T15:29:06Z</time>
      </trkpt>
      <trkpt lat="48.39616" lon="2.76399">
        <ele>86.1</ele>
        <time>2024-05-11T15:29:13Z</time>
      </trkpt>
      <trkpt lat="48.39604" lon="2.76402">
        <ele>86</ele>
        <time>2024-05-11T15:29:21Z</time>
      </trkpt>
      <trkpt lat="48.39598" lon="2.76402">
        <ele>86</ele>
        <time>2024-05-11T15:29:29Z</time>
      </trkpt>
      <trkpt lat="48.39586" lon="2.76402">
        <ele>86</ele>
        <time>2024-05-11T15:29:38Z</time>
      </trkpt>
      <trkpt lat="48.39577" lon="2.76402">
        <ele>86</ele>
        <time>2024-05-11T15:29:46Z</time>
      </trkpt>
      <trkpt lat="48.39573" lon="2.76403">
        <ele>86</ele>
        <time>2024-05-11T15:29:49Z</time>
      </trkpt>
      <trkpt lat="48.39558" lon="2.76399">
        <ele>86</ele>
        <time>2024-05-11T15:29:58Z</time>
      </trkpt>
      <trkpt lat="48.39549" lon="2.76399">
        <ele>86</ele>
        <time>2024-05-11T15:30:08Z</time>
      </trkpt>
      <trkpt lat="48.39542" lon="2.764">
        <ele>86</ele>
        <time>2024-05-11T15:30:18Z</time>
      </trkpt>
      <trkpt lat="48.39536" lon="2.76402">
        <ele>86</ele>
        <time>2024-05-11T15:30:27Z</time>
      </trkpt>
      <trkpt lat="48.39527" lon="2.76404">
        <ele>86</ele>
        <time>2024-05-11T15:30:35Z</time>
      </trkpt>
      <trkpt lat="48.3952" lon="2.76404">
        <ele>86.3</ele>
        <time>2024-05-11T15:30:44Z</time>
      </trkpt>
      <trkpt lat="48.39514" lon="2.76404">
        <ele>86.5</ele>
        <time>2024-05-11T15:30:53Z</time>
      </trkpt>
      <trkpt lat="48.39505" lon="2.76403">
        <ele>86.8</ele>
        <time>2024-05-11T15:31:00Z</time>
      </trkpt>
      <trkpt lat="48.39496" lon="2.76404">
        <ele>87</ele>
        <time>2024-05-11T15:31:08Z</time>
      </trkpt>
      <trkpt lat="48.39491" lon="2.76401">
        <ele>87</ele>
        <time>2024-05-11T15:31:14Z</time>
      </trkpt>
      <trkpt lat="48.39448" lon="2.76389">
        <ele>87</ele>
        <time>2024-05-11T15:31:24Z</time>
      </trkpt>
      <trkpt lat="48.39448" lon="2.76389">
        <ele>87</ele>
        <time>2024-05-11T15:31:26Z</time>
      </trkpt>
      <trkpt lat="48.39449" lon="2.7639">
        <ele>87</ele>
        <time>2024-05-11T15:31:28Z</time>
      </trkpt>
      <trkpt lat="48.39452" lon="2.76395">
        <ele>87</ele>
        <time>2024-05-11T15:31:32Z</time>
      </trkpt>
      <trkpt lat="48.39453" lon="2.76398">
        <ele>87</ele>
        <time>2024-05-11T15:31:34Z</time>
      </trkpt>
      <trkpt lat="48.39459" lon="2.76402">
        <ele>87</ele>
        <time>2024-05-11T15:31:41Z</time>
      </trkpt>
      <trkpt lat="48.39462" lon="2.76403">
        <ele>87</ele>
        <time>2024-05-11T15:31:43Z</time>
      </trkpt>
      <trkpt lat="48.39464" lon="2.76404">
        <ele>87</ele>
        <time>2024-05-11T15:31:44Z</time>
      </trkpt>
      <trkpt lat="48.39466" lon="2.76405">
        <ele>87</ele>
        <time>2024-05-11T15:31:46Z</time>
      </trkpt>
    </trkseg>
  </trk>
</gpx>